<?xml version="1.0" encoding="UTF-8" standalone="no" ?>
<gpx xmlns="http://www.topografix.com/GPX/1/1" xmlns:xsi="http://www.w3.org/2001/XMLSchema-instance" xsi:schemaLocation="http://www.topografix.com/GPX/1/1 http://www.topografix.com/GPX/1/1/gpx.xsd" version="1.1" creator="VisuGPX - https://www.visugpx.com">
  <metadata>
    <name>2016-03-06 09h28 Balade avec Lpm34 et Artur34</name>
    <desc><![CDATA[2016-03-06 09h28 Balade avec Lpm34 et Artur34]]></desc>
  </metadata>
  <trk>
    <name><![CDATA[2016-03-06 09:28 avec Lpm34 et Artur34]]></name>
    <trkseg>
      <trkpt lat="43.61976" lon="3.8381">
        <ele>95.31</ele>
        <time>2016-03-06T08:28:12Z</time>
      </trkpt>
      <trkpt lat="43.61986" lon="3.83807">
        <ele>94.83</ele>
        <time>2016-03-06T08:28:29Z</time>
      </trkpt>
      <trkpt lat="43.61988" lon="3.83792">
        <ele>92.42</ele>
        <time>2016-03-06T08:28:32Z</time>
      </trkpt>
      <trkpt lat="43.61992" lon="3.83784">
        <ele>90.5</ele>
        <time>2016-03-06T08:28:33Z</time>
      </trkpt>
      <trkpt lat="43.61998" lon="3.83778">
        <ele>89.54</ele>
        <time>2016-03-06T08:28:34Z</time>
      </trkpt>
      <trkpt lat="43.62004" lon="3.83771">
        <ele>88.58</ele>
        <time>2016-03-06T08:28:35Z</time>
      </trkpt>
      <trkpt lat="43.62011" lon="3.83764">
        <ele>87.62</ele>
        <time>2016-03-06T08:28:36Z</time>
      </trkpt>
      <trkpt lat="43.62095" lon="3.83689">
        <ele>86.18</ele>
        <time>2016-03-06T08:28:45Z</time>
      </trkpt>
      <trkpt lat="43.62215" lon="3.83598">
        <ele>81.85</ele>
        <time>2016-03-06T08:28:58Z</time>
      </trkpt>
      <trkpt lat="43.62226" lon="3.83588">
        <ele>79.93</ele>
        <time>2016-03-06T08:29:00Z</time>
      </trkpt>
      <trkpt lat="43.62231" lon="3.83582">
        <ele>79.93</ele>
        <time>2016-03-06T08:29:01Z</time>
      </trkpt>
      <trkpt lat="43.62235" lon="3.83576">
        <ele>79.93</ele>
        <time>2016-03-06T08:29:02Z</time>
      </trkpt>
      <trkpt lat="43.62236" lon="3.83571">
        <ele>78.48</ele>
        <time>2016-03-06T08:29:03Z</time>
      </trkpt>
      <trkpt lat="43.62238" lon="3.83567">
        <ele>78.97</ele>
        <time>2016-03-06T08:29:04Z</time>
      </trkpt>
      <trkpt lat="43.62245" lon="3.83549">
        <ele>81.37</ele>
        <time>2016-03-06T08:29:11Z</time>
      </trkpt>
      <trkpt lat="43.62285" lon="3.83464">
        <ele>79.93</ele>
        <time>2016-03-06T08:29:18Z</time>
      </trkpt>
      <trkpt lat="43.62299" lon="3.83437">
        <ele>79.45</ele>
        <time>2016-03-06T08:29:20Z</time>
      </trkpt>
      <trkpt lat="43.62309" lon="3.83427">
        <ele>78.97</ele>
        <time>2016-03-06T08:29:21Z</time>
      </trkpt>
      <trkpt lat="43.6232" lon="3.83419">
        <ele>78.48</ele>
        <time>2016-03-06T08:29:22Z</time>
      </trkpt>
      <trkpt lat="43.62332" lon="3.83413">
        <ele>78</ele>
        <time>2016-03-06T08:29:23Z</time>
      </trkpt>
      <trkpt lat="43.62345" lon="3.83408">
        <ele>77.52</ele>
        <time>2016-03-06T08:29:24Z</time>
      </trkpt>
      <trkpt lat="43.62358" lon="3.83405">
        <ele>76.56</ele>
        <time>2016-03-06T08:29:25Z</time>
      </trkpt>
      <trkpt lat="43.62371" lon="3.83406">
        <ele>76.08</ele>
        <time>2016-03-06T08:29:26Z</time>
      </trkpt>
      <trkpt lat="43.62384" lon="3.8341">
        <ele>76.08</ele>
        <time>2016-03-06T08:29:27Z</time>
      </trkpt>
      <trkpt lat="43.62397" lon="3.83416">
        <ele>75.6</ele>
        <time>2016-03-06T08:29:28Z</time>
      </trkpt>
      <trkpt lat="43.62411" lon="3.83425">
        <ele>75.6</ele>
        <time>2016-03-06T08:29:29Z</time>
      </trkpt>
      <trkpt lat="43.62424" lon="3.83434">
        <ele>75.6</ele>
        <time>2016-03-06T08:29:30Z</time>
      </trkpt>
      <trkpt lat="43.62436" lon="3.83446">
        <ele>75.6</ele>
        <time>2016-03-06T08:29:31Z</time>
      </trkpt>
      <trkpt lat="43.62448" lon="3.83459">
        <ele>75.6</ele>
        <time>2016-03-06T08:29:32Z</time>
      </trkpt>
      <trkpt lat="43.62459" lon="3.83473">
        <ele>75.6</ele>
        <time>2016-03-06T08:29:33Z</time>
      </trkpt>
      <trkpt lat="43.62469" lon="3.83487">
        <ele>75.6</ele>
        <time>2016-03-06T08:29:34Z</time>
      </trkpt>
      <trkpt lat="43.62477" lon="3.83502">
        <ele>75.6</ele>
        <time>2016-03-06T08:29:35Z</time>
      </trkpt>
      <trkpt lat="43.62484" lon="3.83517">
        <ele>75.6</ele>
        <time>2016-03-06T08:29:36Z</time>
      </trkpt>
      <trkpt lat="43.6249" lon="3.83531">
        <ele>75.6</ele>
        <time>2016-03-06T08:29:37Z</time>
      </trkpt>
      <trkpt lat="43.62494" lon="3.83546">
        <ele>75.6</ele>
        <time>2016-03-06T08:29:38Z</time>
      </trkpt>
      <trkpt lat="43.62496" lon="3.83559">
        <ele>75.6</ele>
        <time>2016-03-06T08:29:39Z</time>
      </trkpt>
      <trkpt lat="43.62496" lon="3.83572">
        <ele>76.08</ele>
        <time>2016-03-06T08:29:40Z</time>
      </trkpt>
      <trkpt lat="43.62493" lon="3.83585">
        <ele>76.08</ele>
        <time>2016-03-06T08:29:41Z</time>
      </trkpt>
      <trkpt lat="43.62488" lon="3.83597">
        <ele>76.08</ele>
        <time>2016-03-06T08:29:42Z</time>
      </trkpt>
      <trkpt lat="43.62483" lon="3.8361">
        <ele>75.6</ele>
        <time>2016-03-06T08:29:43Z</time>
      </trkpt>
      <trkpt lat="43.62479" lon="3.83624">
        <ele>75.6</ele>
        <time>2016-03-06T08:29:44Z</time>
      </trkpt>
      <trkpt lat="43.62477" lon="3.83639">
        <ele>75.6</ele>
        <time>2016-03-06T08:29:45Z</time>
      </trkpt>
      <trkpt lat="43.62478" lon="3.83654">
        <ele>75.12</ele>
        <time>2016-03-06T08:29:46Z</time>
      </trkpt>
      <trkpt lat="43.62482" lon="3.83669">
        <ele>75.12</ele>
        <time>2016-03-06T08:29:47Z</time>
      </trkpt>
      <trkpt lat="43.6249" lon="3.83682">
        <ele>75.12</ele>
        <time>2016-03-06T08:29:48Z</time>
      </trkpt>
      <trkpt lat="43.62501" lon="3.83691">
        <ele>75.12</ele>
        <time>2016-03-06T08:29:49Z</time>
      </trkpt>
      <trkpt lat="43.62513" lon="3.83696">
        <ele>74.64</ele>
        <time>2016-03-06T08:29:50Z</time>
      </trkpt>
      <trkpt lat="43.62523" lon="3.83699">
        <ele>74.64</ele>
        <time>2016-03-06T08:29:51Z</time>
      </trkpt>
      <trkpt lat="43.62536" lon="3.83699">
        <ele>74.16</ele>
        <time>2016-03-06T08:29:52Z</time>
      </trkpt>
      <trkpt lat="43.62549" lon="3.83703">
        <ele>73.68</ele>
        <time>2016-03-06T08:29:53Z</time>
      </trkpt>
      <trkpt lat="43.62561" lon="3.83711">
        <ele>73.2</ele>
        <time>2016-03-06T08:29:54Z</time>
      </trkpt>
      <trkpt lat="43.62572" lon="3.83723">
        <ele>72.72</ele>
        <time>2016-03-06T08:29:55Z</time>
      </trkpt>
      <trkpt lat="43.62583" lon="3.83737">
        <ele>72.24</ele>
        <time>2016-03-06T08:29:56Z</time>
      </trkpt>
      <trkpt lat="43.62594" lon="3.83752">
        <ele>71.76</ele>
        <time>2016-03-06T08:29:57Z</time>
      </trkpt>
      <trkpt lat="43.62604" lon="3.83767">
        <ele>70.79</ele>
        <time>2016-03-06T08:29:58Z</time>
      </trkpt>
      <trkpt lat="43.62726" lon="3.83964">
        <ele>65.03</ele>
        <time>2016-03-06T08:30:09Z</time>
      </trkpt>
      <trkpt lat="43.62894" lon="3.84145">
        <ele>60.22</ele>
        <time>2016-03-06T08:30:21Z</time>
      </trkpt>
      <trkpt lat="43.63013" lon="3.84198">
        <ele>59.26</ele>
        <time>2016-03-06T08:30:29Z</time>
      </trkpt>
      <trkpt lat="43.63064" lon="3.84221">
        <ele>58.78</ele>
        <time>2016-03-06T08:30:33Z</time>
      </trkpt>
      <trkpt lat="43.63072" lon="3.84231">
        <ele>58.78</ele>
        <time>2016-03-06T08:30:34Z</time>
      </trkpt>
      <trkpt lat="43.63078" lon="3.84244">
        <ele>58.78</ele>
        <time>2016-03-06T08:30:35Z</time>
      </trkpt>
      <trkpt lat="43.63083" lon="3.84259">
        <ele>57.82</ele>
        <time>2016-03-06T08:30:36Z</time>
      </trkpt>
      <trkpt lat="43.63091" lon="3.84272">
        <ele>57.34</ele>
        <time>2016-03-06T08:30:37Z</time>
      </trkpt>
      <trkpt lat="43.63101" lon="3.84282">
        <ele>57.34</ele>
        <time>2016-03-06T08:30:38Z</time>
      </trkpt>
      <trkpt lat="43.63112" lon="3.84287">
        <ele>56.86</ele>
        <time>2016-03-06T08:30:39Z</time>
      </trkpt>
      <trkpt lat="43.63124" lon="3.84289">
        <ele>56.86</ele>
        <time>2016-03-06T08:30:40Z</time>
      </trkpt>
      <trkpt lat="43.63137" lon="3.84287">
        <ele>56.86</ele>
        <time>2016-03-06T08:30:41Z</time>
      </trkpt>
      <trkpt lat="43.6315" lon="3.84281">
        <ele>56.86</ele>
        <time>2016-03-06T08:30:42Z</time>
      </trkpt>
      <trkpt lat="43.63164" lon="3.84275">
        <ele>56.86</ele>
        <time>2016-03-06T08:30:43Z</time>
      </trkpt>
      <trkpt lat="43.63179" lon="3.84272">
        <ele>56.86</ele>
        <time>2016-03-06T08:30:44Z</time>
      </trkpt>
      <trkpt lat="43.63194" lon="3.84274">
        <ele>57.34</ele>
        <time>2016-03-06T08:30:45Z</time>
      </trkpt>
      <trkpt lat="43.63209" lon="3.84279">
        <ele>57.34</ele>
        <time>2016-03-06T08:30:46Z</time>
      </trkpt>
      <trkpt lat="43.63224" lon="3.84285">
        <ele>57.34</ele>
        <time>2016-03-06T08:30:47Z</time>
      </trkpt>
      <trkpt lat="43.63357" lon="3.84325">
        <ele>58.78</ele>
        <time>2016-03-06T08:30:57Z</time>
      </trkpt>
      <trkpt lat="43.63501" lon="3.84387">
        <ele>59.26</ele>
        <time>2016-03-06T08:31:07Z</time>
      </trkpt>
      <trkpt lat="43.63659" lon="3.84479">
        <ele>57.82</ele>
        <time>2016-03-06T08:31:18Z</time>
      </trkpt>
      <trkpt lat="43.63803" lon="3.84622">
        <ele>59.74</ele>
        <time>2016-03-06T08:31:29Z</time>
      </trkpt>
      <trkpt lat="43.63813" lon="3.84638">
        <ele>59.74</ele>
        <time>2016-03-06T08:31:30Z</time>
      </trkpt>
      <trkpt lat="43.63821" lon="3.84655">
        <ele>59.74</ele>
        <time>2016-03-06T08:31:31Z</time>
      </trkpt>
      <trkpt lat="43.63827" lon="3.84674">
        <ele>59.26</ele>
        <time>2016-03-06T08:31:32Z</time>
      </trkpt>
      <trkpt lat="43.63834" lon="3.84692">
        <ele>58.78</ele>
        <time>2016-03-06T08:31:33Z</time>
      </trkpt>
      <trkpt lat="43.63841" lon="3.84708">
        <ele>58.78</ele>
        <time>2016-03-06T08:31:34Z</time>
      </trkpt>
      <trkpt lat="43.63898" lon="3.8474">
        <ele>57.82</ele>
        <time>2016-03-06T08:31:39Z</time>
      </trkpt>
      <trkpt lat="43.63917" lon="3.84738">
        <ele>58.78</ele>
        <time>2016-03-06T08:31:40Z</time>
      </trkpt>
      <trkpt lat="43.64032" lon="3.84748">
        <ele>65.51</ele>
        <time>2016-03-06T08:31:48Z</time>
      </trkpt>
      <trkpt lat="43.64049" lon="3.8475">
        <ele>65.99</ele>
        <time>2016-03-06T08:31:50Z</time>
      </trkpt>
      <trkpt lat="43.64058" lon="3.84755">
        <ele>66.47</ele>
        <time>2016-03-06T08:31:51Z</time>
      </trkpt>
      <trkpt lat="43.64078" lon="3.84766">
        <ele>67.43</ele>
        <time>2016-03-06T08:31:53Z</time>
      </trkpt>
      <trkpt lat="43.6409" lon="3.84767">
        <ele>67.91</ele>
        <time>2016-03-06T08:31:54Z</time>
      </trkpt>
      <trkpt lat="43.641" lon="3.84761">
        <ele>67.91</ele>
        <time>2016-03-06T08:31:55Z</time>
      </trkpt>
      <trkpt lat="43.64109" lon="3.84751">
        <ele>67.91</ele>
        <time>2016-03-06T08:31:56Z</time>
      </trkpt>
      <trkpt lat="43.64115" lon="3.84738">
        <ele>67.91</ele>
        <time>2016-03-06T08:31:57Z</time>
      </trkpt>
      <trkpt lat="43.64119" lon="3.84723">
        <ele>67.91</ele>
        <time>2016-03-06T08:31:58Z</time>
      </trkpt>
      <trkpt lat="43.6412" lon="3.84709">
        <ele>67.43</ele>
        <time>2016-03-06T08:31:59Z</time>
      </trkpt>
      <trkpt lat="43.64117" lon="3.84695">
        <ele>66.47</ele>
        <time>2016-03-06T08:32:00Z</time>
      </trkpt>
      <trkpt lat="43.64112" lon="3.84683">
        <ele>65.99</ele>
        <time>2016-03-06T08:32:01Z</time>
      </trkpt>
      <trkpt lat="43.64104" lon="3.84672">
        <ele>65.99</ele>
        <time>2016-03-06T08:32:02Z</time>
      </trkpt>
      <trkpt lat="43.64095" lon="3.84663">
        <ele>65.51</ele>
        <time>2016-03-06T08:32:03Z</time>
      </trkpt>
      <trkpt lat="43.64086" lon="3.84655">
        <ele>65.51</ele>
        <time>2016-03-06T08:32:04Z</time>
      </trkpt>
      <trkpt lat="43.64079" lon="3.84646">
        <ele>65.51</ele>
        <time>2016-03-06T08:32:05Z</time>
      </trkpt>
      <trkpt lat="43.64075" lon="3.84636">
        <ele>65.03</ele>
        <time>2016-03-06T08:32:06Z</time>
      </trkpt>
      <trkpt lat="43.64073" lon="3.84624">
        <ele>65.03</ele>
        <time>2016-03-06T08:32:07Z</time>
      </trkpt>
      <trkpt lat="43.64075" lon="3.84612">
        <ele>64.55</ele>
        <time>2016-03-06T08:32:08Z</time>
      </trkpt>
      <trkpt lat="43.64077" lon="3.84601">
        <ele>64.55</ele>
        <time>2016-03-06T08:32:09Z</time>
      </trkpt>
      <trkpt lat="43.64081" lon="3.84593">
        <ele>64.55</ele>
        <time>2016-03-06T08:32:10Z</time>
      </trkpt>
      <trkpt lat="43.64084" lon="3.84587">
        <ele>65.03</ele>
        <time>2016-03-06T08:32:11Z</time>
      </trkpt>
      <trkpt lat="43.64088" lon="3.84584">
        <ele>65.03</ele>
        <time>2016-03-06T08:32:12Z</time>
      </trkpt>
      <trkpt lat="43.64092" lon="3.84584">
        <ele>64.55</ele>
        <time>2016-03-06T08:32:13Z</time>
      </trkpt>
      <trkpt lat="43.64096" lon="3.84587">
        <ele>64.55</ele>
        <time>2016-03-06T08:32:14Z</time>
      </trkpt>
      <trkpt lat="43.64098" lon="3.8459">
        <ele>64.55</ele>
        <time>2016-03-06T08:32:15Z</time>
      </trkpt>
      <trkpt lat="43.64101" lon="3.84594">
        <ele>64.55</ele>
        <time>2016-03-06T08:32:16Z</time>
      </trkpt>
      <trkpt lat="43.64104" lon="3.84599">
        <ele>64.55</ele>
        <time>2016-03-06T08:32:17Z</time>
      </trkpt>
      <trkpt lat="43.64107" lon="3.84601">
        <ele>64.55</ele>
        <time>2016-03-06T08:32:18Z</time>
      </trkpt>
      <trkpt lat="43.64111" lon="3.84604">
        <ele>64.55</ele>
        <time>2016-03-06T08:32:19Z</time>
      </trkpt>
      <trkpt lat="43.64114" lon="3.84607">
        <ele>64.07</ele>
        <time>2016-03-06T08:32:20Z</time>
      </trkpt>
      <trkpt lat="43.64117" lon="3.8461">
        <ele>64.07</ele>
        <time>2016-03-06T08:32:21Z</time>
      </trkpt>
      <trkpt lat="43.6412" lon="3.84613">
        <ele>63.58</ele>
        <time>2016-03-06T08:32:22Z</time>
      </trkpt>
      <trkpt lat="43.64122" lon="3.84615">
        <ele>63.58</ele>
        <time>2016-03-06T08:32:23Z</time>
      </trkpt>
      <trkpt lat="43.64126" lon="3.84615">
        <ele>65.03</ele>
        <time>2016-03-06T08:32:33Z</time>
      </trkpt>
      <trkpt lat="43.64121" lon="3.84603">
        <ele>81.37</ele>
        <time>2016-03-06T08:36:35Z</time>
      </trkpt>
      <trkpt lat="43.64141" lon="3.84599">
        <ele>74.64</ele>
        <time>2016-03-06T08:37:29Z</time>
      </trkpt>
      <trkpt lat="43.64144" lon="3.84595">
        <ele>74.64</ele>
        <time>2016-03-06T08:37:30Z</time>
      </trkpt>
      <trkpt lat="43.64145" lon="3.84591">
        <ele>74.64</ele>
        <time>2016-03-06T08:37:31Z</time>
      </trkpt>
      <trkpt lat="43.64144" lon="3.84586">
        <ele>74.64</ele>
        <time>2016-03-06T08:37:32Z</time>
      </trkpt>
      <trkpt lat="43.64143" lon="3.84582">
        <ele>74.64</ele>
        <time>2016-03-06T08:37:33Z</time>
      </trkpt>
      <trkpt lat="43.6414" lon="3.8457">
        <ele>74.64</ele>
        <time>2016-03-06T08:37:36Z</time>
      </trkpt>
      <trkpt lat="43.64121" lon="3.84572">
        <ele>72.72</ele>
        <time>2016-03-06T08:37:42Z</time>
      </trkpt>
      <trkpt lat="43.64087" lon="3.84577">
        <ele>71.76</ele>
        <time>2016-03-06T08:37:51Z</time>
      </trkpt>
      <trkpt lat="43.64084" lon="3.84582">
        <ele>71.27</ele>
        <time>2016-03-06T08:37:52Z</time>
      </trkpt>
      <trkpt lat="43.64081" lon="3.84594">
        <ele>70.31</ele>
        <time>2016-03-06T08:37:53Z</time>
      </trkpt>
      <trkpt lat="43.64078" lon="3.84604">
        <ele>69.83</ele>
        <time>2016-03-06T08:37:54Z</time>
      </trkpt>
      <trkpt lat="43.64075" lon="3.84614">
        <ele>69.35</ele>
        <time>2016-03-06T08:37:55Z</time>
      </trkpt>
      <trkpt lat="43.64073" lon="3.84624">
        <ele>68.87</ele>
        <time>2016-03-06T08:37:56Z</time>
      </trkpt>
      <trkpt lat="43.64068" lon="3.84655">
        <ele>67.91</ele>
        <time>2016-03-06T08:37:59Z</time>
      </trkpt>
      <trkpt lat="43.64064" lon="3.84665">
        <ele>67.91</ele>
        <time>2016-03-06T08:38:00Z</time>
      </trkpt>
      <trkpt lat="43.64059" lon="3.84675">
        <ele>67.43</ele>
        <time>2016-03-06T08:38:01Z</time>
      </trkpt>
      <trkpt lat="43.64053" lon="3.84685">
        <ele>67.43</ele>
        <time>2016-03-06T08:38:02Z</time>
      </trkpt>
      <trkpt lat="43.64047" lon="3.84697">
        <ele>67.43</ele>
        <time>2016-03-06T08:38:03Z</time>
      </trkpt>
      <trkpt lat="43.64044" lon="3.84711">
        <ele>67.43</ele>
        <time>2016-03-06T08:38:04Z</time>
      </trkpt>
      <trkpt lat="43.64044" lon="3.84725">
        <ele>67.43</ele>
        <time>2016-03-06T08:38:05Z</time>
      </trkpt>
      <trkpt lat="43.64046" lon="3.8474">
        <ele>67.43</ele>
        <time>2016-03-06T08:38:06Z</time>
      </trkpt>
      <trkpt lat="43.64052" lon="3.84752">
        <ele>67.43</ele>
        <time>2016-03-06T08:38:07Z</time>
      </trkpt>
      <trkpt lat="43.6406" lon="3.84763">
        <ele>67.43</ele>
        <time>2016-03-06T08:38:08Z</time>
      </trkpt>
      <trkpt lat="43.64071" lon="3.84768">
        <ele>67.43</ele>
        <time>2016-03-06T08:38:09Z</time>
      </trkpt>
      <trkpt lat="43.64082" lon="3.8477">
        <ele>67.43</ele>
        <time>2016-03-06T08:38:10Z</time>
      </trkpt>
      <trkpt lat="43.64093" lon="3.84766">
        <ele>67.43</ele>
        <time>2016-03-06T08:38:11Z</time>
      </trkpt>
      <trkpt lat="43.64104" lon="3.84758">
        <ele>67.43</ele>
        <time>2016-03-06T08:38:12Z</time>
      </trkpt>
      <trkpt lat="43.64112" lon="3.84747">
        <ele>67.91</ele>
        <time>2016-03-06T08:38:13Z</time>
      </trkpt>
      <trkpt lat="43.64118" lon="3.84734">
        <ele>67.43</ele>
        <time>2016-03-06T08:38:14Z</time>
      </trkpt>
      <trkpt lat="43.64121" lon="3.8472">
        <ele>66.95</ele>
        <time>2016-03-06T08:38:15Z</time>
      </trkpt>
      <trkpt lat="43.64123" lon="3.84704">
        <ele>66.47</ele>
        <time>2016-03-06T08:38:16Z</time>
      </trkpt>
      <trkpt lat="43.64126" lon="3.84689">
        <ele>65.99</ele>
        <time>2016-03-06T08:38:17Z</time>
      </trkpt>
      <trkpt lat="43.64131" lon="3.84675">
        <ele>65.03</ele>
        <time>2016-03-06T08:38:18Z</time>
      </trkpt>
      <trkpt lat="43.6414" lon="3.84662">
        <ele>64.55</ele>
        <time>2016-03-06T08:38:19Z</time>
      </trkpt>
      <trkpt lat="43.64152" lon="3.84651">
        <ele>64.55</ele>
        <time>2016-03-06T08:38:20Z</time>
      </trkpt>
      <trkpt lat="43.64164" lon="3.84642">
        <ele>65.03</ele>
        <time>2016-03-06T08:38:21Z</time>
      </trkpt>
      <trkpt lat="43.64316" lon="3.84503">
        <ele>69.83</ele>
        <time>2016-03-06T08:38:33Z</time>
      </trkpt>
      <trkpt lat="43.64478" lon="3.84331">
        <ele>75.6</ele>
        <time>2016-03-06T08:38:45Z</time>
      </trkpt>
      <trkpt lat="43.64731" lon="3.84153">
        <ele>87.14</ele>
        <time>2016-03-06T08:38:59Z</time>
      </trkpt>
      <trkpt lat="43.64928" lon="3.83999">
        <ele>96.27</ele>
        <time>2016-03-06T08:39:09Z</time>
      </trkpt>
      <trkpt lat="43.65154" lon="3.8375">
        <ele>99.63</ele>
        <time>2016-03-06T08:39:21Z</time>
      </trkpt>
      <trkpt lat="43.65286" lon="3.83624">
        <ele>101.56</ele>
        <time>2016-03-06T08:39:28Z</time>
      </trkpt>
      <trkpt lat="43.65421" lon="3.83542">
        <ele>99.15</ele>
        <time>2016-03-06T08:39:36Z</time>
      </trkpt>
      <trkpt lat="43.6549" lon="3.83505">
        <ele>99.63</ele>
        <time>2016-03-06T08:39:42Z</time>
      </trkpt>
      <trkpt lat="43.65496" lon="3.83502">
        <ele>100.11</ele>
        <time>2016-03-06T08:39:43Z</time>
      </trkpt>
      <trkpt lat="43.65499" lon="3.83498">
        <ele>100.11</ele>
        <time>2016-03-06T08:39:44Z</time>
      </trkpt>
      <trkpt lat="43.655" lon="3.83495">
        <ele>100.11</ele>
        <time>2016-03-06T08:39:45Z</time>
      </trkpt>
      <trkpt lat="43.65497" lon="3.83487">
        <ele>100.11</ele>
        <time>2016-03-06T08:39:50Z</time>
      </trkpt>
      <trkpt lat="43.65492" lon="3.83481">
        <ele>100.11</ele>
        <time>2016-03-06T08:39:51Z</time>
      </trkpt>
      <trkpt lat="43.65473" lon="3.83464">
        <ele>101.08</ele>
        <time>2016-03-06T08:39:54Z</time>
      </trkpt>
      <trkpt lat="43.65469" lon="3.83457">
        <ele>101.08</ele>
        <time>2016-03-06T08:39:55Z</time>
      </trkpt>
      <trkpt lat="43.65465" lon="3.83449">
        <ele>101.08</ele>
        <time>2016-03-06T08:39:56Z</time>
      </trkpt>
      <trkpt lat="43.65465" lon="3.83439">
        <ele>101.08</ele>
        <time>2016-03-06T08:39:57Z</time>
      </trkpt>
      <trkpt lat="43.6547" lon="3.8343">
        <ele>100.6</ele>
        <time>2016-03-06T08:39:58Z</time>
      </trkpt>
      <trkpt lat="43.65477" lon="3.83421">
        <ele>100.11</ele>
        <time>2016-03-06T08:39:59Z</time>
      </trkpt>
      <trkpt lat="43.65486" lon="3.83411">
        <ele>100.11</ele>
        <time>2016-03-06T08:40:00Z</time>
      </trkpt>
      <trkpt lat="43.65604" lon="3.83267">
        <ele>97.23</ele>
        <time>2016-03-06T08:40:11Z</time>
      </trkpt>
      <trkpt lat="43.65765" lon="3.83071">
        <ele>97.71</ele>
        <time>2016-03-06T08:40:24Z</time>
      </trkpt>
      <trkpt lat="43.65805" lon="3.83028">
        <ele>97.71</ele>
        <time>2016-03-06T08:40:28Z</time>
      </trkpt>
      <trkpt lat="43.65813" lon="3.83022">
        <ele>98.19</ele>
        <time>2016-03-06T08:40:29Z</time>
      </trkpt>
      <trkpt lat="43.65821" lon="3.83019">
        <ele>98.19</ele>
        <time>2016-03-06T08:40:30Z</time>
      </trkpt>
      <trkpt lat="43.65828" lon="3.83018">
        <ele>98.19</ele>
        <time>2016-03-06T08:40:31Z</time>
      </trkpt>
      <trkpt lat="43.65833" lon="3.83018">
        <ele>98.19</ele>
        <time>2016-03-06T08:40:32Z</time>
      </trkpt>
      <trkpt lat="43.65835" lon="3.83013">
        <ele>98.19</ele>
        <time>2016-03-06T08:40:33Z</time>
      </trkpt>
      <trkpt lat="43.65833" lon="3.83007">
        <ele>98.19</ele>
        <time>2016-03-06T08:40:34Z</time>
      </trkpt>
      <trkpt lat="43.6583" lon="3.82998">
        <ele>97.71</ele>
        <time>2016-03-06T08:40:35Z</time>
      </trkpt>
      <trkpt lat="43.65826" lon="3.82987">
        <ele>97.23</ele>
        <time>2016-03-06T08:40:36Z</time>
      </trkpt>
      <trkpt lat="43.65823" lon="3.82972">
        <ele>96.75</ele>
        <time>2016-03-06T08:40:37Z</time>
      </trkpt>
      <trkpt lat="43.65823" lon="3.82953">
        <ele>96.75</ele>
        <time>2016-03-06T08:40:38Z</time>
      </trkpt>
      <trkpt lat="43.65823" lon="3.82932">
        <ele>96.75</ele>
        <time>2016-03-06T08:40:39Z</time>
      </trkpt>
      <trkpt lat="43.65822" lon="3.82709">
        <ele>96.75</ele>
        <time>2016-03-06T08:40:48Z</time>
      </trkpt>
      <trkpt lat="43.6582" lon="3.82419">
        <ele>91.94</ele>
        <time>2016-03-06T08:40:59Z</time>
      </trkpt>
      <trkpt lat="43.65807" lon="3.82134">
        <ele>89.06</ele>
        <time>2016-03-06T08:41:10Z</time>
      </trkpt>
      <trkpt lat="43.6576" lon="3.81843">
        <ele>90.5</ele>
        <time>2016-03-06T08:41:21Z</time>
      </trkpt>
      <trkpt lat="43.65755" lon="3.81822">
        <ele>90.98</ele>
        <time>2016-03-06T08:41:22Z</time>
      </trkpt>
      <trkpt lat="43.65749" lon="3.81801">
        <ele>90.98</ele>
        <time>2016-03-06T08:41:23Z</time>
      </trkpt>
      <trkpt lat="43.65741" lon="3.81781">
        <ele>91.94</ele>
        <time>2016-03-06T08:41:24Z</time>
      </trkpt>
      <trkpt lat="43.65684" lon="3.81625">
        <ele>91.46</ele>
        <time>2016-03-06T08:41:32Z</time>
      </trkpt>
      <trkpt lat="43.65646" lon="3.81416">
        <ele>82.33</ele>
        <time>2016-03-06T08:41:41Z</time>
      </trkpt>
      <trkpt lat="43.65638" lon="3.81395">
        <ele>81.85</ele>
        <time>2016-03-06T08:41:42Z</time>
      </trkpt>
      <trkpt lat="43.65628" lon="3.81375">
        <ele>81.37</ele>
        <time>2016-03-06T08:41:43Z</time>
      </trkpt>
      <trkpt lat="43.65617" lon="3.81356">
        <ele>81.37</ele>
        <time>2016-03-06T08:41:44Z</time>
      </trkpt>
      <trkpt lat="43.65604" lon="3.81337">
        <ele>80.89</ele>
        <time>2016-03-06T08:41:45Z</time>
      </trkpt>
      <trkpt lat="43.65519" lon="3.81206">
        <ele>79.93</ele>
        <time>2016-03-06T08:41:52Z</time>
      </trkpt>
      <trkpt lat="43.65505" lon="3.81193">
        <ele>79.45</ele>
        <time>2016-03-06T08:41:53Z</time>
      </trkpt>
      <trkpt lat="43.6549" lon="3.81184">
        <ele>79.45</ele>
        <time>2016-03-06T08:41:54Z</time>
      </trkpt>
      <trkpt lat="43.65471" lon="3.81182">
        <ele>78.97</ele>
        <time>2016-03-06T08:41:55Z</time>
      </trkpt>
      <trkpt lat="43.65454" lon="3.81179">
        <ele>78.97</ele>
        <time>2016-03-06T08:41:56Z</time>
      </trkpt>
      <trkpt lat="43.65422" lon="3.81169">
        <ele>78.48</ele>
        <time>2016-03-06T08:41:58Z</time>
      </trkpt>
      <trkpt lat="43.65407" lon="3.81159">
        <ele>78.48</ele>
        <time>2016-03-06T08:41:59Z</time>
      </trkpt>
      <trkpt lat="43.65394" lon="3.81144">
        <ele>78.48</ele>
        <time>2016-03-06T08:42:00Z</time>
      </trkpt>
      <trkpt lat="43.65381" lon="3.81127">
        <ele>78</ele>
        <time>2016-03-06T08:42:01Z</time>
      </trkpt>
      <trkpt lat="43.65369" lon="3.81108">
        <ele>78</ele>
        <time>2016-03-06T08:42:02Z</time>
      </trkpt>
      <trkpt lat="43.65255" lon="3.80947">
        <ele>79.45</ele>
        <time>2016-03-06T08:42:12Z</time>
      </trkpt>
      <trkpt lat="43.6521" lon="3.80883">
        <ele>79.93</ele>
        <time>2016-03-06T08:42:20Z</time>
      </trkpt>
      <trkpt lat="43.65134" lon="3.80771">
        <ele>80.89</ele>
        <time>2016-03-06T08:42:30Z</time>
      </trkpt>
      <trkpt lat="43.65099" lon="3.80696">
        <ele>82.33</ele>
        <time>2016-03-06T08:42:36Z</time>
      </trkpt>
      <trkpt lat="43.65095" lon="3.80681">
        <ele>82.33</ele>
        <time>2016-03-06T08:42:37Z</time>
      </trkpt>
      <trkpt lat="43.65049" lon="3.80528">
        <ele>83.77</ele>
        <time>2016-03-06T08:42:49Z</time>
      </trkpt>
      <trkpt lat="43.6501" lon="3.80409">
        <ele>82.81</ele>
        <time>2016-03-06T08:42:58Z</time>
      </trkpt>
      <trkpt lat="43.64966" lon="3.80282">
        <ele>83.29</ele>
        <time>2016-03-06T08:43:08Z</time>
      </trkpt>
      <trkpt lat="43.64945" lon="3.80169">
        <ele>81.85</ele>
        <time>2016-03-06T08:43:17Z</time>
      </trkpt>
      <trkpt lat="43.64937" lon="3.80009">
        <ele>80.41</ele>
        <time>2016-03-06T08:43:28Z</time>
      </trkpt>
      <trkpt lat="43.64904" lon="3.7987">
        <ele>76.08</ele>
        <time>2016-03-06T08:43:39Z</time>
      </trkpt>
      <trkpt lat="43.64889" lon="3.79833">
        <ele>75.6</ele>
        <time>2016-03-06T08:43:47Z</time>
      </trkpt>
      <trkpt lat="43.64886" lon="3.79829">
        <ele>75.12</ele>
        <time>2016-03-06T08:43:48Z</time>
      </trkpt>
      <trkpt lat="43.64881" lon="3.79826">
        <ele>75.12</ele>
        <time>2016-03-06T08:43:49Z</time>
      </trkpt>
      <trkpt lat="43.64875" lon="3.79825">
        <ele>74.64</ele>
        <time>2016-03-06T08:43:50Z</time>
      </trkpt>
      <trkpt lat="43.64844" lon="3.79821">
        <ele>73.2</ele>
        <time>2016-03-06T08:43:54Z</time>
      </trkpt>
      <trkpt lat="43.64836" lon="3.79819">
        <ele>72.72</ele>
        <time>2016-03-06T08:43:55Z</time>
      </trkpt>
      <trkpt lat="43.64778" lon="3.79802">
        <ele>70.31</ele>
        <time>2016-03-06T08:44:04Z</time>
      </trkpt>
      <trkpt lat="43.64778" lon="3.79803">
        <ele>69.83</ele>
        <time>2016-03-06T08:44:19Z</time>
      </trkpt>
      <trkpt lat="43.64772" lon="3.79798">
        <ele>69.35</ele>
        <time>2016-03-06T08:44:48Z</time>
      </trkpt>
      <trkpt lat="43.6477" lon="3.79792">
        <ele>69.35</ele>
        <time>2016-03-06T08:44:49Z</time>
      </trkpt>
      <trkpt lat="43.64772" lon="3.79782">
        <ele>68.87</ele>
        <time>2016-03-06T08:44:50Z</time>
      </trkpt>
      <trkpt lat="43.64776" lon="3.79774">
        <ele>68.87</ele>
        <time>2016-03-06T08:44:51Z</time>
      </trkpt>
      <trkpt lat="43.64781" lon="3.79766">
        <ele>69.35</ele>
        <time>2016-03-06T08:44:52Z</time>
      </trkpt>
      <trkpt lat="43.64814" lon="3.79708">
        <ele>70.79</ele>
        <time>2016-03-06T08:44:59Z</time>
      </trkpt>
      <trkpt lat="43.64818" lon="3.79698">
        <ele>70.79</ele>
        <time>2016-03-06T08:45:00Z</time>
      </trkpt>
      <trkpt lat="43.64876" lon="3.7958">
        <ele>71.76</ele>
        <time>2016-03-06T08:45:11Z</time>
      </trkpt>
      <trkpt lat="43.64945" lon="3.79436">
        <ele>71.27</ele>
        <time>2016-03-06T08:45:23Z</time>
      </trkpt>
      <trkpt lat="43.64976" lon="3.79325">
        <ele>71.76</ele>
        <time>2016-03-06T08:45:31Z</time>
      </trkpt>
      <trkpt lat="43.64999" lon="3.79213">
        <ele>73.2</ele>
        <time>2016-03-06T08:45:40Z</time>
      </trkpt>
      <trkpt lat="43.65003" lon="3.792">
        <ele>73.2</ele>
        <time>2016-03-06T08:45:41Z</time>
      </trkpt>
      <trkpt lat="43.65009" lon="3.79187">
        <ele>73.2</ele>
        <time>2016-03-06T08:45:42Z</time>
      </trkpt>
      <trkpt lat="43.65016" lon="3.79176">
        <ele>73.68</ele>
        <time>2016-03-06T08:45:43Z</time>
      </trkpt>
      <trkpt lat="43.65025" lon="3.79167">
        <ele>73.68</ele>
        <time>2016-03-06T08:45:44Z</time>
      </trkpt>
      <trkpt lat="43.65033" lon="3.79158">
        <ele>73.2</ele>
        <time>2016-03-06T08:45:45Z</time>
      </trkpt>
      <trkpt lat="43.65039" lon="3.79148">
        <ele>73.68</ele>
        <time>2016-03-06T08:45:46Z</time>
      </trkpt>
      <trkpt lat="43.65044" lon="3.79137">
        <ele>73.68</ele>
        <time>2016-03-06T08:45:47Z</time>
      </trkpt>
      <trkpt lat="43.65048" lon="3.79127">
        <ele>73.2</ele>
        <time>2016-03-06T08:45:48Z</time>
      </trkpt>
      <trkpt lat="43.65052" lon="3.79117">
        <ele>73.2</ele>
        <time>2016-03-06T08:45:49Z</time>
      </trkpt>
      <trkpt lat="43.65058" lon="3.79107">
        <ele>73.2</ele>
        <time>2016-03-06T08:45:50Z</time>
      </trkpt>
      <trkpt lat="43.65064" lon="3.79099">
        <ele>73.68</ele>
        <time>2016-03-06T08:45:51Z</time>
      </trkpt>
      <trkpt lat="43.65074" lon="3.79085">
        <ele>73.68</ele>
        <time>2016-03-06T08:45:53Z</time>
      </trkpt>
      <trkpt lat="43.65075" lon="3.79077">
        <ele>74.16</ele>
        <time>2016-03-06T08:45:54Z</time>
      </trkpt>
      <trkpt lat="43.65076" lon="3.79068">
        <ele>73.68</ele>
        <time>2016-03-06T08:45:55Z</time>
      </trkpt>
      <trkpt lat="43.6508" lon="3.7906">
        <ele>73.2</ele>
        <time>2016-03-06T08:45:56Z</time>
      </trkpt>
      <trkpt lat="43.65086" lon="3.7905">
        <ele>73.2</ele>
        <time>2016-03-06T08:45:57Z</time>
      </trkpt>
      <trkpt lat="43.65092" lon="3.79041">
        <ele>72.72</ele>
        <time>2016-03-06T08:45:58Z</time>
      </trkpt>
      <trkpt lat="43.65096" lon="3.7903">
        <ele>72.24</ele>
        <time>2016-03-06T08:45:59Z</time>
      </trkpt>
      <trkpt lat="43.65099" lon="3.79019">
        <ele>72.24</ele>
        <time>2016-03-06T08:46:00Z</time>
      </trkpt>
      <trkpt lat="43.65101" lon="3.79008">
        <ele>71.76</ele>
        <time>2016-03-06T08:46:01Z</time>
      </trkpt>
      <trkpt lat="43.65101" lon="3.78996">
        <ele>71.76</ele>
        <time>2016-03-06T08:46:02Z</time>
      </trkpt>
      <trkpt lat="43.65099" lon="3.78983">
        <ele>71.27</ele>
        <time>2016-03-06T08:46:03Z</time>
      </trkpt>
      <trkpt lat="43.65095" lon="3.78969">
        <ele>71.27</ele>
        <time>2016-03-06T08:46:04Z</time>
      </trkpt>
      <trkpt lat="43.65091" lon="3.78956">
        <ele>71.27</ele>
        <time>2016-03-06T08:46:05Z</time>
      </trkpt>
      <trkpt lat="43.65075" lon="3.78903">
        <ele>70.79</ele>
        <time>2016-03-06T08:46:09Z</time>
      </trkpt>
      <trkpt lat="43.65074" lon="3.78889">
        <ele>70.31</ele>
        <time>2016-03-06T08:46:10Z</time>
      </trkpt>
      <trkpt lat="43.65077" lon="3.78873">
        <ele>70.31</ele>
        <time>2016-03-06T08:46:11Z</time>
      </trkpt>
      <trkpt lat="43.65082" lon="3.7886">
        <ele>69.83</ele>
        <time>2016-03-06T08:46:12Z</time>
      </trkpt>
      <trkpt lat="43.65091" lon="3.78849">
        <ele>69.35</ele>
        <time>2016-03-06T08:46:13Z</time>
      </trkpt>
      <trkpt lat="43.65102" lon="3.78841">
        <ele>68.87</ele>
        <time>2016-03-06T08:46:14Z</time>
      </trkpt>
      <trkpt lat="43.65115" lon="3.78833">
        <ele>69.83</ele>
        <time>2016-03-06T08:46:15Z</time>
      </trkpt>
      <trkpt lat="43.65128" lon="3.78824">
        <ele>69.83</ele>
        <time>2016-03-06T08:46:16Z</time>
      </trkpt>
      <trkpt lat="43.652" lon="3.78775">
        <ele>69.83</ele>
        <time>2016-03-06T08:46:22Z</time>
      </trkpt>
      <trkpt lat="43.65209" lon="3.78766">
        <ele>69.83</ele>
        <time>2016-03-06T08:46:23Z</time>
      </trkpt>
      <trkpt lat="43.65214" lon="3.78754">
        <ele>69.35</ele>
        <time>2016-03-06T08:46:24Z</time>
      </trkpt>
      <trkpt lat="43.65215" lon="3.7874">
        <ele>69.35</ele>
        <time>2016-03-06T08:46:25Z</time>
      </trkpt>
      <trkpt lat="43.65214" lon="3.78724">
        <ele>69.35</ele>
        <time>2016-03-06T08:46:26Z</time>
      </trkpt>
      <trkpt lat="43.65212" lon="3.78707">
        <ele>69.83</ele>
        <time>2016-03-06T08:46:27Z</time>
      </trkpt>
      <trkpt lat="43.6521" lon="3.78689">
        <ele>69.83</ele>
        <time>2016-03-06T08:46:28Z</time>
      </trkpt>
      <trkpt lat="43.65198" lon="3.78567">
        <ele>74.64</ele>
        <time>2016-03-06T08:46:36Z</time>
      </trkpt>
      <trkpt lat="43.65193" lon="3.78531">
        <ele>75.6</ele>
        <time>2016-03-06T08:46:38Z</time>
      </trkpt>
      <trkpt lat="43.65193" lon="3.78516">
        <ele>76.56</ele>
        <time>2016-03-06T08:46:39Z</time>
      </trkpt>
      <trkpt lat="43.65194" lon="3.78501">
        <ele>77.52</ele>
        <time>2016-03-06T08:46:40Z</time>
      </trkpt>
      <trkpt lat="43.65199" lon="3.78463">
        <ele>78.97</ele>
        <time>2016-03-06T08:46:43Z</time>
      </trkpt>
      <trkpt lat="43.65198" lon="3.78446">
        <ele>79.45</ele>
        <time>2016-03-06T08:46:44Z</time>
      </trkpt>
      <trkpt lat="43.65196" lon="3.78428">
        <ele>79.93</ele>
        <time>2016-03-06T08:46:45Z</time>
      </trkpt>
      <trkpt lat="43.6517" lon="3.7828">
        <ele>84.73</ele>
        <time>2016-03-06T08:46:54Z</time>
      </trkpt>
      <trkpt lat="43.65167" lon="3.78211">
        <ele>87.62</ele>
        <time>2016-03-06T08:46:59Z</time>
      </trkpt>
      <trkpt lat="43.65169" lon="3.78196">
        <ele>88.1</ele>
        <time>2016-03-06T08:47:00Z</time>
      </trkpt>
      <trkpt lat="43.65172" lon="3.7818">
        <ele>89.06</ele>
        <time>2016-03-06T08:47:01Z</time>
      </trkpt>
      <trkpt lat="43.65183" lon="3.78114">
        <ele>91.46</ele>
        <time>2016-03-06T08:47:05Z</time>
      </trkpt>
      <trkpt lat="43.65182" lon="3.78097">
        <ele>91.94</ele>
        <time>2016-03-06T08:47:06Z</time>
      </trkpt>
      <trkpt lat="43.65179" lon="3.7808">
        <ele>92.42</ele>
        <time>2016-03-06T08:47:07Z</time>
      </trkpt>
      <trkpt lat="43.65176" lon="3.78065">
        <ele>92.9</ele>
        <time>2016-03-06T08:47:08Z</time>
      </trkpt>
      <trkpt lat="43.65172" lon="3.78051">
        <ele>93.39</ele>
        <time>2016-03-06T08:47:09Z</time>
      </trkpt>
      <trkpt lat="43.65167" lon="3.7804">
        <ele>93.39</ele>
        <time>2016-03-06T08:47:10Z</time>
      </trkpt>
      <trkpt lat="43.65158" lon="3.78035">
        <ele>93.39</ele>
        <time>2016-03-06T08:47:11Z</time>
      </trkpt>
      <trkpt lat="43.65149" lon="3.78036">
        <ele>93.87</ele>
        <time>2016-03-06T08:47:12Z</time>
      </trkpt>
      <trkpt lat="43.6514" lon="3.78037">
        <ele>93.87</ele>
        <time>2016-03-06T08:47:13Z</time>
      </trkpt>
      <trkpt lat="43.65131" lon="3.78036">
        <ele>94.35</ele>
        <time>2016-03-06T08:47:14Z</time>
      </trkpt>
      <trkpt lat="43.65124" lon="3.7803">
        <ele>94.83</ele>
        <time>2016-03-06T08:47:15Z</time>
      </trkpt>
      <trkpt lat="43.6512" lon="3.7802">
        <ele>94.83</ele>
        <time>2016-03-06T08:47:16Z</time>
      </trkpt>
      <trkpt lat="43.65118" lon="3.78005">
        <ele>95.31</ele>
        <time>2016-03-06T08:47:17Z</time>
      </trkpt>
      <trkpt lat="43.65117" lon="3.77987">
        <ele>95.79</ele>
        <time>2016-03-06T08:47:18Z</time>
      </trkpt>
      <trkpt lat="43.65114" lon="3.77967">
        <ele>95.79</ele>
        <time>2016-03-06T08:47:19Z</time>
      </trkpt>
      <trkpt lat="43.6509" lon="3.77849">
        <ele>100.11</ele>
        <time>2016-03-06T08:47:24Z</time>
      </trkpt>
      <trkpt lat="43.65082" lon="3.77827">
        <ele>101.08</ele>
        <time>2016-03-06T08:47:25Z</time>
      </trkpt>
      <trkpt lat="43.65073" lon="3.77806">
        <ele>102.04</ele>
        <time>2016-03-06T08:47:26Z</time>
      </trkpt>
      <trkpt lat="43.65063" lon="3.77785">
        <ele>103</ele>
        <time>2016-03-06T08:47:27Z</time>
      </trkpt>
      <trkpt lat="43.65053" lon="3.77767">
        <ele>103.96</ele>
        <time>2016-03-06T08:47:28Z</time>
      </trkpt>
      <trkpt lat="43.65041" lon="3.77754">
        <ele>104.44</ele>
        <time>2016-03-06T08:47:29Z</time>
      </trkpt>
      <trkpt lat="43.65028" lon="3.77747">
        <ele>104.92</ele>
        <time>2016-03-06T08:47:30Z</time>
      </trkpt>
      <trkpt lat="43.65013" lon="3.77744">
        <ele>105.4</ele>
        <time>2016-03-06T08:47:31Z</time>
      </trkpt>
      <trkpt lat="43.64996" lon="3.77742">
        <ele>105.88</ele>
        <time>2016-03-06T08:47:32Z</time>
      </trkpt>
      <trkpt lat="43.64976" lon="3.7774">
        <ele>107.32</ele>
        <time>2016-03-06T08:47:33Z</time>
      </trkpt>
      <trkpt lat="43.64859" lon="3.77729">
        <ele>111.65</ele>
        <time>2016-03-06T08:47:39Z</time>
      </trkpt>
      <trkpt lat="43.64843" lon="3.77734">
        <ele>112.61</ele>
        <time>2016-03-06T08:47:40Z</time>
      </trkpt>
      <trkpt lat="43.64826" lon="3.77738">
        <ele>113.57</ele>
        <time>2016-03-06T08:47:41Z</time>
      </trkpt>
      <trkpt lat="43.64809" lon="3.77737">
        <ele>114.05</ele>
        <time>2016-03-06T08:47:42Z</time>
      </trkpt>
      <trkpt lat="43.64792" lon="3.77733">
        <ele>114.53</ele>
        <time>2016-03-06T08:47:43Z</time>
      </trkpt>
      <trkpt lat="43.64775" lon="3.77729">
        <ele>115.5</ele>
        <time>2016-03-06T08:47:44Z</time>
      </trkpt>
      <trkpt lat="43.64743" lon="3.77715">
        <ele>116.94</ele>
        <time>2016-03-06T08:47:46Z</time>
      </trkpt>
      <trkpt lat="43.64729" lon="3.777">
        <ele>117.42</ele>
        <time>2016-03-06T08:47:47Z</time>
      </trkpt>
      <trkpt lat="43.64717" lon="3.77682">
        <ele>118.38</ele>
        <time>2016-03-06T08:47:48Z</time>
      </trkpt>
      <trkpt lat="43.64708" lon="3.77661">
        <ele>118.86</ele>
        <time>2016-03-06T08:47:49Z</time>
      </trkpt>
      <trkpt lat="43.64698" lon="3.77641">
        <ele>119.82</ele>
        <time>2016-03-06T08:47:50Z</time>
      </trkpt>
      <trkpt lat="43.64687" lon="3.77624">
        <ele>120.3</ele>
        <time>2016-03-06T08:47:51Z</time>
      </trkpt>
      <trkpt lat="43.64673" lon="3.77612">
        <ele>121.26</ele>
        <time>2016-03-06T08:47:52Z</time>
      </trkpt>
      <trkpt lat="43.64659" lon="3.77605">
        <ele>121.74</ele>
        <time>2016-03-06T08:47:53Z</time>
      </trkpt>
      <trkpt lat="43.64644" lon="3.77601">
        <ele>122.22</ele>
        <time>2016-03-06T08:47:54Z</time>
      </trkpt>
      <trkpt lat="43.64631" lon="3.77597">
        <ele>122.71</ele>
        <time>2016-03-06T08:47:55Z</time>
      </trkpt>
      <trkpt lat="43.6462" lon="3.7759">
        <ele>123.67</ele>
        <time>2016-03-06T08:47:56Z</time>
      </trkpt>
      <trkpt lat="43.64613" lon="3.77579">
        <ele>124.15</ele>
        <time>2016-03-06T08:47:57Z</time>
      </trkpt>
      <trkpt lat="43.64611" lon="3.77563">
        <ele>125.11</ele>
        <time>2016-03-06T08:47:58Z</time>
      </trkpt>
      <trkpt lat="43.64612" lon="3.77544">
        <ele>125.59</ele>
        <time>2016-03-06T08:47:59Z</time>
      </trkpt>
      <trkpt lat="43.64614" lon="3.77524">
        <ele>126.07</ele>
        <time>2016-03-06T08:48:00Z</time>
      </trkpt>
      <trkpt lat="43.64619" lon="3.77502">
        <ele>127.03</ele>
        <time>2016-03-06T08:48:01Z</time>
      </trkpt>
      <trkpt lat="43.64628" lon="3.77482">
        <ele>127.51</ele>
        <time>2016-03-06T08:48:02Z</time>
      </trkpt>
      <trkpt lat="43.64636" lon="3.77464">
        <ele>127.99</ele>
        <time>2016-03-06T08:48:03Z</time>
      </trkpt>
      <trkpt lat="43.64643" lon="3.77446">
        <ele>128.47</ele>
        <time>2016-03-06T08:48:04Z</time>
      </trkpt>
      <trkpt lat="43.64646" lon="3.77425">
        <ele>129.43</ele>
        <time>2016-03-06T08:48:05Z</time>
      </trkpt>
      <trkpt lat="43.64645" lon="3.77404">
        <ele>129.43</ele>
        <time>2016-03-06T08:48:06Z</time>
      </trkpt>
      <trkpt lat="43.64644" lon="3.77382">
        <ele>130.4</ele>
        <time>2016-03-06T08:48:07Z</time>
      </trkpt>
      <trkpt lat="43.64642" lon="3.77358">
        <ele>130.4</ele>
        <time>2016-03-06T08:48:08Z</time>
      </trkpt>
      <trkpt lat="43.64634" lon="3.77263">
        <ele>132.32</ele>
        <time>2016-03-06T08:48:12Z</time>
      </trkpt>
      <trkpt lat="43.64628" lon="3.77241">
        <ele>132.8</ele>
        <time>2016-03-06T08:48:13Z</time>
      </trkpt>
      <trkpt lat="43.64619" lon="3.772">
        <ele>133.76</ele>
        <time>2016-03-06T08:48:15Z</time>
      </trkpt>
      <trkpt lat="43.64619" lon="3.7718">
        <ele>134.24</ele>
        <time>2016-03-06T08:48:16Z</time>
      </trkpt>
      <trkpt lat="43.64624" lon="3.7716">
        <ele>135.2</ele>
        <time>2016-03-06T08:48:17Z</time>
      </trkpt>
      <trkpt lat="43.6463" lon="3.77138">
        <ele>136.16</ele>
        <time>2016-03-06T08:48:18Z</time>
      </trkpt>
      <trkpt lat="43.64637" lon="3.77116">
        <ele>136.64</ele>
        <time>2016-03-06T08:48:19Z</time>
      </trkpt>
      <trkpt lat="43.64656" lon="3.77042">
        <ele>139.53</ele>
        <time>2016-03-06T08:48:23Z</time>
      </trkpt>
      <trkpt lat="43.64657" lon="3.77026">
        <ele>139.53</ele>
        <time>2016-03-06T08:48:24Z</time>
      </trkpt>
      <trkpt lat="43.64659" lon="3.76916">
        <ele>140.01</ele>
        <time>2016-03-06T08:48:29Z</time>
      </trkpt>
      <trkpt lat="43.6466" lon="3.76831">
        <ele>139.53</ele>
        <time>2016-03-06T08:48:33Z</time>
      </trkpt>
      <trkpt lat="43.64655" lon="3.76815">
        <ele>139.05</ele>
        <time>2016-03-06T08:48:34Z</time>
      </trkpt>
      <trkpt lat="43.64646" lon="3.76802">
        <ele>138.57</ele>
        <time>2016-03-06T08:48:35Z</time>
      </trkpt>
      <trkpt lat="43.64634" lon="3.76793">
        <ele>138.09</ele>
        <time>2016-03-06T08:48:36Z</time>
      </trkpt>
      <trkpt lat="43.64619" lon="3.76787">
        <ele>138.09</ele>
        <time>2016-03-06T08:48:37Z</time>
      </trkpt>
      <trkpt lat="43.64604" lon="3.76779">
        <ele>138.09</ele>
        <time>2016-03-06T08:48:38Z</time>
      </trkpt>
      <trkpt lat="43.6459" lon="3.76766">
        <ele>138.09</ele>
        <time>2016-03-06T08:48:39Z</time>
      </trkpt>
      <trkpt lat="43.64577" lon="3.76748">
        <ele>138.57</ele>
        <time>2016-03-06T08:48:40Z</time>
      </trkpt>
      <trkpt lat="43.64567" lon="3.76729">
        <ele>139.53</ele>
        <time>2016-03-06T08:48:41Z</time>
      </trkpt>
      <trkpt lat="43.64557" lon="3.76708">
        <ele>140.01</ele>
        <time>2016-03-06T08:48:42Z</time>
      </trkpt>
      <trkpt lat="43.64546" lon="3.76689">
        <ele>140.49</ele>
        <time>2016-03-06T08:48:43Z</time>
      </trkpt>
      <trkpt lat="43.64532" lon="3.7667">
        <ele>140.49</ele>
        <time>2016-03-06T08:48:44Z</time>
      </trkpt>
      <trkpt lat="43.64507" lon="3.76634">
        <ele>140.49</ele>
        <time>2016-03-06T08:48:46Z</time>
      </trkpt>
      <trkpt lat="43.64498" lon="3.76611">
        <ele>140.01</ele>
        <time>2016-03-06T08:48:47Z</time>
      </trkpt>
      <trkpt lat="43.64492" lon="3.76584">
        <ele>140.01</ele>
        <time>2016-03-06T08:48:48Z</time>
      </trkpt>
      <trkpt lat="43.64487" lon="3.76555">
        <ele>139.53</ele>
        <time>2016-03-06T08:48:49Z</time>
      </trkpt>
      <trkpt lat="43.64483" lon="3.76525">
        <ele>139.53</ele>
        <time>2016-03-06T08:48:50Z</time>
      </trkpt>
      <trkpt lat="43.64481" lon="3.76495">
        <ele>139.05</ele>
        <time>2016-03-06T08:48:51Z</time>
      </trkpt>
      <trkpt lat="43.64438" lon="3.76269">
        <ele>140.97</ele>
        <time>2016-03-06T08:48:59Z</time>
      </trkpt>
      <trkpt lat="43.64388" lon="3.76083">
        <ele>144.34</ele>
        <time>2016-03-06T08:49:06Z</time>
      </trkpt>
      <trkpt lat="43.64337" lon="3.75834">
        <ele>143.37</ele>
        <time>2016-03-06T08:49:14Z</time>
      </trkpt>
      <trkpt lat="43.64253" lon="3.75528">
        <ele>143.85</ele>
        <time>2016-03-06T08:49:24Z</time>
      </trkpt>
      <trkpt lat="43.64197" lon="3.75343">
        <ele>148.18</ele>
        <time>2016-03-06T08:49:31Z</time>
      </trkpt>
      <trkpt lat="43.64097" lon="3.75126">
        <ele>155.39</ele>
        <time>2016-03-06T08:49:39Z</time>
      </trkpt>
      <trkpt lat="43.64039" lon="3.75013">
        <ele>158.75</ele>
        <time>2016-03-06T08:49:44Z</time>
      </trkpt>
      <trkpt lat="43.64025" lon="3.75">
        <ele>159.72</ele>
        <time>2016-03-06T08:49:45Z</time>
      </trkpt>
      <trkpt lat="43.64011" lon="3.7499">
        <ele>160.2</ele>
        <time>2016-03-06T08:49:46Z</time>
      </trkpt>
      <trkpt lat="43.63997" lon="3.74981">
        <ele>160.68</ele>
        <time>2016-03-06T08:49:47Z</time>
      </trkpt>
      <trkpt lat="43.63983" lon="3.74973">
        <ele>161.16</ele>
        <time>2016-03-06T08:49:48Z</time>
      </trkpt>
      <trkpt lat="43.63945" lon="3.74953">
        <ele>162.6</ele>
        <time>2016-03-06T08:49:51Z</time>
      </trkpt>
      <trkpt lat="43.63934" lon="3.74952">
        <ele>163.08</ele>
        <time>2016-03-06T08:49:52Z</time>
      </trkpt>
      <trkpt lat="43.63924" lon="3.74953">
        <ele>163.56</ele>
        <time>2016-03-06T08:49:53Z</time>
      </trkpt>
      <trkpt lat="43.6391" lon="3.74954">
        <ele>164.52</ele>
        <time>2016-03-06T08:49:55Z</time>
      </trkpt>
      <trkpt lat="43.63906" lon="3.74953">
        <ele>164.52</ele>
        <time>2016-03-06T08:49:56Z</time>
      </trkpt>
      <trkpt lat="43.63903" lon="3.74952">
        <ele>165</ele>
        <time>2016-03-06T08:49:57Z</time>
      </trkpt>
      <trkpt lat="43.63903" lon="3.74949">
        <ele>165</ele>
        <time>2016-03-06T08:50:01Z</time>
      </trkpt>
      <trkpt lat="43.63903" lon="3.74945">
        <ele>165</ele>
        <time>2016-03-06T08:50:02Z</time>
      </trkpt>
      <trkpt lat="43.63909" lon="3.74938">
        <ele>164.52</ele>
        <time>2016-03-06T08:50:03Z</time>
      </trkpt>
      <trkpt lat="43.63915" lon="3.74927">
        <ele>164.04</ele>
        <time>2016-03-06T08:50:04Z</time>
      </trkpt>
      <trkpt lat="43.63923" lon="3.74915">
        <ele>163.56</ele>
        <time>2016-03-06T08:50:05Z</time>
      </trkpt>
      <trkpt lat="43.63975" lon="3.74799">
        <ele>160.68</ele>
        <time>2016-03-06T08:50:11Z</time>
      </trkpt>
      <trkpt lat="43.64055" lon="3.74555">
        <ele>159.72</ele>
        <time>2016-03-06T08:50:21Z</time>
      </trkpt>
      <trkpt lat="43.64127" lon="3.74331">
        <ele>160.2</ele>
        <time>2016-03-06T08:50:33Z</time>
      </trkpt>
      <trkpt lat="43.64147" lon="3.74247">
        <ele>160.2</ele>
        <time>2016-03-06T08:50:39Z</time>
      </trkpt>
      <trkpt lat="43.64151" lon="3.74239">
        <ele>160.2</ele>
        <time>2016-03-06T08:50:40Z</time>
      </trkpt>
      <trkpt lat="43.64156" lon="3.74231">
        <ele>160.2</ele>
        <time>2016-03-06T08:50:41Z</time>
      </trkpt>
      <trkpt lat="43.64161" lon="3.74223">
        <ele>160.2</ele>
        <time>2016-03-06T08:50:42Z</time>
      </trkpt>
      <trkpt lat="43.64163" lon="3.74214">
        <ele>160.2</ele>
        <time>2016-03-06T08:50:43Z</time>
      </trkpt>
      <trkpt lat="43.64163" lon="3.74206">
        <ele>160.2</ele>
        <time>2016-03-06T08:50:44Z</time>
      </trkpt>
      <trkpt lat="43.64159" lon="3.742">
        <ele>160.2</ele>
        <time>2016-03-06T08:50:45Z</time>
      </trkpt>
      <trkpt lat="43.6415" lon="3.74199">
        <ele>159.72</ele>
        <time>2016-03-06T08:50:46Z</time>
      </trkpt>
      <trkpt lat="43.64142" lon="3.74199">
        <ele>159.72</ele>
        <time>2016-03-06T08:50:47Z</time>
      </trkpt>
      <trkpt lat="43.64133" lon="3.74198">
        <ele>159.24</ele>
        <time>2016-03-06T08:50:48Z</time>
      </trkpt>
      <trkpt lat="43.64124" lon="3.74192">
        <ele>159.24</ele>
        <time>2016-03-06T08:50:49Z</time>
      </trkpt>
      <trkpt lat="43.64117" lon="3.74182">
        <ele>158.75</ele>
        <time>2016-03-06T08:50:50Z</time>
      </trkpt>
      <trkpt lat="43.64113" lon="3.74166">
        <ele>158.75</ele>
        <time>2016-03-06T08:50:51Z</time>
      </trkpt>
      <trkpt lat="43.64111" lon="3.74147">
        <ele>158.27</ele>
        <time>2016-03-06T08:50:52Z</time>
      </trkpt>
      <trkpt lat="43.64114" lon="3.74126">
        <ele>157.79</ele>
        <time>2016-03-06T08:50:53Z</time>
      </trkpt>
      <trkpt lat="43.64118" lon="3.74105">
        <ele>157.31</ele>
        <time>2016-03-06T08:50:54Z</time>
      </trkpt>
      <trkpt lat="43.64121" lon="3.74083">
        <ele>157.31</ele>
        <time>2016-03-06T08:50:55Z</time>
      </trkpt>
      <trkpt lat="43.6412" lon="3.74059">
        <ele>156.83</ele>
        <time>2016-03-06T08:50:56Z</time>
      </trkpt>
      <trkpt lat="43.64116" lon="3.74032">
        <ele>156.35</ele>
        <time>2016-03-06T08:50:57Z</time>
      </trkpt>
      <trkpt lat="43.64065" lon="3.73827">
        <ele>153.47</ele>
        <time>2016-03-06T08:51:04Z</time>
      </trkpt>
      <trkpt lat="43.64031" lon="3.73598">
        <ele>151.06</ele>
        <time>2016-03-06T08:51:11Z</time>
      </trkpt>
      <trkpt lat="43.64025" lon="3.73467">
        <ele>149.62</ele>
        <time>2016-03-06T08:51:15Z</time>
      </trkpt>
      <trkpt lat="43.64028" lon="3.73434">
        <ele>149.62</ele>
        <time>2016-03-06T08:51:16Z</time>
      </trkpt>
      <trkpt lat="43.64037" lon="3.73336">
        <ele>148.66</ele>
        <time>2016-03-06T08:51:19Z</time>
      </trkpt>
      <trkpt lat="43.64036" lon="3.73304">
        <ele>148.18</ele>
        <time>2016-03-06T08:51:20Z</time>
      </trkpt>
      <trkpt lat="43.64032" lon="3.73206">
        <ele>146.26</ele>
        <time>2016-03-06T08:51:23Z</time>
      </trkpt>
      <trkpt lat="43.64034" lon="3.73173">
        <ele>145.78</ele>
        <time>2016-03-06T08:51:24Z</time>
      </trkpt>
      <trkpt lat="43.64051" lon="3.73037">
        <ele>144.34</ele>
        <time>2016-03-06T08:51:28Z</time>
      </trkpt>
      <trkpt lat="43.64051" lon="3.73003">
        <ele>143.85</ele>
        <time>2016-03-06T08:51:29Z</time>
      </trkpt>
      <trkpt lat="43.64051" lon="3.72937">
        <ele>142.89</ele>
        <time>2016-03-06T08:51:31Z</time>
      </trkpt>
      <trkpt lat="43.64055" lon="3.72905">
        <ele>142.41</ele>
        <time>2016-03-06T08:51:32Z</time>
      </trkpt>
      <trkpt lat="43.64062" lon="3.72873">
        <ele>142.41</ele>
        <time>2016-03-06T08:51:33Z</time>
      </trkpt>
      <trkpt lat="43.64081" lon="3.72777">
        <ele>141.45</ele>
        <time>2016-03-06T08:51:36Z</time>
      </trkpt>
      <trkpt lat="43.64122" lon="3.72541">
        <ele>139.05</ele>
        <time>2016-03-06T08:51:43Z</time>
      </trkpt>
      <trkpt lat="43.64198" lon="3.72231">
        <ele>137.13</ele>
        <time>2016-03-06T08:51:52Z</time>
      </trkpt>
      <trkpt lat="43.64295" lon="3.71763">
        <ele>139.53</ele>
        <time>2016-03-06T08:52:06Z</time>
      </trkpt>
      <trkpt lat="43.64317" lon="3.71668">
        <ele>140.49</ele>
        <time>2016-03-06T08:52:09Z</time>
      </trkpt>
      <trkpt lat="43.64328" lon="3.71641">
        <ele>140.49</ele>
        <time>2016-03-06T08:52:10Z</time>
      </trkpt>
      <trkpt lat="43.64343" lon="3.7162">
        <ele>140.49</ele>
        <time>2016-03-06T08:52:11Z</time>
      </trkpt>
      <trkpt lat="43.6436" lon="3.71602">
        <ele>140.01</ele>
        <time>2016-03-06T08:52:12Z</time>
      </trkpt>
      <trkpt lat="43.64375" lon="3.71585">
        <ele>139.53</ele>
        <time>2016-03-06T08:52:13Z</time>
      </trkpt>
      <trkpt lat="43.64402" lon="3.71554">
        <ele>139.05</ele>
        <time>2016-03-06T08:52:15Z</time>
      </trkpt>
      <trkpt lat="43.64412" lon="3.71536">
        <ele>139.05</ele>
        <time>2016-03-06T08:52:16Z</time>
      </trkpt>
      <trkpt lat="43.6442" lon="3.71514">
        <ele>139.05</ele>
        <time>2016-03-06T08:52:17Z</time>
      </trkpt>
      <trkpt lat="43.64424" lon="3.71489">
        <ele>138.57</ele>
        <time>2016-03-06T08:52:18Z</time>
      </trkpt>
      <trkpt lat="43.64424" lon="3.71462">
        <ele>138.09</ele>
        <time>2016-03-06T08:52:19Z</time>
      </trkpt>
      <trkpt lat="43.64421" lon="3.71436">
        <ele>138.09</ele>
        <time>2016-03-06T08:52:20Z</time>
      </trkpt>
      <trkpt lat="43.64413" lon="3.71411">
        <ele>137.61</ele>
        <time>2016-03-06T08:52:21Z</time>
      </trkpt>
      <trkpt lat="43.64403" lon="3.71386">
        <ele>137.13</ele>
        <time>2016-03-06T08:52:22Z</time>
      </trkpt>
      <trkpt lat="43.64394" lon="3.71362">
        <ele>137.13</ele>
        <time>2016-03-06T08:52:23Z</time>
      </trkpt>
      <trkpt lat="43.64379" lon="3.71316">
        <ele>137.13</ele>
        <time>2016-03-06T08:52:25Z</time>
      </trkpt>
      <trkpt lat="43.64376" lon="3.71293">
        <ele>137.13</ele>
        <time>2016-03-06T08:52:26Z</time>
      </trkpt>
      <trkpt lat="43.64375" lon="3.71268">
        <ele>137.61</ele>
        <time>2016-03-06T08:52:27Z</time>
      </trkpt>
      <trkpt lat="43.64376" lon="3.71242">
        <ele>137.13</ele>
        <time>2016-03-06T08:52:28Z</time>
      </trkpt>
      <trkpt lat="43.64379" lon="3.71214">
        <ele>136.64</ele>
        <time>2016-03-06T08:52:29Z</time>
      </trkpt>
      <trkpt lat="43.64402" lon="3.71021">
        <ele>131.84</ele>
        <time>2016-03-06T08:52:36Z</time>
      </trkpt>
      <trkpt lat="43.64411" lon="3.71">
        <ele>131.36</ele>
        <time>2016-03-06T08:52:37Z</time>
      </trkpt>
      <trkpt lat="43.64424" lon="3.70979">
        <ele>131.36</ele>
        <time>2016-03-06T08:52:38Z</time>
      </trkpt>
      <trkpt lat="43.64507" lon="3.7085">
        <ele>125.59</ele>
        <time>2016-03-06T08:52:44Z</time>
      </trkpt>
      <trkpt lat="43.64574" lon="3.70656">
        <ele>117.9</ele>
        <time>2016-03-06T08:52:52Z</time>
      </trkpt>
      <trkpt lat="43.6464" lon="3.70483">
        <ele>116.94</ele>
        <time>2016-03-06T08:53:01Z</time>
      </trkpt>
      <trkpt lat="43.64677" lon="3.70407">
        <ele>117.9</ele>
        <time>2016-03-06T08:53:08Z</time>
      </trkpt>
      <trkpt lat="43.6473" lon="3.70296">
        <ele>120.78</ele>
        <time>2016-03-06T08:53:18Z</time>
      </trkpt>
      <trkpt lat="43.64736" lon="3.70281">
        <ele>121.26</ele>
        <time>2016-03-06T08:53:20Z</time>
      </trkpt>
      <trkpt lat="43.64736" lon="3.70275">
        <ele>121.26</ele>
        <time>2016-03-06T08:53:21Z</time>
      </trkpt>
      <trkpt lat="43.64733" lon="3.70267">
        <ele>121.74</ele>
        <time>2016-03-06T08:53:22Z</time>
      </trkpt>
      <trkpt lat="43.64728" lon="3.70261">
        <ele>121.74</ele>
        <time>2016-03-06T08:53:23Z</time>
      </trkpt>
      <trkpt lat="43.64721" lon="3.70252">
        <ele>122.22</ele>
        <time>2016-03-06T08:53:24Z</time>
      </trkpt>
      <trkpt lat="43.64715" lon="3.70241">
        <ele>122.71</ele>
        <time>2016-03-06T08:53:25Z</time>
      </trkpt>
      <trkpt lat="43.6471" lon="3.70229">
        <ele>123.19</ele>
        <time>2016-03-06T08:53:26Z</time>
      </trkpt>
      <trkpt lat="43.64705" lon="3.70215">
        <ele>123.19</ele>
        <time>2016-03-06T08:53:27Z</time>
      </trkpt>
      <trkpt lat="43.64702" lon="3.702">
        <ele>123.19</ele>
        <time>2016-03-06T08:53:28Z</time>
      </trkpt>
      <trkpt lat="43.64699" lon="3.70184">
        <ele>122.71</ele>
        <time>2016-03-06T08:53:29Z</time>
      </trkpt>
      <trkpt lat="43.64698" lon="3.70168">
        <ele>122.71</ele>
        <time>2016-03-06T08:53:30Z</time>
      </trkpt>
      <trkpt lat="43.64687" lon="3.7005">
        <ele>123.67</ele>
        <time>2016-03-06T08:53:39Z</time>
      </trkpt>
      <trkpt lat="43.64678" lon="3.69907">
        <ele>123.67</ele>
        <time>2016-03-06T08:53:50Z</time>
      </trkpt>
      <trkpt lat="43.64678" lon="3.69896">
        <ele>123.19</ele>
        <time>2016-03-06T08:53:56Z</time>
      </trkpt>
      <trkpt lat="43.64679" lon="3.69878">
        <ele>123.19</ele>
        <time>2016-03-06T08:53:58Z</time>
      </trkpt>
      <trkpt lat="43.64682" lon="3.69866">
        <ele>123.19</ele>
        <time>2016-03-06T08:53:59Z</time>
      </trkpt>
      <trkpt lat="43.64712" lon="3.69742">
        <ele>126.55</ele>
        <time>2016-03-06T08:54:09Z</time>
      </trkpt>
      <trkpt lat="43.64717" lon="3.69733">
        <ele>127.03</ele>
        <time>2016-03-06T08:54:11Z</time>
      </trkpt>
      <trkpt lat="43.64723" lon="3.69728">
        <ele>127.03</ele>
        <time>2016-03-06T08:54:12Z</time>
      </trkpt>
      <trkpt lat="43.64781" lon="3.69671">
        <ele>130.4</ele>
        <time>2016-03-06T08:54:19Z</time>
      </trkpt>
      <trkpt lat="43.64789" lon="3.69668">
        <ele>130.88</ele>
        <time>2016-03-06T08:54:20Z</time>
      </trkpt>
      <trkpt lat="43.64797" lon="3.69672">
        <ele>131.36</ele>
        <time>2016-03-06T08:54:21Z</time>
      </trkpt>
      <trkpt lat="43.64805" lon="3.69679">
        <ele>131.84</ele>
        <time>2016-03-06T08:54:22Z</time>
      </trkpt>
      <trkpt lat="43.64811" lon="3.69688">
        <ele>132.32</ele>
        <time>2016-03-06T08:54:23Z</time>
      </trkpt>
      <trkpt lat="43.64817" lon="3.69695">
        <ele>132.8</ele>
        <time>2016-03-06T08:54:24Z</time>
      </trkpt>
      <trkpt lat="43.64823" lon="3.69699">
        <ele>133.28</ele>
        <time>2016-03-06T08:54:25Z</time>
      </trkpt>
      <trkpt lat="43.64829" lon="3.697">
        <ele>134.24</ele>
        <time>2016-03-06T08:54:26Z</time>
      </trkpt>
      <trkpt lat="43.64834" lon="3.69697">
        <ele>134.24</ele>
        <time>2016-03-06T08:54:27Z</time>
      </trkpt>
      <trkpt lat="43.64837" lon="3.69692">
        <ele>134.72</ele>
        <time>2016-03-06T08:54:28Z</time>
      </trkpt>
      <trkpt lat="43.64838" lon="3.69684">
        <ele>134.72</ele>
        <time>2016-03-06T08:54:29Z</time>
      </trkpt>
      <trkpt lat="43.64835" lon="3.69674">
        <ele>134.72</ele>
        <time>2016-03-06T08:54:30Z</time>
      </trkpt>
      <trkpt lat="43.6483" lon="3.69663">
        <ele>135.2</ele>
        <time>2016-03-06T08:54:31Z</time>
      </trkpt>
      <trkpt lat="43.64824" lon="3.6965">
        <ele>135.68</ele>
        <time>2016-03-06T08:54:32Z</time>
      </trkpt>
      <trkpt lat="43.64783" lon="3.69537">
        <ele>141.45</ele>
        <time>2016-03-06T08:54:38Z</time>
      </trkpt>
      <trkpt lat="43.64754" lon="3.69475">
        <ele>145.78</ele>
        <time>2016-03-06T08:54:41Z</time>
      </trkpt>
      <trkpt lat="43.6474" lon="3.69455">
        <ele>146.74</ele>
        <time>2016-03-06T08:54:42Z</time>
      </trkpt>
      <trkpt lat="43.64723" lon="3.69437">
        <ele>148.18</ele>
        <time>2016-03-06T08:54:43Z</time>
      </trkpt>
      <trkpt lat="43.64574" lon="3.69281">
        <ele>161.16</ele>
        <time>2016-03-06T08:54:52Z</time>
      </trkpt>
      <trkpt lat="43.64561" lon="3.69264">
        <ele>162.6</ele>
        <time>2016-03-06T08:54:53Z</time>
      </trkpt>
      <trkpt lat="43.64551" lon="3.69245">
        <ele>164.04</ele>
        <time>2016-03-06T08:54:54Z</time>
      </trkpt>
      <trkpt lat="43.64544" lon="3.69226">
        <ele>165.48</ele>
        <time>2016-03-06T08:54:55Z</time>
      </trkpt>
      <trkpt lat="43.64538" lon="3.69207">
        <ele>165.96</ele>
        <time>2016-03-06T08:54:56Z</time>
      </trkpt>
      <trkpt lat="43.64532" lon="3.69188">
        <ele>166.45</ele>
        <time>2016-03-06T08:54:57Z</time>
      </trkpt>
      <trkpt lat="43.64524" lon="3.6917">
        <ele>167.89</ele>
        <time>2016-03-06T08:54:58Z</time>
      </trkpt>
      <trkpt lat="43.64512" lon="3.69152">
        <ele>168.85</ele>
        <time>2016-03-06T08:54:59Z</time>
      </trkpt>
      <trkpt lat="43.645" lon="3.69133">
        <ele>169.33</ele>
        <time>2016-03-06T08:55:00Z</time>
      </trkpt>
      <trkpt lat="43.6441" lon="3.68959">
        <ele>177.02</ele>
        <time>2016-03-06T08:55:08Z</time>
      </trkpt>
      <trkpt lat="43.64361" lon="3.68827">
        <ele>184.23</ele>
        <time>2016-03-06T08:55:14Z</time>
      </trkpt>
      <trkpt lat="43.64359" lon="3.68808">
        <ele>184.71</ele>
        <time>2016-03-06T08:55:15Z</time>
      </trkpt>
      <trkpt lat="43.64357" lon="3.68786">
        <ele>186.15</ele>
        <time>2016-03-06T08:55:16Z</time>
      </trkpt>
      <trkpt lat="43.64357" lon="3.68762">
        <ele>186.63</ele>
        <time>2016-03-06T08:55:17Z</time>
      </trkpt>
      <trkpt lat="43.64357" lon="3.68736">
        <ele>187.59</ele>
        <time>2016-03-06T08:55:18Z</time>
      </trkpt>
      <trkpt lat="43.6436" lon="3.68659">
        <ele>190.48</ele>
        <time>2016-03-06T08:55:21Z</time>
      </trkpt>
      <trkpt lat="43.64365" lon="3.68635">
        <ele>191.44</ele>
        <time>2016-03-06T08:55:22Z</time>
      </trkpt>
      <trkpt lat="43.64372" lon="3.68611">
        <ele>191.92</ele>
        <time>2016-03-06T08:55:23Z</time>
      </trkpt>
      <trkpt lat="43.64382" lon="3.68588">
        <ele>192.88</ele>
        <time>2016-03-06T08:55:24Z</time>
      </trkpt>
      <trkpt lat="43.64393" lon="3.68566">
        <ele>194.32</ele>
        <time>2016-03-06T08:55:25Z</time>
      </trkpt>
      <trkpt lat="43.64462" lon="3.68439">
        <ele>200.09</ele>
        <time>2016-03-06T08:55:31Z</time>
      </trkpt>
      <trkpt lat="43.64478" lon="3.68422">
        <ele>200.57</ele>
        <time>2016-03-06T08:55:32Z</time>
      </trkpt>
      <trkpt lat="43.64619" lon="3.68283">
        <ele>209.22</ele>
        <time>2016-03-06T08:55:40Z</time>
      </trkpt>
      <trkpt lat="43.64656" lon="3.68241">
        <ele>212.11</ele>
        <time>2016-03-06T08:55:43Z</time>
      </trkpt>
      <trkpt lat="43.64662" lon="3.68226">
        <ele>213.55</ele>
        <time>2016-03-06T08:55:44Z</time>
      </trkpt>
      <trkpt lat="43.64664" lon="3.68207">
        <ele>214.51</ele>
        <time>2016-03-06T08:55:45Z</time>
      </trkpt>
      <trkpt lat="43.64666" lon="3.68189">
        <ele>215.47</ele>
        <time>2016-03-06T08:55:46Z</time>
      </trkpt>
      <trkpt lat="43.64667" lon="3.68169">
        <ele>216.43</ele>
        <time>2016-03-06T08:55:47Z</time>
      </trkpt>
      <trkpt lat="43.64671" lon="3.68149">
        <ele>217.88</ele>
        <time>2016-03-06T08:55:48Z</time>
      </trkpt>
      <trkpt lat="43.64679" lon="3.68132">
        <ele>218.36</ele>
        <time>2016-03-06T08:55:49Z</time>
      </trkpt>
      <trkpt lat="43.64692" lon="3.6812">
        <ele>219.8</ele>
        <time>2016-03-06T08:55:50Z</time>
      </trkpt>
      <trkpt lat="43.6471" lon="3.68108">
        <ele>221.72</ele>
        <time>2016-03-06T08:55:51Z</time>
      </trkpt>
      <trkpt lat="43.64727" lon="3.68098">
        <ele>223.16</ele>
        <time>2016-03-06T08:55:52Z</time>
      </trkpt>
      <trkpt lat="43.64747" lon="3.68089">
        <ele>225.09</ele>
        <time>2016-03-06T08:55:53Z</time>
      </trkpt>
      <trkpt lat="43.64823" lon="3.6805">
        <ele>232.3</ele>
        <time>2016-03-06T08:55:57Z</time>
      </trkpt>
      <trkpt lat="43.64843" lon="3.68048">
        <ele>233.74</ele>
        <time>2016-03-06T08:55:58Z</time>
      </trkpt>
      <trkpt lat="43.64863" lon="3.68048">
        <ele>235.18</ele>
        <time>2016-03-06T08:55:59Z</time>
      </trkpt>
      <trkpt lat="43.64884" lon="3.68053">
        <ele>235.66</ele>
        <time>2016-03-06T08:56:00Z</time>
      </trkpt>
      <trkpt lat="43.64906" lon="3.68061">
        <ele>236.62</ele>
        <time>2016-03-06T08:56:01Z</time>
      </trkpt>
      <trkpt lat="43.64927" lon="3.6807">
        <ele>237.58</ele>
        <time>2016-03-06T08:56:02Z</time>
      </trkpt>
      <trkpt lat="43.65018" lon="3.68106">
        <ele>243.35</ele>
        <time>2016-03-06T08:56:07Z</time>
      </trkpt>
      <trkpt lat="43.65033" lon="3.68105">
        <ele>244.31</ele>
        <time>2016-03-06T08:56:08Z</time>
      </trkpt>
      <trkpt lat="43.65048" lon="3.68097">
        <ele>245.27</ele>
        <time>2016-03-06T08:56:09Z</time>
      </trkpt>
      <trkpt lat="43.65064" lon="3.68088">
        <ele>246.23</ele>
        <time>2016-03-06T08:56:10Z</time>
      </trkpt>
      <trkpt lat="43.65082" lon="3.68076">
        <ele>247.2</ele>
        <time>2016-03-06T08:56:11Z</time>
      </trkpt>
      <trkpt lat="43.651" lon="3.68062">
        <ele>248.16</ele>
        <time>2016-03-06T08:56:12Z</time>
      </trkpt>
      <trkpt lat="43.65222" lon="3.67936">
        <ele>256.33</ele>
        <time>2016-03-06T08:56:19Z</time>
      </trkpt>
      <trkpt lat="43.65355" lon="3.67774">
        <ele>266.9</ele>
        <time>2016-03-06T08:56:28Z</time>
      </trkpt>
      <trkpt lat="43.65364" lon="3.67756">
        <ele>266.9</ele>
        <time>2016-03-06T08:56:29Z</time>
      </trkpt>
      <trkpt lat="43.65368" lon="3.67731">
        <ele>266.42</ele>
        <time>2016-03-06T08:56:30Z</time>
      </trkpt>
      <trkpt lat="43.65374" lon="3.67707">
        <ele>265.46</ele>
        <time>2016-03-06T08:56:31Z</time>
      </trkpt>
      <trkpt lat="43.65378" lon="3.67679">
        <ele>264.02</ele>
        <time>2016-03-06T08:56:32Z</time>
      </trkpt>
      <trkpt lat="43.65382" lon="3.67647">
        <ele>263.54</ele>
        <time>2016-03-06T08:56:33Z</time>
      </trkpt>
      <trkpt lat="43.65437" lon="3.67285">
        <ele>262.58</ele>
        <time>2016-03-06T08:56:44Z</time>
      </trkpt>
      <trkpt lat="43.65458" lon="3.67178">
        <ele>261.14</ele>
        <time>2016-03-06T08:56:48Z</time>
      </trkpt>
      <trkpt lat="43.65469" lon="3.67161">
        <ele>259.69</ele>
        <time>2016-03-06T08:56:49Z</time>
      </trkpt>
      <trkpt lat="43.65484" lon="3.67146">
        <ele>259.21</ele>
        <time>2016-03-06T08:56:50Z</time>
      </trkpt>
      <trkpt lat="43.65498" lon="3.6713">
        <ele>257.29</ele>
        <time>2016-03-06T08:56:51Z</time>
      </trkpt>
      <trkpt lat="43.65512" lon="3.67113">
        <ele>255.85</ele>
        <time>2016-03-06T08:56:52Z</time>
      </trkpt>
      <trkpt lat="43.65525" lon="3.67092">
        <ele>253.93</ele>
        <time>2016-03-06T08:56:53Z</time>
      </trkpt>
      <trkpt lat="43.65538" lon="3.67069">
        <ele>251.52</ele>
        <time>2016-03-06T08:56:54Z</time>
      </trkpt>
      <trkpt lat="43.6557" lon="3.66995">
        <ele>246.72</ele>
        <time>2016-03-06T08:56:57Z</time>
      </trkpt>
      <trkpt lat="43.65577" lon="3.66968">
        <ele>245.27</ele>
        <time>2016-03-06T08:56:58Z</time>
      </trkpt>
      <trkpt lat="43.65583" lon="3.66941">
        <ele>243.83</ele>
        <time>2016-03-06T08:56:59Z</time>
      </trkpt>
      <trkpt lat="43.65627" lon="3.66745">
        <ele>243.83</ele>
        <time>2016-03-06T08:57:06Z</time>
      </trkpt>
      <trkpt lat="43.65636" lon="3.66721">
        <ele>244.79</ele>
        <time>2016-03-06T08:57:07Z</time>
      </trkpt>
      <trkpt lat="43.65647" lon="3.66699">
        <ele>245.75</ele>
        <time>2016-03-06T08:57:08Z</time>
      </trkpt>
      <trkpt lat="43.65661" lon="3.66679">
        <ele>246.72</ele>
        <time>2016-03-06T08:57:09Z</time>
      </trkpt>
      <trkpt lat="43.65694" lon="3.66622">
        <ele>250.08</ele>
        <time>2016-03-06T08:57:12Z</time>
      </trkpt>
      <trkpt lat="43.65702" lon="3.66602">
        <ele>250.56</ele>
        <time>2016-03-06T08:57:13Z</time>
      </trkpt>
      <trkpt lat="43.65709" lon="3.66579">
        <ele>250.08</ele>
        <time>2016-03-06T08:57:14Z</time>
      </trkpt>
      <trkpt lat="43.65714" lon="3.66555">
        <ele>250.08</ele>
        <time>2016-03-06T08:57:15Z</time>
      </trkpt>
      <trkpt lat="43.65718" lon="3.6653">
        <ele>250.08</ele>
        <time>2016-03-06T08:57:16Z</time>
      </trkpt>
      <trkpt lat="43.65721" lon="3.66504">
        <ele>249.12</ele>
        <time>2016-03-06T08:57:17Z</time>
      </trkpt>
      <trkpt lat="43.65731" lon="3.66451">
        <ele>248.16</ele>
        <time>2016-03-06T08:57:19Z</time>
      </trkpt>
      <trkpt lat="43.65769" lon="3.66305">
        <ele>241.43</ele>
        <time>2016-03-06T08:57:25Z</time>
      </trkpt>
      <trkpt lat="43.6578" lon="3.66284">
        <ele>239.02</ele>
        <time>2016-03-06T08:57:26Z</time>
      </trkpt>
      <trkpt lat="43.6583" lon="3.66215">
        <ele>232.78</ele>
        <time>2016-03-06T08:57:30Z</time>
      </trkpt>
      <trkpt lat="43.65847" lon="3.66202">
        <ele>231.33</ele>
        <time>2016-03-06T08:57:31Z</time>
      </trkpt>
      <trkpt lat="43.65867" lon="3.66192">
        <ele>229.89</ele>
        <time>2016-03-06T08:57:32Z</time>
      </trkpt>
      <trkpt lat="43.65888" lon="3.66182">
        <ele>228.45</ele>
        <time>2016-03-06T08:57:33Z</time>
      </trkpt>
      <trkpt lat="43.6591" lon="3.6617">
        <ele>227.97</ele>
        <time>2016-03-06T08:57:34Z</time>
      </trkpt>
      <trkpt lat="43.66034" lon="3.66084">
        <ele>222.68</ele>
        <time>2016-03-06T08:57:41Z</time>
      </trkpt>
      <trkpt lat="43.66047" lon="3.66068">
        <ele>221.24</ele>
        <time>2016-03-06T08:57:42Z</time>
      </trkpt>
      <trkpt lat="43.66057" lon="3.66047">
        <ele>220.28</ele>
        <time>2016-03-06T08:57:43Z</time>
      </trkpt>
      <trkpt lat="43.66063" lon="3.66022">
        <ele>218.84</ele>
        <time>2016-03-06T08:57:44Z</time>
      </trkpt>
      <trkpt lat="43.66066" lon="3.65995">
        <ele>216.43</ele>
        <time>2016-03-06T08:57:45Z</time>
      </trkpt>
      <trkpt lat="43.66065" lon="3.65969">
        <ele>214.99</ele>
        <time>2016-03-06T08:57:46Z</time>
      </trkpt>
      <trkpt lat="43.66062" lon="3.65943">
        <ele>213.07</ele>
        <time>2016-03-06T08:57:47Z</time>
      </trkpt>
      <trkpt lat="43.66051" lon="3.65917">
        <ele>211.15</ele>
        <time>2016-03-06T08:57:48Z</time>
      </trkpt>
      <trkpt lat="43.66042" lon="3.6589">
        <ele>208.74</ele>
        <time>2016-03-06T08:57:49Z</time>
      </trkpt>
      <trkpt lat="43.66027" lon="3.6583">
        <ele>204.42</ele>
        <time>2016-03-06T08:57:51Z</time>
      </trkpt>
      <trkpt lat="43.66024" lon="3.65797">
        <ele>202.49</ele>
        <time>2016-03-06T08:57:52Z</time>
      </trkpt>
      <trkpt lat="43.66023" lon="3.65763">
        <ele>200.57</ele>
        <time>2016-03-06T08:57:53Z</time>
      </trkpt>
      <trkpt lat="43.66024" lon="3.65729">
        <ele>198.65</ele>
        <time>2016-03-06T08:57:54Z</time>
      </trkpt>
      <trkpt lat="43.66027" lon="3.65694">
        <ele>197.69</ele>
        <time>2016-03-06T08:57:55Z</time>
      </trkpt>
      <trkpt lat="43.66049" lon="3.65463">
        <ele>195.77</ele>
        <time>2016-03-06T08:58:02Z</time>
      </trkpt>
      <trkpt lat="43.66057" lon="3.65436">
        <ele>197.21</ele>
        <time>2016-03-06T08:58:03Z</time>
      </trkpt>
      <trkpt lat="43.66067" lon="3.65411">
        <ele>198.17</ele>
        <time>2016-03-06T08:58:04Z</time>
      </trkpt>
      <trkpt lat="43.66079" lon="3.65387">
        <ele>199.13</ele>
        <time>2016-03-06T08:58:05Z</time>
      </trkpt>
      <trkpt lat="43.66092" lon="3.65365">
        <ele>199.13</ele>
        <time>2016-03-06T08:58:06Z</time>
      </trkpt>
      <trkpt lat="43.66107" lon="3.65344">
        <ele>199.13</ele>
        <time>2016-03-06T08:58:07Z</time>
      </trkpt>
      <trkpt lat="43.66194" lon="3.65168">
        <ele>191.92</ele>
        <time>2016-03-06T08:58:14Z</time>
      </trkpt>
      <trkpt lat="43.66321" lon="3.64933">
        <ele>186.63</ele>
        <time>2016-03-06T08:58:24Z</time>
      </trkpt>
      <trkpt lat="43.66366" lon="3.64855">
        <ele>186.63</ele>
        <time>2016-03-06T08:58:29Z</time>
      </trkpt>
      <trkpt lat="43.66371" lon="3.64842">
        <ele>187.11</ele>
        <time>2016-03-06T08:58:30Z</time>
      </trkpt>
      <trkpt lat="43.66369" lon="3.6483">
        <ele>187.11</ele>
        <time>2016-03-06T08:58:31Z</time>
      </trkpt>
      <trkpt lat="43.66364" lon="3.64816">
        <ele>187.59</ele>
        <time>2016-03-06T08:58:32Z</time>
      </trkpt>
      <trkpt lat="43.66356" lon="3.64799">
        <ele>188.08</ele>
        <time>2016-03-06T08:58:33Z</time>
      </trkpt>
      <trkpt lat="43.66345" lon="3.64781">
        <ele>188.56</ele>
        <time>2016-03-06T08:58:34Z</time>
      </trkpt>
      <trkpt lat="43.66334" lon="3.64761">
        <ele>189.52</ele>
        <time>2016-03-06T08:58:35Z</time>
      </trkpt>
      <trkpt lat="43.66214" lon="3.64548">
        <ele>198.65</ele>
        <time>2016-03-06T08:58:45Z</time>
      </trkpt>
      <trkpt lat="43.66165" lon="3.64467">
        <ele>204.9</ele>
        <time>2016-03-06T08:58:51Z</time>
      </trkpt>
      <trkpt lat="43.66161" lon="3.64459">
        <ele>205.86</ele>
        <time>2016-03-06T08:58:52Z</time>
      </trkpt>
      <trkpt lat="43.66159" lon="3.64451">
        <ele>206.82</ele>
        <time>2016-03-06T08:58:53Z</time>
      </trkpt>
      <trkpt lat="43.66159" lon="3.64442">
        <ele>206.82</ele>
        <time>2016-03-06T08:58:54Z</time>
      </trkpt>
      <trkpt lat="43.66165" lon="3.64433">
        <ele>207.3</ele>
        <time>2016-03-06T08:58:55Z</time>
      </trkpt>
      <trkpt lat="43.66172" lon="3.64425">
        <ele>208.26</ele>
        <time>2016-03-06T08:58:56Z</time>
      </trkpt>
      <trkpt lat="43.66182" lon="3.64421">
        <ele>208.74</ele>
        <time>2016-03-06T08:58:57Z</time>
      </trkpt>
      <trkpt lat="43.66193" lon="3.64421">
        <ele>209.7</ele>
        <time>2016-03-06T08:58:58Z</time>
      </trkpt>
      <trkpt lat="43.66204" lon="3.64422">
        <ele>210.67</ele>
        <time>2016-03-06T08:58:59Z</time>
      </trkpt>
      <trkpt lat="43.66214" lon="3.64425">
        <ele>211.15</ele>
        <time>2016-03-06T08:59:00Z</time>
      </trkpt>
      <trkpt lat="43.66224" lon="3.64429">
        <ele>211.15</ele>
        <time>2016-03-06T08:59:01Z</time>
      </trkpt>
      <trkpt lat="43.66232" lon="3.64434">
        <ele>211.15</ele>
        <time>2016-03-06T08:59:02Z</time>
      </trkpt>
      <trkpt lat="43.6624" lon="3.64438">
        <ele>211.15</ele>
        <time>2016-03-06T08:59:03Z</time>
      </trkpt>
      <trkpt lat="43.66266" lon="3.64452">
        <ele>210.67</ele>
        <time>2016-03-06T08:59:06Z</time>
      </trkpt>
      <trkpt lat="43.66276" lon="3.64453">
        <ele>210.67</ele>
        <time>2016-03-06T08:59:07Z</time>
      </trkpt>
      <trkpt lat="43.66286" lon="3.64452">
        <ele>210.67</ele>
        <time>2016-03-06T08:59:08Z</time>
      </trkpt>
      <trkpt lat="43.66295" lon="3.64448">
        <ele>211.15</ele>
        <time>2016-03-06T08:59:09Z</time>
      </trkpt>
      <trkpt lat="43.66304" lon="3.64445">
        <ele>211.15</ele>
        <time>2016-03-06T08:59:10Z</time>
      </trkpt>
      <trkpt lat="43.66385" lon="3.64412">
        <ele>213.55</ele>
        <time>2016-03-06T08:59:19Z</time>
      </trkpt>
      <trkpt lat="43.66444" lon="3.6439">
        <ele>215.47</ele>
        <time>2016-03-06T08:59:27Z</time>
      </trkpt>
      <trkpt lat="43.66448" lon="3.6439">
        <ele>215.47</ele>
        <time>2016-03-06T08:59:28Z</time>
      </trkpt>
      <trkpt lat="43.66452" lon="3.64388">
        <ele>215.47</ele>
        <time>2016-03-06T08:59:29Z</time>
      </trkpt>
      <trkpt lat="43.66455" lon="3.64382">
        <ele>214.99</ele>
        <time>2016-03-06T08:59:30Z</time>
      </trkpt>
      <trkpt lat="43.66488" lon="3.64308">
        <ele>212.59</ele>
        <time>2016-03-06T08:59:36Z</time>
      </trkpt>
      <trkpt lat="43.66529" lon="3.64208">
        <ele>209.7</ele>
        <time>2016-03-06T08:59:44Z</time>
      </trkpt>
      <trkpt lat="43.66571" lon="3.6411">
        <ele>207.78</ele>
        <time>2016-03-06T08:59:50Z</time>
      </trkpt>
      <trkpt lat="43.66645" lon="3.63933">
        <ele>204.42</ele>
        <time>2016-03-06T08:59:57Z</time>
      </trkpt>
      <trkpt lat="43.66824" lon="3.63536">
        <ele>196.25</ele>
        <time>2016-03-06T09:00:11Z</time>
      </trkpt>
      <trkpt lat="43.67031" lon="3.63123">
        <ele>190.48</ele>
        <time>2016-03-06T09:00:25Z</time>
      </trkpt>
      <trkpt lat="43.6718" lon="3.62832">
        <ele>191.92</ele>
        <time>2016-03-06T09:00:35Z</time>
      </trkpt>
      <trkpt lat="43.67325" lon="3.62543">
        <ele>191.44</ele>
        <time>2016-03-06T09:00:45Z</time>
      </trkpt>
      <trkpt lat="43.67475" lon="3.62269">
        <ele>184.71</ele>
        <time>2016-03-06T09:00:55Z</time>
      </trkpt>
      <trkpt lat="43.67557" lon="3.62092">
        <ele>181.83</ele>
        <time>2016-03-06T09:01:02Z</time>
      </trkpt>
      <trkpt lat="43.67564" lon="3.62071">
        <ele>181.35</ele>
        <time>2016-03-06T09:01:03Z</time>
      </trkpt>
      <trkpt lat="43.67564" lon="3.62047">
        <ele>181.83</ele>
        <time>2016-03-06T09:01:04Z</time>
      </trkpt>
      <trkpt lat="43.67563" lon="3.62021">
        <ele>181.35</ele>
        <time>2016-03-06T09:01:05Z</time>
      </trkpt>
      <trkpt lat="43.67557" lon="3.61803">
        <ele>181.83</ele>
        <time>2016-03-06T09:01:12Z</time>
      </trkpt>
      <trkpt lat="43.67552" lon="3.61749">
        <ele>181.35</ele>
        <time>2016-03-06T09:01:14Z</time>
      </trkpt>
      <trkpt lat="43.67545" lon="3.61726">
        <ele>180.87</ele>
        <time>2016-03-06T09:01:15Z</time>
      </trkpt>
      <trkpt lat="43.67533" lon="3.61705">
        <ele>180.38</ele>
        <time>2016-03-06T09:01:16Z</time>
      </trkpt>
      <trkpt lat="43.6752" lon="3.61684">
        <ele>180.38</ele>
        <time>2016-03-06T09:01:17Z</time>
      </trkpt>
      <trkpt lat="43.67507" lon="3.61665">
        <ele>178.94</ele>
        <time>2016-03-06T09:01:18Z</time>
      </trkpt>
      <trkpt lat="43.67468" lon="3.61607">
        <ele>175.58</ele>
        <time>2016-03-06T09:01:21Z</time>
      </trkpt>
      <trkpt lat="43.6746" lon="3.61584">
        <ele>174.62</ele>
        <time>2016-03-06T09:01:22Z</time>
      </trkpt>
      <trkpt lat="43.67455" lon="3.61558">
        <ele>173.66</ele>
        <time>2016-03-06T09:01:23Z</time>
      </trkpt>
      <trkpt lat="43.67451" lon="3.61529">
        <ele>172.21</ele>
        <time>2016-03-06T09:01:24Z</time>
      </trkpt>
      <trkpt lat="43.67446" lon="3.61499">
        <ele>170.77</ele>
        <time>2016-03-06T09:01:25Z</time>
      </trkpt>
      <trkpt lat="43.67427" lon="3.61363">
        <ele>165</ele>
        <time>2016-03-06T09:01:30Z</time>
      </trkpt>
      <trkpt lat="43.6743" lon="3.61338">
        <ele>163.08</ele>
        <time>2016-03-06T09:01:31Z</time>
      </trkpt>
      <trkpt lat="43.67436" lon="3.61313">
        <ele>162.12</ele>
        <time>2016-03-06T09:01:32Z</time>
      </trkpt>
      <trkpt lat="43.67445" lon="3.61288">
        <ele>161.16</ele>
        <time>2016-03-06T09:01:33Z</time>
      </trkpt>
      <trkpt lat="43.67455" lon="3.61262">
        <ele>160.2</ele>
        <time>2016-03-06T09:01:34Z</time>
      </trkpt>
      <trkpt lat="43.67477" lon="3.61216">
        <ele>158.27</ele>
        <time>2016-03-06T09:01:36Z</time>
      </trkpt>
      <trkpt lat="43.67492" lon="3.61199">
        <ele>157.31</ele>
        <time>2016-03-06T09:01:37Z</time>
      </trkpt>
      <trkpt lat="43.67509" lon="3.61185">
        <ele>156.35</ele>
        <time>2016-03-06T09:01:38Z</time>
      </trkpt>
      <trkpt lat="43.67527" lon="3.61173">
        <ele>155.39</ele>
        <time>2016-03-06T09:01:39Z</time>
      </trkpt>
      <trkpt lat="43.67545" lon="3.61161">
        <ele>154.43</ele>
        <time>2016-03-06T09:01:40Z</time>
      </trkpt>
      <trkpt lat="43.67606" lon="3.61103">
        <ele>151.54</ele>
        <time>2016-03-06T09:01:44Z</time>
      </trkpt>
      <trkpt lat="43.67617" lon="3.61085">
        <ele>150.58</ele>
        <time>2016-03-06T09:01:45Z</time>
      </trkpt>
      <trkpt lat="43.67623" lon="3.61064">
        <ele>150.1</ele>
        <time>2016-03-06T09:01:46Z</time>
      </trkpt>
      <trkpt lat="43.67624" lon="3.6104">
        <ele>149.62</ele>
        <time>2016-03-06T09:01:47Z</time>
      </trkpt>
      <trkpt lat="43.67623" lon="3.61015">
        <ele>148.66</ele>
        <time>2016-03-06T09:01:48Z</time>
      </trkpt>
      <trkpt lat="43.67621" lon="3.60987">
        <ele>147.7</ele>
        <time>2016-03-06T09:01:49Z</time>
      </trkpt>
      <trkpt lat="43.67617" lon="3.60958">
        <ele>147.22</ele>
        <time>2016-03-06T09:01:50Z</time>
      </trkpt>
      <trkpt lat="43.67613" lon="3.60931">
        <ele>146.74</ele>
        <time>2016-03-06T09:01:51Z</time>
      </trkpt>
      <trkpt lat="43.67594" lon="3.60853">
        <ele>144.34</ele>
        <time>2016-03-06T09:01:54Z</time>
      </trkpt>
      <trkpt lat="43.67585" lon="3.60829">
        <ele>144.34</ele>
        <time>2016-03-06T09:01:55Z</time>
      </trkpt>
      <trkpt lat="43.67573" lon="3.60807">
        <ele>143.37</ele>
        <time>2016-03-06T09:01:56Z</time>
      </trkpt>
      <trkpt lat="43.67561" lon="3.60788">
        <ele>142.41</ele>
        <time>2016-03-06T09:01:57Z</time>
      </trkpt>
      <trkpt lat="43.67547" lon="3.6077">
        <ele>142.41</ele>
        <time>2016-03-06T09:01:58Z</time>
      </trkpt>
      <trkpt lat="43.67532" lon="3.60754">
        <ele>141.93</ele>
        <time>2016-03-06T09:01:59Z</time>
      </trkpt>
      <trkpt lat="43.67513" lon="3.6074">
        <ele>141.45</ele>
        <time>2016-03-06T09:02:00Z</time>
      </trkpt>
      <trkpt lat="43.67494" lon="3.60727">
        <ele>140.49</ele>
        <time>2016-03-06T09:02:01Z</time>
      </trkpt>
      <trkpt lat="43.67417" lon="3.60666">
        <ele>135.68</ele>
        <time>2016-03-06T09:02:05Z</time>
      </trkpt>
      <trkpt lat="43.67401" lon="3.60644">
        <ele>134.72</ele>
        <time>2016-03-06T09:02:06Z</time>
      </trkpt>
      <trkpt lat="43.67388" lon="3.6062">
        <ele>134.24</ele>
        <time>2016-03-06T09:02:07Z</time>
      </trkpt>
      <trkpt lat="43.67377" lon="3.60595">
        <ele>133.28</ele>
        <time>2016-03-06T09:02:08Z</time>
      </trkpt>
      <trkpt lat="43.67367" lon="3.60569">
        <ele>132.32</ele>
        <time>2016-03-06T09:02:09Z</time>
      </trkpt>
      <trkpt lat="43.67327" lon="3.60472">
        <ele>128.95</ele>
        <time>2016-03-06T09:02:13Z</time>
      </trkpt>
      <trkpt lat="43.67312" lon="3.60455">
        <ele>127.99</ele>
        <time>2016-03-06T09:02:14Z</time>
      </trkpt>
      <trkpt lat="43.67296" lon="3.60441">
        <ele>127.03</ele>
        <time>2016-03-06T09:02:15Z</time>
      </trkpt>
      <trkpt lat="43.6728" lon="3.60429">
        <ele>126.07</ele>
        <time>2016-03-06T09:02:16Z</time>
      </trkpt>
      <trkpt lat="43.67265" lon="3.60416">
        <ele>125.59</ele>
        <time>2016-03-06T09:02:17Z</time>
      </trkpt>
      <trkpt lat="43.67253" lon="3.60401">
        <ele>125.11</ele>
        <time>2016-03-06T09:02:18Z</time>
      </trkpt>
      <trkpt lat="43.67242" lon="3.60382">
        <ele>124.63</ele>
        <time>2016-03-06T09:02:19Z</time>
      </trkpt>
      <trkpt lat="43.67234" lon="3.6036">
        <ele>124.15</ele>
        <time>2016-03-06T09:02:20Z</time>
      </trkpt>
      <trkpt lat="43.67227" lon="3.60335">
        <ele>123.67</ele>
        <time>2016-03-06T09:02:21Z</time>
      </trkpt>
      <trkpt lat="43.67219" lon="3.60308">
        <ele>123.19</ele>
        <time>2016-03-06T09:02:22Z</time>
      </trkpt>
      <trkpt lat="43.67183" lon="3.60211">
        <ele>124.15</ele>
        <time>2016-03-06T09:02:26Z</time>
      </trkpt>
      <trkpt lat="43.6717" lon="3.60193">
        <ele>124.63</ele>
        <time>2016-03-06T09:02:27Z</time>
      </trkpt>
      <trkpt lat="43.67155" lon="3.60179">
        <ele>125.11</ele>
        <time>2016-03-06T09:02:28Z</time>
      </trkpt>
      <trkpt lat="43.67113" lon="3.60127">
        <ele>127.99</ele>
        <time>2016-03-06T09:02:32Z</time>
      </trkpt>
      <trkpt lat="43.67117" lon="3.60107">
        <ele>128.47</ele>
        <time>2016-03-06T09:02:33Z</time>
      </trkpt>
      <trkpt lat="43.67123" lon="3.60086">
        <ele>128.95</ele>
        <time>2016-03-06T09:02:34Z</time>
      </trkpt>
      <trkpt lat="43.67129" lon="3.60061">
        <ele>130.88</ele>
        <time>2016-03-06T09:02:35Z</time>
      </trkpt>
      <trkpt lat="43.67133" lon="3.60034">
        <ele>132.32</ele>
        <time>2016-03-06T09:02:36Z</time>
      </trkpt>
      <trkpt lat="43.67135" lon="3.60005">
        <ele>134.24</ele>
        <time>2016-03-06T09:02:37Z</time>
      </trkpt>
      <trkpt lat="43.67139" lon="3.59975">
        <ele>135.2</ele>
        <time>2016-03-06T09:02:38Z</time>
      </trkpt>
      <trkpt lat="43.67145" lon="3.59946">
        <ele>136.16</ele>
        <time>2016-03-06T09:02:39Z</time>
      </trkpt>
      <trkpt lat="43.67176" lon="3.59751">
        <ele>143.85</ele>
        <time>2016-03-06T09:02:46Z</time>
      </trkpt>
      <trkpt lat="43.67186" lon="3.59679">
        <ele>145.78</ele>
        <time>2016-03-06T09:02:49Z</time>
      </trkpt>
      <trkpt lat="43.67194" lon="3.59661">
        <ele>146.26</ele>
        <time>2016-03-06T09:02:50Z</time>
      </trkpt>
      <trkpt lat="43.67205" lon="3.59648">
        <ele>146.74</ele>
        <time>2016-03-06T09:02:51Z</time>
      </trkpt>
      <trkpt lat="43.67218" lon="3.59639">
        <ele>146.74</ele>
        <time>2016-03-06T09:02:52Z</time>
      </trkpt>
      <trkpt lat="43.67233" lon="3.59635">
        <ele>146.74</ele>
        <time>2016-03-06T09:02:53Z</time>
      </trkpt>
      <trkpt lat="43.6725" lon="3.59635">
        <ele>146.74</ele>
        <time>2016-03-06T09:02:54Z</time>
      </trkpt>
      <trkpt lat="43.67269" lon="3.59638">
        <ele>146.26</ele>
        <time>2016-03-06T09:02:55Z</time>
      </trkpt>
      <trkpt lat="43.67288" lon="3.59641">
        <ele>145.78</ele>
        <time>2016-03-06T09:02:56Z</time>
      </trkpt>
      <trkpt lat="43.67413" lon="3.59653">
        <ele>143.37</ele>
        <time>2016-03-06T09:03:02Z</time>
      </trkpt>
      <trkpt lat="43.67433" lon="3.5966">
        <ele>142.89</ele>
        <time>2016-03-06T09:03:03Z</time>
      </trkpt>
      <trkpt lat="43.67452" lon="3.5967">
        <ele>141.93</ele>
        <time>2016-03-06T09:03:04Z</time>
      </trkpt>
      <trkpt lat="43.67471" lon="3.59686">
        <ele>140.97</ele>
        <time>2016-03-06T09:03:05Z</time>
      </trkpt>
      <trkpt lat="43.67489" lon="3.59702">
        <ele>139.53</ele>
        <time>2016-03-06T09:03:06Z</time>
      </trkpt>
      <trkpt lat="43.6754" lon="3.59736">
        <ele>136.16</ele>
        <time>2016-03-06T09:03:09Z</time>
      </trkpt>
      <trkpt lat="43.67559" lon="3.59741">
        <ele>135.2</ele>
        <time>2016-03-06T09:03:10Z</time>
      </trkpt>
      <trkpt lat="43.67579" lon="3.59744">
        <ele>134.24</ele>
        <time>2016-03-06T09:03:11Z</time>
      </trkpt>
      <trkpt lat="43.67757" lon="3.59748">
        <ele>127.99</ele>
        <time>2016-03-06T09:03:19Z</time>
      </trkpt>
      <trkpt lat="43.67841" lon="3.59751">
        <ele>124.15</ele>
        <time>2016-03-06T09:03:24Z</time>
      </trkpt>
      <trkpt lat="43.67849" lon="3.59759">
        <ele>123.19</ele>
        <time>2016-03-06T09:03:25Z</time>
      </trkpt>
      <trkpt lat="43.67854" lon="3.59772">
        <ele>122.71</ele>
        <time>2016-03-06T09:03:26Z</time>
      </trkpt>
      <trkpt lat="43.67854" lon="3.59789">
        <ele>121.26</ele>
        <time>2016-03-06T09:03:27Z</time>
      </trkpt>
      <trkpt lat="43.67852" lon="3.59807">
        <ele>120.3</ele>
        <time>2016-03-06T09:03:28Z</time>
      </trkpt>
      <trkpt lat="43.6785" lon="3.59825">
        <ele>119.34</ele>
        <time>2016-03-06T09:03:29Z</time>
      </trkpt>
      <trkpt lat="43.6785" lon="3.59842">
        <ele>118.38</ele>
        <time>2016-03-06T09:03:30Z</time>
      </trkpt>
      <trkpt lat="43.67853" lon="3.59856">
        <ele>117.42</ele>
        <time>2016-03-06T09:03:31Z</time>
      </trkpt>
      <trkpt lat="43.6786" lon="3.59868">
        <ele>116.46</ele>
        <time>2016-03-06T09:03:32Z</time>
      </trkpt>
      <trkpt lat="43.67871" lon="3.59875">
        <ele>115.98</ele>
        <time>2016-03-06T09:03:33Z</time>
      </trkpt>
      <trkpt lat="43.67884" lon="3.59876">
        <ele>115.01</ele>
        <time>2016-03-06T09:03:34Z</time>
      </trkpt>
      <trkpt lat="43.67896" lon="3.59872">
        <ele>114.53</ele>
        <time>2016-03-06T09:03:35Z</time>
      </trkpt>
      <trkpt lat="43.67907" lon="3.59865">
        <ele>113.57</ele>
        <time>2016-03-06T09:03:36Z</time>
      </trkpt>
      <trkpt lat="43.67915" lon="3.5985">
        <ele>113.09</ele>
        <time>2016-03-06T09:03:37Z</time>
      </trkpt>
      <trkpt lat="43.67919" lon="3.59829">
        <ele>112.61</ele>
        <time>2016-03-06T09:03:38Z</time>
      </trkpt>
      <trkpt lat="43.67921" lon="3.59809">
        <ele>111.65</ele>
        <time>2016-03-06T09:03:39Z</time>
      </trkpt>
      <trkpt lat="43.67922" lon="3.59786">
        <ele>110.69</ele>
        <time>2016-03-06T09:03:40Z</time>
      </trkpt>
      <trkpt lat="43.67923" lon="3.59763">
        <ele>109.73</ele>
        <time>2016-03-06T09:03:41Z</time>
      </trkpt>
      <trkpt lat="43.67927" lon="3.59613">
        <ele>105.4</ele>
        <time>2016-03-06T09:03:48Z</time>
      </trkpt>
      <trkpt lat="43.67931" lon="3.59592">
        <ele>104.44</ele>
        <time>2016-03-06T09:03:49Z</time>
      </trkpt>
      <trkpt lat="43.67938" lon="3.59572">
        <ele>103.96</ele>
        <time>2016-03-06T09:03:50Z</time>
      </trkpt>
      <trkpt lat="43.67947" lon="3.59552">
        <ele>103.48</ele>
        <time>2016-03-06T09:03:51Z</time>
      </trkpt>
      <trkpt lat="43.67958" lon="3.59535">
        <ele>102.52</ele>
        <time>2016-03-06T09:03:52Z</time>
      </trkpt>
      <trkpt lat="43.67971" lon="3.5952">
        <ele>102.04</ele>
        <time>2016-03-06T09:03:53Z</time>
      </trkpt>
      <trkpt lat="43.67985" lon="3.59506">
        <ele>101.08</ele>
        <time>2016-03-06T09:03:54Z</time>
      </trkpt>
      <trkpt lat="43.68108" lon="3.59381">
        <ele>93.39</ele>
        <time>2016-03-06T09:04:03Z</time>
      </trkpt>
      <trkpt lat="43.6812" lon="3.59373">
        <ele>92.9</ele>
        <time>2016-03-06T09:04:04Z</time>
      </trkpt>
      <trkpt lat="43.68132" lon="3.59366">
        <ele>92.42</ele>
        <time>2016-03-06T09:04:05Z</time>
      </trkpt>
      <trkpt lat="43.68146" lon="3.59362">
        <ele>91.46</ele>
        <time>2016-03-06T09:04:06Z</time>
      </trkpt>
      <trkpt lat="43.6816" lon="3.59358">
        <ele>90.98</ele>
        <time>2016-03-06T09:04:07Z</time>
      </trkpt>
      <trkpt lat="43.68174" lon="3.59356">
        <ele>90.5</ele>
        <time>2016-03-06T09:04:08Z</time>
      </trkpt>
      <trkpt lat="43.68188" lon="3.59356">
        <ele>90.02</ele>
        <time>2016-03-06T09:04:09Z</time>
      </trkpt>
      <trkpt lat="43.68202" lon="3.59358">
        <ele>90.02</ele>
        <time>2016-03-06T09:04:10Z</time>
      </trkpt>
      <trkpt lat="43.68217" lon="3.59361">
        <ele>88.58</ele>
        <time>2016-03-06T09:04:11Z</time>
      </trkpt>
      <trkpt lat="43.68233" lon="3.59366">
        <ele>87.62</ele>
        <time>2016-03-06T09:04:12Z</time>
      </trkpt>
      <trkpt lat="43.68378" lon="3.59418">
        <ele>78</ele>
        <time>2016-03-06T09:04:22Z</time>
      </trkpt>
      <trkpt lat="43.6839" lon="3.59421">
        <ele>77.52</ele>
        <time>2016-03-06T09:04:23Z</time>
      </trkpt>
      <trkpt lat="43.68403" lon="3.59422">
        <ele>77.04</ele>
        <time>2016-03-06T09:04:24Z</time>
      </trkpt>
      <trkpt lat="43.68434" lon="3.59423">
        <ele>76.08</ele>
        <time>2016-03-06T09:04:27Z</time>
      </trkpt>
      <trkpt lat="43.68442" lon="3.59421">
        <ele>76.08</ele>
        <time>2016-03-06T09:04:28Z</time>
      </trkpt>
      <trkpt lat="43.68453" lon="3.59418">
        <ele>76.56</ele>
        <time>2016-03-06T09:04:33Z</time>
      </trkpt>
      <trkpt lat="43.68458" lon="3.59416">
        <ele>77.04</ele>
        <time>2016-03-06T09:04:35Z</time>
      </trkpt>
      <trkpt lat="43.68464" lon="3.59411">
        <ele>77.04</ele>
        <time>2016-03-06T09:04:36Z</time>
      </trkpt>
      <trkpt lat="43.6847" lon="3.59405">
        <ele>77.52</ele>
        <time>2016-03-06T09:04:37Z</time>
      </trkpt>
      <trkpt lat="43.68475" lon="3.59398">
        <ele>77.52</ele>
        <time>2016-03-06T09:04:38Z</time>
      </trkpt>
      <trkpt lat="43.6848" lon="3.59389">
        <ele>78</ele>
        <time>2016-03-06T09:04:39Z</time>
      </trkpt>
      <trkpt lat="43.68485" lon="3.5938">
        <ele>78.48</ele>
        <time>2016-03-06T09:04:40Z</time>
      </trkpt>
      <trkpt lat="43.6849" lon="3.5937">
        <ele>78.97</ele>
        <time>2016-03-06T09:04:41Z</time>
      </trkpt>
      <trkpt lat="43.68495" lon="3.59363">
        <ele>79.45</ele>
        <time>2016-03-06T09:04:42Z</time>
      </trkpt>
      <trkpt lat="43.685" lon="3.59357">
        <ele>79.93</ele>
        <time>2016-03-06T09:04:43Z</time>
      </trkpt>
      <trkpt lat="43.68503" lon="3.59351">
        <ele>79.93</ele>
        <time>2016-03-06T09:04:44Z</time>
      </trkpt>
      <trkpt lat="43.68502" lon="3.59344">
        <ele>80.41</ele>
        <time>2016-03-06T09:04:45Z</time>
      </trkpt>
      <trkpt lat="43.68497" lon="3.59338">
        <ele>80.41</ele>
        <time>2016-03-06T09:04:46Z</time>
      </trkpt>
      <trkpt lat="43.6849" lon="3.59333">
        <ele>80.41</ele>
        <time>2016-03-06T09:04:47Z</time>
      </trkpt>
      <trkpt lat="43.68483" lon="3.59325">
        <ele>80.41</ele>
        <time>2016-03-06T09:04:48Z</time>
      </trkpt>
      <trkpt lat="43.68477" lon="3.59314">
        <ele>80.41</ele>
        <time>2016-03-06T09:04:49Z</time>
      </trkpt>
      <trkpt lat="43.68472" lon="3.59301">
        <ele>80.89</ele>
        <time>2016-03-06T09:04:50Z</time>
      </trkpt>
      <trkpt lat="43.68467" lon="3.59287">
        <ele>81.37</ele>
        <time>2016-03-06T09:04:51Z</time>
      </trkpt>
      <trkpt lat="43.68464" lon="3.59271">
        <ele>81.85</ele>
        <time>2016-03-06T09:04:52Z</time>
      </trkpt>
      <trkpt lat="43.68461" lon="3.59256">
        <ele>82.33</ele>
        <time>2016-03-06T09:04:53Z</time>
      </trkpt>
      <trkpt lat="43.6846" lon="3.59241">
        <ele>82.81</ele>
        <time>2016-03-06T09:04:54Z</time>
      </trkpt>
      <trkpt lat="43.6846" lon="3.59228">
        <ele>82.81</ele>
        <time>2016-03-06T09:04:55Z</time>
      </trkpt>
      <trkpt lat="43.68455" lon="3.59164">
        <ele>84.25</ele>
        <time>2016-03-06T09:05:01Z</time>
      </trkpt>
      <trkpt lat="43.68454" lon="3.5915">
        <ele>84.73</ele>
        <time>2016-03-06T09:05:02Z</time>
      </trkpt>
      <trkpt lat="43.68449" lon="3.59081">
        <ele>87.14</ele>
        <time>2016-03-06T09:05:08Z</time>
      </trkpt>
      <trkpt lat="43.6845" lon="3.59068">
        <ele>88.1</ele>
        <time>2016-03-06T09:05:09Z</time>
      </trkpt>
      <trkpt lat="43.68453" lon="3.59006">
        <ele>89.54</ele>
        <time>2016-03-06T09:05:14Z</time>
      </trkpt>
      <trkpt lat="43.68456" lon="3.58993">
        <ele>88.1</ele>
        <time>2016-03-06T09:05:15Z</time>
      </trkpt>
      <trkpt lat="43.6846" lon="3.58981">
        <ele>87.14</ele>
        <time>2016-03-06T09:05:16Z</time>
      </trkpt>
      <trkpt lat="43.68466" lon="3.58971">
        <ele>85.69</ele>
        <time>2016-03-06T09:05:17Z</time>
      </trkpt>
      <trkpt lat="43.68471" lon="3.58961">
        <ele>84.25</ele>
        <time>2016-03-06T09:05:18Z</time>
      </trkpt>
      <trkpt lat="43.68476" lon="3.58951">
        <ele>83.77</ele>
        <time>2016-03-06T09:05:19Z</time>
      </trkpt>
      <trkpt lat="43.68518" lon="3.58854">
        <ele>81.37</ele>
        <time>2016-03-06T09:05:28Z</time>
      </trkpt>
      <trkpt lat="43.68556" lon="3.58718">
        <ele>78.97</ele>
        <time>2016-03-06T09:05:39Z</time>
      </trkpt>
      <trkpt lat="43.68565" lon="3.58637">
        <ele>79.93</ele>
        <time>2016-03-06T09:05:46Z</time>
      </trkpt>
      <trkpt lat="43.68577" lon="3.58604">
        <ele>77.52</ele>
        <time>2016-03-06T09:05:53Z</time>
      </trkpt>
      <trkpt lat="43.68582" lon="3.58601">
        <ele>78</ele>
        <time>2016-03-06T09:05:54Z</time>
      </trkpt>
      <trkpt lat="43.68652" lon="3.58565">
        <ele>77.52</ele>
        <time>2016-03-06T09:06:02Z</time>
      </trkpt>
      <trkpt lat="43.68771" lon="3.58504">
        <ele>75.6</ele>
        <time>2016-03-06T09:06:16Z</time>
      </trkpt>
      <trkpt lat="43.68784" lon="3.58497">
        <ele>74.64</ele>
        <time>2016-03-06T09:06:23Z</time>
      </trkpt>
      <trkpt lat="43.68825" lon="3.58477">
        <ele>74.16</ele>
        <time>2016-03-06T09:06:28Z</time>
      </trkpt>
      <trkpt lat="43.68945" lon="3.5841">
        <ele>72.72</ele>
        <time>2016-03-06T09:06:38Z</time>
      </trkpt>
      <trkpt lat="43.69005" lon="3.5838">
        <ele>72.72</ele>
        <time>2016-03-06T09:06:43Z</time>
      </trkpt>
      <trkpt lat="43.69016" lon="3.58378">
        <ele>73.68</ele>
        <time>2016-03-06T09:06:44Z</time>
      </trkpt>
      <trkpt lat="43.69028" lon="3.58378">
        <ele>74.16</ele>
        <time>2016-03-06T09:06:45Z</time>
      </trkpt>
      <trkpt lat="43.6904" lon="3.58382">
        <ele>74.16</ele>
        <time>2016-03-06T09:06:46Z</time>
      </trkpt>
      <trkpt lat="43.69052" lon="3.58389">
        <ele>74.16</ele>
        <time>2016-03-06T09:06:47Z</time>
      </trkpt>
      <trkpt lat="43.69064" lon="3.58402">
        <ele>74.16</ele>
        <time>2016-03-06T09:06:48Z</time>
      </trkpt>
      <trkpt lat="43.69076" lon="3.58413">
        <ele>73.68</ele>
        <time>2016-03-06T09:06:49Z</time>
      </trkpt>
      <trkpt lat="43.69181" lon="3.58506">
        <ele>73.68</ele>
        <time>2016-03-06T09:06:59Z</time>
      </trkpt>
      <trkpt lat="43.69213" lon="3.58535">
        <ele>73.68</ele>
        <time>2016-03-06T09:07:03Z</time>
      </trkpt>
      <trkpt lat="43.69221" lon="3.58537">
        <ele>74.16</ele>
        <time>2016-03-06T09:07:04Z</time>
      </trkpt>
      <trkpt lat="43.6923" lon="3.58536">
        <ele>73.68</ele>
        <time>2016-03-06T09:07:05Z</time>
      </trkpt>
      <trkpt lat="43.69237" lon="3.58528">
        <ele>73.68</ele>
        <time>2016-03-06T09:07:06Z</time>
      </trkpt>
      <trkpt lat="43.69241" lon="3.58515">
        <ele>73.68</ele>
        <time>2016-03-06T09:07:07Z</time>
      </trkpt>
      <trkpt lat="43.69244" lon="3.58501">
        <ele>73.68</ele>
        <time>2016-03-06T09:07:08Z</time>
      </trkpt>
      <trkpt lat="43.69246" lon="3.58487">
        <ele>73.68</ele>
        <time>2016-03-06T09:07:09Z</time>
      </trkpt>
      <trkpt lat="43.69247" lon="3.58471">
        <ele>73.2</ele>
        <time>2016-03-06T09:07:10Z</time>
      </trkpt>
      <trkpt lat="43.69247" lon="3.58453">
        <ele>73.2</ele>
        <time>2016-03-06T09:07:11Z</time>
      </trkpt>
      <trkpt lat="43.69249" lon="3.5833">
        <ele>70.79</ele>
        <time>2016-03-06T09:07:16Z</time>
      </trkpt>
      <trkpt lat="43.69247" lon="3.58307">
        <ele>69.83</ele>
        <time>2016-03-06T09:07:17Z</time>
      </trkpt>
      <trkpt lat="43.69243" lon="3.58284">
        <ele>68.87</ele>
        <time>2016-03-06T09:07:18Z</time>
      </trkpt>
      <trkpt lat="43.69237" lon="3.58263">
        <ele>67.91</ele>
        <time>2016-03-06T09:07:19Z</time>
      </trkpt>
      <trkpt lat="43.69228" lon="3.58226">
        <ele>66.95</ele>
        <time>2016-03-06T09:07:21Z</time>
      </trkpt>
      <trkpt lat="43.69227" lon="3.58211">
        <ele>66.47</ele>
        <time>2016-03-06T09:07:22Z</time>
      </trkpt>
      <trkpt lat="43.69232" lon="3.58198">
        <ele>65.51</ele>
        <time>2016-03-06T09:07:23Z</time>
      </trkpt>
      <trkpt lat="43.69241" lon="3.58185">
        <ele>65.51</ele>
        <time>2016-03-06T09:07:24Z</time>
      </trkpt>
      <trkpt lat="43.69254" lon="3.58171">
        <ele>65.03</ele>
        <time>2016-03-06T09:07:25Z</time>
      </trkpt>
      <trkpt lat="43.69268" lon="3.58155">
        <ele>65.03</ele>
        <time>2016-03-06T09:07:26Z</time>
      </trkpt>
      <trkpt lat="43.6936" lon="3.58024">
        <ele>63.58</ele>
        <time>2016-03-06T09:07:32Z</time>
      </trkpt>
      <trkpt lat="43.69376" lon="3.58">
        <ele>63.1</ele>
        <time>2016-03-06T09:07:33Z</time>
      </trkpt>
      <trkpt lat="43.69395" lon="3.5798">
        <ele>63.1</ele>
        <time>2016-03-06T09:07:34Z</time>
      </trkpt>
      <trkpt lat="43.69415" lon="3.57962">
        <ele>63.58</ele>
        <time>2016-03-06T09:07:35Z</time>
      </trkpt>
      <trkpt lat="43.6971" lon="3.57715">
        <ele>70.31</ele>
        <time>2016-03-06T09:07:50Z</time>
      </trkpt>
      <trkpt lat="43.69877" lon="3.57503">
        <ele>71.27</ele>
        <time>2016-03-06T09:08:00Z</time>
      </trkpt>
      <trkpt lat="43.69962" lon="3.57302">
        <ele>71.76</ele>
        <time>2016-03-06T09:08:07Z</time>
      </trkpt>
      <trkpt lat="43.70112" lon="3.56892">
        <ele>72.72</ele>
        <time>2016-03-06T09:08:21Z</time>
      </trkpt>
      <trkpt lat="43.70207" lon="3.56636">
        <ele>73.2</ele>
        <time>2016-03-06T09:08:30Z</time>
      </trkpt>
      <trkpt lat="43.70339" lon="3.56272">
        <ele>74.16</ele>
        <time>2016-03-06T09:08:43Z</time>
      </trkpt>
      <trkpt lat="43.70353" lon="3.56248">
        <ele>74.16</ele>
        <time>2016-03-06T09:08:44Z</time>
      </trkpt>
      <trkpt lat="43.7037" lon="3.56227">
        <ele>74.16</ele>
        <time>2016-03-06T09:08:45Z</time>
      </trkpt>
      <trkpt lat="43.7039" lon="3.56209">
        <ele>74.16</ele>
        <time>2016-03-06T09:08:46Z</time>
      </trkpt>
      <trkpt lat="43.7041" lon="3.56193">
        <ele>74.16</ele>
        <time>2016-03-06T09:08:47Z</time>
      </trkpt>
      <trkpt lat="43.70432" lon="3.56179">
        <ele>74.16</ele>
        <time>2016-03-06T09:08:48Z</time>
      </trkpt>
      <trkpt lat="43.70455" lon="3.56167">
        <ele>74.16</ele>
        <time>2016-03-06T09:08:49Z</time>
      </trkpt>
      <trkpt lat="43.70615" lon="3.56056">
        <ele>73.2</ele>
        <time>2016-03-06T09:08:57Z</time>
      </trkpt>
      <trkpt lat="43.70716" lon="3.55948">
        <ele>73.2</ele>
        <time>2016-03-06T09:09:03Z</time>
      </trkpt>
      <trkpt lat="43.70729" lon="3.55929">
        <ele>73.2</ele>
        <time>2016-03-06T09:09:04Z</time>
      </trkpt>
      <trkpt lat="43.70816" lon="3.55791">
        <ele>73.2</ele>
        <time>2016-03-06T09:09:12Z</time>
      </trkpt>
      <trkpt lat="43.70822" lon="3.55779">
        <ele>73.2</ele>
        <time>2016-03-06T09:09:13Z</time>
      </trkpt>
      <trkpt lat="43.70821" lon="3.55767">
        <ele>73.68</ele>
        <time>2016-03-06T09:09:14Z</time>
      </trkpt>
      <trkpt lat="43.70817" lon="3.55755">
        <ele>73.68</ele>
        <time>2016-03-06T09:09:15Z</time>
      </trkpt>
      <trkpt lat="43.70814" lon="3.55744">
        <ele>73.68</ele>
        <time>2016-03-06T09:09:16Z</time>
      </trkpt>
      <trkpt lat="43.7081" lon="3.55733">
        <ele>73.68</ele>
        <time>2016-03-06T09:09:17Z</time>
      </trkpt>
      <trkpt lat="43.70806" lon="3.55724">
        <ele>74.16</ele>
        <time>2016-03-06T09:09:18Z</time>
      </trkpt>
      <trkpt lat="43.70785" lon="3.55683">
        <ele>74.64</ele>
        <time>2016-03-06T09:09:25Z</time>
      </trkpt>
      <trkpt lat="43.70779" lon="3.55682">
        <ele>74.16</ele>
        <time>2016-03-06T09:09:26Z</time>
      </trkpt>
      <trkpt lat="43.70772" lon="3.55682">
        <ele>73.68</ele>
        <time>2016-03-06T09:09:27Z</time>
      </trkpt>
      <trkpt lat="43.70762" lon="3.55679">
        <ele>73.2</ele>
        <time>2016-03-06T09:09:28Z</time>
      </trkpt>
      <trkpt lat="43.70753" lon="3.55671">
        <ele>73.2</ele>
        <time>2016-03-06T09:09:29Z</time>
      </trkpt>
      <trkpt lat="43.70744" lon="3.55657">
        <ele>72.72</ele>
        <time>2016-03-06T09:09:30Z</time>
      </trkpt>
      <trkpt lat="43.70736" lon="3.55641">
        <ele>72.72</ele>
        <time>2016-03-06T09:09:31Z</time>
      </trkpt>
      <trkpt lat="43.70727" lon="3.55624">
        <ele>72.72</ele>
        <time>2016-03-06T09:09:32Z</time>
      </trkpt>
      <trkpt lat="43.70715" lon="3.55608">
        <ele>72.24</ele>
        <time>2016-03-06T09:09:33Z</time>
      </trkpt>
      <trkpt lat="43.70701" lon="3.55594">
        <ele>72.24</ele>
        <time>2016-03-06T09:09:34Z</time>
      </trkpt>
      <trkpt lat="43.70685" lon="3.55583">
        <ele>73.2</ele>
        <time>2016-03-06T09:09:35Z</time>
      </trkpt>
      <trkpt lat="43.70669" lon="3.55572">
        <ele>73.68</ele>
        <time>2016-03-06T09:09:36Z</time>
      </trkpt>
      <trkpt lat="43.70615" lon="3.55537">
        <ele>77.04</ele>
        <time>2016-03-06T09:09:40Z</time>
      </trkpt>
      <trkpt lat="43.70601" lon="3.55536">
        <ele>77.52</ele>
        <time>2016-03-06T09:09:41Z</time>
      </trkpt>
      <trkpt lat="43.70586" lon="3.55538">
        <ele>78.97</ele>
        <time>2016-03-06T09:09:42Z</time>
      </trkpt>
      <trkpt lat="43.70545" lon="3.55539">
        <ele>81.37</ele>
        <time>2016-03-06T09:09:45Z</time>
      </trkpt>
      <trkpt lat="43.70532" lon="3.55534">
        <ele>82.33</ele>
        <time>2016-03-06T09:09:46Z</time>
      </trkpt>
      <trkpt lat="43.70521" lon="3.55526">
        <ele>83.29</ele>
        <time>2016-03-06T09:09:47Z</time>
      </trkpt>
      <trkpt lat="43.7051" lon="3.55516">
        <ele>84.25</ele>
        <time>2016-03-06T09:09:48Z</time>
      </trkpt>
      <trkpt lat="43.70499" lon="3.55505">
        <ele>85.21</ele>
        <time>2016-03-06T09:09:49Z</time>
      </trkpt>
      <trkpt lat="43.7041" lon="3.55413">
        <ele>91.94</ele>
        <time>2016-03-06T09:09:58Z</time>
      </trkpt>
      <trkpt lat="43.70289" lon="3.55305">
        <ele>96.27</ele>
        <time>2016-03-06T09:10:10Z</time>
      </trkpt>
      <trkpt lat="43.70238" lon="3.55268">
        <ele>98.67</ele>
        <time>2016-03-06T09:10:16Z</time>
      </trkpt>
      <trkpt lat="43.70235" lon="3.55262">
        <ele>98.67</ele>
        <time>2016-03-06T09:10:17Z</time>
      </trkpt>
      <trkpt lat="43.70232" lon="3.55256">
        <ele>99.15</ele>
        <time>2016-03-06T09:10:18Z</time>
      </trkpt>
      <trkpt lat="43.7023" lon="3.55245">
        <ele>99.63</ele>
        <time>2016-03-06T09:10:19Z</time>
      </trkpt>
      <trkpt lat="43.70228" lon="3.55233">
        <ele>100.11</ele>
        <time>2016-03-06T09:10:20Z</time>
      </trkpt>
      <trkpt lat="43.70226" lon="3.55219">
        <ele>100.6</ele>
        <time>2016-03-06T09:10:21Z</time>
      </trkpt>
      <trkpt lat="43.70223" lon="3.55206">
        <ele>101.56</ele>
        <time>2016-03-06T09:10:22Z</time>
      </trkpt>
      <trkpt lat="43.70221" lon="3.55194">
        <ele>102.04</ele>
        <time>2016-03-06T09:10:23Z</time>
      </trkpt>
      <trkpt lat="43.70166" lon="3.55066">
        <ele>108.77</ele>
        <time>2016-03-06T09:10:35Z</time>
      </trkpt>
      <trkpt lat="43.70149" lon="3.55025">
        <ele>110.21</ele>
        <time>2016-03-06T09:10:39Z</time>
      </trkpt>
      <trkpt lat="43.70147" lon="3.55013">
        <ele>111.65</ele>
        <time>2016-03-06T09:10:40Z</time>
      </trkpt>
      <trkpt lat="43.70133" lon="3.54914">
        <ele>115.01</ele>
        <time>2016-03-06T09:10:48Z</time>
      </trkpt>
      <trkpt lat="43.7013" lon="3.54904">
        <ele>115.5</ele>
        <time>2016-03-06T09:10:49Z</time>
      </trkpt>
      <trkpt lat="43.70126" lon="3.54894">
        <ele>115.5</ele>
        <time>2016-03-06T09:10:50Z</time>
      </trkpt>
      <trkpt lat="43.70078" lon="3.54788">
        <ele>116.94</ele>
        <time>2016-03-06T09:10:58Z</time>
      </trkpt>
      <trkpt lat="43.69999" lon="3.54612">
        <ele>119.82</ele>
        <time>2016-03-06T09:11:08Z</time>
      </trkpt>
      <trkpt lat="43.69923" lon="3.5446">
        <ele>121.74</ele>
        <time>2016-03-06T09:11:16Z</time>
      </trkpt>
      <trkpt lat="43.69853" lon="3.54324">
        <ele>121.74</ele>
        <time>2016-03-06T09:11:25Z</time>
      </trkpt>
      <trkpt lat="43.69795" lon="3.54186">
        <ele>122.71</ele>
        <time>2016-03-06T09:11:31Z</time>
      </trkpt>
      <trkpt lat="43.69679" lon="3.53945">
        <ele>128.47</ele>
        <time>2016-03-06T09:11:40Z</time>
      </trkpt>
      <trkpt lat="43.69607" lon="3.53681">
        <ele>128.47</ele>
        <time>2016-03-06T09:11:49Z</time>
      </trkpt>
      <trkpt lat="43.69579" lon="3.5351">
        <ele>126.07</ele>
        <time>2016-03-06T09:11:54Z</time>
      </trkpt>
      <trkpt lat="43.69568" lon="3.53478">
        <ele>125.59</ele>
        <time>2016-03-06T09:11:55Z</time>
      </trkpt>
      <trkpt lat="43.69495" lon="3.53243">
        <ele>128.95</ele>
        <time>2016-03-06T09:12:02Z</time>
      </trkpt>
      <trkpt lat="43.69484" lon="3.53136">
        <ele>132.8</ele>
        <time>2016-03-06T09:12:07Z</time>
      </trkpt>
      <trkpt lat="43.69482" lon="3.53058">
        <ele>132.32</ele>
        <time>2016-03-06T09:12:14Z</time>
      </trkpt>
      <trkpt lat="43.6948" lon="3.52919">
        <ele>129.92</ele>
        <time>2016-03-06T09:12:19Z</time>
      </trkpt>
      <trkpt lat="43.69446" lon="3.52653">
        <ele>123.19</ele>
        <time>2016-03-06T09:12:27Z</time>
      </trkpt>
      <trkpt lat="43.6943" lon="3.52487">
        <ele>118.38</ele>
        <time>2016-03-06T09:12:33Z</time>
      </trkpt>
      <trkpt lat="43.69433" lon="3.52463">
        <ele>117.42</ele>
        <time>2016-03-06T09:12:34Z</time>
      </trkpt>
      <trkpt lat="43.69439" lon="3.52417">
        <ele>116.46</ele>
        <time>2016-03-06T09:12:36Z</time>
      </trkpt>
      <trkpt lat="43.69437" lon="3.52394">
        <ele>115.5</ele>
        <time>2016-03-06T09:12:37Z</time>
      </trkpt>
      <trkpt lat="43.6943" lon="3.52369">
        <ele>114.53</ele>
        <time>2016-03-06T09:12:38Z</time>
      </trkpt>
      <trkpt lat="43.69421" lon="3.52342">
        <ele>113.57</ele>
        <time>2016-03-06T09:12:39Z</time>
      </trkpt>
      <trkpt lat="43.69412" lon="3.52312">
        <ele>113.09</ele>
        <time>2016-03-06T09:12:40Z</time>
      </trkpt>
      <trkpt lat="43.69301" lon="3.51945">
        <ele>119.82</ele>
        <time>2016-03-06T09:12:51Z</time>
      </trkpt>
      <trkpt lat="43.69247" lon="3.51635">
        <ele>128.95</ele>
        <time>2016-03-06T09:13:00Z</time>
      </trkpt>
      <trkpt lat="43.69239" lon="3.51382">
        <ele>137.13</ele>
        <time>2016-03-06T09:13:08Z</time>
      </trkpt>
      <trkpt lat="43.69245" lon="3.51356">
        <ele>137.61</ele>
        <time>2016-03-06T09:13:09Z</time>
      </trkpt>
      <trkpt lat="43.69253" lon="3.5133">
        <ele>138.09</ele>
        <time>2016-03-06T09:13:10Z</time>
      </trkpt>
      <trkpt lat="43.69263" lon="3.51304">
        <ele>138.09</ele>
        <time>2016-03-06T09:13:11Z</time>
      </trkpt>
      <trkpt lat="43.69273" lon="3.51277">
        <ele>137.61</ele>
        <time>2016-03-06T09:13:12Z</time>
      </trkpt>
      <trkpt lat="43.69343" lon="3.51079">
        <ele>139.53</ele>
        <time>2016-03-06T09:13:20Z</time>
      </trkpt>
      <trkpt lat="43.6936" lon="3.50958">
        <ele>145.78</ele>
        <time>2016-03-06T09:13:27Z</time>
      </trkpt>
      <trkpt lat="43.69363" lon="3.5094">
        <ele>147.22</ele>
        <time>2016-03-06T09:13:29Z</time>
      </trkpt>
      <trkpt lat="43.69365" lon="3.50932">
        <ele>147.22</ele>
        <time>2016-03-06T09:13:30Z</time>
      </trkpt>
      <trkpt lat="43.6937" lon="3.50922">
        <ele>147.7</ele>
        <time>2016-03-06T09:13:31Z</time>
      </trkpt>
      <trkpt lat="43.69375" lon="3.50911">
        <ele>148.18</ele>
        <time>2016-03-06T09:13:32Z</time>
      </trkpt>
      <trkpt lat="43.69382" lon="3.50901">
        <ele>148.66</ele>
        <time>2016-03-06T09:13:33Z</time>
      </trkpt>
      <trkpt lat="43.69397" lon="3.50875">
        <ele>149.14</ele>
        <time>2016-03-06T09:13:38Z</time>
      </trkpt>
      <trkpt lat="43.69411" lon="3.50857">
        <ele>149.62</ele>
        <time>2016-03-06T09:13:50Z</time>
      </trkpt>
      <trkpt lat="43.69472" lon="3.50773">
        <ele>152.03</ele>
        <time>2016-03-06T09:13:57Z</time>
      </trkpt>
      <trkpt lat="43.6956" lon="3.50669">
        <ele>156.35</ele>
        <time>2016-03-06T09:14:07Z</time>
      </trkpt>
      <trkpt lat="43.69587" lon="3.50635">
        <ele>157.79</ele>
        <time>2016-03-06T09:14:11Z</time>
      </trkpt>
      <trkpt lat="43.69592" lon="3.50624">
        <ele>157.79</ele>
        <time>2016-03-06T09:14:12Z</time>
      </trkpt>
      <trkpt lat="43.69594" lon="3.50612">
        <ele>158.27</ele>
        <time>2016-03-06T09:14:13Z</time>
      </trkpt>
      <trkpt lat="43.69593" lon="3.506">
        <ele>158.27</ele>
        <time>2016-03-06T09:14:14Z</time>
      </trkpt>
      <trkpt lat="43.6959" lon="3.50588">
        <ele>158.27</ele>
        <time>2016-03-06T09:14:15Z</time>
      </trkpt>
      <trkpt lat="43.69586" lon="3.50577">
        <ele>158.27</ele>
        <time>2016-03-06T09:14:16Z</time>
      </trkpt>
      <trkpt lat="43.69574" lon="3.50537">
        <ele>160.2</ele>
        <time>2016-03-06T09:14:23Z</time>
      </trkpt>
      <trkpt lat="43.69576" lon="3.50515">
        <ele>159.72</ele>
        <time>2016-03-06T09:14:29Z</time>
      </trkpt>
      <trkpt lat="43.69579" lon="3.5051">
        <ele>159.24</ele>
        <time>2016-03-06T09:14:30Z</time>
      </trkpt>
      <trkpt lat="43.69594" lon="3.50489">
        <ele>158.75</ele>
        <time>2016-03-06T09:14:33Z</time>
      </trkpt>
      <trkpt lat="43.69671" lon="3.50403">
        <ele>158.75</ele>
        <time>2016-03-06T09:14:43Z</time>
      </trkpt>
      <trkpt lat="43.69758" lon="3.50286">
        <ele>161.64</ele>
        <time>2016-03-06T09:14:55Z</time>
      </trkpt>
      <trkpt lat="43.69765" lon="3.50273">
        <ele>162.6</ele>
        <time>2016-03-06T09:15:00Z</time>
      </trkpt>
      <trkpt lat="43.69783" lon="3.50237">
        <ele>164.52</ele>
        <time>2016-03-06T09:15:05Z</time>
      </trkpt>
      <trkpt lat="43.69847" lon="3.50103">
        <ele>167.89</ele>
        <time>2016-03-06T09:15:15Z</time>
      </trkpt>
      <trkpt lat="43.69948" lon="3.49948">
        <ele>172.69</ele>
        <time>2016-03-06T09:15:26Z</time>
      </trkpt>
      <trkpt lat="43.69997" lon="3.4989">
        <ele>176.54</ele>
        <time>2016-03-06T09:15:34Z</time>
      </trkpt>
      <trkpt lat="43.70013" lon="3.49875">
        <ele>180.87</ele>
        <time>2016-03-06T09:15:42Z</time>
      </trkpt>
      <trkpt lat="43.70014" lon="3.49874">
        <ele>181.35</ele>
        <time>2016-03-06T09:15:43Z</time>
      </trkpt>
      <trkpt lat="43.70017" lon="3.49872">
        <ele>182.31</ele>
        <time>2016-03-06T09:15:44Z</time>
      </trkpt>
      <trkpt lat="43.70032" lon="3.4986">
        <ele>183.75</ele>
        <time>2016-03-06T09:15:47Z</time>
      </trkpt>
      <trkpt lat="43.70037" lon="3.49856">
        <ele>183.27</ele>
        <time>2016-03-06T09:15:48Z</time>
      </trkpt>
      <trkpt lat="43.7009" lon="3.49806">
        <ele>179.9</ele>
        <time>2016-03-06T09:15:55Z</time>
      </trkpt>
      <trkpt lat="43.70141" lon="3.49759">
        <ele>179.42</ele>
        <time>2016-03-06T09:16:02Z</time>
      </trkpt>
      <trkpt lat="43.70147" lon="3.49752">
        <ele>179.42</ele>
        <time>2016-03-06T09:16:03Z</time>
      </trkpt>
      <trkpt lat="43.70151" lon="3.4974">
        <ele>179.9</ele>
        <time>2016-03-06T09:16:04Z</time>
      </trkpt>
      <trkpt lat="43.70155" lon="3.49724">
        <ele>180.87</ele>
        <time>2016-03-06T09:16:05Z</time>
      </trkpt>
      <trkpt lat="43.70159" lon="3.49706">
        <ele>181.83</ele>
        <time>2016-03-06T09:16:06Z</time>
      </trkpt>
      <trkpt lat="43.70184" lon="3.49598">
        <ele>185.19</ele>
        <time>2016-03-06T09:16:13Z</time>
      </trkpt>
      <trkpt lat="43.7021" lon="3.4951">
        <ele>188.56</ele>
        <time>2016-03-06T09:16:18Z</time>
      </trkpt>
      <trkpt lat="43.7022" lon="3.49494">
        <ele>189.04</ele>
        <time>2016-03-06T09:16:19Z</time>
      </trkpt>
      <trkpt lat="43.70233" lon="3.4948">
        <ele>189.52</ele>
        <time>2016-03-06T09:16:20Z</time>
      </trkpt>
      <trkpt lat="43.70274" lon="3.49435">
        <ele>191.44</ele>
        <time>2016-03-06T09:16:23Z</time>
      </trkpt>
      <trkpt lat="43.70287" lon="3.49416">
        <ele>191.92</ele>
        <time>2016-03-06T09:16:24Z</time>
      </trkpt>
      <trkpt lat="43.70362" lon="3.49297">
        <ele>195.28</ele>
        <time>2016-03-06T09:16:30Z</time>
      </trkpt>
      <trkpt lat="43.70379" lon="3.49281">
        <ele>196.25</ele>
        <time>2016-03-06T09:16:31Z</time>
      </trkpt>
      <trkpt lat="43.70546" lon="3.49137">
        <ele>203.94</ele>
        <time>2016-03-06T09:16:40Z</time>
      </trkpt>
      <trkpt lat="43.7058" lon="3.49114">
        <ele>205.86</ele>
        <time>2016-03-06T09:16:42Z</time>
      </trkpt>
      <trkpt lat="43.70599" lon="3.49106">
        <ele>206.82</ele>
        <time>2016-03-06T09:16:43Z</time>
      </trkpt>
      <trkpt lat="43.70617" lon="3.49102">
        <ele>207.3</ele>
        <time>2016-03-06T09:16:44Z</time>
      </trkpt>
      <trkpt lat="43.70637" lon="3.49105">
        <ele>208.26</ele>
        <time>2016-03-06T09:16:45Z</time>
      </trkpt>
      <trkpt lat="43.70658" lon="3.49112">
        <ele>208.74</ele>
        <time>2016-03-06T09:16:46Z</time>
      </trkpt>
      <trkpt lat="43.70678" lon="3.4912">
        <ele>208.74</ele>
        <time>2016-03-06T09:16:47Z</time>
      </trkpt>
      <trkpt lat="43.70699" lon="3.49128">
        <ele>209.22</ele>
        <time>2016-03-06T09:16:48Z</time>
      </trkpt>
      <trkpt lat="43.70812" lon="3.49162">
        <ele>212.11</ele>
        <time>2016-03-06T09:16:54Z</time>
      </trkpt>
      <trkpt lat="43.7083" lon="3.4916">
        <ele>212.59</ele>
        <time>2016-03-06T09:16:55Z</time>
      </trkpt>
      <trkpt lat="43.70847" lon="3.49155">
        <ele>213.07</ele>
        <time>2016-03-06T09:16:56Z</time>
      </trkpt>
      <trkpt lat="43.70864" lon="3.49147">
        <ele>213.55</ele>
        <time>2016-03-06T09:16:57Z</time>
      </trkpt>
      <trkpt lat="43.70881" lon="3.49139">
        <ele>214.03</ele>
        <time>2016-03-06T09:16:58Z</time>
      </trkpt>
      <trkpt lat="43.71033" lon="3.49063">
        <ele>219.32</ele>
        <time>2016-03-06T09:17:08Z</time>
      </trkpt>
      <trkpt lat="43.71043" lon="3.49054">
        <ele>219.8</ele>
        <time>2016-03-06T09:17:09Z</time>
      </trkpt>
      <trkpt lat="43.71053" lon="3.49043">
        <ele>220.28</ele>
        <time>2016-03-06T09:17:10Z</time>
      </trkpt>
      <trkpt lat="43.71079" lon="3.49013">
        <ele>220.76</ele>
        <time>2016-03-06T09:17:13Z</time>
      </trkpt>
      <trkpt lat="43.7108" lon="3.49002">
        <ele>221.24</ele>
        <time>2016-03-06T09:17:14Z</time>
      </trkpt>
      <trkpt lat="43.71078" lon="3.48991">
        <ele>221.24</ele>
        <time>2016-03-06T09:17:15Z</time>
      </trkpt>
      <trkpt lat="43.71071" lon="3.4898">
        <ele>221.72</ele>
        <time>2016-03-06T09:17:16Z</time>
      </trkpt>
      <trkpt lat="43.71063" lon="3.48969">
        <ele>221.72</ele>
        <time>2016-03-06T09:17:17Z</time>
      </trkpt>
      <trkpt lat="43.71055" lon="3.48958">
        <ele>222.2</ele>
        <time>2016-03-06T09:17:18Z</time>
      </trkpt>
      <trkpt lat="43.71048" lon="3.48947">
        <ele>222.68</ele>
        <time>2016-03-06T09:17:19Z</time>
      </trkpt>
      <trkpt lat="43.71043" lon="3.48936">
        <ele>222.68</ele>
        <time>2016-03-06T09:17:20Z</time>
      </trkpt>
      <trkpt lat="43.71044" lon="3.48925">
        <ele>223.16</ele>
        <time>2016-03-06T09:17:21Z</time>
      </trkpt>
      <trkpt lat="43.71049" lon="3.48918">
        <ele>223.16</ele>
        <time>2016-03-06T09:17:22Z</time>
      </trkpt>
      <trkpt lat="43.71059" lon="3.48911">
        <ele>223.64</ele>
        <time>2016-03-06T09:17:23Z</time>
      </trkpt>
      <trkpt lat="43.71071" lon="3.48904">
        <ele>224.12</ele>
        <time>2016-03-06T09:17:24Z</time>
      </trkpt>
      <trkpt lat="43.71084" lon="3.48897">
        <ele>225.09</ele>
        <time>2016-03-06T09:17:25Z</time>
      </trkpt>
      <trkpt lat="43.7111" lon="3.48879">
        <ele>226.53</ele>
        <time>2016-03-06T09:17:27Z</time>
      </trkpt>
      <trkpt lat="43.71121" lon="3.48867">
        <ele>227.01</ele>
        <time>2016-03-06T09:17:28Z</time>
      </trkpt>
      <trkpt lat="43.7113" lon="3.48854">
        <ele>227.97</ele>
        <time>2016-03-06T09:17:29Z</time>
      </trkpt>
      <trkpt lat="43.71138" lon="3.4884">
        <ele>228.45</ele>
        <time>2016-03-06T09:17:30Z</time>
      </trkpt>
      <trkpt lat="43.71143" lon="3.48824">
        <ele>228.93</ele>
        <time>2016-03-06T09:17:31Z</time>
      </trkpt>
      <trkpt lat="43.71145" lon="3.48808">
        <ele>229.41</ele>
        <time>2016-03-06T09:17:32Z</time>
      </trkpt>
      <trkpt lat="43.71145" lon="3.48793">
        <ele>229.89</ele>
        <time>2016-03-06T09:17:33Z</time>
      </trkpt>
      <trkpt lat="43.71143" lon="3.48781">
        <ele>230.85</ele>
        <time>2016-03-06T09:17:34Z</time>
      </trkpt>
      <trkpt lat="43.71134" lon="3.48774">
        <ele>231.81</ele>
        <time>2016-03-06T09:17:35Z</time>
      </trkpt>
      <trkpt lat="43.71124" lon="3.48772">
        <ele>231.81</ele>
        <time>2016-03-06T09:17:36Z</time>
      </trkpt>
      <trkpt lat="43.71115" lon="3.48778">
        <ele>231.33</ele>
        <time>2016-03-06T09:17:37Z</time>
      </trkpt>
      <trkpt lat="43.71109" lon="3.48788">
        <ele>231.81</ele>
        <time>2016-03-06T09:17:38Z</time>
      </trkpt>
      <trkpt lat="43.71103" lon="3.48798">
        <ele>232.78</ele>
        <time>2016-03-06T09:17:39Z</time>
      </trkpt>
      <trkpt lat="43.71094" lon="3.48807">
        <ele>232.78</ele>
        <time>2016-03-06T09:17:40Z</time>
      </trkpt>
      <trkpt lat="43.71083" lon="3.48812">
        <ele>233.26</ele>
        <time>2016-03-06T09:17:41Z</time>
      </trkpt>
      <trkpt lat="43.71073" lon="3.4881">
        <ele>234.22</ele>
        <time>2016-03-06T09:17:42Z</time>
      </trkpt>
      <trkpt lat="43.71063" lon="3.48803">
        <ele>234.22</ele>
        <time>2016-03-06T09:17:43Z</time>
      </trkpt>
      <trkpt lat="43.71056" lon="3.48792">
        <ele>235.18</ele>
        <time>2016-03-06T09:17:44Z</time>
      </trkpt>
      <trkpt lat="43.71053" lon="3.48779">
        <ele>236.14</ele>
        <time>2016-03-06T09:17:45Z</time>
      </trkpt>
      <trkpt lat="43.71051" lon="3.48765">
        <ele>236.62</ele>
        <time>2016-03-06T09:17:46Z</time>
      </trkpt>
      <trkpt lat="43.71051" lon="3.48748">
        <ele>237.1</ele>
        <time>2016-03-06T09:17:47Z</time>
      </trkpt>
      <trkpt lat="43.71052" lon="3.48731">
        <ele>237.58</ele>
        <time>2016-03-06T09:17:48Z</time>
      </trkpt>
      <trkpt lat="43.71053" lon="3.48717">
        <ele>239.02</ele>
        <time>2016-03-06T09:17:49Z</time>
      </trkpt>
      <trkpt lat="43.71055" lon="3.48704">
        <ele>239.99</ele>
        <time>2016-03-06T09:17:50Z</time>
      </trkpt>
      <trkpt lat="43.71073" lon="3.48596">
        <ele>248.16</ele>
        <time>2016-03-06T09:17:59Z</time>
      </trkpt>
      <trkpt lat="43.71082" lon="3.48546">
        <ele>252</ele>
        <time>2016-03-06T09:18:06Z</time>
      </trkpt>
      <trkpt lat="43.71093" lon="3.48499">
        <ele>253.93</ele>
        <time>2016-03-06T09:18:13Z</time>
      </trkpt>
      <trkpt lat="43.71095" lon="3.48451">
        <ele>253.93</ele>
        <time>2016-03-06T09:18:18Z</time>
      </trkpt>
      <trkpt lat="43.71102" lon="3.4833">
        <ele>255.85</ele>
        <time>2016-03-06T09:18:30Z</time>
      </trkpt>
      <trkpt lat="43.71122" lon="3.48212">
        <ele>262.1</ele>
        <time>2016-03-06T09:18:39Z</time>
      </trkpt>
      <trkpt lat="43.71147" lon="3.48037">
        <ele>272.19</ele>
        <time>2016-03-06T09:18:47Z</time>
      </trkpt>
      <trkpt lat="43.71156" lon="3.47909">
        <ele>279.88</ele>
        <time>2016-03-06T09:18:53Z</time>
      </trkpt>
      <trkpt lat="43.7116" lon="3.47891">
        <ele>281.32</ele>
        <time>2016-03-06T09:18:54Z</time>
      </trkpt>
      <trkpt lat="43.71167" lon="3.47878">
        <ele>282.28</ele>
        <time>2016-03-06T09:18:55Z</time>
      </trkpt>
      <trkpt lat="43.71178" lon="3.4787">
        <ele>283.73</ele>
        <time>2016-03-06T09:18:56Z</time>
      </trkpt>
      <trkpt lat="43.71189" lon="3.47863">
        <ele>284.69</ele>
        <time>2016-03-06T09:18:57Z</time>
      </trkpt>
      <trkpt lat="43.71203" lon="3.47857">
        <ele>286.13</ele>
        <time>2016-03-06T09:18:58Z</time>
      </trkpt>
      <trkpt lat="43.71217" lon="3.47848">
        <ele>287.09</ele>
        <time>2016-03-06T09:18:59Z</time>
      </trkpt>
      <trkpt lat="43.71229" lon="3.47837">
        <ele>288.53</ele>
        <time>2016-03-06T09:19:00Z</time>
      </trkpt>
      <trkpt lat="43.7124" lon="3.47823">
        <ele>289.97</ele>
        <time>2016-03-06T09:19:01Z</time>
      </trkpt>
      <trkpt lat="43.71248" lon="3.47805">
        <ele>290.94</ele>
        <time>2016-03-06T09:19:02Z</time>
      </trkpt>
      <trkpt lat="43.71257" lon="3.47785">
        <ele>291.9</ele>
        <time>2016-03-06T09:19:03Z</time>
      </trkpt>
      <trkpt lat="43.71287" lon="3.4773">
        <ele>295.26</ele>
        <time>2016-03-06T09:19:06Z</time>
      </trkpt>
      <trkpt lat="43.71298" lon="3.47716">
        <ele>296.7</ele>
        <time>2016-03-06T09:19:07Z</time>
      </trkpt>
      <trkpt lat="43.71312" lon="3.47708">
        <ele>297.18</ele>
        <time>2016-03-06T09:19:08Z</time>
      </trkpt>
      <trkpt lat="43.71327" lon="3.477">
        <ele>298.15</ele>
        <time>2016-03-06T09:19:09Z</time>
      </trkpt>
      <trkpt lat="43.71344" lon="3.47694">
        <ele>299.59</ele>
        <time>2016-03-06T09:19:10Z</time>
      </trkpt>
      <trkpt lat="43.71362" lon="3.47688">
        <ele>301.03</ele>
        <time>2016-03-06T09:19:11Z</time>
      </trkpt>
      <trkpt lat="43.71381" lon="3.47684">
        <ele>302.47</ele>
        <time>2016-03-06T09:19:12Z</time>
      </trkpt>
      <trkpt lat="43.714" lon="3.4768">
        <ele>303.91</ele>
        <time>2016-03-06T09:19:13Z</time>
      </trkpt>
      <trkpt lat="43.71471" lon="3.47659">
        <ele>308.72</ele>
        <time>2016-03-06T09:19:17Z</time>
      </trkpt>
      <trkpt lat="43.71485" lon="3.47649">
        <ele>309.68</ele>
        <time>2016-03-06T09:19:18Z</time>
      </trkpt>
      <trkpt lat="43.71508" lon="3.4763">
        <ele>311.12</ele>
        <time>2016-03-06T09:19:20Z</time>
      </trkpt>
      <trkpt lat="43.71518" lon="3.47628">
        <ele>312.09</ele>
        <time>2016-03-06T09:19:21Z</time>
      </trkpt>
      <trkpt lat="43.7153" lon="3.47631">
        <ele>312.57</ele>
        <time>2016-03-06T09:19:22Z</time>
      </trkpt>
      <trkpt lat="43.71543" lon="3.47637">
        <ele>314.01</ele>
        <time>2016-03-06T09:19:23Z</time>
      </trkpt>
      <trkpt lat="43.71558" lon="3.47644">
        <ele>314.97</ele>
        <time>2016-03-06T09:19:24Z</time>
      </trkpt>
      <trkpt lat="43.71574" lon="3.47648">
        <ele>315.45</ele>
        <time>2016-03-06T09:19:25Z</time>
      </trkpt>
      <trkpt lat="43.71589" lon="3.47649">
        <ele>316.41</ele>
        <time>2016-03-06T09:19:26Z</time>
      </trkpt>
      <trkpt lat="43.71604" lon="3.47644">
        <ele>316.89</ele>
        <time>2016-03-06T09:19:27Z</time>
      </trkpt>
      <trkpt lat="43.71618" lon="3.47636">
        <ele>317.85</ele>
        <time>2016-03-06T09:19:28Z</time>
      </trkpt>
      <trkpt lat="43.71633" lon="3.47627">
        <ele>319.3</ele>
        <time>2016-03-06T09:19:29Z</time>
      </trkpt>
      <trkpt lat="43.71648" lon="3.47618">
        <ele>320.26</ele>
        <time>2016-03-06T09:19:30Z</time>
      </trkpt>
      <trkpt lat="43.71662" lon="3.47607">
        <ele>321.22</ele>
        <time>2016-03-06T09:19:31Z</time>
      </trkpt>
      <trkpt lat="43.71676" lon="3.47594">
        <ele>322.18</ele>
        <time>2016-03-06T09:19:32Z</time>
      </trkpt>
      <trkpt lat="43.71788" lon="3.4744">
        <ele>332.27</ele>
        <time>2016-03-06T09:19:40Z</time>
      </trkpt>
      <trkpt lat="43.71905" lon="3.47227">
        <ele>347.65</ele>
        <time>2016-03-06T09:19:49Z</time>
      </trkpt>
      <trkpt lat="43.71931" lon="3.47186">
        <ele>351.02</ele>
        <time>2016-03-06T09:19:51Z</time>
      </trkpt>
      <trkpt lat="43.71937" lon="3.47164">
        <ele>352.46</ele>
        <time>2016-03-06T09:19:52Z</time>
      </trkpt>
      <trkpt lat="43.71949" lon="3.47125">
        <ele>355.34</ele>
        <time>2016-03-06T09:19:54Z</time>
      </trkpt>
      <trkpt lat="43.71959" lon="3.47108">
        <ele>357.27</ele>
        <time>2016-03-06T09:19:55Z</time>
      </trkpt>
      <trkpt lat="43.71971" lon="3.47092">
        <ele>358.71</ele>
        <time>2016-03-06T09:19:56Z</time>
      </trkpt>
      <trkpt lat="43.71996" lon="3.4706">
        <ele>362.07</ele>
        <time>2016-03-06T09:19:58Z</time>
      </trkpt>
      <trkpt lat="43.72006" lon="3.47042">
        <ele>363.52</ele>
        <time>2016-03-06T09:19:59Z</time>
      </trkpt>
      <trkpt lat="43.72015" lon="3.47026">
        <ele>364.96</ele>
        <time>2016-03-06T09:20:00Z</time>
      </trkpt>
      <trkpt lat="43.72026" lon="3.47013">
        <ele>366.4</ele>
        <time>2016-03-06T09:20:01Z</time>
      </trkpt>
      <trkpt lat="43.7204" lon="3.47007">
        <ele>368.32</ele>
        <time>2016-03-06T09:20:02Z</time>
      </trkpt>
      <trkpt lat="43.72055" lon="3.47004">
        <ele>369.76</ele>
        <time>2016-03-06T09:20:03Z</time>
      </trkpt>
      <trkpt lat="43.72069" lon="3.47002">
        <ele>370.24</ele>
        <time>2016-03-06T09:20:04Z</time>
      </trkpt>
      <trkpt lat="43.72082" lon="3.46997">
        <ele>371.69</ele>
        <time>2016-03-06T09:20:05Z</time>
      </trkpt>
      <trkpt lat="43.72091" lon="3.46985">
        <ele>373.13</ele>
        <time>2016-03-06T09:20:06Z</time>
      </trkpt>
      <trkpt lat="43.72097" lon="3.46969">
        <ele>374.57</ele>
        <time>2016-03-06T09:20:07Z</time>
      </trkpt>
      <trkpt lat="43.72102" lon="3.46951">
        <ele>375.05</ele>
        <time>2016-03-06T09:20:08Z</time>
      </trkpt>
      <trkpt lat="43.7211" lon="3.46935">
        <ele>376.49</ele>
        <time>2016-03-06T09:20:09Z</time>
      </trkpt>
      <trkpt lat="43.7212" lon="3.46924">
        <ele>377.45</ele>
        <time>2016-03-06T09:20:10Z</time>
      </trkpt>
      <trkpt lat="43.72132" lon="3.46919">
        <ele>378.9</ele>
        <time>2016-03-06T09:20:11Z</time>
      </trkpt>
      <trkpt lat="43.72145" lon="3.46921">
        <ele>380.34</ele>
        <time>2016-03-06T09:20:12Z</time>
      </trkpt>
      <trkpt lat="43.72159" lon="3.46926">
        <ele>381.78</ele>
        <time>2016-03-06T09:20:13Z</time>
      </trkpt>
      <trkpt lat="43.72174" lon="3.46934">
        <ele>383.22</ele>
        <time>2016-03-06T09:20:14Z</time>
      </trkpt>
      <trkpt lat="43.72189" lon="3.46938">
        <ele>384.18</ele>
        <time>2016-03-06T09:20:15Z</time>
      </trkpt>
      <trkpt lat="43.72202" lon="3.4694">
        <ele>385.63</ele>
        <time>2016-03-06T09:20:16Z</time>
      </trkpt>
      <trkpt lat="43.72214" lon="3.46936">
        <ele>386.59</ele>
        <time>2016-03-06T09:20:17Z</time>
      </trkpt>
      <trkpt lat="43.72223" lon="3.46928">
        <ele>387.55</ele>
        <time>2016-03-06T09:20:18Z</time>
      </trkpt>
      <trkpt lat="43.72233" lon="3.46922">
        <ele>388.51</ele>
        <time>2016-03-06T09:20:19Z</time>
      </trkpt>
      <trkpt lat="43.72244" lon="3.46922">
        <ele>389.95</ele>
        <time>2016-03-06T09:20:20Z</time>
      </trkpt>
      <trkpt lat="43.72256" lon="3.46925">
        <ele>390.43</ele>
        <time>2016-03-06T09:20:21Z</time>
      </trkpt>
      <trkpt lat="43.72269" lon="3.46927">
        <ele>391.39</ele>
        <time>2016-03-06T09:20:22Z</time>
      </trkpt>
      <trkpt lat="43.72283" lon="3.46926">
        <ele>392.36</ele>
        <time>2016-03-06T09:20:23Z</time>
      </trkpt>
      <trkpt lat="43.72296" lon="3.46922">
        <ele>393.8</ele>
        <time>2016-03-06T09:20:24Z</time>
      </trkpt>
      <trkpt lat="43.72308" lon="3.46914">
        <ele>394.28</ele>
        <time>2016-03-06T09:20:25Z</time>
      </trkpt>
      <trkpt lat="43.72322" lon="3.46907">
        <ele>394.76</ele>
        <time>2016-03-06T09:20:26Z</time>
      </trkpt>
      <trkpt lat="43.72336" lon="3.469">
        <ele>395.72</ele>
        <time>2016-03-06T09:20:27Z</time>
      </trkpt>
      <trkpt lat="43.72351" lon="3.46896">
        <ele>397.16</ele>
        <time>2016-03-06T09:20:28Z</time>
      </trkpt>
      <trkpt lat="43.7238" lon="3.46886">
        <ele>398.6</ele>
        <time>2016-03-06T09:20:30Z</time>
      </trkpt>
      <trkpt lat="43.72391" lon="3.46878">
        <ele>399.08</ele>
        <time>2016-03-06T09:20:31Z</time>
      </trkpt>
      <trkpt lat="43.72398" lon="3.46864">
        <ele>399.57</ele>
        <time>2016-03-06T09:20:32Z</time>
      </trkpt>
      <trkpt lat="43.72401" lon="3.46848">
        <ele>400.53</ele>
        <time>2016-03-06T09:20:33Z</time>
      </trkpt>
      <trkpt lat="43.72403" lon="3.4683">
        <ele>400.53</ele>
        <time>2016-03-06T09:20:34Z</time>
      </trkpt>
      <trkpt lat="43.72408" lon="3.4681">
        <ele>401.01</ele>
        <time>2016-03-06T09:20:35Z</time>
      </trkpt>
      <trkpt lat="43.72416" lon="3.46791">
        <ele>401.49</ele>
        <time>2016-03-06T09:20:36Z</time>
      </trkpt>
      <trkpt lat="43.72426" lon="3.46771">
        <ele>401.01</ele>
        <time>2016-03-06T09:20:37Z</time>
      </trkpt>
      <trkpt lat="43.72449" lon="3.46732">
        <ele>401.01</ele>
        <time>2016-03-06T09:20:39Z</time>
      </trkpt>
      <trkpt lat="43.72463" lon="3.46715">
        <ele>401.97</ele>
        <time>2016-03-06T09:20:40Z</time>
      </trkpt>
      <trkpt lat="43.72478" lon="3.46701">
        <ele>402.93</ele>
        <time>2016-03-06T09:20:41Z</time>
      </trkpt>
      <trkpt lat="43.72495" lon="3.46689">
        <ele>403.89</ele>
        <time>2016-03-06T09:20:42Z</time>
      </trkpt>
      <trkpt lat="43.72514" lon="3.4668">
        <ele>404.85</ele>
        <time>2016-03-06T09:20:43Z</time>
      </trkpt>
      <trkpt lat="43.72533" lon="3.46674">
        <ele>405.81</ele>
        <time>2016-03-06T09:20:44Z</time>
      </trkpt>
      <trkpt lat="43.72552" lon="3.46671">
        <ele>406.77</ele>
        <time>2016-03-06T09:20:45Z</time>
      </trkpt>
      <trkpt lat="43.72571" lon="3.46671">
        <ele>407.74</ele>
        <time>2016-03-06T09:20:46Z</time>
      </trkpt>
      <trkpt lat="43.7259" lon="3.4667">
        <ele>409.18</ele>
        <time>2016-03-06T09:20:47Z</time>
      </trkpt>
      <trkpt lat="43.72664" lon="3.46662">
        <ele>410.62</ele>
        <time>2016-03-06T09:20:51Z</time>
      </trkpt>
      <trkpt lat="43.72679" lon="3.46666">
        <ele>411.58</ele>
        <time>2016-03-06T09:20:52Z</time>
      </trkpt>
      <trkpt lat="43.72696" lon="3.46673">
        <ele>413.02</ele>
        <time>2016-03-06T09:20:53Z</time>
      </trkpt>
      <trkpt lat="43.72711" lon="3.46684">
        <ele>412.54</ele>
        <time>2016-03-06T09:20:54Z</time>
      </trkpt>
      <trkpt lat="43.72727" lon="3.46699">
        <ele>411.58</ele>
        <time>2016-03-06T09:20:55Z</time>
      </trkpt>
      <trkpt lat="43.72743" lon="3.46714">
        <ele>410.14</ele>
        <time>2016-03-06T09:20:56Z</time>
      </trkpt>
      <trkpt lat="43.72806" lon="3.46763">
        <ele>409.18</ele>
        <time>2016-03-06T09:21:00Z</time>
      </trkpt>
      <trkpt lat="43.72824" lon="3.46766">
        <ele>409.66</ele>
        <time>2016-03-06T09:21:01Z</time>
      </trkpt>
      <trkpt lat="43.72843" lon="3.46768">
        <ele>410.62</ele>
        <time>2016-03-06T09:21:02Z</time>
      </trkpt>
      <trkpt lat="43.72945" lon="3.46772">
        <ele>414.47</ele>
        <time>2016-03-06T09:21:08Z</time>
      </trkpt>
      <trkpt lat="43.72954" lon="3.46768">
        <ele>414.95</ele>
        <time>2016-03-06T09:21:09Z</time>
      </trkpt>
      <trkpt lat="43.72957" lon="3.46757">
        <ele>416.39</ele>
        <time>2016-03-06T09:21:10Z</time>
      </trkpt>
      <trkpt lat="43.72957" lon="3.4674">
        <ele>416.87</ele>
        <time>2016-03-06T09:21:11Z</time>
      </trkpt>
      <trkpt lat="43.72957" lon="3.46722">
        <ele>417.35</ele>
        <time>2016-03-06T09:21:12Z</time>
      </trkpt>
      <trkpt lat="43.72956" lon="3.46702">
        <ele>418.31</ele>
        <time>2016-03-06T09:21:13Z</time>
      </trkpt>
      <trkpt lat="43.72957" lon="3.46681">
        <ele>418.79</ele>
        <time>2016-03-06T09:21:14Z</time>
      </trkpt>
      <trkpt lat="43.7296" lon="3.46661">
        <ele>419.75</ele>
        <time>2016-03-06T09:21:15Z</time>
      </trkpt>
      <trkpt lat="43.72967" lon="3.46645">
        <ele>420.71</ele>
        <time>2016-03-06T09:21:16Z</time>
      </trkpt>
      <trkpt lat="43.72976" lon="3.46636">
        <ele>422.16</ele>
        <time>2016-03-06T09:21:17Z</time>
      </trkpt>
      <trkpt lat="43.72987" lon="3.46629">
        <ele>423.6</ele>
        <time>2016-03-06T09:21:18Z</time>
      </trkpt>
      <trkpt lat="43.73" lon="3.46626">
        <ele>424.56</ele>
        <time>2016-03-06T09:21:19Z</time>
      </trkpt>
      <trkpt lat="43.73015" lon="3.46623">
        <ele>426</ele>
        <time>2016-03-06T09:21:20Z</time>
      </trkpt>
      <trkpt lat="43.73029" lon="3.46618">
        <ele>426.96</ele>
        <time>2016-03-06T09:21:21Z</time>
      </trkpt>
      <trkpt lat="43.73042" lon="3.46609">
        <ele>428.4</ele>
        <time>2016-03-06T09:21:22Z</time>
      </trkpt>
      <trkpt lat="43.73054" lon="3.46595">
        <ele>429.37</ele>
        <time>2016-03-06T09:21:23Z</time>
      </trkpt>
      <trkpt lat="43.73064" lon="3.46577">
        <ele>430.81</ele>
        <time>2016-03-06T09:21:24Z</time>
      </trkpt>
      <trkpt lat="43.73073" lon="3.46556">
        <ele>431.77</ele>
        <time>2016-03-06T09:21:25Z</time>
      </trkpt>
      <trkpt lat="43.7308" lon="3.46532">
        <ele>433.21</ele>
        <time>2016-03-06T09:21:26Z</time>
      </trkpt>
      <trkpt lat="43.73086" lon="3.46509">
        <ele>435.13</ele>
        <time>2016-03-06T09:21:27Z</time>
      </trkpt>
      <trkpt lat="43.73095" lon="3.4647">
        <ele>437.06</ele>
        <time>2016-03-06T09:21:29Z</time>
      </trkpt>
      <trkpt lat="43.73095" lon="3.46449">
        <ele>438.02</ele>
        <time>2016-03-06T09:21:30Z</time>
      </trkpt>
      <trkpt lat="43.73091" lon="3.46427">
        <ele>439.46</ele>
        <time>2016-03-06T09:21:31Z</time>
      </trkpt>
      <trkpt lat="43.73068" lon="3.46303">
        <ele>446.19</ele>
        <time>2016-03-06T09:21:36Z</time>
      </trkpt>
      <trkpt lat="43.73059" lon="3.4628">
        <ele>447.63</ele>
        <time>2016-03-06T09:21:37Z</time>
      </trkpt>
      <trkpt lat="43.73048" lon="3.46257">
        <ele>449.07</ele>
        <time>2016-03-06T09:21:38Z</time>
      </trkpt>
      <trkpt lat="43.72986" lon="3.46156">
        <ele>457.24</ele>
        <time>2016-03-06T09:21:43Z</time>
      </trkpt>
      <trkpt lat="43.72977" lon="3.46138">
        <ele>458.69</ele>
        <time>2016-03-06T09:21:44Z</time>
      </trkpt>
      <trkpt lat="43.72972" lon="3.46116">
        <ele>459.65</ele>
        <time>2016-03-06T09:21:45Z</time>
      </trkpt>
      <trkpt lat="43.72968" lon="3.46093">
        <ele>461.09</ele>
        <time>2016-03-06T09:21:46Z</time>
      </trkpt>
      <trkpt lat="43.72965" lon="3.46071">
        <ele>462.53</ele>
        <time>2016-03-06T09:21:47Z</time>
      </trkpt>
      <trkpt lat="43.7296" lon="3.4603">
        <ele>465.42</ele>
        <time>2016-03-06T09:21:49Z</time>
      </trkpt>
      <trkpt lat="43.72965" lon="3.46011">
        <ele>466.86</ele>
        <time>2016-03-06T09:21:50Z</time>
      </trkpt>
      <trkpt lat="43.72972" lon="3.45996">
        <ele>467.82</ele>
        <time>2016-03-06T09:21:51Z</time>
      </trkpt>
      <trkpt lat="43.72983" lon="3.45988">
        <ele>468.3</ele>
        <time>2016-03-06T09:21:52Z</time>
      </trkpt>
      <trkpt lat="43.72996" lon="3.45983">
        <ele>469.26</ele>
        <time>2016-03-06T09:21:53Z</time>
      </trkpt>
      <trkpt lat="43.73013" lon="3.45981">
        <ele>470.7</ele>
        <time>2016-03-06T09:21:54Z</time>
      </trkpt>
      <trkpt lat="43.73029" lon="3.4598">
        <ele>473.11</ele>
        <time>2016-03-06T09:21:55Z</time>
      </trkpt>
      <trkpt lat="43.73047" lon="3.45984">
        <ele>475.03</ele>
        <time>2016-03-06T09:21:56Z</time>
      </trkpt>
      <trkpt lat="43.73064" lon="3.45989">
        <ele>476.95</ele>
        <time>2016-03-06T09:21:57Z</time>
      </trkpt>
      <trkpt lat="43.73082" lon="3.45996">
        <ele>477.91</ele>
        <time>2016-03-06T09:21:58Z</time>
      </trkpt>
      <trkpt lat="43.73225" lon="3.4606">
        <ele>490.41</ele>
        <time>2016-03-06T09:22:06Z</time>
      </trkpt>
      <trkpt lat="43.73258" lon="3.46076">
        <ele>492.81</ele>
        <time>2016-03-06T09:22:08Z</time>
      </trkpt>
      <trkpt lat="43.73275" lon="3.4608">
        <ele>494.26</ele>
        <time>2016-03-06T09:22:09Z</time>
      </trkpt>
      <trkpt lat="43.73292" lon="3.4608">
        <ele>495.22</ele>
        <time>2016-03-06T09:22:10Z</time>
      </trkpt>
      <trkpt lat="43.73447" lon="3.46045">
        <ele>505.31</ele>
        <time>2016-03-06T09:22:18Z</time>
      </trkpt>
      <trkpt lat="43.73533" lon="3.4601">
        <ele>510.12</ele>
        <time>2016-03-06T09:22:23Z</time>
      </trkpt>
      <trkpt lat="43.73543" lon="3.46001">
        <ele>510.6</ele>
        <time>2016-03-06T09:22:24Z</time>
      </trkpt>
      <trkpt lat="43.73549" lon="3.45987">
        <ele>510.6</ele>
        <time>2016-03-06T09:22:25Z</time>
      </trkpt>
      <trkpt lat="43.73552" lon="3.45969">
        <ele>511.08</ele>
        <time>2016-03-06T09:22:26Z</time>
      </trkpt>
      <trkpt lat="43.73554" lon="3.4595">
        <ele>512.04</ele>
        <time>2016-03-06T09:22:27Z</time>
      </trkpt>
      <trkpt lat="43.73555" lon="3.45928">
        <ele>513</ele>
        <time>2016-03-06T09:22:28Z</time>
      </trkpt>
      <trkpt lat="43.73555" lon="3.45906">
        <ele>513.48</ele>
        <time>2016-03-06T09:22:29Z</time>
      </trkpt>
      <trkpt lat="43.73554" lon="3.45885">
        <ele>514.44</ele>
        <time>2016-03-06T09:22:30Z</time>
      </trkpt>
      <trkpt lat="43.73552" lon="3.45865">
        <ele>514.92</ele>
        <time>2016-03-06T09:22:31Z</time>
      </trkpt>
      <trkpt lat="43.73549" lon="3.45846">
        <ele>515.4</ele>
        <time>2016-03-06T09:22:32Z</time>
      </trkpt>
      <trkpt lat="43.73545" lon="3.45829">
        <ele>516.37</ele>
        <time>2016-03-06T09:22:33Z</time>
      </trkpt>
      <trkpt lat="43.73539" lon="3.45813">
        <ele>516.85</ele>
        <time>2016-03-06T09:22:34Z</time>
      </trkpt>
      <trkpt lat="43.73532" lon="3.45798">
        <ele>517.81</ele>
        <time>2016-03-06T09:22:35Z</time>
      </trkpt>
      <trkpt lat="43.73524" lon="3.45784">
        <ele>518.29</ele>
        <time>2016-03-06T09:22:36Z</time>
      </trkpt>
      <trkpt lat="43.73515" lon="3.4577">
        <ele>518.29</ele>
        <time>2016-03-06T09:22:37Z</time>
      </trkpt>
      <trkpt lat="43.73508" lon="3.45755">
        <ele>519.25</ele>
        <time>2016-03-06T09:22:38Z</time>
      </trkpt>
      <trkpt lat="43.73501" lon="3.45739">
        <ele>520.21</ele>
        <time>2016-03-06T09:22:39Z</time>
      </trkpt>
      <trkpt lat="43.73498" lon="3.45719">
        <ele>520.69</ele>
        <time>2016-03-06T09:22:40Z</time>
      </trkpt>
      <trkpt lat="43.73496" lon="3.45698">
        <ele>521.65</ele>
        <time>2016-03-06T09:22:41Z</time>
      </trkpt>
      <trkpt lat="43.73497" lon="3.45675">
        <ele>522.61</ele>
        <time>2016-03-06T09:22:42Z</time>
      </trkpt>
      <trkpt lat="43.735" lon="3.45652">
        <ele>523.58</ele>
        <time>2016-03-06T09:22:43Z</time>
      </trkpt>
      <trkpt lat="43.73505" lon="3.45629">
        <ele>524.54</ele>
        <time>2016-03-06T09:22:44Z</time>
      </trkpt>
      <trkpt lat="43.73512" lon="3.45607">
        <ele>525.5</ele>
        <time>2016-03-06T09:22:45Z</time>
      </trkpt>
      <trkpt lat="43.7352" lon="3.45588">
        <ele>526.94</ele>
        <time>2016-03-06T09:22:46Z</time>
      </trkpt>
      <trkpt lat="43.73528" lon="3.4557">
        <ele>527.9</ele>
        <time>2016-03-06T09:22:47Z</time>
      </trkpt>
      <trkpt lat="43.73534" lon="3.45553">
        <ele>528.86</ele>
        <time>2016-03-06T09:22:48Z</time>
      </trkpt>
      <trkpt lat="43.73534" lon="3.45535">
        <ele>530.3</ele>
        <time>2016-03-06T09:22:49Z</time>
      </trkpt>
      <trkpt lat="43.7353" lon="3.45516">
        <ele>531.27</ele>
        <time>2016-03-06T09:22:50Z</time>
      </trkpt>
      <trkpt lat="43.73523" lon="3.45496">
        <ele>532.23</ele>
        <time>2016-03-06T09:22:51Z</time>
      </trkpt>
      <trkpt lat="43.73514" lon="3.45477">
        <ele>533.19</ele>
        <time>2016-03-06T09:22:52Z</time>
      </trkpt>
      <trkpt lat="43.73503" lon="3.45455">
        <ele>534.15</ele>
        <time>2016-03-06T09:22:53Z</time>
      </trkpt>
      <trkpt lat="43.73465" lon="3.45366">
        <ele>538.48</ele>
        <time>2016-03-06T09:22:58Z</time>
      </trkpt>
      <trkpt lat="43.73466" lon="3.45349">
        <ele>539.92</ele>
        <time>2016-03-06T09:22:59Z</time>
      </trkpt>
      <trkpt lat="43.73469" lon="3.45332">
        <ele>540.88</ele>
        <time>2016-03-06T09:23:00Z</time>
      </trkpt>
      <trkpt lat="43.73477" lon="3.45314">
        <ele>541.84</ele>
        <time>2016-03-06T09:23:01Z</time>
      </trkpt>
      <trkpt lat="43.73486" lon="3.45297">
        <ele>542.8</ele>
        <time>2016-03-06T09:23:02Z</time>
      </trkpt>
      <trkpt lat="43.73497" lon="3.45283">
        <ele>544.24</ele>
        <time>2016-03-06T09:23:03Z</time>
      </trkpt>
      <trkpt lat="43.7351" lon="3.4527">
        <ele>545.69</ele>
        <time>2016-03-06T09:23:04Z</time>
      </trkpt>
      <trkpt lat="43.73524" lon="3.4526">
        <ele>547.13</ele>
        <time>2016-03-06T09:23:05Z</time>
      </trkpt>
      <trkpt lat="43.7354" lon="3.45251">
        <ele>548.57</ele>
        <time>2016-03-06T09:23:06Z</time>
      </trkpt>
      <trkpt lat="43.73556" lon="3.45244">
        <ele>550.01</ele>
        <time>2016-03-06T09:23:07Z</time>
      </trkpt>
      <trkpt lat="43.73574" lon="3.45238">
        <ele>551.45</ele>
        <time>2016-03-06T09:23:08Z</time>
      </trkpt>
      <trkpt lat="43.73592" lon="3.45234">
        <ele>552.9</ele>
        <time>2016-03-06T09:23:09Z</time>
      </trkpt>
      <trkpt lat="43.73656" lon="3.45231">
        <ele>554.82</ele>
        <time>2016-03-06T09:23:14Z</time>
      </trkpt>
      <trkpt lat="43.73661" lon="3.4524">
        <ele>555.3</ele>
        <time>2016-03-06T09:23:15Z</time>
      </trkpt>
      <trkpt lat="43.73656" lon="3.45263">
        <ele>556.74</ele>
        <time>2016-03-06T09:23:17Z</time>
      </trkpt>
      <trkpt lat="43.73651" lon="3.4527">
        <ele>557.7</ele>
        <time>2016-03-06T09:23:18Z</time>
      </trkpt>
      <trkpt lat="43.73642" lon="3.45277">
        <ele>558.66</ele>
        <time>2016-03-06T09:23:19Z</time>
      </trkpt>
      <trkpt lat="43.73632" lon="3.4528">
        <ele>558.18</ele>
        <time>2016-03-06T09:23:20Z</time>
      </trkpt>
      <trkpt lat="43.73619" lon="3.45282">
        <ele>558.66</ele>
        <time>2016-03-06T09:23:21Z</time>
      </trkpt>
      <trkpt lat="43.73605" lon="3.45283">
        <ele>559.14</ele>
        <time>2016-03-06T09:23:22Z</time>
      </trkpt>
      <trkpt lat="43.73577" lon="3.45287">
        <ele>561.07</ele>
        <time>2016-03-06T09:23:24Z</time>
      </trkpt>
      <trkpt lat="43.73563" lon="3.45292">
        <ele>562.03</ele>
        <time>2016-03-06T09:23:25Z</time>
      </trkpt>
      <trkpt lat="43.73551" lon="3.45299">
        <ele>562.51</ele>
        <time>2016-03-06T09:23:26Z</time>
      </trkpt>
      <trkpt lat="43.73526" lon="3.45319">
        <ele>564.91</ele>
        <time>2016-03-06T09:23:29Z</time>
      </trkpt>
      <trkpt lat="43.73522" lon="3.45325">
        <ele>564.91</ele>
        <time>2016-03-06T09:23:30Z</time>
      </trkpt>
      <trkpt lat="43.73521" lon="3.45331">
        <ele>564.91</ele>
        <time>2016-03-06T09:23:31Z</time>
      </trkpt>
      <trkpt lat="43.7352" lon="3.45339">
        <ele>565.39</ele>
        <time>2016-03-06T09:23:32Z</time>
      </trkpt>
      <trkpt lat="43.73521" lon="3.45349">
        <ele>565.87</ele>
        <time>2016-03-06T09:23:33Z</time>
      </trkpt>
      <trkpt lat="43.73524" lon="3.4536">
        <ele>565.87</ele>
        <time>2016-03-06T09:23:34Z</time>
      </trkpt>
      <trkpt lat="43.73529" lon="3.4537">
        <ele>566.35</ele>
        <time>2016-03-06T09:23:35Z</time>
      </trkpt>
      <trkpt lat="43.73536" lon="3.45381">
        <ele>566.83</ele>
        <time>2016-03-06T09:23:36Z</time>
      </trkpt>
      <trkpt lat="43.73544" lon="3.45392">
        <ele>567.8</ele>
        <time>2016-03-06T09:23:37Z</time>
      </trkpt>
      <trkpt lat="43.73627" lon="3.45507">
        <ele>575.97</ele>
        <time>2016-03-06T09:23:46Z</time>
      </trkpt>
      <trkpt lat="43.73648" lon="3.45538">
        <ele>577.41</ele>
        <time>2016-03-06T09:23:48Z</time>
      </trkpt>
      <trkpt lat="43.73655" lon="3.45555">
        <ele>578.37</ele>
        <time>2016-03-06T09:23:49Z</time>
      </trkpt>
      <trkpt lat="43.7366" lon="3.45574">
        <ele>579.33</ele>
        <time>2016-03-06T09:23:50Z</time>
      </trkpt>
      <trkpt lat="43.73662" lon="3.45594">
        <ele>580.29</ele>
        <time>2016-03-06T09:23:51Z</time>
      </trkpt>
      <trkpt lat="43.73663" lon="3.45615">
        <ele>581.25</ele>
        <time>2016-03-06T09:23:52Z</time>
      </trkpt>
      <trkpt lat="43.73664" lon="3.45637">
        <ele>582.7</ele>
        <time>2016-03-06T09:23:53Z</time>
      </trkpt>
      <trkpt lat="43.73666" lon="3.45659">
        <ele>583.18</ele>
        <time>2016-03-06T09:23:54Z</time>
      </trkpt>
      <trkpt lat="43.7367" lon="3.45681">
        <ele>584.14</ele>
        <time>2016-03-06T09:23:55Z</time>
      </trkpt>
      <trkpt lat="43.73675" lon="3.45703">
        <ele>585.1</ele>
        <time>2016-03-06T09:23:56Z</time>
      </trkpt>
      <trkpt lat="43.73681" lon="3.45724">
        <ele>586.54</ele>
        <time>2016-03-06T09:23:57Z</time>
      </trkpt>
      <trkpt lat="43.73689" lon="3.45745">
        <ele>587.98</ele>
        <time>2016-03-06T09:23:58Z</time>
      </trkpt>
      <trkpt lat="43.73697" lon="3.45765">
        <ele>588.95</ele>
        <time>2016-03-06T09:23:59Z</time>
      </trkpt>
      <trkpt lat="43.73718" lon="3.45825">
        <ele>592.79</ele>
        <time>2016-03-06T09:24:02Z</time>
      </trkpt>
      <trkpt lat="43.73721" lon="3.45846">
        <ele>593.75</ele>
        <time>2016-03-06T09:24:03Z</time>
      </trkpt>
      <trkpt lat="43.73722" lon="3.45869">
        <ele>594.71</ele>
        <time>2016-03-06T09:24:04Z</time>
      </trkpt>
      <trkpt lat="43.73722" lon="3.45922">
        <ele>596.64</ele>
        <time>2016-03-06T09:24:06Z</time>
      </trkpt>
      <trkpt lat="43.73725" lon="3.45948">
        <ele>597.6</ele>
        <time>2016-03-06T09:24:07Z</time>
      </trkpt>
      <trkpt lat="43.73727" lon="3.45974">
        <ele>598.56</ele>
        <time>2016-03-06T09:24:08Z</time>
      </trkpt>
      <trkpt lat="43.73728" lon="3.46">
        <ele>600</ele>
        <time>2016-03-06T09:24:09Z</time>
      </trkpt>
      <trkpt lat="43.73726" lon="3.46025">
        <ele>600.96</ele>
        <time>2016-03-06T09:24:10Z</time>
      </trkpt>
      <trkpt lat="43.73724" lon="3.46051">
        <ele>602.4</ele>
        <time>2016-03-06T09:24:11Z</time>
      </trkpt>
      <trkpt lat="43.73719" lon="3.46098">
        <ele>604.33</ele>
        <time>2016-03-06T09:24:13Z</time>
      </trkpt>
      <trkpt lat="43.73715" lon="3.4612">
        <ele>605.77</ele>
        <time>2016-03-06T09:24:14Z</time>
      </trkpt>
      <trkpt lat="43.73666" lon="3.46294">
        <ele>618.26</ele>
        <time>2016-03-06T09:24:23Z</time>
      </trkpt>
      <trkpt lat="43.73652" lon="3.46327">
        <ele>621.63</ele>
        <time>2016-03-06T09:24:26Z</time>
      </trkpt>
      <trkpt lat="43.73653" lon="3.46335">
        <ele>622.11</ele>
        <time>2016-03-06T09:24:27Z</time>
      </trkpt>
      <trkpt lat="43.73658" lon="3.46339">
        <ele>621.15</ele>
        <time>2016-03-06T09:24:28Z</time>
      </trkpt>
      <trkpt lat="43.73665" lon="3.46339">
        <ele>621.63</ele>
        <time>2016-03-06T09:24:29Z</time>
      </trkpt>
      <trkpt lat="43.73672" lon="3.46334">
        <ele>621.63</ele>
        <time>2016-03-06T09:24:30Z</time>
      </trkpt>
      <trkpt lat="43.73676" lon="3.46324">
        <ele>621.63</ele>
        <time>2016-03-06T09:24:31Z</time>
      </trkpt>
      <trkpt lat="43.73679" lon="3.46313">
        <ele>621.63</ele>
        <time>2016-03-06T09:24:32Z</time>
      </trkpt>
      <trkpt lat="43.73681" lon="3.46299">
        <ele>621.63</ele>
        <time>2016-03-06T09:24:33Z</time>
      </trkpt>
      <trkpt lat="43.73722" lon="3.46179">
        <ele>628.84</ele>
        <time>2016-03-06T09:24:40Z</time>
      </trkpt>
      <trkpt lat="43.73754" lon="3.46111">
        <ele>633.17</ele>
        <time>2016-03-06T09:24:44Z</time>
      </trkpt>
      <trkpt lat="43.7376" lon="3.46093">
        <ele>634.61</ele>
        <time>2016-03-06T09:24:45Z</time>
      </trkpt>
      <trkpt lat="43.73764" lon="3.46074">
        <ele>635.57</ele>
        <time>2016-03-06T09:24:46Z</time>
      </trkpt>
      <trkpt lat="43.73784" lon="3.45974">
        <ele>641.82</ele>
        <time>2016-03-06T09:24:51Z</time>
      </trkpt>
      <trkpt lat="43.73784" lon="3.45953">
        <ele>642.78</ele>
        <time>2016-03-06T09:24:52Z</time>
      </trkpt>
      <trkpt lat="43.738" lon="3.45806">
        <ele>649.99</ele>
        <time>2016-03-06T09:24:59Z</time>
      </trkpt>
      <trkpt lat="43.738" lon="3.45786">
        <ele>650.95</ele>
        <time>2016-03-06T09:25:00Z</time>
      </trkpt>
      <trkpt lat="43.73797" lon="3.45765">
        <ele>651.91</ele>
        <time>2016-03-06T09:25:01Z</time>
      </trkpt>
      <trkpt lat="43.73792" lon="3.45699">
        <ele>654.8</ele>
        <time>2016-03-06T09:25:04Z</time>
      </trkpt>
      <trkpt lat="43.73793" lon="3.45676">
        <ele>656.24</ele>
        <time>2016-03-06T09:25:05Z</time>
      </trkpt>
      <trkpt lat="43.73795" lon="3.45654">
        <ele>657.68</ele>
        <time>2016-03-06T09:25:06Z</time>
      </trkpt>
      <trkpt lat="43.738" lon="3.45635">
        <ele>658.64</ele>
        <time>2016-03-06T09:25:07Z</time>
      </trkpt>
      <trkpt lat="43.73804" lon="3.4562">
        <ele>658.64</ele>
        <time>2016-03-06T09:25:08Z</time>
      </trkpt>
      <trkpt lat="43.73809" lon="3.45608">
        <ele>659.12</ele>
        <time>2016-03-06T09:25:09Z</time>
      </trkpt>
      <trkpt lat="43.73816" lon="3.456">
        <ele>660.08</ele>
        <time>2016-03-06T09:25:10Z</time>
      </trkpt>
      <trkpt lat="43.73825" lon="3.45595">
        <ele>661.52</ele>
        <time>2016-03-06T09:25:11Z</time>
      </trkpt>
      <trkpt lat="43.73837" lon="3.45594">
        <ele>662.49</ele>
        <time>2016-03-06T09:25:12Z</time>
      </trkpt>
      <trkpt lat="43.7385" lon="3.45597">
        <ele>663.45</ele>
        <time>2016-03-06T09:25:13Z</time>
      </trkpt>
      <trkpt lat="43.73865" lon="3.45603">
        <ele>664.89</ele>
        <time>2016-03-06T09:25:14Z</time>
      </trkpt>
      <trkpt lat="43.73881" lon="3.4561">
        <ele>666.33</ele>
        <time>2016-03-06T09:25:15Z</time>
      </trkpt>
      <trkpt lat="43.73896" lon="3.45617">
        <ele>666.81</ele>
        <time>2016-03-06T09:25:16Z</time>
      </trkpt>
      <trkpt lat="43.7397" lon="3.45656">
        <ele>671.62</ele>
        <time>2016-03-06T09:25:21Z</time>
      </trkpt>
      <trkpt lat="43.73993" lon="3.45671">
        <ele>673.06</ele>
        <time>2016-03-06T09:25:23Z</time>
      </trkpt>
      <trkpt lat="43.74003" lon="3.45668">
        <ele>673.06</ele>
        <time>2016-03-06T09:25:24Z</time>
      </trkpt>
      <trkpt lat="43.74018" lon="3.45667">
        <ele>674.5</ele>
        <time>2016-03-06T09:25:25Z</time>
      </trkpt>
      <trkpt lat="43.74124" lon="3.45646">
        <ele>680.75</ele>
        <time>2016-03-06T09:25:31Z</time>
      </trkpt>
      <trkpt lat="43.74186" lon="3.45636">
        <ele>685.08</ele>
        <time>2016-03-06T09:25:35Z</time>
      </trkpt>
      <trkpt lat="43.742" lon="3.45638">
        <ele>686.04</ele>
        <time>2016-03-06T09:25:36Z</time>
      </trkpt>
      <trkpt lat="43.74214" lon="3.45644">
        <ele>687</ele>
        <time>2016-03-06T09:25:37Z</time>
      </trkpt>
      <trkpt lat="43.74227" lon="3.45653">
        <ele>687.96</ele>
        <time>2016-03-06T09:25:38Z</time>
      </trkpt>
      <trkpt lat="43.7424" lon="3.45664">
        <ele>688.92</ele>
        <time>2016-03-06T09:25:39Z</time>
      </trkpt>
      <trkpt lat="43.74252" lon="3.45678">
        <ele>690.36</ele>
        <time>2016-03-06T09:25:40Z</time>
      </trkpt>
      <trkpt lat="43.74265" lon="3.45694">
        <ele>692.77</ele>
        <time>2016-03-06T09:25:41Z</time>
      </trkpt>
      <trkpt lat="43.74277" lon="3.45711">
        <ele>695.17</ele>
        <time>2016-03-06T09:25:42Z</time>
      </trkpt>
      <trkpt lat="43.74357" lon="3.45804">
        <ele>702.38</ele>
        <time>2016-03-06T09:25:49Z</time>
      </trkpt>
      <trkpt lat="43.7437" lon="3.45808">
        <ele>702.86</ele>
        <time>2016-03-06T09:25:50Z</time>
      </trkpt>
      <trkpt lat="43.74383" lon="3.45811">
        <ele>702.86</ele>
        <time>2016-03-06T09:25:51Z</time>
      </trkpt>
      <trkpt lat="43.74396" lon="3.45811">
        <ele>703.34</ele>
        <time>2016-03-06T09:25:52Z</time>
      </trkpt>
      <trkpt lat="43.74407" lon="3.45809">
        <ele>702.38</ele>
        <time>2016-03-06T09:25:53Z</time>
      </trkpt>
      <trkpt lat="43.74419" lon="3.45808">
        <ele>702.38</ele>
        <time>2016-03-06T09:25:54Z</time>
      </trkpt>
      <trkpt lat="43.74431" lon="3.45809">
        <ele>702.86</ele>
        <time>2016-03-06T09:25:55Z</time>
      </trkpt>
      <trkpt lat="43.74443" lon="3.45813">
        <ele>703.34</ele>
        <time>2016-03-06T09:25:56Z</time>
      </trkpt>
      <trkpt lat="43.74453" lon="3.45818">
        <ele>704.3</ele>
        <time>2016-03-06T09:25:57Z</time>
      </trkpt>
      <trkpt lat="43.74463" lon="3.45824">
        <ele>705.26</ele>
        <time>2016-03-06T09:25:58Z</time>
      </trkpt>
      <trkpt lat="43.74479" lon="3.45837">
        <ele>705.26</ele>
        <time>2016-03-06T09:26:00Z</time>
      </trkpt>
      <trkpt lat="43.74486" lon="3.45845">
        <ele>704.78</ele>
        <time>2016-03-06T09:26:01Z</time>
      </trkpt>
      <trkpt lat="43.74492" lon="3.45857">
        <ele>705.26</ele>
        <time>2016-03-06T09:26:02Z</time>
      </trkpt>
      <trkpt lat="43.74496" lon="3.4587">
        <ele>705.26</ele>
        <time>2016-03-06T09:26:03Z</time>
      </trkpt>
      <trkpt lat="43.74499" lon="3.45885">
        <ele>705.26</ele>
        <time>2016-03-06T09:26:04Z</time>
      </trkpt>
      <trkpt lat="43.74501" lon="3.459">
        <ele>705.75</ele>
        <time>2016-03-06T09:26:05Z</time>
      </trkpt>
      <trkpt lat="43.74519" lon="3.45985">
        <ele>706.71</ele>
        <time>2016-03-06T09:26:11Z</time>
      </trkpt>
      <trkpt lat="43.74526" lon="3.45999">
        <ele>706.71</ele>
        <time>2016-03-06T09:26:12Z</time>
      </trkpt>
      <trkpt lat="43.74537" lon="3.46018">
        <ele>707.19</ele>
        <time>2016-03-06T09:26:13Z</time>
      </trkpt>
      <trkpt lat="43.74616" lon="3.46162">
        <ele>708.15</ele>
        <time>2016-03-06T09:26:20Z</time>
      </trkpt>
      <trkpt lat="43.74637" lon="3.46194">
        <ele>708.15</ele>
        <time>2016-03-06T09:26:22Z</time>
      </trkpt>
      <trkpt lat="43.74649" lon="3.46207">
        <ele>708.15</ele>
        <time>2016-03-06T09:26:23Z</time>
      </trkpt>
      <trkpt lat="43.74661" lon="3.46218">
        <ele>707.67</ele>
        <time>2016-03-06T09:26:24Z</time>
      </trkpt>
      <trkpt lat="43.74676" lon="3.46226">
        <ele>707.67</ele>
        <time>2016-03-06T09:26:25Z</time>
      </trkpt>
      <trkpt lat="43.74692" lon="3.46232">
        <ele>708.15</ele>
        <time>2016-03-06T09:26:26Z</time>
      </trkpt>
      <trkpt lat="43.7471" lon="3.46238">
        <ele>708.15</ele>
        <time>2016-03-06T09:26:27Z</time>
      </trkpt>
      <trkpt lat="43.74762" lon="3.4625">
        <ele>707.19</ele>
        <time>2016-03-06T09:26:30Z</time>
      </trkpt>
      <trkpt lat="43.74778" lon="3.4625">
        <ele>706.71</ele>
        <time>2016-03-06T09:26:31Z</time>
      </trkpt>
      <trkpt lat="43.74795" lon="3.46249">
        <ele>706.71</ele>
        <time>2016-03-06T09:26:32Z</time>
      </trkpt>
      <trkpt lat="43.74812" lon="3.46251">
        <ele>706.23</ele>
        <time>2016-03-06T09:26:33Z</time>
      </trkpt>
      <trkpt lat="43.74829" lon="3.46257">
        <ele>705.75</ele>
        <time>2016-03-06T09:26:34Z</time>
      </trkpt>
      <trkpt lat="43.74844" lon="3.46268">
        <ele>705.26</ele>
        <time>2016-03-06T09:26:35Z</time>
      </trkpt>
      <trkpt lat="43.74858" lon="3.46281">
        <ele>705.26</ele>
        <time>2016-03-06T09:26:36Z</time>
      </trkpt>
      <trkpt lat="43.7487" lon="3.46295">
        <ele>705.75</ele>
        <time>2016-03-06T09:26:37Z</time>
      </trkpt>
      <trkpt lat="43.74893" lon="3.46309">
        <ele>704.78</ele>
        <time>2016-03-06T09:26:39Z</time>
      </trkpt>
      <trkpt lat="43.74906" lon="3.46312">
        <ele>704.78</ele>
        <time>2016-03-06T09:26:40Z</time>
      </trkpt>
      <trkpt lat="43.74939" lon="3.46326">
        <ele>704.78</ele>
        <time>2016-03-06T09:26:42Z</time>
      </trkpt>
      <trkpt lat="43.74955" lon="3.46339">
        <ele>704.78</ele>
        <time>2016-03-06T09:26:43Z</time>
      </trkpt>
      <trkpt lat="43.74971" lon="3.4635">
        <ele>703.82</ele>
        <time>2016-03-06T09:26:44Z</time>
      </trkpt>
      <trkpt lat="43.75041" lon="3.46379">
        <ele>702.86</ele>
        <time>2016-03-06T09:26:49Z</time>
      </trkpt>
      <trkpt lat="43.7505" lon="3.46373">
        <ele>702.86</ele>
        <time>2016-03-06T09:26:50Z</time>
      </trkpt>
      <trkpt lat="43.75057" lon="3.46364">
        <ele>702.38</ele>
        <time>2016-03-06T09:26:51Z</time>
      </trkpt>
      <trkpt lat="43.75065" lon="3.46354">
        <ele>702.38</ele>
        <time>2016-03-06T09:26:52Z</time>
      </trkpt>
      <trkpt lat="43.75074" lon="3.46346">
        <ele>702.38</ele>
        <time>2016-03-06T09:26:53Z</time>
      </trkpt>
      <trkpt lat="43.75086" lon="3.46343">
        <ele>702.38</ele>
        <time>2016-03-06T09:26:54Z</time>
      </trkpt>
      <trkpt lat="43.75098" lon="3.46346">
        <ele>702.86</ele>
        <time>2016-03-06T09:26:55Z</time>
      </trkpt>
      <trkpt lat="43.75113" lon="3.46355">
        <ele>701.42</ele>
        <time>2016-03-06T09:26:56Z</time>
      </trkpt>
      <trkpt lat="43.75125" lon="3.46366">
        <ele>701.42</ele>
        <time>2016-03-06T09:26:57Z</time>
      </trkpt>
      <trkpt lat="43.75139" lon="3.46376">
        <ele>700.94</ele>
        <time>2016-03-06T09:26:58Z</time>
      </trkpt>
      <trkpt lat="43.75154" lon="3.46385">
        <ele>700.46</ele>
        <time>2016-03-06T09:26:59Z</time>
      </trkpt>
      <trkpt lat="43.7517" lon="3.46391">
        <ele>699.98</ele>
        <time>2016-03-06T09:27:00Z</time>
      </trkpt>
      <trkpt lat="43.75323" lon="3.4644">
        <ele>698.53</ele>
        <time>2016-03-06T09:27:09Z</time>
      </trkpt>
      <trkpt lat="43.75519" lon="3.46516">
        <ele>692.77</ele>
        <time>2016-03-06T09:27:18Z</time>
      </trkpt>
      <trkpt lat="43.75668" lon="3.46572">
        <ele>691.33</ele>
        <time>2016-03-06T09:27:25Z</time>
      </trkpt>
      <trkpt lat="43.75687" lon="3.46586">
        <ele>691.33</ele>
        <time>2016-03-06T09:27:26Z</time>
      </trkpt>
      <trkpt lat="43.75723" lon="3.46609">
        <ele>691.33</ele>
        <time>2016-03-06T09:27:28Z</time>
      </trkpt>
      <trkpt lat="43.75742" lon="3.46617">
        <ele>690.84</ele>
        <time>2016-03-06T09:27:29Z</time>
      </trkpt>
      <trkpt lat="43.75762" lon="3.46622">
        <ele>690.36</ele>
        <time>2016-03-06T09:27:30Z</time>
      </trkpt>
      <trkpt lat="43.75782" lon="3.46624">
        <ele>689.88</ele>
        <time>2016-03-06T09:27:31Z</time>
      </trkpt>
      <trkpt lat="43.75802" lon="3.46626">
        <ele>689.88</ele>
        <time>2016-03-06T09:27:32Z</time>
      </trkpt>
      <trkpt lat="43.75945" lon="3.46673">
        <ele>692.77</ele>
        <time>2016-03-06T09:27:39Z</time>
      </trkpt>
      <trkpt lat="43.76213" lon="3.46775">
        <ele>699.98</ele>
        <time>2016-03-06T09:27:51Z</time>
      </trkpt>
      <trkpt lat="43.76232" lon="3.46781">
        <ele>699.5</ele>
        <time>2016-03-06T09:27:52Z</time>
      </trkpt>
      <trkpt lat="43.76251" lon="3.46779">
        <ele>699.5</ele>
        <time>2016-03-06T09:27:53Z</time>
      </trkpt>
      <trkpt lat="43.7627" lon="3.46775">
        <ele>699.5</ele>
        <time>2016-03-06T09:27:54Z</time>
      </trkpt>
      <trkpt lat="43.76484" lon="3.46709">
        <ele>701.42</ele>
        <time>2016-03-06T09:28:04Z</time>
      </trkpt>
      <trkpt lat="43.76644" lon="3.46658">
        <ele>704.78</ele>
        <time>2016-03-06T09:28:12Z</time>
      </trkpt>
      <trkpt lat="43.76665" lon="3.46657">
        <ele>704.3</ele>
        <time>2016-03-06T09:28:13Z</time>
      </trkpt>
      <trkpt lat="43.76727" lon="3.46651">
        <ele>702.38</ele>
        <time>2016-03-06T09:28:16Z</time>
      </trkpt>
      <trkpt lat="43.76747" lon="3.46645">
        <ele>701.42</ele>
        <time>2016-03-06T09:28:17Z</time>
      </trkpt>
      <trkpt lat="43.76765" lon="3.46636">
        <ele>700.94</ele>
        <time>2016-03-06T09:28:18Z</time>
      </trkpt>
      <trkpt lat="43.76816" lon="3.46613">
        <ele>698.53</ele>
        <time>2016-03-06T09:28:21Z</time>
      </trkpt>
      <trkpt lat="43.76832" lon="3.46613">
        <ele>698.05</ele>
        <time>2016-03-06T09:28:22Z</time>
      </trkpt>
      <trkpt lat="43.7685" lon="3.46617">
        <ele>697.09</ele>
        <time>2016-03-06T09:28:23Z</time>
      </trkpt>
      <trkpt lat="43.76869" lon="3.46623">
        <ele>696.13</ele>
        <time>2016-03-06T09:28:24Z</time>
      </trkpt>
      <trkpt lat="43.7689" lon="3.46631">
        <ele>695.17</ele>
        <time>2016-03-06T09:28:25Z</time>
      </trkpt>
      <trkpt lat="43.77055" lon="3.46698">
        <ele>689.4</ele>
        <time>2016-03-06T09:28:33Z</time>
      </trkpt>
      <trkpt lat="43.77233" lon="3.46748">
        <ele>683.15</ele>
        <time>2016-03-06T09:28:41Z</time>
      </trkpt>
      <trkpt lat="43.77375" lon="3.46802">
        <ele>681.71</ele>
        <time>2016-03-06T09:28:48Z</time>
      </trkpt>
      <trkpt lat="43.77443" lon="3.46827">
        <ele>680.27</ele>
        <time>2016-03-06T09:28:52Z</time>
      </trkpt>
      <trkpt lat="43.77457" lon="3.4683">
        <ele>679.31</ele>
        <time>2016-03-06T09:28:53Z</time>
      </trkpt>
      <trkpt lat="43.77472" lon="3.4683">
        <ele>678.35</ele>
        <time>2016-03-06T09:28:54Z</time>
      </trkpt>
      <trkpt lat="43.77485" lon="3.46828">
        <ele>677.39</ele>
        <time>2016-03-06T09:28:55Z</time>
      </trkpt>
      <trkpt lat="43.77499" lon="3.46824">
        <ele>676.91</ele>
        <time>2016-03-06T09:28:56Z</time>
      </trkpt>
      <trkpt lat="43.77513" lon="3.46819">
        <ele>676.42</ele>
        <time>2016-03-06T09:28:57Z</time>
      </trkpt>
      <trkpt lat="43.77697" lon="3.46747">
        <ele>676.42</ele>
        <time>2016-03-06T09:29:08Z</time>
      </trkpt>
      <trkpt lat="43.77852" lon="3.46686">
        <ele>686.52</ele>
        <time>2016-03-06T09:29:17Z</time>
      </trkpt>
      <trkpt lat="43.77866" lon="3.46668">
        <ele>688.44</ele>
        <time>2016-03-06T09:29:18Z</time>
      </trkpt>
      <trkpt lat="43.77879" lon="3.46649">
        <ele>690.36</ele>
        <time>2016-03-06T09:29:19Z</time>
      </trkpt>
      <trkpt lat="43.77966" lon="3.46504">
        <ele>700.46</ele>
        <time>2016-03-06T09:29:26Z</time>
      </trkpt>
      <trkpt lat="43.7798" lon="3.46487">
        <ele>700.94</ele>
        <time>2016-03-06T09:29:27Z</time>
      </trkpt>
      <trkpt lat="43.78038" lon="3.46423">
        <ele>700.94</ele>
        <time>2016-03-06T09:29:31Z</time>
      </trkpt>
      <trkpt lat="43.78068" lon="3.46401">
        <ele>699.5</ele>
        <time>2016-03-06T09:29:33Z</time>
      </trkpt>
      <trkpt lat="43.78081" lon="3.46387">
        <ele>698.53</ele>
        <time>2016-03-06T09:29:34Z</time>
      </trkpt>
      <trkpt lat="43.78107" lon="3.46361">
        <ele>696.13</ele>
        <time>2016-03-06T09:29:36Z</time>
      </trkpt>
      <trkpt lat="43.78121" lon="3.4635">
        <ele>695.65</ele>
        <time>2016-03-06T09:29:37Z</time>
      </trkpt>
      <trkpt lat="43.78136" lon="3.46343">
        <ele>694.69</ele>
        <time>2016-03-06T09:29:38Z</time>
      </trkpt>
      <trkpt lat="43.78153" lon="3.46338">
        <ele>694.21</ele>
        <time>2016-03-06T09:29:39Z</time>
      </trkpt>
      <trkpt lat="43.7817" lon="3.46335">
        <ele>693.25</ele>
        <time>2016-03-06T09:29:40Z</time>
      </trkpt>
      <trkpt lat="43.78188" lon="3.46335">
        <ele>692.77</ele>
        <time>2016-03-06T09:29:41Z</time>
      </trkpt>
      <trkpt lat="43.78204" lon="3.46338">
        <ele>691.81</ele>
        <time>2016-03-06T09:29:42Z</time>
      </trkpt>
      <trkpt lat="43.7822" lon="3.46343">
        <ele>690.84</ele>
        <time>2016-03-06T09:29:43Z</time>
      </trkpt>
      <trkpt lat="43.78236" lon="3.46351">
        <ele>689.4</ele>
        <time>2016-03-06T09:29:44Z</time>
      </trkpt>
      <trkpt lat="43.78251" lon="3.46362">
        <ele>684.6</ele>
        <time>2016-03-06T09:29:45Z</time>
      </trkpt>
      <trkpt lat="43.78264" lon="3.46373">
        <ele>682.19</ele>
        <time>2016-03-06T09:29:46Z</time>
      </trkpt>
      <trkpt lat="43.78278" lon="3.46374">
        <ele>680.27</ele>
        <time>2016-03-06T09:29:47Z</time>
      </trkpt>
      <trkpt lat="43.7829" lon="3.46367">
        <ele>677.87</ele>
        <time>2016-03-06T09:29:48Z</time>
      </trkpt>
      <trkpt lat="43.783" lon="3.46354">
        <ele>675.46</ele>
        <time>2016-03-06T09:29:49Z</time>
      </trkpt>
      <trkpt lat="43.78311" lon="3.46339">
        <ele>673.06</ele>
        <time>2016-03-06T09:29:50Z</time>
      </trkpt>
      <trkpt lat="43.78323" lon="3.46325">
        <ele>672.1</ele>
        <time>2016-03-06T09:29:51Z</time>
      </trkpt>
      <trkpt lat="43.78338" lon="3.46314">
        <ele>670.66</ele>
        <time>2016-03-06T09:29:52Z</time>
      </trkpt>
      <trkpt lat="43.78355" lon="3.46307">
        <ele>669.22</ele>
        <time>2016-03-06T09:29:53Z</time>
      </trkpt>
      <trkpt lat="43.78373" lon="3.46303">
        <ele>668.25</ele>
        <time>2016-03-06T09:29:54Z</time>
      </trkpt>
      <trkpt lat="43.78393" lon="3.46302">
        <ele>665.85</ele>
        <time>2016-03-06T09:29:55Z</time>
      </trkpt>
      <trkpt lat="43.78412" lon="3.46304">
        <ele>664.41</ele>
        <time>2016-03-06T09:29:56Z</time>
      </trkpt>
      <trkpt lat="43.7843" lon="3.46309">
        <ele>662.97</ele>
        <time>2016-03-06T09:29:57Z</time>
      </trkpt>
      <trkpt lat="43.78447" lon="3.46316">
        <ele>661.52</ele>
        <time>2016-03-06T09:29:58Z</time>
      </trkpt>
      <trkpt lat="43.78464" lon="3.46322">
        <ele>660.56</ele>
        <time>2016-03-06T09:29:59Z</time>
      </trkpt>
      <trkpt lat="43.78478" lon="3.46325">
        <ele>659.6</ele>
        <time>2016-03-06T09:30:00Z</time>
      </trkpt>
      <trkpt lat="43.78493" lon="3.46322">
        <ele>658.64</ele>
        <time>2016-03-06T09:30:01Z</time>
      </trkpt>
      <trkpt lat="43.78508" lon="3.46312">
        <ele>657.68</ele>
        <time>2016-03-06T09:30:02Z</time>
      </trkpt>
      <trkpt lat="43.78522" lon="3.46299">
        <ele>656.72</ele>
        <time>2016-03-06T09:30:03Z</time>
      </trkpt>
      <trkpt lat="43.78538" lon="3.46286">
        <ele>655.76</ele>
        <time>2016-03-06T09:30:04Z</time>
      </trkpt>
      <trkpt lat="43.78556" lon="3.46275">
        <ele>654.8</ele>
        <time>2016-03-06T09:30:05Z</time>
      </trkpt>
      <trkpt lat="43.78574" lon="3.46265">
        <ele>653.83</ele>
        <time>2016-03-06T09:30:06Z</time>
      </trkpt>
      <trkpt lat="43.78609" lon="3.46249">
        <ele>651.91</ele>
        <time>2016-03-06T09:30:08Z</time>
      </trkpt>
      <trkpt lat="43.78626" lon="3.46244">
        <ele>650.95</ele>
        <time>2016-03-06T09:30:09Z</time>
      </trkpt>
      <trkpt lat="43.78743" lon="3.46219">
        <ele>642.78</ele>
        <time>2016-03-06T09:30:17Z</time>
      </trkpt>
      <trkpt lat="43.78754" lon="3.46213">
        <ele>641.82</ele>
        <time>2016-03-06T09:30:18Z</time>
      </trkpt>
      <trkpt lat="43.78763" lon="3.46206">
        <ele>640.86</ele>
        <time>2016-03-06T09:30:19Z</time>
      </trkpt>
      <trkpt lat="43.78771" lon="3.46198">
        <ele>639.89</ele>
        <time>2016-03-06T09:30:20Z</time>
      </trkpt>
      <trkpt lat="43.78778" lon="3.4619">
        <ele>639.89</ele>
        <time>2016-03-06T09:30:21Z</time>
      </trkpt>
      <trkpt lat="43.78785" lon="3.46183">
        <ele>639.89</ele>
        <time>2016-03-06T09:30:22Z</time>
      </trkpt>
      <trkpt lat="43.78824" lon="3.46137">
        <ele>637.97</ele>
        <time>2016-03-06T09:30:31Z</time>
      </trkpt>
      <trkpt lat="43.78852" lon="3.46103">
        <ele>634.61</ele>
        <time>2016-03-06T09:30:37Z</time>
      </trkpt>
      <trkpt lat="43.78857" lon="3.46097">
        <ele>634.61</ele>
        <time>2016-03-06T09:30:38Z</time>
      </trkpt>
      <trkpt lat="43.7887" lon="3.46077">
        <ele>632.68</ele>
        <time>2016-03-06T09:30:42Z</time>
      </trkpt>
      <trkpt lat="43.78873" lon="3.46072">
        <ele>632.2</ele>
        <time>2016-03-06T09:30:43Z</time>
      </trkpt>
      <trkpt lat="43.78892" lon="3.46045">
        <ele>637.97</ele>
        <time>2016-03-06T09:30:52Z</time>
      </trkpt>
      <trkpt lat="43.78891" lon="3.46044">
        <ele>648.07</ele>
        <time>2016-03-06T09:31:09Z</time>
      </trkpt>
      <trkpt lat="43.78892" lon="3.46046">
        <ele>644.7</ele>
        <time>2016-03-06T09:32:22Z</time>
      </trkpt>
      <trkpt lat="43.78892" lon="3.46047">
        <ele>651.43</ele>
        <time>2016-03-06T09:34:02Z</time>
      </trkpt>
      <trkpt lat="43.78892" lon="3.46048">
        <ele>655.28</ele>
        <time>2016-03-06T09:35:48Z</time>
      </trkpt>
      <trkpt lat="43.78894" lon="3.46045">
        <ele>657.68</ele>
        <time>2016-03-06T09:38:40Z</time>
      </trkpt>
      <trkpt lat="43.78862" lon="3.46056">
        <ele>639.89</ele>
        <time>2016-03-06T13:07:50Z</time>
      </trkpt>
      <trkpt lat="43.78889" lon="3.4605">
        <ele>649.51</ele>
        <time>2016-03-06T13:09:43Z</time>
      </trkpt>
      <trkpt lat="43.78876" lon="3.46068">
        <ele>645.66</ele>
        <time>2016-03-06T13:09:48Z</time>
      </trkpt>
      <trkpt lat="43.78871" lon="3.46075">
        <ele>645.18</ele>
        <time>2016-03-06T13:09:49Z</time>
      </trkpt>
      <trkpt lat="43.78867" lon="3.46081">
        <ele>644.7</ele>
        <time>2016-03-06T13:09:50Z</time>
      </trkpt>
      <trkpt lat="43.78856" lon="3.46097">
        <ele>648.55</ele>
        <time>2016-03-06T13:09:52Z</time>
      </trkpt>
      <trkpt lat="43.78849" lon="3.46105">
        <ele>649.51</ele>
        <time>2016-03-06T13:09:53Z</time>
      </trkpt>
      <trkpt lat="43.78842" lon="3.46112">
        <ele>650.95</ele>
        <time>2016-03-06T13:09:54Z</time>
      </trkpt>
      <trkpt lat="43.78836" lon="3.46119">
        <ele>649.51</ele>
        <time>2016-03-06T13:09:55Z</time>
      </trkpt>
      <trkpt lat="43.7883" lon="3.46127">
        <ele>649.51</ele>
        <time>2016-03-06T13:09:56Z</time>
      </trkpt>
      <trkpt lat="43.78823" lon="3.46135">
        <ele>649.03</ele>
        <time>2016-03-06T13:09:57Z</time>
      </trkpt>
      <trkpt lat="43.78802" lon="3.46157">
        <ele>649.03</ele>
        <time>2016-03-06T13:10:00Z</time>
      </trkpt>
      <trkpt lat="43.78797" lon="3.46162">
        <ele>648.55</ele>
        <time>2016-03-06T13:10:01Z</time>
      </trkpt>
      <trkpt lat="43.78792" lon="3.46165">
        <ele>648.55</ele>
        <time>2016-03-06T13:10:02Z</time>
      </trkpt>
      <trkpt lat="43.78787" lon="3.46167">
        <ele>648.55</ele>
        <time>2016-03-06T13:10:03Z</time>
      </trkpt>
      <trkpt lat="43.78784" lon="3.4617">
        <ele>649.51</ele>
        <time>2016-03-06T13:10:04Z</time>
      </trkpt>
      <trkpt lat="43.78782" lon="3.46171">
        <ele>649.99</ele>
        <time>2016-03-06T13:10:05Z</time>
      </trkpt>
      <trkpt lat="43.78782" lon="3.46171">
        <ele>654.31</ele>
        <time>2016-03-06T13:10:20Z</time>
      </trkpt>
      <trkpt lat="43.7878" lon="3.46174">
        <ele>651.43</ele>
        <time>2016-03-06T13:10:39Z</time>
      </trkpt>
      <trkpt lat="43.78781" lon="3.46176">
        <ele>649.99</ele>
        <time>2016-03-06T13:10:40Z</time>
      </trkpt>
      <trkpt lat="43.7878" lon="3.4618">
        <ele>649.51</ele>
        <time>2016-03-06T13:10:41Z</time>
      </trkpt>
      <trkpt lat="43.78774" lon="3.46187">
        <ele>649.03</ele>
        <time>2016-03-06T13:10:42Z</time>
      </trkpt>
      <trkpt lat="43.78768" lon="3.46194">
        <ele>648.07</ele>
        <time>2016-03-06T13:10:43Z</time>
      </trkpt>
      <trkpt lat="43.78762" lon="3.46202">
        <ele>647.1</ele>
        <time>2016-03-06T13:10:44Z</time>
      </trkpt>
      <trkpt lat="43.78754" lon="3.46209">
        <ele>646.62</ele>
        <time>2016-03-06T13:10:45Z</time>
      </trkpt>
      <trkpt lat="43.78745" lon="3.46215">
        <ele>646.14</ele>
        <time>2016-03-06T13:10:46Z</time>
      </trkpt>
      <trkpt lat="43.78735" lon="3.46221">
        <ele>645.66</ele>
        <time>2016-03-06T13:10:47Z</time>
      </trkpt>
      <trkpt lat="43.78723" lon="3.46226">
        <ele>645.18</ele>
        <time>2016-03-06T13:10:48Z</time>
      </trkpt>
      <trkpt lat="43.78711" lon="3.46229">
        <ele>644.7</ele>
        <time>2016-03-06T13:10:49Z</time>
      </trkpt>
      <trkpt lat="43.78699" lon="3.46232">
        <ele>644.7</ele>
        <time>2016-03-06T13:10:50Z</time>
      </trkpt>
      <trkpt lat="43.78686" lon="3.46235">
        <ele>644.7</ele>
        <time>2016-03-06T13:10:51Z</time>
      </trkpt>
      <trkpt lat="43.78586" lon="3.46258">
        <ele>650.95</ele>
        <time>2016-03-06T13:10:58Z</time>
      </trkpt>
      <trkpt lat="43.7857" lon="3.46265">
        <ele>652.39</ele>
        <time>2016-03-06T13:10:59Z</time>
      </trkpt>
      <trkpt lat="43.78523" lon="3.46293">
        <ele>654.8</ele>
        <time>2016-03-06T13:11:02Z</time>
      </trkpt>
      <trkpt lat="43.78508" lon="3.46305">
        <ele>655.76</ele>
        <time>2016-03-06T13:11:03Z</time>
      </trkpt>
      <trkpt lat="43.78494" lon="3.46317">
        <ele>656.72</ele>
        <time>2016-03-06T13:11:04Z</time>
      </trkpt>
      <trkpt lat="43.78478" lon="3.46325">
        <ele>657.68</ele>
        <time>2016-03-06T13:11:05Z</time>
      </trkpt>
      <trkpt lat="43.78461" lon="3.46327">
        <ele>658.64</ele>
        <time>2016-03-06T13:11:06Z</time>
      </trkpt>
      <trkpt lat="43.78445" lon="3.46323">
        <ele>659.6</ele>
        <time>2016-03-06T13:11:07Z</time>
      </trkpt>
      <trkpt lat="43.7843" lon="3.46316">
        <ele>661.52</ele>
        <time>2016-03-06T13:11:08Z</time>
      </trkpt>
      <trkpt lat="43.78413" lon="3.4631">
        <ele>662.97</ele>
        <time>2016-03-06T13:11:09Z</time>
      </trkpt>
      <trkpt lat="43.78396" lon="3.46306">
        <ele>663.93</ele>
        <time>2016-03-06T13:11:10Z</time>
      </trkpt>
      <trkpt lat="43.78378" lon="3.46305">
        <ele>665.37</ele>
        <time>2016-03-06T13:11:11Z</time>
      </trkpt>
      <trkpt lat="43.7836" lon="3.46306">
        <ele>666.33</ele>
        <time>2016-03-06T13:11:12Z</time>
      </trkpt>
      <trkpt lat="43.78342" lon="3.4631">
        <ele>667.29</ele>
        <time>2016-03-06T13:11:13Z</time>
      </trkpt>
      <trkpt lat="43.78325" lon="3.46316">
        <ele>668.25</ele>
        <time>2016-03-06T13:11:14Z</time>
      </trkpt>
      <trkpt lat="43.78312" lon="3.46328">
        <ele>669.22</ele>
        <time>2016-03-06T13:11:15Z</time>
      </trkpt>
      <trkpt lat="43.78301" lon="3.46343">
        <ele>670.18</ele>
        <time>2016-03-06T13:11:16Z</time>
      </trkpt>
      <trkpt lat="43.78292" lon="3.46357">
        <ele>671.14</ele>
        <time>2016-03-06T13:11:17Z</time>
      </trkpt>
      <trkpt lat="43.78282" lon="3.4637">
        <ele>672.58</ele>
        <time>2016-03-06T13:11:18Z</time>
      </trkpt>
      <trkpt lat="43.7827" lon="3.46378">
        <ele>674.02</ele>
        <time>2016-03-06T13:11:19Z</time>
      </trkpt>
      <trkpt lat="43.78257" lon="3.4638">
        <ele>674.98</ele>
        <time>2016-03-06T13:11:20Z</time>
      </trkpt>
      <trkpt lat="43.78244" lon="3.46376">
        <ele>675.94</ele>
        <time>2016-03-06T13:11:21Z</time>
      </trkpt>
      <trkpt lat="43.78231" lon="3.46367">
        <ele>677.39</ele>
        <time>2016-03-06T13:11:22Z</time>
      </trkpt>
      <trkpt lat="43.78217" lon="3.46358">
        <ele>678.83</ele>
        <time>2016-03-06T13:11:23Z</time>
      </trkpt>
      <trkpt lat="43.78203" lon="3.46351">
        <ele>679.79</ele>
        <time>2016-03-06T13:11:24Z</time>
      </trkpt>
      <trkpt lat="43.78189" lon="3.46346">
        <ele>681.23</ele>
        <time>2016-03-06T13:11:25Z</time>
      </trkpt>
      <trkpt lat="43.78173" lon="3.46345">
        <ele>682.19</ele>
        <time>2016-03-06T13:11:26Z</time>
      </trkpt>
      <trkpt lat="43.78157" lon="3.46346">
        <ele>683.15</ele>
        <time>2016-03-06T13:11:27Z</time>
      </trkpt>
      <trkpt lat="43.7814" lon="3.46349">
        <ele>684.6</ele>
        <time>2016-03-06T13:11:28Z</time>
      </trkpt>
      <trkpt lat="43.78124" lon="3.46354">
        <ele>685.56</ele>
        <time>2016-03-06T13:11:29Z</time>
      </trkpt>
      <trkpt lat="43.78108" lon="3.4636">
        <ele>687.48</ele>
        <time>2016-03-06T13:11:30Z</time>
      </trkpt>
      <trkpt lat="43.78093" lon="3.46369">
        <ele>688.92</ele>
        <time>2016-03-06T13:11:31Z</time>
      </trkpt>
      <trkpt lat="43.78079" lon="3.46382">
        <ele>689.88</ele>
        <time>2016-03-06T13:11:32Z</time>
      </trkpt>
      <trkpt lat="43.78066" lon="3.46397">
        <ele>691.81</ele>
        <time>2016-03-06T13:11:33Z</time>
      </trkpt>
      <trkpt lat="43.7804" lon="3.46425">
        <ele>691.33</ele>
        <time>2016-03-06T13:11:35Z</time>
      </trkpt>
      <trkpt lat="43.78011" lon="3.4645">
        <ele>692.77</ele>
        <time>2016-03-06T13:11:37Z</time>
      </trkpt>
      <trkpt lat="43.77944" lon="3.46526">
        <ele>696.61</ele>
        <time>2016-03-06T13:11:42Z</time>
      </trkpt>
      <trkpt lat="43.77934" lon="3.46543">
        <ele>696.61</ele>
        <time>2016-03-06T13:11:43Z</time>
      </trkpt>
      <trkpt lat="43.77843" lon="3.4669">
        <ele>690.84</ele>
        <time>2016-03-06T13:11:51Z</time>
      </trkpt>
      <trkpt lat="43.77825" lon="3.467">
        <ele>690.36</ele>
        <time>2016-03-06T13:11:52Z</time>
      </trkpt>
      <trkpt lat="43.77807" lon="3.46707">
        <ele>689.4</ele>
        <time>2016-03-06T13:11:53Z</time>
      </trkpt>
      <trkpt lat="43.77704" lon="3.46742">
        <ele>680.75</ele>
        <time>2016-03-06T13:11:58Z</time>
      </trkpt>
      <trkpt lat="43.77455" lon="3.46831">
        <ele>674.98</ele>
        <time>2016-03-06T13:12:10Z</time>
      </trkpt>
      <trkpt lat="43.77437" lon="3.46831">
        <ele>675.46</ele>
        <time>2016-03-06T13:12:11Z</time>
      </trkpt>
      <trkpt lat="43.7742" lon="3.46828">
        <ele>675.94</ele>
        <time>2016-03-06T13:12:12Z</time>
      </trkpt>
      <trkpt lat="43.77403" lon="3.4682">
        <ele>676.42</ele>
        <time>2016-03-06T13:12:13Z</time>
      </trkpt>
      <trkpt lat="43.77263" lon="3.4677">
        <ele>680.75</ele>
        <time>2016-03-06T13:12:20Z</time>
      </trkpt>
      <trkpt lat="43.7716" lon="3.46723">
        <ele>681.71</ele>
        <time>2016-03-06T13:12:25Z</time>
      </trkpt>
      <trkpt lat="43.77139" lon="3.46719">
        <ele>682.67</ele>
        <time>2016-03-06T13:12:26Z</time>
      </trkpt>
      <trkpt lat="43.76934" lon="3.4665">
        <ele>688.92</ele>
        <time>2016-03-06T13:12:36Z</time>
      </trkpt>
      <trkpt lat="43.76822" lon="3.4661">
        <ele>694.21</ele>
        <time>2016-03-06T13:12:42Z</time>
      </trkpt>
      <trkpt lat="43.76806" lon="3.4661">
        <ele>695.17</ele>
        <time>2016-03-06T13:12:43Z</time>
      </trkpt>
      <trkpt lat="43.7679" lon="3.46616">
        <ele>695.65</ele>
        <time>2016-03-06T13:12:44Z</time>
      </trkpt>
      <trkpt lat="43.76774" lon="3.46625">
        <ele>696.13</ele>
        <time>2016-03-06T13:12:45Z</time>
      </trkpt>
      <trkpt lat="43.76757" lon="3.46636">
        <ele>697.09</ele>
        <time>2016-03-06T13:12:46Z</time>
      </trkpt>
      <trkpt lat="43.76719" lon="3.46653">
        <ele>698.53</ele>
        <time>2016-03-06T13:12:48Z</time>
      </trkpt>
      <trkpt lat="43.76698" lon="3.46657">
        <ele>699.5</ele>
        <time>2016-03-06T13:12:49Z</time>
      </trkpt>
      <trkpt lat="43.76678" lon="3.46659">
        <ele>700.46</ele>
        <time>2016-03-06T13:12:50Z</time>
      </trkpt>
      <trkpt lat="43.76528" lon="3.4669">
        <ele>703.34</ele>
        <time>2016-03-06T13:12:57Z</time>
      </trkpt>
      <trkpt lat="43.76253" lon="3.46776">
        <ele>697.09</ele>
        <time>2016-03-06T13:13:09Z</time>
      </trkpt>
      <trkpt lat="43.76233" lon="3.46778">
        <ele>697.09</ele>
        <time>2016-03-06T13:13:10Z</time>
      </trkpt>
      <trkpt lat="43.76213" lon="3.46775">
        <ele>697.57</ele>
        <time>2016-03-06T13:13:11Z</time>
      </trkpt>
      <trkpt lat="43.76194" lon="3.46769">
        <ele>698.05</ele>
        <time>2016-03-06T13:13:12Z</time>
      </trkpt>
      <trkpt lat="43.75996" lon="3.46693">
        <ele>694.21</ele>
        <time>2016-03-06T13:13:21Z</time>
      </trkpt>
      <trkpt lat="43.75738" lon="3.46614">
        <ele>690.84</ele>
        <time>2016-03-06T13:13:33Z</time>
      </trkpt>
      <trkpt lat="43.75719" lon="3.46608">
        <ele>690.84</ele>
        <time>2016-03-06T13:13:34Z</time>
      </trkpt>
      <trkpt lat="43.75699" lon="3.46599">
        <ele>691.33</ele>
        <time>2016-03-06T13:13:35Z</time>
      </trkpt>
      <trkpt lat="43.75681" lon="3.46587">
        <ele>691.33</ele>
        <time>2016-03-06T13:13:36Z</time>
      </trkpt>
      <trkpt lat="43.75538" lon="3.46524">
        <ele>692.29</ele>
        <time>2016-03-06T13:13:43Z</time>
      </trkpt>
      <trkpt lat="43.75299" lon="3.46432">
        <ele>699.98</ele>
        <time>2016-03-06T13:13:54Z</time>
      </trkpt>
      <trkpt lat="43.75139" lon="3.46381">
        <ele>702.86</ele>
        <time>2016-03-06T13:14:02Z</time>
      </trkpt>
      <trkpt lat="43.75123" lon="3.46371">
        <ele>703.34</ele>
        <time>2016-03-06T13:14:03Z</time>
      </trkpt>
      <trkpt lat="43.75081" lon="3.46345">
        <ele>703.34</ele>
        <time>2016-03-06T13:14:06Z</time>
      </trkpt>
      <trkpt lat="43.75071" lon="3.46343">
        <ele>703.34</ele>
        <time>2016-03-06T13:14:07Z</time>
      </trkpt>
      <trkpt lat="43.75064" lon="3.46348">
        <ele>703.82</ele>
        <time>2016-03-06T13:14:08Z</time>
      </trkpt>
      <trkpt lat="43.75058" lon="3.46357">
        <ele>704.3</ele>
        <time>2016-03-06T13:14:09Z</time>
      </trkpt>
      <trkpt lat="43.75051" lon="3.46367">
        <ele>704.3</ele>
        <time>2016-03-06T13:14:10Z</time>
      </trkpt>
      <trkpt lat="43.75043" lon="3.46374">
        <ele>704.3</ele>
        <time>2016-03-06T13:14:11Z</time>
      </trkpt>
      <trkpt lat="43.75032" lon="3.46378">
        <ele>703.82</ele>
        <time>2016-03-06T13:14:12Z</time>
      </trkpt>
      <trkpt lat="43.75022" lon="3.46372">
        <ele>703.34</ele>
        <time>2016-03-06T13:14:13Z</time>
      </trkpt>
      <trkpt lat="43.75008" lon="3.46366">
        <ele>703.34</ele>
        <time>2016-03-06T13:14:14Z</time>
      </trkpt>
      <trkpt lat="43.74992" lon="3.46359">
        <ele>703.82</ele>
        <time>2016-03-06T13:14:15Z</time>
      </trkpt>
      <trkpt lat="43.74959" lon="3.46341">
        <ele>703.82</ele>
        <time>2016-03-06T13:14:17Z</time>
      </trkpt>
      <trkpt lat="43.74943" lon="3.46329">
        <ele>703.82</ele>
        <time>2016-03-06T13:14:18Z</time>
      </trkpt>
      <trkpt lat="43.74913" lon="3.46308">
        <ele>703.34</ele>
        <time>2016-03-06T13:14:20Z</time>
      </trkpt>
      <trkpt lat="43.749" lon="3.46305">
        <ele>703.34</ele>
        <time>2016-03-06T13:14:21Z</time>
      </trkpt>
      <trkpt lat="43.74885" lon="3.46301">
        <ele>703.34</ele>
        <time>2016-03-06T13:14:22Z</time>
      </trkpt>
      <trkpt lat="43.74871" lon="3.46297">
        <ele>703.34</ele>
        <time>2016-03-06T13:14:23Z</time>
      </trkpt>
      <trkpt lat="43.74856" lon="3.46287">
        <ele>703.34</ele>
        <time>2016-03-06T13:14:24Z</time>
      </trkpt>
      <trkpt lat="43.74841" lon="3.46275">
        <ele>703.82</ele>
        <time>2016-03-06T13:14:25Z</time>
      </trkpt>
      <trkpt lat="43.74829" lon="3.46261">
        <ele>704.3</ele>
        <time>2016-03-06T13:14:26Z</time>
      </trkpt>
      <trkpt lat="43.74816" lon="3.46249">
        <ele>703.82</ele>
        <time>2016-03-06T13:14:27Z</time>
      </trkpt>
      <trkpt lat="43.74803" lon="3.46239">
        <ele>703.82</ele>
        <time>2016-03-06T13:14:28Z</time>
      </trkpt>
      <trkpt lat="43.74788" lon="3.46237">
        <ele>703.82</ele>
        <time>2016-03-06T13:14:29Z</time>
      </trkpt>
      <trkpt lat="43.74772" lon="3.46237">
        <ele>703.34</ele>
        <time>2016-03-06T13:14:30Z</time>
      </trkpt>
      <trkpt lat="43.74754" lon="3.46238">
        <ele>703.34</ele>
        <time>2016-03-06T13:14:31Z</time>
      </trkpt>
      <trkpt lat="43.74736" lon="3.46236">
        <ele>703.82</ele>
        <time>2016-03-06T13:14:32Z</time>
      </trkpt>
      <trkpt lat="43.74718" lon="3.46231">
        <ele>703.34</ele>
        <time>2016-03-06T13:14:33Z</time>
      </trkpt>
      <trkpt lat="43.74701" lon="3.46225">
        <ele>703.34</ele>
        <time>2016-03-06T13:14:34Z</time>
      </trkpt>
      <trkpt lat="43.74685" lon="3.46219">
        <ele>703.34</ele>
        <time>2016-03-06T13:14:35Z</time>
      </trkpt>
      <trkpt lat="43.7464" lon="3.46197">
        <ele>703.34</ele>
        <time>2016-03-06T13:14:38Z</time>
      </trkpt>
      <trkpt lat="43.74628" lon="3.46186">
        <ele>703.34</ele>
        <time>2016-03-06T13:14:39Z</time>
      </trkpt>
      <trkpt lat="43.74617" lon="3.4617">
        <ele>703.82</ele>
        <time>2016-03-06T13:14:40Z</time>
      </trkpt>
      <trkpt lat="43.74605" lon="3.46152">
        <ele>703.82</ele>
        <time>2016-03-06T13:14:41Z</time>
      </trkpt>
      <trkpt lat="43.74595" lon="3.46133">
        <ele>703.82</ele>
        <time>2016-03-06T13:14:42Z</time>
      </trkpt>
      <trkpt lat="43.74585" lon="3.46114">
        <ele>704.3</ele>
        <time>2016-03-06T13:14:43Z</time>
      </trkpt>
      <trkpt lat="43.74529" lon="3.46014">
        <ele>704.78</ele>
        <time>2016-03-06T13:14:50Z</time>
      </trkpt>
      <trkpt lat="43.74509" lon="3.45967">
        <ele>704.3</ele>
        <time>2016-03-06T13:14:54Z</time>
      </trkpt>
      <trkpt lat="43.74504" lon="3.4595">
        <ele>704.3</ele>
        <time>2016-03-06T13:14:55Z</time>
      </trkpt>
      <trkpt lat="43.745" lon="3.45931">
        <ele>703.82</ele>
        <time>2016-03-06T13:14:56Z</time>
      </trkpt>
      <trkpt lat="43.74486" lon="3.45842">
        <ele>702.86</ele>
        <time>2016-03-06T13:15:01Z</time>
      </trkpt>
      <trkpt lat="43.74476" lon="3.45831">
        <ele>701.9</ele>
        <time>2016-03-06T13:15:02Z</time>
      </trkpt>
      <trkpt lat="43.74466" lon="3.45824">
        <ele>700.94</ele>
        <time>2016-03-06T13:15:03Z</time>
      </trkpt>
      <trkpt lat="43.74454" lon="3.45818">
        <ele>700.94</ele>
        <time>2016-03-06T13:15:04Z</time>
      </trkpt>
      <trkpt lat="43.74442" lon="3.45812">
        <ele>700.46</ele>
        <time>2016-03-06T13:15:05Z</time>
      </trkpt>
      <trkpt lat="43.74416" lon="3.45803">
        <ele>699.5</ele>
        <time>2016-03-06T13:15:07Z</time>
      </trkpt>
      <trkpt lat="43.74402" lon="3.45803">
        <ele>699.02</ele>
        <time>2016-03-06T13:15:08Z</time>
      </trkpt>
      <trkpt lat="43.74375" lon="3.45806">
        <ele>698.05</ele>
        <time>2016-03-06T13:15:10Z</time>
      </trkpt>
      <trkpt lat="43.74361" lon="3.45804">
        <ele>697.09</ele>
        <time>2016-03-06T13:15:11Z</time>
      </trkpt>
      <trkpt lat="43.74348" lon="3.45798">
        <ele>696.61</ele>
        <time>2016-03-06T13:15:12Z</time>
      </trkpt>
      <trkpt lat="43.74297" lon="3.45762">
        <ele>692.77</ele>
        <time>2016-03-06T13:15:16Z</time>
      </trkpt>
      <trkpt lat="43.74285" lon="3.45746">
        <ele>690.84</ele>
        <time>2016-03-06T13:15:17Z</time>
      </trkpt>
      <trkpt lat="43.74211" lon="3.45647">
        <ele>678.83</ele>
        <time>2016-03-06T13:15:24Z</time>
      </trkpt>
      <trkpt lat="43.74173" lon="3.45629">
        <ele>674.98</ele>
        <time>2016-03-06T13:15:27Z</time>
      </trkpt>
      <trkpt lat="43.74159" lon="3.45634">
        <ele>675.46</ele>
        <time>2016-03-06T13:15:28Z</time>
      </trkpt>
      <trkpt lat="43.74048" lon="3.4566">
        <ele>668.73</ele>
        <time>2016-03-06T13:15:35Z</time>
      </trkpt>
      <trkpt lat="43.73976" lon="3.45668">
        <ele>666.33</ele>
        <time>2016-03-06T13:15:40Z</time>
      </trkpt>
      <trkpt lat="43.73967" lon="3.45661">
        <ele>664.89</ele>
        <time>2016-03-06T13:15:41Z</time>
      </trkpt>
      <trkpt lat="43.73955" lon="3.45655">
        <ele>662.97</ele>
        <time>2016-03-06T13:15:42Z</time>
      </trkpt>
      <trkpt lat="43.73941" lon="3.45646">
        <ele>662.01</ele>
        <time>2016-03-06T13:15:43Z</time>
      </trkpt>
      <trkpt lat="43.73925" lon="3.45637">
        <ele>660.56</ele>
        <time>2016-03-06T13:15:44Z</time>
      </trkpt>
      <trkpt lat="43.73823" lon="3.45602">
        <ele>651.91</ele>
        <time>2016-03-06T13:15:51Z</time>
      </trkpt>
      <trkpt lat="43.73813" lon="3.45604">
        <ele>650.95</ele>
        <time>2016-03-06T13:15:52Z</time>
      </trkpt>
      <trkpt lat="43.73804" lon="3.4561">
        <ele>650.95</ele>
        <time>2016-03-06T13:15:53Z</time>
      </trkpt>
      <trkpt lat="43.73799" lon="3.45621">
        <ele>649.51</ele>
        <time>2016-03-06T13:15:54Z</time>
      </trkpt>
      <trkpt lat="43.73796" lon="3.45635">
        <ele>648.55</ele>
        <time>2016-03-06T13:15:55Z</time>
      </trkpt>
      <trkpt lat="43.73793" lon="3.45654">
        <ele>647.59</ele>
        <time>2016-03-06T13:15:56Z</time>
      </trkpt>
      <trkpt lat="43.73791" lon="3.45674">
        <ele>646.14</ele>
        <time>2016-03-06T13:15:57Z</time>
      </trkpt>
      <trkpt lat="43.73789" lon="3.45694">
        <ele>644.7</ele>
        <time>2016-03-06T13:15:58Z</time>
      </trkpt>
      <trkpt lat="43.73788" lon="3.45714">
        <ele>643.74</ele>
        <time>2016-03-06T13:15:59Z</time>
      </trkpt>
      <trkpt lat="43.73789" lon="3.45732">
        <ele>643.26</ele>
        <time>2016-03-06T13:16:00Z</time>
      </trkpt>
      <trkpt lat="43.7379" lon="3.45749">
        <ele>642.3</ele>
        <time>2016-03-06T13:16:01Z</time>
      </trkpt>
      <trkpt lat="43.73793" lon="3.45766">
        <ele>641.82</ele>
        <time>2016-03-06T13:16:02Z</time>
      </trkpt>
      <trkpt lat="43.73798" lon="3.45825">
        <ele>639.41</ele>
        <time>2016-03-06T13:16:05Z</time>
      </trkpt>
      <trkpt lat="43.73796" lon="3.45844">
        <ele>638.45</ele>
        <time>2016-03-06T13:16:06Z</time>
      </trkpt>
      <trkpt lat="43.73791" lon="3.45864">
        <ele>637.49</ele>
        <time>2016-03-06T13:16:07Z</time>
      </trkpt>
      <trkpt lat="43.73787" lon="3.45884">
        <ele>636.53</ele>
        <time>2016-03-06T13:16:08Z</time>
      </trkpt>
      <trkpt lat="43.73784" lon="3.45904">
        <ele>636.05</ele>
        <time>2016-03-06T13:16:09Z</time>
      </trkpt>
      <trkpt lat="43.73781" lon="3.45923">
        <ele>635.09</ele>
        <time>2016-03-06T13:16:10Z</time>
      </trkpt>
      <trkpt lat="43.73781" lon="3.45943">
        <ele>634.13</ele>
        <time>2016-03-06T13:16:11Z</time>
      </trkpt>
      <trkpt lat="43.73782" lon="3.45964">
        <ele>633.17</ele>
        <time>2016-03-06T13:16:12Z</time>
      </trkpt>
      <trkpt lat="43.73782" lon="3.45985">
        <ele>632.2</ele>
        <time>2016-03-06T13:16:13Z</time>
      </trkpt>
      <trkpt lat="43.7378" lon="3.46007">
        <ele>631.24</ele>
        <time>2016-03-06T13:16:14Z</time>
      </trkpt>
      <trkpt lat="43.73775" lon="3.46029">
        <ele>630.28</ele>
        <time>2016-03-06T13:16:15Z</time>
      </trkpt>
      <trkpt lat="43.7377" lon="3.46052">
        <ele>629.32</ele>
        <time>2016-03-06T13:16:16Z</time>
      </trkpt>
      <trkpt lat="43.73755" lon="3.46115">
        <ele>626.44</ele>
        <time>2016-03-06T13:16:19Z</time>
      </trkpt>
      <trkpt lat="43.73748" lon="3.46134">
        <ele>625.47</ele>
        <time>2016-03-06T13:16:20Z</time>
      </trkpt>
      <trkpt lat="43.7374" lon="3.46153">
        <ele>624.03</ele>
        <time>2016-03-06T13:16:21Z</time>
      </trkpt>
      <trkpt lat="43.73679" lon="3.46309">
        <ele>615.86</ele>
        <time>2016-03-06T13:16:30Z</time>
      </trkpt>
      <trkpt lat="43.7367" lon="3.4634">
        <ele>613.94</ele>
        <time>2016-03-06T13:16:33Z</time>
      </trkpt>
      <trkpt lat="43.73665" lon="3.4634">
        <ele>613.46</ele>
        <time>2016-03-06T13:16:34Z</time>
      </trkpt>
      <trkpt lat="43.73659" lon="3.46337">
        <ele>612.5</ele>
        <time>2016-03-06T13:16:35Z</time>
      </trkpt>
      <trkpt lat="43.73656" lon="3.46331">
        <ele>612.02</ele>
        <time>2016-03-06T13:16:36Z</time>
      </trkpt>
      <trkpt lat="43.73654" lon="3.46322">
        <ele>611.06</ele>
        <time>2016-03-06T13:16:37Z</time>
      </trkpt>
      <trkpt lat="43.73656" lon="3.46311">
        <ele>611.54</ele>
        <time>2016-03-06T13:16:38Z</time>
      </trkpt>
      <trkpt lat="43.7366" lon="3.46299">
        <ele>611.06</ele>
        <time>2016-03-06T13:16:39Z</time>
      </trkpt>
      <trkpt lat="43.73665" lon="3.46287">
        <ele>610.57</ele>
        <time>2016-03-06T13:16:40Z</time>
      </trkpt>
      <trkpt lat="43.73699" lon="3.46167">
        <ele>605.77</ele>
        <time>2016-03-06T13:16:47Z</time>
      </trkpt>
      <trkpt lat="43.73719" lon="3.46079">
        <ele>602.4</ele>
        <time>2016-03-06T13:16:52Z</time>
      </trkpt>
      <trkpt lat="43.73721" lon="3.46061">
        <ele>601.92</ele>
        <time>2016-03-06T13:16:53Z</time>
      </trkpt>
      <trkpt lat="43.73727" lon="3.45983">
        <ele>598.08</ele>
        <time>2016-03-06T13:16:57Z</time>
      </trkpt>
      <trkpt lat="43.73727" lon="3.45963">
        <ele>597.12</ele>
        <time>2016-03-06T13:16:58Z</time>
      </trkpt>
      <trkpt lat="43.73724" lon="3.45943">
        <ele>596.15</ele>
        <time>2016-03-06T13:16:59Z</time>
      </trkpt>
      <trkpt lat="43.73716" lon="3.45813">
        <ele>590.87</ele>
        <time>2016-03-06T13:17:05Z</time>
      </trkpt>
      <trkpt lat="43.73711" lon="3.45795">
        <ele>589.91</ele>
        <time>2016-03-06T13:17:06Z</time>
      </trkpt>
      <trkpt lat="43.73704" lon="3.45776">
        <ele>588.46</ele>
        <time>2016-03-06T13:17:07Z</time>
      </trkpt>
      <trkpt lat="43.73671" lon="3.45684">
        <ele>582.7</ele>
        <time>2016-03-06T13:17:12Z</time>
      </trkpt>
      <trkpt lat="43.73666" lon="3.45663">
        <ele>581.73</ele>
        <time>2016-03-06T13:17:13Z</time>
      </trkpt>
      <trkpt lat="43.73663" lon="3.45641">
        <ele>580.77</ele>
        <time>2016-03-06T13:17:14Z</time>
      </trkpt>
      <trkpt lat="43.73661" lon="3.45619">
        <ele>579.33</ele>
        <time>2016-03-06T13:17:15Z</time>
      </trkpt>
      <trkpt lat="43.7366" lon="3.45598">
        <ele>578.37</ele>
        <time>2016-03-06T13:17:16Z</time>
      </trkpt>
      <trkpt lat="43.7366" lon="3.45578">
        <ele>577.41</ele>
        <time>2016-03-06T13:17:17Z</time>
      </trkpt>
      <trkpt lat="43.73658" lon="3.45558">
        <ele>576.45</ele>
        <time>2016-03-06T13:17:18Z</time>
      </trkpt>
      <trkpt lat="43.73654" lon="3.45538">
        <ele>575.49</ele>
        <time>2016-03-06T13:17:19Z</time>
      </trkpt>
      <trkpt lat="43.73646" lon="3.4552">
        <ele>574.04</ele>
        <time>2016-03-06T13:17:20Z</time>
      </trkpt>
      <trkpt lat="43.73633" lon="3.45503">
        <ele>573.08</ele>
        <time>2016-03-06T13:17:21Z</time>
      </trkpt>
      <trkpt lat="43.73619" lon="3.45488">
        <ele>572.12</ele>
        <time>2016-03-06T13:17:22Z</time>
      </trkpt>
      <trkpt lat="43.73605" lon="3.45472">
        <ele>570.68</ele>
        <time>2016-03-06T13:17:23Z</time>
      </trkpt>
      <trkpt lat="43.73525" lon="3.45354">
        <ele>562.99</ele>
        <time>2016-03-06T13:17:30Z</time>
      </trkpt>
      <trkpt lat="43.73521" lon="3.45331">
        <ele>561.07</ele>
        <time>2016-03-06T13:17:32Z</time>
      </trkpt>
      <trkpt lat="43.73525" lon="3.45321">
        <ele>560.59</ele>
        <time>2016-03-06T13:17:33Z</time>
      </trkpt>
      <trkpt lat="43.73532" lon="3.45311">
        <ele>559.14</ele>
        <time>2016-03-06T13:17:34Z</time>
      </trkpt>
      <trkpt lat="43.73541" lon="3.45302">
        <ele>558.66</ele>
        <time>2016-03-06T13:17:35Z</time>
      </trkpt>
      <trkpt lat="43.73553" lon="3.45296">
        <ele>558.18</ele>
        <time>2016-03-06T13:17:36Z</time>
      </trkpt>
      <trkpt lat="43.73566" lon="3.4529">
        <ele>557.7</ele>
        <time>2016-03-06T13:17:37Z</time>
      </trkpt>
      <trkpt lat="43.73579" lon="3.45285">
        <ele>556.74</ele>
        <time>2016-03-06T13:17:38Z</time>
      </trkpt>
      <trkpt lat="43.73593" lon="3.45283">
        <ele>556.26</ele>
        <time>2016-03-06T13:17:39Z</time>
      </trkpt>
      <trkpt lat="43.73607" lon="3.45282">
        <ele>555.78</ele>
        <time>2016-03-06T13:17:40Z</time>
      </trkpt>
      <trkpt lat="43.73645" lon="3.45274">
        <ele>553.86</ele>
        <time>2016-03-06T13:17:43Z</time>
      </trkpt>
      <trkpt lat="43.73655" lon="3.45269">
        <ele>553.86</ele>
        <time>2016-03-06T13:17:44Z</time>
      </trkpt>
      <trkpt lat="43.73661" lon="3.45261">
        <ele>553.38</ele>
        <time>2016-03-06T13:17:45Z</time>
      </trkpt>
      <trkpt lat="43.73663" lon="3.45252">
        <ele>552.9</ele>
        <time>2016-03-06T13:17:46Z</time>
      </trkpt>
      <trkpt lat="43.73663" lon="3.45242">
        <ele>551.93</ele>
        <time>2016-03-06T13:17:47Z</time>
      </trkpt>
      <trkpt lat="43.7366" lon="3.45233">
        <ele>550.97</ele>
        <time>2016-03-06T13:17:48Z</time>
      </trkpt>
      <trkpt lat="43.73648" lon="3.45232">
        <ele>550.01</ele>
        <time>2016-03-06T13:17:49Z</time>
      </trkpt>
      <trkpt lat="43.73636" lon="3.45232">
        <ele>549.05</ele>
        <time>2016-03-06T13:17:50Z</time>
      </trkpt>
      <trkpt lat="43.73622" lon="3.45233">
        <ele>548.09</ele>
        <time>2016-03-06T13:17:51Z</time>
      </trkpt>
      <trkpt lat="43.73531" lon="3.45258">
        <ele>543.28</ele>
        <time>2016-03-06T13:17:57Z</time>
      </trkpt>
      <trkpt lat="43.73517" lon="3.45267">
        <ele>542.32</ele>
        <time>2016-03-06T13:17:58Z</time>
      </trkpt>
      <trkpt lat="43.73504" lon="3.45277">
        <ele>541.84</ele>
        <time>2016-03-06T13:17:59Z</time>
      </trkpt>
      <trkpt lat="43.73492" lon="3.45288">
        <ele>540.88</ele>
        <time>2016-03-06T13:18:00Z</time>
      </trkpt>
      <trkpt lat="43.73481" lon="3.45301">
        <ele>540.4</ele>
        <time>2016-03-06T13:18:01Z</time>
      </trkpt>
      <trkpt lat="43.73473" lon="3.45317">
        <ele>538.96</ele>
        <time>2016-03-06T13:18:02Z</time>
      </trkpt>
      <trkpt lat="43.73466" lon="3.45334">
        <ele>537.99</ele>
        <time>2016-03-06T13:18:03Z</time>
      </trkpt>
      <trkpt lat="43.73462" lon="3.45351">
        <ele>537.03</ele>
        <time>2016-03-06T13:18:04Z</time>
      </trkpt>
      <trkpt lat="43.73461" lon="3.45367">
        <ele>536.07</ele>
        <time>2016-03-06T13:18:05Z</time>
      </trkpt>
      <trkpt lat="43.73462" lon="3.45383">
        <ele>534.63</ele>
        <time>2016-03-06T13:18:06Z</time>
      </trkpt>
      <trkpt lat="43.73467" lon="3.45399">
        <ele>533.67</ele>
        <time>2016-03-06T13:18:07Z</time>
      </trkpt>
      <trkpt lat="43.73475" lon="3.45416">
        <ele>532.71</ele>
        <time>2016-03-06T13:18:08Z</time>
      </trkpt>
      <trkpt lat="43.73484" lon="3.45435">
        <ele>531.75</ele>
        <time>2016-03-06T13:18:09Z</time>
      </trkpt>
      <trkpt lat="43.73525" lon="3.4553">
        <ele>526.46</ele>
        <time>2016-03-06T13:18:14Z</time>
      </trkpt>
      <trkpt lat="43.73529" lon="3.4555">
        <ele>525.5</ele>
        <time>2016-03-06T13:18:15Z</time>
      </trkpt>
      <trkpt lat="43.7353" lon="3.45569">
        <ele>524.54</ele>
        <time>2016-03-06T13:18:16Z</time>
      </trkpt>
      <trkpt lat="43.73527" lon="3.45585">
        <ele>524.06</ele>
        <time>2016-03-06T13:18:17Z</time>
      </trkpt>
      <trkpt lat="43.73521" lon="3.45599">
        <ele>522.61</ele>
        <time>2016-03-06T13:18:18Z</time>
      </trkpt>
      <trkpt lat="43.73514" lon="3.45616">
        <ele>521.65</ele>
        <time>2016-03-06T13:18:19Z</time>
      </trkpt>
      <trkpt lat="43.73508" lon="3.45633">
        <ele>521.17</ele>
        <time>2016-03-06T13:18:20Z</time>
      </trkpt>
      <trkpt lat="43.73503" lon="3.45651">
        <ele>520.21</ele>
        <time>2016-03-06T13:18:21Z</time>
      </trkpt>
      <trkpt lat="43.73499" lon="3.45668">
        <ele>519.25</ele>
        <time>2016-03-06T13:18:22Z</time>
      </trkpt>
      <trkpt lat="43.73497" lon="3.45686">
        <ele>518.29</ele>
        <time>2016-03-06T13:18:23Z</time>
      </trkpt>
      <trkpt lat="43.73496" lon="3.45704">
        <ele>517.33</ele>
        <time>2016-03-06T13:18:24Z</time>
      </trkpt>
      <trkpt lat="43.73496" lon="3.45721">
        <ele>516.85</ele>
        <time>2016-03-06T13:18:25Z</time>
      </trkpt>
      <trkpt lat="43.73498" lon="3.45738">
        <ele>515.88</ele>
        <time>2016-03-06T13:18:26Z</time>
      </trkpt>
      <trkpt lat="43.73501" lon="3.45755">
        <ele>514.92</ele>
        <time>2016-03-06T13:18:27Z</time>
      </trkpt>
      <trkpt lat="43.73506" lon="3.4577">
        <ele>514.44</ele>
        <time>2016-03-06T13:18:28Z</time>
      </trkpt>
      <trkpt lat="43.73513" lon="3.45785">
        <ele>513.96</ele>
        <time>2016-03-06T13:18:29Z</time>
      </trkpt>
      <trkpt lat="43.73522" lon="3.45799">
        <ele>513</ele>
        <time>2016-03-06T13:18:30Z</time>
      </trkpt>
      <trkpt lat="43.73531" lon="3.45814">
        <ele>512.52</ele>
        <time>2016-03-06T13:18:31Z</time>
      </trkpt>
      <trkpt lat="43.73539" lon="3.4583">
        <ele>511.56</ele>
        <time>2016-03-06T13:18:32Z</time>
      </trkpt>
      <trkpt lat="43.73545" lon="3.45847">
        <ele>510.6</ele>
        <time>2016-03-06T13:18:33Z</time>
      </trkpt>
      <trkpt lat="43.73549" lon="3.45867">
        <ele>509.64</ele>
        <time>2016-03-06T13:18:34Z</time>
      </trkpt>
      <trkpt lat="43.73552" lon="3.45887">
        <ele>508.67</ele>
        <time>2016-03-06T13:18:35Z</time>
      </trkpt>
      <trkpt lat="43.73553" lon="3.45907">
        <ele>507.71</ele>
        <time>2016-03-06T13:18:36Z</time>
      </trkpt>
      <trkpt lat="43.73553" lon="3.45949">
        <ele>505.79</ele>
        <time>2016-03-06T13:18:38Z</time>
      </trkpt>
      <trkpt lat="43.73551" lon="3.45969">
        <ele>504.83</ele>
        <time>2016-03-06T13:18:39Z</time>
      </trkpt>
      <trkpt lat="43.73548" lon="3.45987">
        <ele>503.87</ele>
        <time>2016-03-06T13:18:40Z</time>
      </trkpt>
      <trkpt lat="43.73542" lon="3.46001">
        <ele>502.43</ele>
        <time>2016-03-06T13:18:41Z</time>
      </trkpt>
      <trkpt lat="43.73532" lon="3.46011">
        <ele>501.46</ele>
        <time>2016-03-06T13:18:42Z</time>
      </trkpt>
      <trkpt lat="43.7352" lon="3.46019">
        <ele>500.02</ele>
        <time>2016-03-06T13:18:43Z</time>
      </trkpt>
      <trkpt lat="43.73505" lon="3.46026">
        <ele>499.06</ele>
        <time>2016-03-06T13:18:44Z</time>
      </trkpt>
      <trkpt lat="43.73487" lon="3.46033">
        <ele>498.1</ele>
        <time>2016-03-06T13:18:45Z</time>
      </trkpt>
      <trkpt lat="43.73468" lon="3.46039">
        <ele>497.14</ele>
        <time>2016-03-06T13:18:46Z</time>
      </trkpt>
      <trkpt lat="43.73355" lon="3.46071">
        <ele>490.41</ele>
        <time>2016-03-06T13:18:53Z</time>
      </trkpt>
      <trkpt lat="43.73268" lon="3.46084">
        <ele>484.64</ele>
        <time>2016-03-06T13:19:01Z</time>
      </trkpt>
      <trkpt lat="43.73256" lon="3.46082">
        <ele>483.68</ele>
        <time>2016-03-06T13:19:02Z</time>
      </trkpt>
      <trkpt lat="43.73242" lon="3.46076">
        <ele>482.72</ele>
        <time>2016-03-06T13:19:03Z</time>
      </trkpt>
      <trkpt lat="43.73226" lon="3.46067">
        <ele>481.76</ele>
        <time>2016-03-06T13:19:04Z</time>
      </trkpt>
      <trkpt lat="43.73208" lon="3.46057">
        <ele>479.84</ele>
        <time>2016-03-06T13:19:05Z</time>
      </trkpt>
      <trkpt lat="43.73052" lon="3.45988">
        <ele>469.26</ele>
        <time>2016-03-06T13:19:13Z</time>
      </trkpt>
      <trkpt lat="43.73016" lon="3.4598">
        <ele>466.86</ele>
        <time>2016-03-06T13:19:15Z</time>
      </trkpt>
      <trkpt lat="43.73" lon="3.45982">
        <ele>465.42</ele>
        <time>2016-03-06T13:19:16Z</time>
      </trkpt>
      <trkpt lat="43.72987" lon="3.45987">
        <ele>463.97</ele>
        <time>2016-03-06T13:19:17Z</time>
      </trkpt>
      <trkpt lat="43.72976" lon="3.45996">
        <ele>463.01</ele>
        <time>2016-03-06T13:19:18Z</time>
      </trkpt>
      <trkpt lat="43.72967" lon="3.46009">
        <ele>461.57</ele>
        <time>2016-03-06T13:19:19Z</time>
      </trkpt>
      <trkpt lat="43.72962" lon="3.46025">
        <ele>461.09</ele>
        <time>2016-03-06T13:19:20Z</time>
      </trkpt>
      <trkpt lat="43.72962" lon="3.46043">
        <ele>459.65</ele>
        <time>2016-03-06T13:19:21Z</time>
      </trkpt>
      <trkpt lat="43.72964" lon="3.46062">
        <ele>458.69</ele>
        <time>2016-03-06T13:19:22Z</time>
      </trkpt>
      <trkpt lat="43.72968" lon="3.46081">
        <ele>457.72</ele>
        <time>2016-03-06T13:19:23Z</time>
      </trkpt>
      <trkpt lat="43.72971" lon="3.46098">
        <ele>457.24</ele>
        <time>2016-03-06T13:19:24Z</time>
      </trkpt>
      <trkpt lat="43.72984" lon="3.46163">
        <ele>453.88</ele>
        <time>2016-03-06T13:19:29Z</time>
      </trkpt>
      <trkpt lat="43.72991" lon="3.46178">
        <ele>452.92</ele>
        <time>2016-03-06T13:19:30Z</time>
      </trkpt>
      <trkpt lat="43.73" lon="3.46194">
        <ele>451.96</ele>
        <time>2016-03-06T13:19:31Z</time>
      </trkpt>
      <trkpt lat="43.73066" lon="3.46312">
        <ele>443.31</ele>
        <time>2016-03-06T13:19:37Z</time>
      </trkpt>
      <trkpt lat="43.73073" lon="3.46334">
        <ele>441.86</ele>
        <time>2016-03-06T13:19:38Z</time>
      </trkpt>
      <trkpt lat="43.73078" lon="3.46359">
        <ele>440.42</ele>
        <time>2016-03-06T13:19:39Z</time>
      </trkpt>
      <trkpt lat="43.73093" lon="3.46458">
        <ele>434.65</ele>
        <time>2016-03-06T13:19:43Z</time>
      </trkpt>
      <trkpt lat="43.73093" lon="3.46479">
        <ele>433.21</ele>
        <time>2016-03-06T13:19:44Z</time>
      </trkpt>
      <trkpt lat="43.73089" lon="3.465">
        <ele>431.77</ele>
        <time>2016-03-06T13:19:45Z</time>
      </trkpt>
      <trkpt lat="43.73082" lon="3.46524">
        <ele>430.81</ele>
        <time>2016-03-06T13:19:46Z</time>
      </trkpt>
      <trkpt lat="43.73075" lon="3.46547">
        <ele>429.37</ele>
        <time>2016-03-06T13:19:47Z</time>
      </trkpt>
      <trkpt lat="43.73067" lon="3.4657">
        <ele>427.92</ele>
        <time>2016-03-06T13:19:48Z</time>
      </trkpt>
      <trkpt lat="43.73057" lon="3.4659">
        <ele>426.48</ele>
        <time>2016-03-06T13:19:49Z</time>
      </trkpt>
      <trkpt lat="43.73046" lon="3.46608">
        <ele>425.52</ele>
        <time>2016-03-06T13:19:50Z</time>
      </trkpt>
      <trkpt lat="43.73031" lon="3.46619">
        <ele>424.08</ele>
        <time>2016-03-06T13:19:51Z</time>
      </trkpt>
      <trkpt lat="43.73015" lon="3.46627">
        <ele>422.16</ele>
        <time>2016-03-06T13:19:52Z</time>
      </trkpt>
      <trkpt lat="43.72999" lon="3.4663">
        <ele>420.71</ele>
        <time>2016-03-06T13:19:53Z</time>
      </trkpt>
      <trkpt lat="43.72985" lon="3.46634">
        <ele>419.75</ele>
        <time>2016-03-06T13:19:54Z</time>
      </trkpt>
      <trkpt lat="43.72973" lon="3.4664">
        <ele>418.79</ele>
        <time>2016-03-06T13:19:55Z</time>
      </trkpt>
      <trkpt lat="43.72963" lon="3.46651">
        <ele>417.83</ele>
        <time>2016-03-06T13:19:56Z</time>
      </trkpt>
      <trkpt lat="43.72956" lon="3.46668">
        <ele>416.87</ele>
        <time>2016-03-06T13:19:57Z</time>
      </trkpt>
      <trkpt lat="43.72952" lon="3.46687">
        <ele>416.39</ele>
        <time>2016-03-06T13:19:58Z</time>
      </trkpt>
      <trkpt lat="43.72952" lon="3.46706">
        <ele>415.43</ele>
        <time>2016-03-06T13:19:59Z</time>
      </trkpt>
      <trkpt lat="43.72954" lon="3.46726">
        <ele>413.5</ele>
        <time>2016-03-06T13:20:00Z</time>
      </trkpt>
      <trkpt lat="43.72955" lon="3.46744">
        <ele>412.54</ele>
        <time>2016-03-06T13:20:01Z</time>
      </trkpt>
      <trkpt lat="43.72953" lon="3.46758">
        <ele>411.58</ele>
        <time>2016-03-06T13:20:02Z</time>
      </trkpt>
      <trkpt lat="43.72948" lon="3.46767">
        <ele>410.14</ele>
        <time>2016-03-06T13:20:03Z</time>
      </trkpt>
      <trkpt lat="43.72939" lon="3.46771">
        <ele>408.7</ele>
        <time>2016-03-06T13:20:04Z</time>
      </trkpt>
      <trkpt lat="43.72926" lon="3.46773">
        <ele>407.26</ele>
        <time>2016-03-06T13:20:05Z</time>
      </trkpt>
      <trkpt lat="43.7291" lon="3.46773">
        <ele>406.77</ele>
        <time>2016-03-06T13:20:06Z</time>
      </trkpt>
      <trkpt lat="43.72892" lon="3.46771">
        <ele>405.81</ele>
        <time>2016-03-06T13:20:07Z</time>
      </trkpt>
      <trkpt lat="43.72872" lon="3.46769">
        <ele>404.85</ele>
        <time>2016-03-06T13:20:08Z</time>
      </trkpt>
      <trkpt lat="43.72794" lon="3.46756">
        <ele>401.49</ele>
        <time>2016-03-06T13:20:12Z</time>
      </trkpt>
      <trkpt lat="43.72775" lon="3.46743">
        <ele>400.05</ele>
        <time>2016-03-06T13:20:13Z</time>
      </trkpt>
      <trkpt lat="43.72756" lon="3.46727">
        <ele>399.57</ele>
        <time>2016-03-06T13:20:14Z</time>
      </trkpt>
      <trkpt lat="43.7269" lon="3.46671">
        <ele>401.01</ele>
        <time>2016-03-06T13:20:18Z</time>
      </trkpt>
      <trkpt lat="43.72677" lon="3.46664">
        <ele>401.01</ele>
        <time>2016-03-06T13:20:19Z</time>
      </trkpt>
      <trkpt lat="43.72662" lon="3.46659">
        <ele>401.01</ele>
        <time>2016-03-06T13:20:20Z</time>
      </trkpt>
      <trkpt lat="43.72647" lon="3.46658">
        <ele>401.01</ele>
        <time>2016-03-06T13:20:21Z</time>
      </trkpt>
      <trkpt lat="43.7263" lon="3.46661">
        <ele>400.53</ele>
        <time>2016-03-06T13:20:22Z</time>
      </trkpt>
      <trkpt lat="43.72612" lon="3.46665">
        <ele>400.05</ele>
        <time>2016-03-06T13:20:23Z</time>
      </trkpt>
      <trkpt lat="43.72524" lon="3.46676">
        <ele>398.12</ele>
        <time>2016-03-06T13:20:28Z</time>
      </trkpt>
      <trkpt lat="43.72507" lon="3.46681">
        <ele>398.12</ele>
        <time>2016-03-06T13:20:29Z</time>
      </trkpt>
      <trkpt lat="43.72491" lon="3.4669">
        <ele>397.64</ele>
        <time>2016-03-06T13:20:30Z</time>
      </trkpt>
      <trkpt lat="43.72475" lon="3.467">
        <ele>398.12</ele>
        <time>2016-03-06T13:20:31Z</time>
      </trkpt>
      <trkpt lat="43.72461" lon="3.46711">
        <ele>397.64</ele>
        <time>2016-03-06T13:20:32Z</time>
      </trkpt>
      <trkpt lat="43.72448" lon="3.46723">
        <ele>397.16</ele>
        <time>2016-03-06T13:20:33Z</time>
      </trkpt>
      <trkpt lat="43.72437" lon="3.46737">
        <ele>396.68</ele>
        <time>2016-03-06T13:20:34Z</time>
      </trkpt>
      <trkpt lat="43.72428" lon="3.4676">
        <ele>395.72</ele>
        <time>2016-03-06T13:20:35Z</time>
      </trkpt>
      <trkpt lat="43.72418" lon="3.46781">
        <ele>395.24</ele>
        <time>2016-03-06T13:20:36Z</time>
      </trkpt>
      <trkpt lat="43.72409" lon="3.46801">
        <ele>394.28</ele>
        <time>2016-03-06T13:20:37Z</time>
      </trkpt>
      <trkpt lat="43.72396" lon="3.46837">
        <ele>392.84</ele>
        <time>2016-03-06T13:20:39Z</time>
      </trkpt>
      <trkpt lat="43.72394" lon="3.46853">
        <ele>392.36</ele>
        <time>2016-03-06T13:20:40Z</time>
      </trkpt>
      <trkpt lat="43.72391" lon="3.46869">
        <ele>391.87</ele>
        <time>2016-03-06T13:20:41Z</time>
      </trkpt>
      <trkpt lat="43.72386" lon="3.46882">
        <ele>390.91</ele>
        <time>2016-03-06T13:20:42Z</time>
      </trkpt>
      <trkpt lat="43.72379" lon="3.4689">
        <ele>390.43</ele>
        <time>2016-03-06T13:20:43Z</time>
      </trkpt>
      <trkpt lat="43.72367" lon="3.46895">
        <ele>389.47</ele>
        <time>2016-03-06T13:20:44Z</time>
      </trkpt>
      <trkpt lat="43.72354" lon="3.46899">
        <ele>388.99</ele>
        <time>2016-03-06T13:20:45Z</time>
      </trkpt>
      <trkpt lat="43.72337" lon="3.46902">
        <ele>388.51</ele>
        <time>2016-03-06T13:20:46Z</time>
      </trkpt>
      <trkpt lat="43.72319" lon="3.46907">
        <ele>387.55</ele>
        <time>2016-03-06T13:20:47Z</time>
      </trkpt>
      <trkpt lat="43.72304" lon="3.46916">
        <ele>386.59</ele>
        <time>2016-03-06T13:20:48Z</time>
      </trkpt>
      <trkpt lat="43.72289" lon="3.46924">
        <ele>385.63</ele>
        <time>2016-03-06T13:20:49Z</time>
      </trkpt>
      <trkpt lat="43.72273" lon="3.46928">
        <ele>384.66</ele>
        <time>2016-03-06T13:20:50Z</time>
      </trkpt>
      <trkpt lat="43.72257" lon="3.4693">
        <ele>383.7</ele>
        <time>2016-03-06T13:20:51Z</time>
      </trkpt>
      <trkpt lat="43.72242" lon="3.46928">
        <ele>383.22</ele>
        <time>2016-03-06T13:20:52Z</time>
      </trkpt>
      <trkpt lat="43.72229" lon="3.46926">
        <ele>381.78</ele>
        <time>2016-03-06T13:20:53Z</time>
      </trkpt>
      <trkpt lat="43.72218" lon="3.46927">
        <ele>380.82</ele>
        <time>2016-03-06T13:20:54Z</time>
      </trkpt>
      <trkpt lat="43.72209" lon="3.46934">
        <ele>380.34</ele>
        <time>2016-03-06T13:20:55Z</time>
      </trkpt>
      <trkpt lat="43.722" lon="3.46942">
        <ele>379.38</ele>
        <time>2016-03-06T13:20:56Z</time>
      </trkpt>
      <trkpt lat="43.72188" lon="3.46945">
        <ele>378.42</ele>
        <time>2016-03-06T13:20:57Z</time>
      </trkpt>
      <trkpt lat="43.72175" lon="3.46944">
        <ele>376.97</ele>
        <time>2016-03-06T13:20:58Z</time>
      </trkpt>
      <trkpt lat="43.72161" lon="3.46939">
        <ele>375.53</ele>
        <time>2016-03-06T13:20:59Z</time>
      </trkpt>
      <trkpt lat="43.72147" lon="3.46931">
        <ele>374.09</ele>
        <time>2016-03-06T13:21:00Z</time>
      </trkpt>
      <trkpt lat="43.72133" lon="3.46927">
        <ele>373.13</ele>
        <time>2016-03-06T13:21:01Z</time>
      </trkpt>
      <trkpt lat="43.7212" lon="3.46926">
        <ele>372.17</ele>
        <time>2016-03-06T13:21:02Z</time>
      </trkpt>
      <trkpt lat="43.72108" lon="3.46931">
        <ele>370.24</ele>
        <time>2016-03-06T13:21:03Z</time>
      </trkpt>
      <trkpt lat="43.72101" lon="3.46948">
        <ele>365.92</ele>
        <time>2016-03-06T13:21:04Z</time>
      </trkpt>
      <trkpt lat="43.72094" lon="3.46963">
        <ele>365.92</ele>
        <time>2016-03-06T13:21:05Z</time>
      </trkpt>
      <trkpt lat="43.72089" lon="3.46978">
        <ele>364.96</ele>
        <time>2016-03-06T13:21:06Z</time>
      </trkpt>
      <trkpt lat="43.72084" lon="3.46993">
        <ele>363.52</ele>
        <time>2016-03-06T13:21:07Z</time>
      </trkpt>
      <trkpt lat="43.72075" lon="3.47005">
        <ele>362.07</ele>
        <time>2016-03-06T13:21:08Z</time>
      </trkpt>
      <trkpt lat="43.72062" lon="3.47009">
        <ele>361.59</ele>
        <time>2016-03-06T13:21:09Z</time>
      </trkpt>
      <trkpt lat="43.72048" lon="3.47011">
        <ele>361.11</ele>
        <time>2016-03-06T13:21:10Z</time>
      </trkpt>
      <trkpt lat="43.72034" lon="3.47014">
        <ele>359.67</ele>
        <time>2016-03-06T13:21:11Z</time>
      </trkpt>
      <trkpt lat="43.7202" lon="3.4702">
        <ele>358.23</ele>
        <time>2016-03-06T13:21:12Z</time>
      </trkpt>
      <trkpt lat="43.7201" lon="3.47034">
        <ele>356.79</ele>
        <time>2016-03-06T13:21:13Z</time>
      </trkpt>
      <trkpt lat="43.72" lon="3.47053">
        <ele>355.34</ele>
        <time>2016-03-06T13:21:14Z</time>
      </trkpt>
      <trkpt lat="43.7199" lon="3.47072">
        <ele>353.9</ele>
        <time>2016-03-06T13:21:15Z</time>
      </trkpt>
      <trkpt lat="43.71978" lon="3.47089">
        <ele>352.94</ele>
        <time>2016-03-06T13:21:16Z</time>
      </trkpt>
      <trkpt lat="43.71965" lon="3.47104">
        <ele>351.5</ele>
        <time>2016-03-06T13:21:17Z</time>
      </trkpt>
      <trkpt lat="43.71953" lon="3.47118">
        <ele>350.06</ele>
        <time>2016-03-06T13:21:18Z</time>
      </trkpt>
      <trkpt lat="43.71944" lon="3.47136">
        <ele>349.1</ele>
        <time>2016-03-06T13:21:19Z</time>
      </trkpt>
      <trkpt lat="43.71936" lon="3.47157">
        <ele>347.65</ele>
        <time>2016-03-06T13:21:20Z</time>
      </trkpt>
      <trkpt lat="43.7193" lon="3.47179">
        <ele>346.21</ele>
        <time>2016-03-06T13:21:21Z</time>
      </trkpt>
      <trkpt lat="43.7192" lon="3.47201">
        <ele>344.77</ele>
        <time>2016-03-06T13:21:22Z</time>
      </trkpt>
      <trkpt lat="43.71909" lon="3.47223">
        <ele>343.33</ele>
        <time>2016-03-06T13:21:23Z</time>
      </trkpt>
      <trkpt lat="43.71895" lon="3.47242">
        <ele>341.89</ele>
        <time>2016-03-06T13:21:24Z</time>
      </trkpt>
      <trkpt lat="43.71817" lon="3.47377">
        <ele>333.71</ele>
        <time>2016-03-06T13:21:29Z</time>
      </trkpt>
      <trkpt lat="43.7174" lon="3.47518">
        <ele>324.1</ele>
        <time>2016-03-06T13:21:34Z</time>
      </trkpt>
      <trkpt lat="43.71659" lon="3.47613">
        <ele>314.97</ele>
        <time>2016-03-06T13:21:39Z</time>
      </trkpt>
      <trkpt lat="43.71642" lon="3.47625">
        <ele>313.53</ele>
        <time>2016-03-06T13:21:40Z</time>
      </trkpt>
      <trkpt lat="43.71595" lon="3.47653">
        <ele>308.72</ele>
        <time>2016-03-06T13:21:43Z</time>
      </trkpt>
      <trkpt lat="43.71579" lon="3.47654">
        <ele>307.28</ele>
        <time>2016-03-06T13:21:44Z</time>
      </trkpt>
      <trkpt lat="43.71563" lon="3.47652">
        <ele>305.84</ele>
        <time>2016-03-06T13:21:45Z</time>
      </trkpt>
      <trkpt lat="43.71549" lon="3.47645">
        <ele>303.91</ele>
        <time>2016-03-06T13:21:46Z</time>
      </trkpt>
      <trkpt lat="43.71535" lon="3.47639">
        <ele>302.47</ele>
        <time>2016-03-06T13:21:47Z</time>
      </trkpt>
      <trkpt lat="43.71521" lon="3.47633">
        <ele>302.47</ele>
        <time>2016-03-06T13:21:48Z</time>
      </trkpt>
      <trkpt lat="43.71508" lon="3.4763">
        <ele>301.51</ele>
        <time>2016-03-06T13:21:49Z</time>
      </trkpt>
      <trkpt lat="43.71496" lon="3.47632">
        <ele>301.03</ele>
        <time>2016-03-06T13:21:50Z</time>
      </trkpt>
      <trkpt lat="43.71485" lon="3.4764">
        <ele>300.55</ele>
        <time>2016-03-06T13:21:51Z</time>
      </trkpt>
      <trkpt lat="43.71475" lon="3.47651">
        <ele>300.55</ele>
        <time>2016-03-06T13:21:52Z</time>
      </trkpt>
      <trkpt lat="43.71462" lon="3.47663">
        <ele>299.59</ele>
        <time>2016-03-06T13:21:53Z</time>
      </trkpt>
      <trkpt lat="43.71446" lon="3.47672">
        <ele>298.63</ele>
        <time>2016-03-06T13:21:54Z</time>
      </trkpt>
      <trkpt lat="43.71429" lon="3.47677">
        <ele>297.67</ele>
        <time>2016-03-06T13:21:55Z</time>
      </trkpt>
      <trkpt lat="43.71411" lon="3.47681">
        <ele>296.22</ele>
        <time>2016-03-06T13:21:56Z</time>
      </trkpt>
      <trkpt lat="43.71296" lon="3.47716">
        <ele>288.53</ele>
        <time>2016-03-06T13:22:03Z</time>
      </trkpt>
      <trkpt lat="43.71285" lon="3.47726">
        <ele>287.57</ele>
        <time>2016-03-06T13:22:04Z</time>
      </trkpt>
      <trkpt lat="43.71275" lon="3.47739">
        <ele>286.61</ele>
        <time>2016-03-06T13:22:05Z</time>
      </trkpt>
      <trkpt lat="43.71265" lon="3.47755">
        <ele>285.65</ele>
        <time>2016-03-06T13:22:06Z</time>
      </trkpt>
      <trkpt lat="43.71255" lon="3.47773">
        <ele>285.17</ele>
        <time>2016-03-06T13:22:07Z</time>
      </trkpt>
      <trkpt lat="43.71245" lon="3.47792">
        <ele>284.21</ele>
        <time>2016-03-06T13:22:08Z</time>
      </trkpt>
      <trkpt lat="43.71237" lon="3.47812">
        <ele>283.73</ele>
        <time>2016-03-06T13:22:09Z</time>
      </trkpt>
      <trkpt lat="43.71229" lon="3.47831">
        <ele>282.77</ele>
        <time>2016-03-06T13:22:10Z</time>
      </trkpt>
      <trkpt lat="43.71221" lon="3.47847">
        <ele>281.8</ele>
        <time>2016-03-06T13:22:11Z</time>
      </trkpt>
      <trkpt lat="43.71209" lon="3.47858">
        <ele>280.84</ele>
        <time>2016-03-06T13:22:12Z</time>
      </trkpt>
      <trkpt lat="43.71195" lon="3.47865">
        <ele>279.4</ele>
        <time>2016-03-06T13:22:13Z</time>
      </trkpt>
      <trkpt lat="43.71181" lon="3.47872">
        <ele>278.44</ele>
        <time>2016-03-06T13:22:14Z</time>
      </trkpt>
      <trkpt lat="43.71168" lon="3.4788">
        <ele>277.96</ele>
        <time>2016-03-06T13:22:15Z</time>
      </trkpt>
      <trkpt lat="43.71159" lon="3.4789">
        <ele>276.52</ele>
        <time>2016-03-06T13:22:16Z</time>
      </trkpt>
      <trkpt lat="43.71151" lon="3.47903">
        <ele>276.04</ele>
        <time>2016-03-06T13:22:17Z</time>
      </trkpt>
      <trkpt lat="43.71149" lon="3.4792">
        <ele>275.07</ele>
        <time>2016-03-06T13:22:18Z</time>
      </trkpt>
      <trkpt lat="43.71151" lon="3.47943">
        <ele>274.11</ele>
        <time>2016-03-06T13:22:19Z</time>
      </trkpt>
      <trkpt lat="43.71151" lon="3.47968">
        <ele>273.15</ele>
        <time>2016-03-06T13:22:20Z</time>
      </trkpt>
      <trkpt lat="43.7115" lon="3.47996">
        <ele>271.71</ele>
        <time>2016-03-06T13:22:21Z</time>
      </trkpt>
      <trkpt lat="43.71147" lon="3.48025">
        <ele>270.27</ele>
        <time>2016-03-06T13:22:22Z</time>
      </trkpt>
      <trkpt lat="43.71119" lon="3.48225">
        <ele>258.73</ele>
        <time>2016-03-06T13:22:30Z</time>
      </trkpt>
      <trkpt lat="43.71107" lon="3.48304">
        <ele>253.93</ele>
        <time>2016-03-06T13:22:36Z</time>
      </trkpt>
      <trkpt lat="43.71099" lon="3.48355">
        <ele>250.08</ele>
        <time>2016-03-06T13:22:43Z</time>
      </trkpt>
      <trkpt lat="43.71092" lon="3.48419">
        <ele>246.23</ele>
        <time>2016-03-06T13:22:51Z</time>
      </trkpt>
      <trkpt lat="43.71092" lon="3.48427">
        <ele>245.75</ele>
        <time>2016-03-06T13:22:52Z</time>
      </trkpt>
      <trkpt lat="43.71093" lon="3.48507">
        <ele>242.39</ele>
        <time>2016-03-06T13:23:03Z</time>
      </trkpt>
      <trkpt lat="43.71079" lon="3.48597">
        <ele>240.95</ele>
        <time>2016-03-06T13:23:15Z</time>
      </trkpt>
      <trkpt lat="43.71066" lon="3.48653">
        <ele>238.54</ele>
        <time>2016-03-06T13:23:23Z</time>
      </trkpt>
      <trkpt lat="43.71058" lon="3.48696">
        <ele>237.1</ele>
        <time>2016-03-06T13:23:31Z</time>
      </trkpt>
      <trkpt lat="43.71056" lon="3.48697">
        <ele>238.06</ele>
        <time>2016-03-06T13:23:51Z</time>
      </trkpt>
      <trkpt lat="43.71057" lon="3.48701">
        <ele>237.58</ele>
        <time>2016-03-06T13:23:52Z</time>
      </trkpt>
      <trkpt lat="43.71056" lon="3.4871">
        <ele>237.58</ele>
        <time>2016-03-06T13:23:53Z</time>
      </trkpt>
      <trkpt lat="43.71055" lon="3.48722">
        <ele>237.1</ele>
        <time>2016-03-06T13:23:54Z</time>
      </trkpt>
      <trkpt lat="43.71054" lon="3.48734">
        <ele>236.62</ele>
        <time>2016-03-06T13:23:55Z</time>
      </trkpt>
      <trkpt lat="43.71053" lon="3.48785">
        <ele>234.22</ele>
        <time>2016-03-06T13:23:59Z</time>
      </trkpt>
      <trkpt lat="43.71056" lon="3.48797">
        <ele>233.26</ele>
        <time>2016-03-06T13:24:00Z</time>
      </trkpt>
      <trkpt lat="43.71061" lon="3.48808">
        <ele>232.3</ele>
        <time>2016-03-06T13:24:01Z</time>
      </trkpt>
      <trkpt lat="43.71067" lon="3.48816">
        <ele>231.81</ele>
        <time>2016-03-06T13:24:02Z</time>
      </trkpt>
      <trkpt lat="43.71076" lon="3.48818">
        <ele>231.33</ele>
        <time>2016-03-06T13:24:03Z</time>
      </trkpt>
      <trkpt lat="43.71087" lon="3.48816">
        <ele>230.37</ele>
        <time>2016-03-06T13:24:04Z</time>
      </trkpt>
      <trkpt lat="43.71097" lon="3.48811">
        <ele>229.89</ele>
        <time>2016-03-06T13:24:05Z</time>
      </trkpt>
      <trkpt lat="43.71104" lon="3.48802">
        <ele>229.41</ele>
        <time>2016-03-06T13:24:06Z</time>
      </trkpt>
      <trkpt lat="43.71109" lon="3.48793">
        <ele>229.41</ele>
        <time>2016-03-06T13:24:07Z</time>
      </trkpt>
      <trkpt lat="43.71114" lon="3.48784">
        <ele>228.93</ele>
        <time>2016-03-06T13:24:08Z</time>
      </trkpt>
      <trkpt lat="43.71119" lon="3.48779">
        <ele>228.45</ele>
        <time>2016-03-06T13:24:09Z</time>
      </trkpt>
      <trkpt lat="43.71127" lon="3.48777">
        <ele>228.45</ele>
        <time>2016-03-06T13:24:10Z</time>
      </trkpt>
      <trkpt lat="43.71134" lon="3.48781">
        <ele>227.49</ele>
        <time>2016-03-06T13:24:11Z</time>
      </trkpt>
      <trkpt lat="43.7114" lon="3.48791">
        <ele>227.01</ele>
        <time>2016-03-06T13:24:12Z</time>
      </trkpt>
      <trkpt lat="43.71143" lon="3.48802">
        <ele>226.53</ele>
        <time>2016-03-06T13:24:13Z</time>
      </trkpt>
      <trkpt lat="43.71142" lon="3.48815">
        <ele>226.05</ele>
        <time>2016-03-06T13:24:14Z</time>
      </trkpt>
      <trkpt lat="43.7114" lon="3.4883">
        <ele>225.57</ele>
        <time>2016-03-06T13:24:15Z</time>
      </trkpt>
      <trkpt lat="43.71135" lon="3.48844">
        <ele>224.61</ele>
        <time>2016-03-06T13:24:16Z</time>
      </trkpt>
      <trkpt lat="43.71129" lon="3.48857">
        <ele>224.12</ele>
        <time>2016-03-06T13:24:17Z</time>
      </trkpt>
      <trkpt lat="43.71123" lon="3.48867">
        <ele>223.16</ele>
        <time>2016-03-06T13:24:18Z</time>
      </trkpt>
      <trkpt lat="43.71117" lon="3.48875">
        <ele>222.68</ele>
        <time>2016-03-06T13:24:19Z</time>
      </trkpt>
      <trkpt lat="43.71109" lon="3.48882">
        <ele>221.72</ele>
        <time>2016-03-06T13:24:20Z</time>
      </trkpt>
      <trkpt lat="43.71101" lon="3.48888">
        <ele>221.24</ele>
        <time>2016-03-06T13:24:21Z</time>
      </trkpt>
      <trkpt lat="43.71092" lon="3.48893">
        <ele>220.28</ele>
        <time>2016-03-06T13:24:22Z</time>
      </trkpt>
      <trkpt lat="43.71083" lon="3.48898">
        <ele>219.8</ele>
        <time>2016-03-06T13:24:23Z</time>
      </trkpt>
      <trkpt lat="43.71043" lon="3.48928">
        <ele>216.91</ele>
        <time>2016-03-06T13:24:28Z</time>
      </trkpt>
      <trkpt lat="43.7104" lon="3.48938">
        <ele>216.43</ele>
        <time>2016-03-06T13:24:29Z</time>
      </trkpt>
      <trkpt lat="43.71042" lon="3.48947">
        <ele>215.47</ele>
        <time>2016-03-06T13:24:30Z</time>
      </trkpt>
      <trkpt lat="43.71043" lon="3.48957">
        <ele>214.99</ele>
        <time>2016-03-06T13:24:31Z</time>
      </trkpt>
      <trkpt lat="43.71047" lon="3.48967">
        <ele>214.51</ele>
        <time>2016-03-06T13:24:32Z</time>
      </trkpt>
      <trkpt lat="43.71054" lon="3.48975">
        <ele>214.51</ele>
        <time>2016-03-06T13:24:33Z</time>
      </trkpt>
      <trkpt lat="43.7106" lon="3.48983">
        <ele>214.03</ele>
        <time>2016-03-06T13:24:34Z</time>
      </trkpt>
      <trkpt lat="43.71065" lon="3.48992">
        <ele>214.03</ele>
        <time>2016-03-06T13:24:35Z</time>
      </trkpt>
      <trkpt lat="43.71069" lon="3.49001">
        <ele>213.55</ele>
        <time>2016-03-06T13:24:36Z</time>
      </trkpt>
      <trkpt lat="43.71071" lon="3.49011">
        <ele>213.07</ele>
        <time>2016-03-06T13:24:37Z</time>
      </trkpt>
      <trkpt lat="43.71069" lon="3.4902">
        <ele>212.59</ele>
        <time>2016-03-06T13:24:38Z</time>
      </trkpt>
      <trkpt lat="43.71064" lon="3.49028">
        <ele>212.11</ele>
        <time>2016-03-06T13:24:39Z</time>
      </trkpt>
      <trkpt lat="43.71057" lon="3.49035">
        <ele>211.63</ele>
        <time>2016-03-06T13:24:40Z</time>
      </trkpt>
      <trkpt lat="43.71049" lon="3.49042">
        <ele>211.15</ele>
        <time>2016-03-06T13:24:41Z</time>
      </trkpt>
      <trkpt lat="43.71041" lon="3.49052">
        <ele>211.15</ele>
        <time>2016-03-06T13:24:42Z</time>
      </trkpt>
      <trkpt lat="43.7103" lon="3.49062">
        <ele>210.67</ele>
        <time>2016-03-06T13:24:43Z</time>
      </trkpt>
      <trkpt lat="43.71018" lon="3.49071">
        <ele>210.67</ele>
        <time>2016-03-06T13:24:44Z</time>
      </trkpt>
      <trkpt lat="43.71004" lon="3.49078">
        <ele>210.67</ele>
        <time>2016-03-06T13:24:45Z</time>
      </trkpt>
      <trkpt lat="43.70892" lon="3.4913">
        <ele>206.82</ele>
        <time>2016-03-06T13:24:52Z</time>
      </trkpt>
      <trkpt lat="43.70881" lon="3.49137">
        <ele>206.34</ele>
        <time>2016-03-06T13:24:53Z</time>
      </trkpt>
      <trkpt lat="43.70872" lon="3.49145">
        <ele>206.34</ele>
        <time>2016-03-06T13:24:54Z</time>
      </trkpt>
      <trkpt lat="43.70847" lon="3.49173">
        <ele>207.3</ele>
        <time>2016-03-06T13:24:57Z</time>
      </trkpt>
      <trkpt lat="43.70824" lon="3.49209">
        <ele>210.19</ele>
        <time>2016-03-06T13:25:00Z</time>
      </trkpt>
      <trkpt lat="43.70818" lon="3.49222">
        <ele>211.63</ele>
        <time>2016-03-06T13:25:01Z</time>
      </trkpt>
      <trkpt lat="43.70813" lon="3.49238">
        <ele>213.07</ele>
        <time>2016-03-06T13:25:02Z</time>
      </trkpt>
      <trkpt lat="43.70798" lon="3.49289">
        <ele>216.43</ele>
        <time>2016-03-06T13:25:05Z</time>
      </trkpt>
      <trkpt lat="43.70795" lon="3.49307">
        <ele>217.88</ele>
        <time>2016-03-06T13:25:06Z</time>
      </trkpt>
      <trkpt lat="43.70775" lon="3.49404">
        <ele>224.12</ele>
        <time>2016-03-06T13:25:11Z</time>
      </trkpt>
      <trkpt lat="43.70765" lon="3.49437">
        <ele>226.53</ele>
        <time>2016-03-06T13:25:13Z</time>
      </trkpt>
      <trkpt lat="43.70762" lon="3.49453">
        <ele>227.49</ele>
        <time>2016-03-06T13:25:14Z</time>
      </trkpt>
      <trkpt lat="43.70763" lon="3.49471">
        <ele>228.93</ele>
        <time>2016-03-06T13:25:15Z</time>
      </trkpt>
      <trkpt lat="43.70765" lon="3.49492">
        <ele>229.89</ele>
        <time>2016-03-06T13:25:16Z</time>
      </trkpt>
      <trkpt lat="43.70769" lon="3.49514">
        <ele>231.33</ele>
        <time>2016-03-06T13:25:17Z</time>
      </trkpt>
      <trkpt lat="43.70781" lon="3.49669">
        <ele>240.95</ele>
        <time>2016-03-06T13:25:24Z</time>
      </trkpt>
      <trkpt lat="43.70784" lon="3.49685">
        <ele>242.39</ele>
        <time>2016-03-06T13:25:25Z</time>
      </trkpt>
      <trkpt lat="43.70792" lon="3.49699">
        <ele>243.83</ele>
        <time>2016-03-06T13:25:26Z</time>
      </trkpt>
      <trkpt lat="43.708" lon="3.49712">
        <ele>244.79</ele>
        <time>2016-03-06T13:25:27Z</time>
      </trkpt>
      <trkpt lat="43.7081" lon="3.49724">
        <ele>245.75</ele>
        <time>2016-03-06T13:25:28Z</time>
      </trkpt>
      <trkpt lat="43.70819" lon="3.49734">
        <ele>246.72</ele>
        <time>2016-03-06T13:25:29Z</time>
      </trkpt>
      <trkpt lat="43.70826" lon="3.49741">
        <ele>247.68</ele>
        <time>2016-03-06T13:25:30Z</time>
      </trkpt>
      <trkpt lat="43.70834" lon="3.49742">
        <ele>248.64</ele>
        <time>2016-03-06T13:25:31Z</time>
      </trkpt>
      <trkpt lat="43.70841" lon="3.49739">
        <ele>249.6</ele>
        <time>2016-03-06T13:25:32Z</time>
      </trkpt>
      <trkpt lat="43.70849" lon="3.49731">
        <ele>250.08</ele>
        <time>2016-03-06T13:25:33Z</time>
      </trkpt>
      <trkpt lat="43.70853" lon="3.49719">
        <ele>251.04</ele>
        <time>2016-03-06T13:25:34Z</time>
      </trkpt>
      <trkpt lat="43.70855" lon="3.49707">
        <ele>252</ele>
        <time>2016-03-06T13:25:35Z</time>
      </trkpt>
      <trkpt lat="43.70855" lon="3.49695">
        <ele>252.48</ele>
        <time>2016-03-06T13:25:36Z</time>
      </trkpt>
      <trkpt lat="43.70856" lon="3.49682">
        <ele>253.44</ele>
        <time>2016-03-06T13:25:37Z</time>
      </trkpt>
      <trkpt lat="43.70859" lon="3.4967">
        <ele>254.41</ele>
        <time>2016-03-06T13:25:38Z</time>
      </trkpt>
      <trkpt lat="43.70865" lon="3.49659">
        <ele>255.37</ele>
        <time>2016-03-06T13:25:39Z</time>
      </trkpt>
      <trkpt lat="43.7087" lon="3.49646">
        <ele>256.33</ele>
        <time>2016-03-06T13:25:40Z</time>
      </trkpt>
      <trkpt lat="43.70923" lon="3.49527">
        <ele>265.94</ele>
        <time>2016-03-06T13:25:47Z</time>
      </trkpt>
      <trkpt lat="43.70958" lon="3.4945">
        <ele>272.67</ele>
        <time>2016-03-06T13:25:52Z</time>
      </trkpt>
      <trkpt lat="43.70967" lon="3.4944">
        <ele>273.63</ele>
        <time>2016-03-06T13:25:53Z</time>
      </trkpt>
      <trkpt lat="43.70977" lon="3.49431">
        <ele>274.59</ele>
        <time>2016-03-06T13:25:54Z</time>
      </trkpt>
      <trkpt lat="43.7107" lon="3.49376">
        <ele>282.77</ele>
        <time>2016-03-06T13:26:01Z</time>
      </trkpt>
      <trkpt lat="43.71097" lon="3.49367">
        <ele>284.69</ele>
        <time>2016-03-06T13:26:03Z</time>
      </trkpt>
      <trkpt lat="43.71111" lon="3.49365">
        <ele>285.65</ele>
        <time>2016-03-06T13:26:04Z</time>
      </trkpt>
      <trkpt lat="43.71124" lon="3.49365">
        <ele>286.61</ele>
        <time>2016-03-06T13:26:05Z</time>
      </trkpt>
      <trkpt lat="43.71138" lon="3.49366">
        <ele>287.09</ele>
        <time>2016-03-06T13:26:06Z</time>
      </trkpt>
      <trkpt lat="43.71152" lon="3.49369">
        <ele>287.57</ele>
        <time>2016-03-06T13:26:07Z</time>
      </trkpt>
      <trkpt lat="43.71351" lon="3.49409">
        <ele>296.7</ele>
        <time>2016-03-06T13:26:20Z</time>
      </trkpt>
      <trkpt lat="43.71473" lon="3.49413">
        <ele>299.11</ele>
        <time>2016-03-06T13:26:28Z</time>
      </trkpt>
      <trkpt lat="43.71621" lon="3.49383">
        <ele>297.18</ele>
        <time>2016-03-06T13:26:37Z</time>
      </trkpt>
      <trkpt lat="43.71792" lon="3.49385">
        <ele>305.84</ele>
        <time>2016-03-06T13:26:47Z</time>
      </trkpt>
      <trkpt lat="43.71806" lon="3.49381">
        <ele>306.8</ele>
        <time>2016-03-06T13:26:48Z</time>
      </trkpt>
      <trkpt lat="43.71821" lon="3.49375">
        <ele>307.28</ele>
        <time>2016-03-06T13:26:49Z</time>
      </trkpt>
      <trkpt lat="43.71835" lon="3.49367">
        <ele>307.76</ele>
        <time>2016-03-06T13:26:50Z</time>
      </trkpt>
      <trkpt lat="43.72001" lon="3.4926">
        <ele>313.53</ele>
        <time>2016-03-06T13:27:00Z</time>
      </trkpt>
      <trkpt lat="43.72208" lon="3.49129">
        <ele>330.35</ele>
        <time>2016-03-06T13:27:12Z</time>
      </trkpt>
      <trkpt lat="43.72364" lon="3.49032">
        <ele>346.21</ele>
        <time>2016-03-06T13:27:22Z</time>
      </trkpt>
      <trkpt lat="43.72377" lon="3.49029">
        <ele>347.65</ele>
        <time>2016-03-06T13:27:23Z</time>
      </trkpt>
      <trkpt lat="43.72391" lon="3.49028">
        <ele>349.1</ele>
        <time>2016-03-06T13:27:24Z</time>
      </trkpt>
      <trkpt lat="43.72406" lon="3.4903">
        <ele>350.54</ele>
        <time>2016-03-06T13:27:25Z</time>
      </trkpt>
      <trkpt lat="43.72421" lon="3.49032">
        <ele>351.5</ele>
        <time>2016-03-06T13:27:26Z</time>
      </trkpt>
      <trkpt lat="43.72484" lon="3.49046">
        <ele>356.31</ele>
        <time>2016-03-06T13:27:31Z</time>
      </trkpt>
      <trkpt lat="43.72492" lon="3.49045">
        <ele>357.27</ele>
        <time>2016-03-06T13:27:32Z</time>
      </trkpt>
      <trkpt lat="43.72498" lon="3.49037">
        <ele>357.75</ele>
        <time>2016-03-06T13:27:33Z</time>
      </trkpt>
      <trkpt lat="43.72504" lon="3.49028">
        <ele>357.75</ele>
        <time>2016-03-06T13:27:34Z</time>
      </trkpt>
      <trkpt lat="43.72509" lon="3.49018">
        <ele>358.23</ele>
        <time>2016-03-06T13:27:35Z</time>
      </trkpt>
      <trkpt lat="43.72516" lon="3.4901">
        <ele>358.71</ele>
        <time>2016-03-06T13:27:36Z</time>
      </trkpt>
      <trkpt lat="43.72524" lon="3.49007">
        <ele>359.19</ele>
        <time>2016-03-06T13:27:37Z</time>
      </trkpt>
      <trkpt lat="43.72534" lon="3.49006">
        <ele>359.67</ele>
        <time>2016-03-06T13:27:38Z</time>
      </trkpt>
      <trkpt lat="43.72544" lon="3.49003">
        <ele>359.67</ele>
        <time>2016-03-06T13:27:39Z</time>
      </trkpt>
      <trkpt lat="43.72555" lon="3.48997">
        <ele>359.67</ele>
        <time>2016-03-06T13:27:40Z</time>
      </trkpt>
      <trkpt lat="43.72565" lon="3.48989">
        <ele>360.15</ele>
        <time>2016-03-06T13:27:41Z</time>
      </trkpt>
      <trkpt lat="43.72575" lon="3.48982">
        <ele>360.15</ele>
        <time>2016-03-06T13:27:42Z</time>
      </trkpt>
      <trkpt lat="43.72585" lon="3.48978">
        <ele>360.15</ele>
        <time>2016-03-06T13:27:43Z</time>
      </trkpt>
      <trkpt lat="43.72596" lon="3.48975">
        <ele>359.67</ele>
        <time>2016-03-06T13:27:44Z</time>
      </trkpt>
      <trkpt lat="43.72606" lon="3.48973">
        <ele>359.67</ele>
        <time>2016-03-06T13:27:45Z</time>
      </trkpt>
      <trkpt lat="43.72616" lon="3.48973">
        <ele>359.67</ele>
        <time>2016-03-06T13:27:46Z</time>
      </trkpt>
      <trkpt lat="43.72626" lon="3.48977">
        <ele>359.67</ele>
        <time>2016-03-06T13:27:47Z</time>
      </trkpt>
      <trkpt lat="43.72636" lon="3.48983">
        <ele>359.67</ele>
        <time>2016-03-06T13:27:48Z</time>
      </trkpt>
      <trkpt lat="43.72646" lon="3.48993">
        <ele>359.67</ele>
        <time>2016-03-06T13:27:49Z</time>
      </trkpt>
      <trkpt lat="43.72657" lon="3.49003">
        <ele>360.63</ele>
        <time>2016-03-06T13:27:50Z</time>
      </trkpt>
      <trkpt lat="43.72667" lon="3.49012">
        <ele>361.11</ele>
        <time>2016-03-06T13:27:51Z</time>
      </trkpt>
      <trkpt lat="43.72678" lon="3.49019">
        <ele>361.59</ele>
        <time>2016-03-06T13:27:52Z</time>
      </trkpt>
      <trkpt lat="43.72698" lon="3.49032">
        <ele>362.55</ele>
        <time>2016-03-06T13:27:54Z</time>
      </trkpt>
      <trkpt lat="43.72709" lon="3.49035">
        <ele>362.55</ele>
        <time>2016-03-06T13:27:55Z</time>
      </trkpt>
      <trkpt lat="43.72719" lon="3.49034">
        <ele>363.04</ele>
        <time>2016-03-06T13:27:56Z</time>
      </trkpt>
      <trkpt lat="43.72737" lon="3.49033">
        <ele>364</ele>
        <time>2016-03-06T13:27:58Z</time>
      </trkpt>
      <trkpt lat="43.72745" lon="3.49037">
        <ele>364.48</ele>
        <time>2016-03-06T13:27:59Z</time>
      </trkpt>
      <trkpt lat="43.72753" lon="3.49046">
        <ele>364.96</ele>
        <time>2016-03-06T13:28:00Z</time>
      </trkpt>
      <trkpt lat="43.7276" lon="3.49058">
        <ele>365.44</ele>
        <time>2016-03-06T13:28:01Z</time>
      </trkpt>
      <trkpt lat="43.72767" lon="3.49069">
        <ele>365.44</ele>
        <time>2016-03-06T13:28:02Z</time>
      </trkpt>
      <trkpt lat="43.72774" lon="3.49078">
        <ele>365.44</ele>
        <time>2016-03-06T13:28:03Z</time>
      </trkpt>
      <trkpt lat="43.72782" lon="3.49082">
        <ele>364.96</ele>
        <time>2016-03-06T13:28:04Z</time>
      </trkpt>
      <trkpt lat="43.72792" lon="3.49083">
        <ele>365.44</ele>
        <time>2016-03-06T13:28:05Z</time>
      </trkpt>
      <trkpt lat="43.7283" lon="3.49086">
        <ele>364.96</ele>
        <time>2016-03-06T13:28:09Z</time>
      </trkpt>
      <trkpt lat="43.72839" lon="3.49094">
        <ele>364.48</ele>
        <time>2016-03-06T13:28:10Z</time>
      </trkpt>
      <trkpt lat="43.72849" lon="3.49104">
        <ele>364</ele>
        <time>2016-03-06T13:28:11Z</time>
      </trkpt>
      <trkpt lat="43.7286" lon="3.49115">
        <ele>363.52</ele>
        <time>2016-03-06T13:28:12Z</time>
      </trkpt>
      <trkpt lat="43.72873" lon="3.49123">
        <ele>363.04</ele>
        <time>2016-03-06T13:28:13Z</time>
      </trkpt>
      <trkpt lat="43.72887" lon="3.4913">
        <ele>363.04</ele>
        <time>2016-03-06T13:28:14Z</time>
      </trkpt>
      <trkpt lat="43.729" lon="3.49135">
        <ele>363.04</ele>
        <time>2016-03-06T13:28:15Z</time>
      </trkpt>
      <trkpt lat="43.72916" lon="3.49144">
        <ele>363.52</ele>
        <time>2016-03-06T13:28:17Z</time>
      </trkpt>
      <trkpt lat="43.7292" lon="3.49152">
        <ele>364</ele>
        <time>2016-03-06T13:28:18Z</time>
      </trkpt>
      <trkpt lat="43.72924" lon="3.49162">
        <ele>364</ele>
        <time>2016-03-06T13:28:19Z</time>
      </trkpt>
      <trkpt lat="43.72929" lon="3.49171">
        <ele>364.48</ele>
        <time>2016-03-06T13:28:20Z</time>
      </trkpt>
      <trkpt lat="43.72936" lon="3.49179">
        <ele>364.48</ele>
        <time>2016-03-06T13:28:21Z</time>
      </trkpt>
      <trkpt lat="43.72946" lon="3.49184">
        <ele>364.96</ele>
        <time>2016-03-06T13:28:22Z</time>
      </trkpt>
      <trkpt lat="43.72956" lon="3.49188">
        <ele>365.44</ele>
        <time>2016-03-06T13:28:23Z</time>
      </trkpt>
      <trkpt lat="43.72966" lon="3.49192">
        <ele>365.92</ele>
        <time>2016-03-06T13:28:24Z</time>
      </trkpt>
      <trkpt lat="43.72974" lon="3.49193">
        <ele>366.4</ele>
        <time>2016-03-06T13:28:25Z</time>
      </trkpt>
      <trkpt lat="43.7298" lon="3.49188">
        <ele>365.92</ele>
        <time>2016-03-06T13:28:26Z</time>
      </trkpt>
      <trkpt lat="43.72983" lon="3.49179">
        <ele>365.92</ele>
        <time>2016-03-06T13:28:27Z</time>
      </trkpt>
      <trkpt lat="43.72985" lon="3.49167">
        <ele>365.92</ele>
        <time>2016-03-06T13:28:28Z</time>
      </trkpt>
      <trkpt lat="43.72987" lon="3.49154">
        <ele>366.4</ele>
        <time>2016-03-06T13:28:29Z</time>
      </trkpt>
      <trkpt lat="43.7299" lon="3.4914">
        <ele>366.4</ele>
        <time>2016-03-06T13:28:30Z</time>
      </trkpt>
      <trkpt lat="43.72995" lon="3.49127">
        <ele>366.88</ele>
        <time>2016-03-06T13:28:31Z</time>
      </trkpt>
      <trkpt lat="43.73001" lon="3.49115">
        <ele>366.88</ele>
        <time>2016-03-06T13:28:32Z</time>
      </trkpt>
      <trkpt lat="43.73008" lon="3.49104">
        <ele>366.88</ele>
        <time>2016-03-06T13:28:33Z</time>
      </trkpt>
      <trkpt lat="43.73016" lon="3.49094">
        <ele>366.88</ele>
        <time>2016-03-06T13:28:34Z</time>
      </trkpt>
      <trkpt lat="43.73025" lon="3.49087">
        <ele>367.36</ele>
        <time>2016-03-06T13:28:35Z</time>
      </trkpt>
      <trkpt lat="43.73035" lon="3.49081">
        <ele>367.36</ele>
        <time>2016-03-06T13:28:36Z</time>
      </trkpt>
      <trkpt lat="43.73046" lon="3.49075">
        <ele>367.84</ele>
        <time>2016-03-06T13:28:37Z</time>
      </trkpt>
      <trkpt lat="43.73098" lon="3.49055">
        <ele>369.76</ele>
        <time>2016-03-06T13:28:42Z</time>
      </trkpt>
      <trkpt lat="43.73108" lon="3.49055">
        <ele>370.24</ele>
        <time>2016-03-06T13:28:43Z</time>
      </trkpt>
      <trkpt lat="43.73117" lon="3.49056">
        <ele>370.73</ele>
        <time>2016-03-06T13:28:44Z</time>
      </trkpt>
      <trkpt lat="43.73126" lon="3.49059">
        <ele>371.21</ele>
        <time>2016-03-06T13:28:45Z</time>
      </trkpt>
      <trkpt lat="43.73134" lon="3.49063">
        <ele>371.69</ele>
        <time>2016-03-06T13:28:46Z</time>
      </trkpt>
      <trkpt lat="43.73143" lon="3.4907">
        <ele>371.21</ele>
        <time>2016-03-06T13:28:47Z</time>
      </trkpt>
      <trkpt lat="43.73152" lon="3.49078">
        <ele>369.76</ele>
        <time>2016-03-06T13:28:48Z</time>
      </trkpt>
      <trkpt lat="43.73161" lon="3.49086">
        <ele>368.8</ele>
        <time>2016-03-06T13:28:49Z</time>
      </trkpt>
      <trkpt lat="43.73178" lon="3.49105">
        <ele>367.36</ele>
        <time>2016-03-06T13:28:51Z</time>
      </trkpt>
      <trkpt lat="43.73185" lon="3.49116">
        <ele>366.88</ele>
        <time>2016-03-06T13:28:52Z</time>
      </trkpt>
      <trkpt lat="43.7319" lon="3.49128">
        <ele>365.92</ele>
        <time>2016-03-06T13:28:53Z</time>
      </trkpt>
      <trkpt lat="43.73201" lon="3.49153">
        <ele>364.48</ele>
        <time>2016-03-06T13:28:55Z</time>
      </trkpt>
      <trkpt lat="43.73207" lon="3.49164">
        <ele>364</ele>
        <time>2016-03-06T13:28:56Z</time>
      </trkpt>
      <trkpt lat="43.73213" lon="3.49174">
        <ele>363.52</ele>
        <time>2016-03-06T13:28:57Z</time>
      </trkpt>
      <trkpt lat="43.73217" lon="3.49184">
        <ele>362.55</ele>
        <time>2016-03-06T13:28:58Z</time>
      </trkpt>
      <trkpt lat="43.73219" lon="3.49196">
        <ele>362.55</ele>
        <time>2016-03-06T13:28:59Z</time>
      </trkpt>
      <trkpt lat="43.73221" lon="3.49207">
        <ele>362.07</ele>
        <time>2016-03-06T13:29:00Z</time>
      </trkpt>
      <trkpt lat="43.73223" lon="3.49217">
        <ele>361.59</ele>
        <time>2016-03-06T13:29:01Z</time>
      </trkpt>
      <trkpt lat="43.73228" lon="3.49224">
        <ele>361.11</ele>
        <time>2016-03-06T13:29:02Z</time>
      </trkpt>
      <trkpt lat="43.73235" lon="3.49229">
        <ele>361.11</ele>
        <time>2016-03-06T13:29:03Z</time>
      </trkpt>
      <trkpt lat="43.73243" lon="3.49235">
        <ele>361.11</ele>
        <time>2016-03-06T13:29:04Z</time>
      </trkpt>
      <trkpt lat="43.73258" lon="3.49246">
        <ele>361.11</ele>
        <time>2016-03-06T13:29:06Z</time>
      </trkpt>
      <trkpt lat="43.73266" lon="3.49249">
        <ele>360.63</ele>
        <time>2016-03-06T13:29:07Z</time>
      </trkpt>
      <trkpt lat="43.73274" lon="3.49249">
        <ele>360.63</ele>
        <time>2016-03-06T13:29:08Z</time>
      </trkpt>
      <trkpt lat="43.73282" lon="3.49245">
        <ele>360.63</ele>
        <time>2016-03-06T13:29:09Z</time>
      </trkpt>
      <trkpt lat="43.73287" lon="3.49235">
        <ele>360.15</ele>
        <time>2016-03-06T13:29:10Z</time>
      </trkpt>
      <trkpt lat="43.73291" lon="3.49225">
        <ele>359.67</ele>
        <time>2016-03-06T13:29:11Z</time>
      </trkpt>
      <trkpt lat="43.73292" lon="3.49211">
        <ele>360.15</ele>
        <time>2016-03-06T13:29:12Z</time>
      </trkpt>
      <trkpt lat="43.73293" lon="3.49196">
        <ele>360.63</ele>
        <time>2016-03-06T13:29:13Z</time>
      </trkpt>
      <trkpt lat="43.73293" lon="3.4918">
        <ele>361.11</ele>
        <time>2016-03-06T13:29:14Z</time>
      </trkpt>
      <trkpt lat="43.73291" lon="3.49164">
        <ele>361.59</ele>
        <time>2016-03-06T13:29:15Z</time>
      </trkpt>
      <trkpt lat="43.73287" lon="3.49149">
        <ele>362.07</ele>
        <time>2016-03-06T13:29:16Z</time>
      </trkpt>
      <trkpt lat="43.73282" lon="3.49134">
        <ele>362.55</ele>
        <time>2016-03-06T13:29:17Z</time>
      </trkpt>
      <trkpt lat="43.73277" lon="3.4912">
        <ele>363.52</ele>
        <time>2016-03-06T13:29:18Z</time>
      </trkpt>
      <trkpt lat="43.7327" lon="3.4909">
        <ele>364.48</ele>
        <time>2016-03-06T13:29:20Z</time>
      </trkpt>
      <trkpt lat="43.73259" lon="3.49006">
        <ele>368.8</ele>
        <time>2016-03-06T13:29:27Z</time>
      </trkpt>
      <trkpt lat="43.73259" lon="3.48988">
        <ele>371.21</ele>
        <time>2016-03-06T13:29:33Z</time>
      </trkpt>
      <trkpt lat="43.73262" lon="3.48987">
        <ele>372.17</ele>
        <time>2016-03-06T13:29:34Z</time>
      </trkpt>
      <trkpt lat="43.73266" lon="3.48988">
        <ele>372.65</ele>
        <time>2016-03-06T13:29:35Z</time>
      </trkpt>
      <trkpt lat="43.73271" lon="3.48997">
        <ele>373.13</ele>
        <time>2016-03-06T13:29:36Z</time>
      </trkpt>
      <trkpt lat="43.73276" lon="3.49005">
        <ele>374.09</ele>
        <time>2016-03-06T13:29:37Z</time>
      </trkpt>
      <trkpt lat="43.73324" lon="3.49071">
        <ele>381.3</ele>
        <time>2016-03-06T13:29:44Z</time>
      </trkpt>
      <trkpt lat="43.73329" lon="3.49077">
        <ele>382.26</ele>
        <time>2016-03-06T13:29:45Z</time>
      </trkpt>
      <trkpt lat="43.73334" lon="3.49082">
        <ele>382.74</ele>
        <time>2016-03-06T13:29:46Z</time>
      </trkpt>
      <trkpt lat="43.73339" lon="3.49085">
        <ele>383.7</ele>
        <time>2016-03-06T13:29:47Z</time>
      </trkpt>
      <trkpt lat="43.73344" lon="3.49089">
        <ele>384.66</ele>
        <time>2016-03-06T13:29:48Z</time>
      </trkpt>
      <trkpt lat="43.73351" lon="3.49093">
        <ele>385.15</ele>
        <time>2016-03-06T13:29:49Z</time>
      </trkpt>
      <trkpt lat="43.73428" lon="3.49144">
        <ele>393.8</ele>
        <time>2016-03-06T13:30:00Z</time>
      </trkpt>
      <trkpt lat="43.73441" lon="3.49158">
        <ele>395.72</ele>
        <time>2016-03-06T13:30:03Z</time>
      </trkpt>
      <trkpt lat="43.73464" lon="3.49188">
        <ele>398.6</ele>
        <time>2016-03-06T13:30:12Z</time>
      </trkpt>
      <trkpt lat="43.73467" lon="3.49195">
        <ele>399.08</ele>
        <time>2016-03-06T13:30:13Z</time>
      </trkpt>
      <trkpt lat="43.73471" lon="3.49204">
        <ele>399.57</ele>
        <time>2016-03-06T13:30:14Z</time>
      </trkpt>
      <trkpt lat="43.73527" lon="3.49283">
        <ele>405.81</ele>
        <time>2016-03-06T13:30:21Z</time>
      </trkpt>
      <trkpt lat="43.73564" lon="3.4933">
        <ele>410.62</ele>
        <time>2016-03-06T13:30:25Z</time>
      </trkpt>
      <trkpt lat="43.73573" lon="3.49337">
        <ele>411.58</ele>
        <time>2016-03-06T13:30:26Z</time>
      </trkpt>
      <trkpt lat="43.73582" lon="3.49344">
        <ele>412.54</ele>
        <time>2016-03-06T13:30:27Z</time>
      </trkpt>
      <trkpt lat="43.73589" lon="3.49354">
        <ele>413.5</ele>
        <time>2016-03-06T13:30:28Z</time>
      </trkpt>
      <trkpt lat="43.73596" lon="3.49367">
        <ele>414.47</ele>
        <time>2016-03-06T13:30:29Z</time>
      </trkpt>
      <trkpt lat="43.73602" lon="3.4938">
        <ele>415.43</ele>
        <time>2016-03-06T13:30:30Z</time>
      </trkpt>
      <trkpt lat="43.73608" lon="3.49394">
        <ele>416.87</ele>
        <time>2016-03-06T13:30:31Z</time>
      </trkpt>
      <trkpt lat="43.73615" lon="3.49405">
        <ele>417.35</ele>
        <time>2016-03-06T13:30:32Z</time>
      </trkpt>
      <trkpt lat="43.73629" lon="3.49427">
        <ele>419.27</ele>
        <time>2016-03-06T13:30:34Z</time>
      </trkpt>
      <trkpt lat="43.73633" lon="3.49439">
        <ele>420.23</ele>
        <time>2016-03-06T13:30:35Z</time>
      </trkpt>
      <trkpt lat="43.73635" lon="3.49452">
        <ele>421.19</ele>
        <time>2016-03-06T13:30:36Z</time>
      </trkpt>
      <trkpt lat="43.73637" lon="3.49466">
        <ele>421.68</ele>
        <time>2016-03-06T13:30:37Z</time>
      </trkpt>
      <trkpt lat="43.73641" lon="3.49479">
        <ele>422.64</ele>
        <time>2016-03-06T13:30:38Z</time>
      </trkpt>
      <trkpt lat="43.73646" lon="3.49492">
        <ele>423.6</ele>
        <time>2016-03-06T13:30:39Z</time>
      </trkpt>
      <trkpt lat="43.73655" lon="3.49503">
        <ele>425.04</ele>
        <time>2016-03-06T13:30:40Z</time>
      </trkpt>
      <trkpt lat="43.73665" lon="3.49515">
        <ele>426</ele>
        <time>2016-03-06T13:30:41Z</time>
      </trkpt>
      <trkpt lat="43.73676" lon="3.49528">
        <ele>427.44</ele>
        <time>2016-03-06T13:30:42Z</time>
      </trkpt>
      <trkpt lat="43.73784" lon="3.49673">
        <ele>438.5</ele>
        <time>2016-03-06T13:30:51Z</time>
      </trkpt>
      <trkpt lat="43.73831" lon="3.49742">
        <ele>442.82</ele>
        <time>2016-03-06T13:30:56Z</time>
      </trkpt>
      <trkpt lat="43.73837" lon="3.49757">
        <ele>443.79</ele>
        <time>2016-03-06T13:30:57Z</time>
      </trkpt>
      <trkpt lat="43.73843" lon="3.49772">
        <ele>444.75</ele>
        <time>2016-03-06T13:30:58Z</time>
      </trkpt>
      <trkpt lat="43.7385" lon="3.49784">
        <ele>445.71</ele>
        <time>2016-03-06T13:30:59Z</time>
      </trkpt>
      <trkpt lat="43.73857" lon="3.49795">
        <ele>446.67</ele>
        <time>2016-03-06T13:31:00Z</time>
      </trkpt>
      <trkpt lat="43.73865" lon="3.49804">
        <ele>447.15</ele>
        <time>2016-03-06T13:31:01Z</time>
      </trkpt>
      <trkpt lat="43.7387" lon="3.49813">
        <ele>447.63</ele>
        <time>2016-03-06T13:31:02Z</time>
      </trkpt>
      <trkpt lat="43.73871" lon="3.49824">
        <ele>448.11</ele>
        <time>2016-03-06T13:31:03Z</time>
      </trkpt>
      <trkpt lat="43.73869" lon="3.49836">
        <ele>448.59</ele>
        <time>2016-03-06T13:31:04Z</time>
      </trkpt>
      <trkpt lat="43.73866" lon="3.49849">
        <ele>449.55</ele>
        <time>2016-03-06T13:31:05Z</time>
      </trkpt>
      <trkpt lat="43.73862" lon="3.49863">
        <ele>450.52</ele>
        <time>2016-03-06T13:31:06Z</time>
      </trkpt>
      <trkpt lat="43.73859" lon="3.49877">
        <ele>451</ele>
        <time>2016-03-06T13:31:07Z</time>
      </trkpt>
      <trkpt lat="43.73858" lon="3.49888">
        <ele>451.48</ele>
        <time>2016-03-06T13:31:08Z</time>
      </trkpt>
      <trkpt lat="43.73858" lon="3.49896">
        <ele>452.44</ele>
        <time>2016-03-06T13:31:09Z</time>
      </trkpt>
      <trkpt lat="43.7386" lon="3.499">
        <ele>452.44</ele>
        <time>2016-03-06T13:31:10Z</time>
      </trkpt>
      <trkpt lat="43.73864" lon="3.49905">
        <ele>452.44</ele>
        <time>2016-03-06T13:31:11Z</time>
      </trkpt>
      <trkpt lat="43.73869" lon="3.49911">
        <ele>453.4</ele>
        <time>2016-03-06T13:31:12Z</time>
      </trkpt>
      <trkpt lat="43.73875" lon="3.4992">
        <ele>454.36</ele>
        <time>2016-03-06T13:31:13Z</time>
      </trkpt>
      <trkpt lat="43.73882" lon="3.49931">
        <ele>454.84</ele>
        <time>2016-03-06T13:31:14Z</time>
      </trkpt>
      <trkpt lat="43.73894" lon="3.49949">
        <ele>455.8</ele>
        <time>2016-03-06T13:31:16Z</time>
      </trkpt>
      <trkpt lat="43.739" lon="3.49951">
        <ele>456.28</ele>
        <time>2016-03-06T13:31:17Z</time>
      </trkpt>
      <trkpt lat="43.73907" lon="3.49949">
        <ele>456.28</ele>
        <time>2016-03-06T13:31:18Z</time>
      </trkpt>
      <trkpt lat="43.73915" lon="3.49946">
        <ele>456.28</ele>
        <time>2016-03-06T13:31:19Z</time>
      </trkpt>
      <trkpt lat="43.73923" lon="3.49945">
        <ele>456.28</ele>
        <time>2016-03-06T13:31:20Z</time>
      </trkpt>
      <trkpt lat="43.7393" lon="3.49948">
        <ele>456.76</ele>
        <time>2016-03-06T13:31:21Z</time>
      </trkpt>
      <trkpt lat="43.73937" lon="3.49956">
        <ele>456.76</ele>
        <time>2016-03-06T13:31:22Z</time>
      </trkpt>
      <trkpt lat="43.7394" lon="3.49969">
        <ele>456.76</ele>
        <time>2016-03-06T13:31:23Z</time>
      </trkpt>
      <trkpt lat="43.73942" lon="3.49983">
        <ele>455.8</ele>
        <time>2016-03-06T13:31:24Z</time>
      </trkpt>
      <trkpt lat="43.73945" lon="3.49998">
        <ele>455.8</ele>
        <time>2016-03-06T13:31:25Z</time>
      </trkpt>
      <trkpt lat="43.73949" lon="3.50011">
        <ele>455.8</ele>
        <time>2016-03-06T13:31:26Z</time>
      </trkpt>
      <trkpt lat="43.73954" lon="3.50018">
        <ele>455.8</ele>
        <time>2016-03-06T13:31:27Z</time>
      </trkpt>
      <trkpt lat="43.73962" lon="3.50021">
        <ele>455.8</ele>
        <time>2016-03-06T13:31:28Z</time>
      </trkpt>
      <trkpt lat="43.73971" lon="3.50022">
        <ele>455.32</ele>
        <time>2016-03-06T13:31:29Z</time>
      </trkpt>
      <trkpt lat="43.7398" lon="3.50023">
        <ele>455.8</ele>
        <time>2016-03-06T13:31:30Z</time>
      </trkpt>
      <trkpt lat="43.73988" lon="3.50025">
        <ele>455.8</ele>
        <time>2016-03-06T13:31:31Z</time>
      </trkpt>
      <trkpt lat="43.73994" lon="3.50031">
        <ele>456.28</ele>
        <time>2016-03-06T13:31:32Z</time>
      </trkpt>
      <trkpt lat="43.73995" lon="3.5004">
        <ele>456.28</ele>
        <time>2016-03-06T13:31:33Z</time>
      </trkpt>
      <trkpt lat="43.73994" lon="3.5005">
        <ele>456.76</ele>
        <time>2016-03-06T13:31:34Z</time>
      </trkpt>
      <trkpt lat="43.73991" lon="3.50062">
        <ele>456.76</ele>
        <time>2016-03-06T13:31:35Z</time>
      </trkpt>
      <trkpt lat="43.73986" lon="3.50074">
        <ele>456.76</ele>
        <time>2016-03-06T13:31:36Z</time>
      </trkpt>
      <trkpt lat="43.7398" lon="3.50084">
        <ele>456.76</ele>
        <time>2016-03-06T13:31:37Z</time>
      </trkpt>
      <trkpt lat="43.73974" lon="3.50094">
        <ele>456.76</ele>
        <time>2016-03-06T13:31:38Z</time>
      </trkpt>
      <trkpt lat="43.73971" lon="3.50104">
        <ele>456.76</ele>
        <time>2016-03-06T13:31:39Z</time>
      </trkpt>
      <trkpt lat="43.7397" lon="3.50115">
        <ele>456.76</ele>
        <time>2016-03-06T13:31:40Z</time>
      </trkpt>
      <trkpt lat="43.73972" lon="3.50127">
        <ele>456.76</ele>
        <time>2016-03-06T13:31:41Z</time>
      </trkpt>
      <trkpt lat="43.73975" lon="3.50139">
        <ele>456.76</ele>
        <time>2016-03-06T13:31:42Z</time>
      </trkpt>
      <trkpt lat="43.73979" lon="3.50148">
        <ele>456.76</ele>
        <time>2016-03-06T13:31:43Z</time>
      </trkpt>
      <trkpt lat="43.73984" lon="3.50151">
        <ele>456.76</ele>
        <time>2016-03-06T13:31:44Z</time>
      </trkpt>
      <trkpt lat="43.73988" lon="3.50149">
        <ele>456.76</ele>
        <time>2016-03-06T13:31:45Z</time>
      </trkpt>
      <trkpt lat="43.73995" lon="3.50141">
        <ele>456.76</ele>
        <time>2016-03-06T13:31:46Z</time>
      </trkpt>
      <trkpt lat="43.74002" lon="3.50132">
        <ele>456.76</ele>
        <time>2016-03-06T13:31:47Z</time>
      </trkpt>
      <trkpt lat="43.74009" lon="3.50125">
        <ele>456.76</ele>
        <time>2016-03-06T13:31:48Z</time>
      </trkpt>
      <trkpt lat="43.74017" lon="3.50122">
        <ele>456.76</ele>
        <time>2016-03-06T13:31:49Z</time>
      </trkpt>
      <trkpt lat="43.74025" lon="3.50119">
        <ele>456.28</ele>
        <time>2016-03-06T13:31:50Z</time>
      </trkpt>
      <trkpt lat="43.74033" lon="3.50113">
        <ele>456.28</ele>
        <time>2016-03-06T13:31:51Z</time>
      </trkpt>
      <trkpt lat="43.74039" lon="3.50105">
        <ele>456.28</ele>
        <time>2016-03-06T13:31:52Z</time>
      </trkpt>
      <trkpt lat="43.74046" lon="3.50096">
        <ele>456.28</ele>
        <time>2016-03-06T13:31:53Z</time>
      </trkpt>
      <trkpt lat="43.74052" lon="3.5009">
        <ele>456.28</ele>
        <time>2016-03-06T13:31:54Z</time>
      </trkpt>
      <trkpt lat="43.74059" lon="3.50089">
        <ele>456.76</ele>
        <time>2016-03-06T13:31:55Z</time>
      </trkpt>
      <trkpt lat="43.74066" lon="3.50092">
        <ele>457.24</ele>
        <time>2016-03-06T13:31:56Z</time>
      </trkpt>
      <trkpt lat="43.74073" lon="3.50096">
        <ele>457.72</ele>
        <time>2016-03-06T13:31:57Z</time>
      </trkpt>
      <trkpt lat="43.7408" lon="3.50102">
        <ele>457.72</ele>
        <time>2016-03-06T13:31:58Z</time>
      </trkpt>
      <trkpt lat="43.74086" lon="3.50109">
        <ele>458.69</ele>
        <time>2016-03-06T13:31:59Z</time>
      </trkpt>
      <trkpt lat="43.7409" lon="3.50118">
        <ele>459.17</ele>
        <time>2016-03-06T13:32:00Z</time>
      </trkpt>
      <trkpt lat="43.74093" lon="3.50129">
        <ele>459.17</ele>
        <time>2016-03-06T13:32:01Z</time>
      </trkpt>
      <trkpt lat="43.74097" lon="3.50141">
        <ele>459.65</ele>
        <time>2016-03-06T13:32:02Z</time>
      </trkpt>
      <trkpt lat="43.74103" lon="3.50152">
        <ele>459.65</ele>
        <time>2016-03-06T13:32:03Z</time>
      </trkpt>
      <trkpt lat="43.74109" lon="3.50163">
        <ele>459.65</ele>
        <time>2016-03-06T13:32:04Z</time>
      </trkpt>
      <trkpt lat="43.74116" lon="3.50171">
        <ele>459.65</ele>
        <time>2016-03-06T13:32:05Z</time>
      </trkpt>
      <trkpt lat="43.74123" lon="3.50178">
        <ele>459.65</ele>
        <time>2016-03-06T13:32:06Z</time>
      </trkpt>
      <trkpt lat="43.74129" lon="3.50187">
        <ele>460.13</ele>
        <time>2016-03-06T13:32:07Z</time>
      </trkpt>
      <trkpt lat="43.74134" lon="3.50199">
        <ele>460.13</ele>
        <time>2016-03-06T13:32:08Z</time>
      </trkpt>
      <trkpt lat="43.74141" lon="3.50225">
        <ele>461.09</ele>
        <time>2016-03-06T13:32:10Z</time>
      </trkpt>
      <trkpt lat="43.74142" lon="3.50239">
        <ele>461.09</ele>
        <time>2016-03-06T13:32:11Z</time>
      </trkpt>
      <trkpt lat="43.74145" lon="3.50267">
        <ele>462.05</ele>
        <time>2016-03-06T13:32:13Z</time>
      </trkpt>
      <trkpt lat="43.74148" lon="3.50281">
        <ele>462.53</ele>
        <time>2016-03-06T13:32:14Z</time>
      </trkpt>
      <trkpt lat="43.74152" lon="3.50295">
        <ele>463.01</ele>
        <time>2016-03-06T13:32:15Z</time>
      </trkpt>
      <trkpt lat="43.74158" lon="3.50308">
        <ele>463.01</ele>
        <time>2016-03-06T13:32:16Z</time>
      </trkpt>
      <trkpt lat="43.74163" lon="3.5032">
        <ele>463.01</ele>
        <time>2016-03-06T13:32:17Z</time>
      </trkpt>
      <trkpt lat="43.7417" lon="3.5033">
        <ele>463.01</ele>
        <time>2016-03-06T13:32:18Z</time>
      </trkpt>
      <trkpt lat="43.74177" lon="3.50336">
        <ele>463.01</ele>
        <time>2016-03-06T13:32:19Z</time>
      </trkpt>
      <trkpt lat="43.74184" lon="3.50336">
        <ele>463.49</ele>
        <time>2016-03-06T13:32:20Z</time>
      </trkpt>
      <trkpt lat="43.74191" lon="3.50333">
        <ele>463.01</ele>
        <time>2016-03-06T13:32:21Z</time>
      </trkpt>
      <trkpt lat="43.74198" lon="3.50327">
        <ele>463.01</ele>
        <time>2016-03-06T13:32:22Z</time>
      </trkpt>
      <trkpt lat="43.74205" lon="3.50321">
        <ele>463.01</ele>
        <time>2016-03-06T13:32:23Z</time>
      </trkpt>
      <trkpt lat="43.74213" lon="3.50318">
        <ele>463.01</ele>
        <time>2016-03-06T13:32:24Z</time>
      </trkpt>
      <trkpt lat="43.74222" lon="3.50322">
        <ele>463.01</ele>
        <time>2016-03-06T13:32:25Z</time>
      </trkpt>
      <trkpt lat="43.7423" lon="3.50328">
        <ele>463.01</ele>
        <time>2016-03-06T13:32:26Z</time>
      </trkpt>
      <trkpt lat="43.7424" lon="3.50336">
        <ele>462.53</ele>
        <time>2016-03-06T13:32:27Z</time>
      </trkpt>
      <trkpt lat="43.7425" lon="3.50347">
        <ele>462.05</ele>
        <time>2016-03-06T13:32:28Z</time>
      </trkpt>
      <trkpt lat="43.74259" lon="3.50358">
        <ele>461.57</ele>
        <time>2016-03-06T13:32:29Z</time>
      </trkpt>
      <trkpt lat="43.74267" lon="3.5037">
        <ele>461.57</ele>
        <time>2016-03-06T13:32:30Z</time>
      </trkpt>
      <trkpt lat="43.74277" lon="3.5038">
        <ele>461.57</ele>
        <time>2016-03-06T13:32:31Z</time>
      </trkpt>
      <trkpt lat="43.74287" lon="3.5039">
        <ele>461.09</ele>
        <time>2016-03-06T13:32:32Z</time>
      </trkpt>
      <trkpt lat="43.74297" lon="3.50401">
        <ele>462.05</ele>
        <time>2016-03-06T13:32:33Z</time>
      </trkpt>
      <trkpt lat="43.74306" lon="3.50414">
        <ele>462.05</ele>
        <time>2016-03-06T13:32:34Z</time>
      </trkpt>
      <trkpt lat="43.74324" lon="3.50437">
        <ele>462.05</ele>
        <time>2016-03-06T13:32:36Z</time>
      </trkpt>
      <trkpt lat="43.74335" lon="3.50447">
        <ele>462.53</ele>
        <time>2016-03-06T13:32:37Z</time>
      </trkpt>
      <trkpt lat="43.74387" lon="3.50489">
        <ele>464.93</ele>
        <time>2016-03-06T13:32:42Z</time>
      </trkpt>
      <trkpt lat="43.74397" lon="3.50493">
        <ele>465.42</ele>
        <time>2016-03-06T13:32:43Z</time>
      </trkpt>
      <trkpt lat="43.74417" lon="3.50498">
        <ele>466.38</ele>
        <time>2016-03-06T13:32:45Z</time>
      </trkpt>
      <trkpt lat="43.74426" lon="3.50504">
        <ele>465.9</ele>
        <time>2016-03-06T13:32:46Z</time>
      </trkpt>
      <trkpt lat="43.74431" lon="3.50516">
        <ele>465.9</ele>
        <time>2016-03-06T13:32:47Z</time>
      </trkpt>
      <trkpt lat="43.74435" lon="3.5053">
        <ele>465.9</ele>
        <time>2016-03-06T13:32:48Z</time>
      </trkpt>
      <trkpt lat="43.74439" lon="3.50548">
        <ele>465.42</ele>
        <time>2016-03-06T13:32:49Z</time>
      </trkpt>
      <trkpt lat="43.74441" lon="3.50567">
        <ele>463.97</ele>
        <time>2016-03-06T13:32:50Z</time>
      </trkpt>
      <trkpt lat="43.74444" lon="3.50587">
        <ele>463.01</ele>
        <time>2016-03-06T13:32:51Z</time>
      </trkpt>
      <trkpt lat="43.74457" lon="3.5064">
        <ele>461.09</ele>
        <time>2016-03-06T13:32:54Z</time>
      </trkpt>
      <trkpt lat="43.74464" lon="3.50653">
        <ele>460.61</ele>
        <time>2016-03-06T13:32:55Z</time>
      </trkpt>
      <trkpt lat="43.74473" lon="3.50664">
        <ele>460.61</ele>
        <time>2016-03-06T13:32:56Z</time>
      </trkpt>
      <trkpt lat="43.74484" lon="3.50675">
        <ele>461.09</ele>
        <time>2016-03-06T13:32:57Z</time>
      </trkpt>
      <trkpt lat="43.74496" lon="3.50683">
        <ele>461.09</ele>
        <time>2016-03-06T13:32:58Z</time>
      </trkpt>
      <trkpt lat="43.74508" lon="3.5069">
        <ele>461.09</ele>
        <time>2016-03-06T13:32:59Z</time>
      </trkpt>
      <trkpt lat="43.74519" lon="3.50696">
        <ele>460.61</ele>
        <time>2016-03-06T13:33:00Z</time>
      </trkpt>
      <trkpt lat="43.74565" lon="3.50716">
        <ele>460.61</ele>
        <time>2016-03-06T13:33:04Z</time>
      </trkpt>
      <trkpt lat="43.74574" lon="3.50723">
        <ele>460.61</ele>
        <time>2016-03-06T13:33:05Z</time>
      </trkpt>
      <trkpt lat="43.74583" lon="3.50732">
        <ele>461.57</ele>
        <time>2016-03-06T13:33:06Z</time>
      </trkpt>
      <trkpt lat="43.74589" lon="3.50744">
        <ele>462.05</ele>
        <time>2016-03-06T13:33:07Z</time>
      </trkpt>
      <trkpt lat="43.74594" lon="3.50757">
        <ele>462.53</ele>
        <time>2016-03-06T13:33:08Z</time>
      </trkpt>
      <trkpt lat="43.746" lon="3.50769">
        <ele>463.01</ele>
        <time>2016-03-06T13:33:09Z</time>
      </trkpt>
      <trkpt lat="43.74607" lon="3.50779">
        <ele>463.49</ele>
        <time>2016-03-06T13:33:10Z</time>
      </trkpt>
      <trkpt lat="43.74616" lon="3.50788">
        <ele>463.97</ele>
        <time>2016-03-06T13:33:11Z</time>
      </trkpt>
      <trkpt lat="43.74627" lon="3.50796">
        <ele>464.45</ele>
        <time>2016-03-06T13:33:12Z</time>
      </trkpt>
      <trkpt lat="43.74638" lon="3.50806">
        <ele>464.93</ele>
        <time>2016-03-06T13:33:13Z</time>
      </trkpt>
      <trkpt lat="43.74649" lon="3.50819">
        <ele>465.9</ele>
        <time>2016-03-06T13:33:14Z</time>
      </trkpt>
      <trkpt lat="43.74689" lon="3.50864">
        <ele>467.82</ele>
        <time>2016-03-06T13:33:18Z</time>
      </trkpt>
      <trkpt lat="43.74695" lon="3.50874">
        <ele>468.3</ele>
        <time>2016-03-06T13:33:19Z</time>
      </trkpt>
      <trkpt lat="43.74697" lon="3.50888">
        <ele>468.3</ele>
        <time>2016-03-06T13:33:20Z</time>
      </trkpt>
      <trkpt lat="43.74696" lon="3.50903">
        <ele>468.3</ele>
        <time>2016-03-06T13:33:21Z</time>
      </trkpt>
      <trkpt lat="43.74694" lon="3.50919">
        <ele>468.3</ele>
        <time>2016-03-06T13:33:22Z</time>
      </trkpt>
      <trkpt lat="43.74689" lon="3.50934">
        <ele>468.3</ele>
        <time>2016-03-06T13:33:23Z</time>
      </trkpt>
      <trkpt lat="43.74682" lon="3.50947">
        <ele>468.3</ele>
        <time>2016-03-06T13:33:24Z</time>
      </trkpt>
      <trkpt lat="43.74676" lon="3.5096">
        <ele>467.82</ele>
        <time>2016-03-06T13:33:25Z</time>
      </trkpt>
      <trkpt lat="43.74672" lon="3.50972">
        <ele>467.34</ele>
        <time>2016-03-06T13:33:26Z</time>
      </trkpt>
      <trkpt lat="43.7467" lon="3.50982">
        <ele>467.34</ele>
        <time>2016-03-06T13:33:27Z</time>
      </trkpt>
      <trkpt lat="43.74672" lon="3.50994">
        <ele>467.34</ele>
        <time>2016-03-06T13:33:28Z</time>
      </trkpt>
      <trkpt lat="43.74676" lon="3.51004">
        <ele>467.34</ele>
        <time>2016-03-06T13:33:29Z</time>
      </trkpt>
      <trkpt lat="43.74682" lon="3.51012">
        <ele>467.34</ele>
        <time>2016-03-06T13:33:30Z</time>
      </trkpt>
      <trkpt lat="43.7469" lon="3.51018">
        <ele>467.34</ele>
        <time>2016-03-06T13:33:31Z</time>
      </trkpt>
      <trkpt lat="43.747" lon="3.51019">
        <ele>467.82</ele>
        <time>2016-03-06T13:33:32Z</time>
      </trkpt>
      <trkpt lat="43.74711" lon="3.51016">
        <ele>468.3</ele>
        <time>2016-03-06T13:33:33Z</time>
      </trkpt>
      <trkpt lat="43.74723" lon="3.51012">
        <ele>468.3</ele>
        <time>2016-03-06T13:33:34Z</time>
      </trkpt>
      <trkpt lat="43.74735" lon="3.51008">
        <ele>468.78</ele>
        <time>2016-03-06T13:33:35Z</time>
      </trkpt>
      <trkpt lat="43.74772" lon="3.51003">
        <ele>469.74</ele>
        <time>2016-03-06T13:33:38Z</time>
      </trkpt>
      <trkpt lat="43.74782" lon="3.51007">
        <ele>470.22</ele>
        <time>2016-03-06T13:33:39Z</time>
      </trkpt>
      <trkpt lat="43.74791" lon="3.51014">
        <ele>470.22</ele>
        <time>2016-03-06T13:33:40Z</time>
      </trkpt>
      <trkpt lat="43.748" lon="3.51023">
        <ele>470.7</ele>
        <time>2016-03-06T13:33:41Z</time>
      </trkpt>
      <trkpt lat="43.74808" lon="3.51033">
        <ele>470.7</ele>
        <time>2016-03-06T13:33:42Z</time>
      </trkpt>
      <trkpt lat="43.74814" lon="3.51046">
        <ele>470.7</ele>
        <time>2016-03-06T13:33:43Z</time>
      </trkpt>
      <trkpt lat="43.74819" lon="3.51059">
        <ele>470.7</ele>
        <time>2016-03-06T13:33:44Z</time>
      </trkpt>
      <trkpt lat="43.7482" lon="3.51073">
        <ele>470.7</ele>
        <time>2016-03-06T13:33:45Z</time>
      </trkpt>
      <trkpt lat="43.74819" lon="3.51086">
        <ele>470.7</ele>
        <time>2016-03-06T13:33:46Z</time>
      </trkpt>
      <trkpt lat="43.74816" lon="3.51098">
        <ele>471.66</ele>
        <time>2016-03-06T13:33:47Z</time>
      </trkpt>
      <trkpt lat="43.74808" lon="3.51107">
        <ele>471.66</ele>
        <time>2016-03-06T13:33:48Z</time>
      </trkpt>
      <trkpt lat="43.74799" lon="3.51115">
        <ele>472.14</ele>
        <time>2016-03-06T13:33:49Z</time>
      </trkpt>
      <trkpt lat="43.7479" lon="3.51124">
        <ele>472.14</ele>
        <time>2016-03-06T13:33:50Z</time>
      </trkpt>
      <trkpt lat="43.74783" lon="3.51134">
        <ele>472.14</ele>
        <time>2016-03-06T13:33:51Z</time>
      </trkpt>
      <trkpt lat="43.74773" lon="3.51153">
        <ele>471.66</ele>
        <time>2016-03-06T13:33:53Z</time>
      </trkpt>
      <trkpt lat="43.74773" lon="3.51165">
        <ele>471.18</ele>
        <time>2016-03-06T13:33:54Z</time>
      </trkpt>
      <trkpt lat="43.74776" lon="3.51175">
        <ele>471.18</ele>
        <time>2016-03-06T13:33:55Z</time>
      </trkpt>
      <trkpt lat="43.74781" lon="3.51185">
        <ele>470.7</ele>
        <time>2016-03-06T13:33:56Z</time>
      </trkpt>
      <trkpt lat="43.74788" lon="3.51191">
        <ele>470.7</ele>
        <time>2016-03-06T13:33:57Z</time>
      </trkpt>
      <trkpt lat="43.748" lon="3.51192">
        <ele>470.22</ele>
        <time>2016-03-06T13:33:58Z</time>
      </trkpt>
      <trkpt lat="43.7481" lon="3.51192">
        <ele>470.22</ele>
        <time>2016-03-06T13:33:59Z</time>
      </trkpt>
      <trkpt lat="43.7482" lon="3.51189">
        <ele>469.74</ele>
        <time>2016-03-06T13:34:00Z</time>
      </trkpt>
      <trkpt lat="43.7483" lon="3.51183">
        <ele>468.78</ele>
        <time>2016-03-06T13:34:01Z</time>
      </trkpt>
      <trkpt lat="43.7484" lon="3.51175">
        <ele>468.78</ele>
        <time>2016-03-06T13:34:02Z</time>
      </trkpt>
      <trkpt lat="43.74851" lon="3.51166">
        <ele>468.78</ele>
        <time>2016-03-06T13:34:03Z</time>
      </trkpt>
      <trkpt lat="43.74883" lon="3.51139">
        <ele>468.3</ele>
        <time>2016-03-06T13:34:06Z</time>
      </trkpt>
      <trkpt lat="43.74891" lon="3.51128">
        <ele>469.26</ele>
        <time>2016-03-06T13:34:07Z</time>
      </trkpt>
      <trkpt lat="43.74907" lon="3.51107">
        <ele>469.74</ele>
        <time>2016-03-06T13:34:09Z</time>
      </trkpt>
      <trkpt lat="43.74917" lon="3.51099">
        <ele>469.74</ele>
        <time>2016-03-06T13:34:10Z</time>
      </trkpt>
      <trkpt lat="43.74926" lon="3.51094">
        <ele>470.22</ele>
        <time>2016-03-06T13:34:11Z</time>
      </trkpt>
      <trkpt lat="43.74936" lon="3.51092">
        <ele>470.22</ele>
        <time>2016-03-06T13:34:12Z</time>
      </trkpt>
      <trkpt lat="43.74944" lon="3.51097">
        <ele>471.18</ele>
        <time>2016-03-06T13:34:13Z</time>
      </trkpt>
      <trkpt lat="43.74953" lon="3.51104">
        <ele>471.18</ele>
        <time>2016-03-06T13:34:14Z</time>
      </trkpt>
      <trkpt lat="43.74961" lon="3.51114">
        <ele>471.66</ele>
        <time>2016-03-06T13:34:15Z</time>
      </trkpt>
      <trkpt lat="43.7497" lon="3.51125">
        <ele>471.66</ele>
        <time>2016-03-06T13:34:16Z</time>
      </trkpt>
      <trkpt lat="43.75053" lon="3.51222">
        <ele>473.59</ele>
        <time>2016-03-06T13:34:24Z</time>
      </trkpt>
      <trkpt lat="43.75072" lon="3.51239">
        <ele>473.59</ele>
        <time>2016-03-06T13:34:26Z</time>
      </trkpt>
      <trkpt lat="43.75103" lon="3.51259">
        <ele>473.11</ele>
        <time>2016-03-06T13:34:29Z</time>
      </trkpt>
      <trkpt lat="43.75112" lon="3.51267">
        <ele>472.63</ele>
        <time>2016-03-06T13:34:30Z</time>
      </trkpt>
      <trkpt lat="43.75126" lon="3.51277">
        <ele>471.18</ele>
        <time>2016-03-06T13:34:32Z</time>
      </trkpt>
      <trkpt lat="43.75133" lon="3.51277">
        <ele>470.7</ele>
        <time>2016-03-06T13:34:33Z</time>
      </trkpt>
      <trkpt lat="43.75139" lon="3.51274">
        <ele>470.7</ele>
        <time>2016-03-06T13:34:34Z</time>
      </trkpt>
      <trkpt lat="43.75148" lon="3.51271">
        <ele>470.7</ele>
        <time>2016-03-06T13:34:35Z</time>
      </trkpt>
      <trkpt lat="43.75158" lon="3.5127">
        <ele>470.22</ele>
        <time>2016-03-06T13:34:36Z</time>
      </trkpt>
      <trkpt lat="43.75169" lon="3.51273">
        <ele>469.74</ele>
        <time>2016-03-06T13:34:37Z</time>
      </trkpt>
      <trkpt lat="43.7518" lon="3.51278">
        <ele>469.26</ele>
        <time>2016-03-06T13:34:38Z</time>
      </trkpt>
      <trkpt lat="43.7519" lon="3.51286">
        <ele>468.78</ele>
        <time>2016-03-06T13:34:39Z</time>
      </trkpt>
      <trkpt lat="43.75199" lon="3.51292">
        <ele>468.3</ele>
        <time>2016-03-06T13:34:40Z</time>
      </trkpt>
      <trkpt lat="43.75208" lon="3.51298">
        <ele>467.82</ele>
        <time>2016-03-06T13:34:41Z</time>
      </trkpt>
      <trkpt lat="43.75216" lon="3.51302">
        <ele>467.34</ele>
        <time>2016-03-06T13:34:42Z</time>
      </trkpt>
      <trkpt lat="43.75244" lon="3.51316">
        <ele>466.38</ele>
        <time>2016-03-06T13:34:45Z</time>
      </trkpt>
      <trkpt lat="43.75254" lon="3.51325">
        <ele>466.38</ele>
        <time>2016-03-06T13:34:46Z</time>
      </trkpt>
      <trkpt lat="43.75263" lon="3.51336">
        <ele>467.34</ele>
        <time>2016-03-06T13:34:47Z</time>
      </trkpt>
      <trkpt lat="43.75272" lon="3.51345">
        <ele>467.82</ele>
        <time>2016-03-06T13:34:48Z</time>
      </trkpt>
      <trkpt lat="43.75281" lon="3.51351">
        <ele>467.82</ele>
        <time>2016-03-06T13:34:49Z</time>
      </trkpt>
      <trkpt lat="43.75291" lon="3.51353">
        <ele>468.3</ele>
        <time>2016-03-06T13:34:50Z</time>
      </trkpt>
      <trkpt lat="43.75302" lon="3.51354">
        <ele>468.78</ele>
        <time>2016-03-06T13:34:51Z</time>
      </trkpt>
      <trkpt lat="43.75313" lon="3.51355">
        <ele>469.26</ele>
        <time>2016-03-06T13:34:52Z</time>
      </trkpt>
      <trkpt lat="43.75372" lon="3.51367">
        <ele>471.66</ele>
        <time>2016-03-06T13:34:58Z</time>
      </trkpt>
      <trkpt lat="43.75377" lon="3.51371">
        <ele>472.14</ele>
        <time>2016-03-06T13:34:59Z</time>
      </trkpt>
      <trkpt lat="43.75379" lon="3.51379">
        <ele>472.63</ele>
        <time>2016-03-06T13:35:00Z</time>
      </trkpt>
      <trkpt lat="43.7538" lon="3.51389">
        <ele>472.14</ele>
        <time>2016-03-06T13:35:01Z</time>
      </trkpt>
      <trkpt lat="43.75379" lon="3.514">
        <ele>471.66</ele>
        <time>2016-03-06T13:35:02Z</time>
      </trkpt>
      <trkpt lat="43.75378" lon="3.51411">
        <ele>471.18</ele>
        <time>2016-03-06T13:35:03Z</time>
      </trkpt>
      <trkpt lat="43.75378" lon="3.51422">
        <ele>470.7</ele>
        <time>2016-03-06T13:35:04Z</time>
      </trkpt>
      <trkpt lat="43.75379" lon="3.51432">
        <ele>470.22</ele>
        <time>2016-03-06T13:35:05Z</time>
      </trkpt>
      <trkpt lat="43.75384" lon="3.51439">
        <ele>469.74</ele>
        <time>2016-03-06T13:35:06Z</time>
      </trkpt>
      <trkpt lat="43.75392" lon="3.51444">
        <ele>469.74</ele>
        <time>2016-03-06T13:35:07Z</time>
      </trkpt>
      <trkpt lat="43.754" lon="3.51449">
        <ele>469.26</ele>
        <time>2016-03-06T13:35:08Z</time>
      </trkpt>
      <trkpt lat="43.75407" lon="3.51456">
        <ele>469.26</ele>
        <time>2016-03-06T13:35:09Z</time>
      </trkpt>
      <trkpt lat="43.75414" lon="3.51465">
        <ele>469.26</ele>
        <time>2016-03-06T13:35:10Z</time>
      </trkpt>
      <trkpt lat="43.75418" lon="3.51475">
        <ele>469.26</ele>
        <time>2016-03-06T13:35:11Z</time>
      </trkpt>
      <trkpt lat="43.7542" lon="3.51486">
        <ele>469.26</ele>
        <time>2016-03-06T13:35:12Z</time>
      </trkpt>
      <trkpt lat="43.75421" lon="3.51497">
        <ele>468.78</ele>
        <time>2016-03-06T13:35:13Z</time>
      </trkpt>
      <trkpt lat="43.75423" lon="3.51507">
        <ele>468.78</ele>
        <time>2016-03-06T13:35:14Z</time>
      </trkpt>
      <trkpt lat="43.75426" lon="3.51516">
        <ele>468.78</ele>
        <time>2016-03-06T13:35:15Z</time>
      </trkpt>
      <trkpt lat="43.75432" lon="3.51519">
        <ele>468.3</ele>
        <time>2016-03-06T13:35:16Z</time>
      </trkpt>
      <trkpt lat="43.75441" lon="3.5152">
        <ele>468.3</ele>
        <time>2016-03-06T13:35:17Z</time>
      </trkpt>
      <trkpt lat="43.75451" lon="3.51521">
        <ele>468.3</ele>
        <time>2016-03-06T13:35:18Z</time>
      </trkpt>
      <trkpt lat="43.75462" lon="3.51523">
        <ele>468.78</ele>
        <time>2016-03-06T13:35:19Z</time>
      </trkpt>
      <trkpt lat="43.75473" lon="3.51527">
        <ele>469.26</ele>
        <time>2016-03-06T13:35:20Z</time>
      </trkpt>
      <trkpt lat="43.75484" lon="3.51532">
        <ele>470.22</ele>
        <time>2016-03-06T13:35:21Z</time>
      </trkpt>
      <trkpt lat="43.75495" lon="3.51537">
        <ele>470.7</ele>
        <time>2016-03-06T13:35:22Z</time>
      </trkpt>
      <trkpt lat="43.75505" lon="3.51543">
        <ele>470.7</ele>
        <time>2016-03-06T13:35:23Z</time>
      </trkpt>
      <trkpt lat="43.75537" lon="3.51561">
        <ele>471.18</ele>
        <time>2016-03-06T13:35:26Z</time>
      </trkpt>
      <trkpt lat="43.75546" lon="3.51569">
        <ele>471.18</ele>
        <time>2016-03-06T13:35:27Z</time>
      </trkpt>
      <trkpt lat="43.75564" lon="3.51585">
        <ele>471.18</ele>
        <time>2016-03-06T13:35:29Z</time>
      </trkpt>
      <trkpt lat="43.75573" lon="3.5159">
        <ele>471.18</ele>
        <time>2016-03-06T13:35:30Z</time>
      </trkpt>
      <trkpt lat="43.75582" lon="3.51592">
        <ele>471.66</ele>
        <time>2016-03-06T13:35:31Z</time>
      </trkpt>
      <trkpt lat="43.75592" lon="3.5159">
        <ele>471.66</ele>
        <time>2016-03-06T13:35:32Z</time>
      </trkpt>
      <trkpt lat="43.756" lon="3.51586">
        <ele>472.14</ele>
        <time>2016-03-06T13:35:33Z</time>
      </trkpt>
      <trkpt lat="43.75608" lon="3.51581">
        <ele>472.14</ele>
        <time>2016-03-06T13:35:34Z</time>
      </trkpt>
      <trkpt lat="43.75616" lon="3.51577">
        <ele>472.14</ele>
        <time>2016-03-06T13:35:35Z</time>
      </trkpt>
      <trkpt lat="43.75623" lon="3.51576">
        <ele>472.63</ele>
        <time>2016-03-06T13:35:36Z</time>
      </trkpt>
      <trkpt lat="43.7563" lon="3.51578">
        <ele>472.14</ele>
        <time>2016-03-06T13:35:37Z</time>
      </trkpt>
      <trkpt lat="43.75637" lon="3.51585">
        <ele>472.63</ele>
        <time>2016-03-06T13:35:38Z</time>
      </trkpt>
      <trkpt lat="43.7564" lon="3.51594">
        <ele>472.63</ele>
        <time>2016-03-06T13:35:39Z</time>
      </trkpt>
      <trkpt lat="43.75641" lon="3.51606">
        <ele>472.63</ele>
        <time>2016-03-06T13:35:40Z</time>
      </trkpt>
      <trkpt lat="43.75639" lon="3.51618">
        <ele>472.14</ele>
        <time>2016-03-06T13:35:41Z</time>
      </trkpt>
      <trkpt lat="43.75635" lon="3.5163">
        <ele>472.63</ele>
        <time>2016-03-06T13:35:42Z</time>
      </trkpt>
      <trkpt lat="43.75628" lon="3.5164">
        <ele>472.63</ele>
        <time>2016-03-06T13:35:43Z</time>
      </trkpt>
      <trkpt lat="43.75622" lon="3.51651">
        <ele>472.14</ele>
        <time>2016-03-06T13:35:44Z</time>
      </trkpt>
      <trkpt lat="43.75602" lon="3.5169">
        <ele>471.66</ele>
        <time>2016-03-06T13:35:47Z</time>
      </trkpt>
      <trkpt lat="43.75582" lon="3.51719">
        <ele>472.63</ele>
        <time>2016-03-06T13:35:50Z</time>
      </trkpt>
      <trkpt lat="43.75579" lon="3.51727">
        <ele>473.11</ele>
        <time>2016-03-06T13:35:51Z</time>
      </trkpt>
      <trkpt lat="43.7558" lon="3.51733">
        <ele>473.11</ele>
        <time>2016-03-06T13:35:52Z</time>
      </trkpt>
      <trkpt lat="43.75587" lon="3.51736">
        <ele>473.59</ele>
        <time>2016-03-06T13:35:53Z</time>
      </trkpt>
      <trkpt lat="43.75595" lon="3.51739">
        <ele>474.07</ele>
        <time>2016-03-06T13:35:54Z</time>
      </trkpt>
      <trkpt lat="43.75605" lon="3.51742">
        <ele>474.07</ele>
        <time>2016-03-06T13:35:55Z</time>
      </trkpt>
      <trkpt lat="43.75616" lon="3.51744">
        <ele>474.55</ele>
        <time>2016-03-06T13:35:56Z</time>
      </trkpt>
      <trkpt lat="43.75628" lon="3.51746">
        <ele>475.03</ele>
        <time>2016-03-06T13:35:57Z</time>
      </trkpt>
      <trkpt lat="43.75716" lon="3.51782">
        <ele>476.95</ele>
        <time>2016-03-06T13:36:05Z</time>
      </trkpt>
      <trkpt lat="43.75724" lon="3.51791">
        <ele>477.43</ele>
        <time>2016-03-06T13:36:06Z</time>
      </trkpt>
      <trkpt lat="43.75732" lon="3.518">
        <ele>478.39</ele>
        <time>2016-03-06T13:36:07Z</time>
      </trkpt>
      <trkpt lat="43.75741" lon="3.51807">
        <ele>478.87</ele>
        <time>2016-03-06T13:36:08Z</time>
      </trkpt>
      <trkpt lat="43.7575" lon="3.51811">
        <ele>478.87</ele>
        <time>2016-03-06T13:36:09Z</time>
      </trkpt>
      <trkpt lat="43.75761" lon="3.51811">
        <ele>479.35</ele>
        <time>2016-03-06T13:36:10Z</time>
      </trkpt>
      <trkpt lat="43.75772" lon="3.5181">
        <ele>479.84</ele>
        <time>2016-03-06T13:36:11Z</time>
      </trkpt>
      <trkpt lat="43.75782" lon="3.51809">
        <ele>480.32</ele>
        <time>2016-03-06T13:36:12Z</time>
      </trkpt>
      <trkpt lat="43.75791" lon="3.5181">
        <ele>480.8</ele>
        <time>2016-03-06T13:36:13Z</time>
      </trkpt>
      <trkpt lat="43.75797" lon="3.51812">
        <ele>481.28</ele>
        <time>2016-03-06T13:36:14Z</time>
      </trkpt>
      <trkpt lat="43.758" lon="3.51818">
        <ele>481.76</ele>
        <time>2016-03-06T13:36:15Z</time>
      </trkpt>
      <trkpt lat="43.75799" lon="3.51825">
        <ele>482.24</ele>
        <time>2016-03-06T13:36:16Z</time>
      </trkpt>
      <trkpt lat="43.75797" lon="3.51834">
        <ele>481.28</ele>
        <time>2016-03-06T13:36:17Z</time>
      </trkpt>
      <trkpt lat="43.75796" lon="3.51845">
        <ele>480.8</ele>
        <time>2016-03-06T13:36:18Z</time>
      </trkpt>
      <trkpt lat="43.75798" lon="3.51855">
        <ele>480.8</ele>
        <time>2016-03-06T13:36:19Z</time>
      </trkpt>
      <trkpt lat="43.75802" lon="3.51863">
        <ele>480.32</ele>
        <time>2016-03-06T13:36:20Z</time>
      </trkpt>
      <trkpt lat="43.75809" lon="3.5187">
        <ele>480.32</ele>
        <time>2016-03-06T13:36:21Z</time>
      </trkpt>
      <trkpt lat="43.75818" lon="3.51876">
        <ele>479.84</ele>
        <time>2016-03-06T13:36:22Z</time>
      </trkpt>
      <trkpt lat="43.75829" lon="3.51879">
        <ele>479.35</ele>
        <time>2016-03-06T13:36:23Z</time>
      </trkpt>
      <trkpt lat="43.75841" lon="3.51882">
        <ele>479.35</ele>
        <time>2016-03-06T13:36:24Z</time>
      </trkpt>
      <trkpt lat="43.75852" lon="3.51885">
        <ele>479.35</ele>
        <time>2016-03-06T13:36:25Z</time>
      </trkpt>
      <trkpt lat="43.75862" lon="3.51891">
        <ele>478.87</ele>
        <time>2016-03-06T13:36:26Z</time>
      </trkpt>
      <trkpt lat="43.75873" lon="3.51897">
        <ele>478.39</ele>
        <time>2016-03-06T13:36:27Z</time>
      </trkpt>
      <trkpt lat="43.75883" lon="3.51903">
        <ele>477.91</ele>
        <time>2016-03-06T13:36:28Z</time>
      </trkpt>
      <trkpt lat="43.75893" lon="3.51907">
        <ele>477.91</ele>
        <time>2016-03-06T13:36:29Z</time>
      </trkpt>
      <trkpt lat="43.75904" lon="3.51912">
        <ele>477.43</ele>
        <time>2016-03-06T13:36:30Z</time>
      </trkpt>
      <trkpt lat="43.75914" lon="3.51918">
        <ele>476.95</ele>
        <time>2016-03-06T13:36:31Z</time>
      </trkpt>
      <trkpt lat="43.75924" lon="3.51927">
        <ele>476.47</ele>
        <time>2016-03-06T13:36:32Z</time>
      </trkpt>
      <trkpt lat="43.75933" lon="3.51938">
        <ele>476.47</ele>
        <time>2016-03-06T13:36:33Z</time>
      </trkpt>
      <trkpt lat="43.75942" lon="3.51949">
        <ele>475.99</ele>
        <time>2016-03-06T13:36:34Z</time>
      </trkpt>
      <trkpt lat="43.75949" lon="3.51961">
        <ele>475.99</ele>
        <time>2016-03-06T13:36:35Z</time>
      </trkpt>
      <trkpt lat="43.75954" lon="3.51975">
        <ele>476.47</ele>
        <time>2016-03-06T13:36:36Z</time>
      </trkpt>
      <trkpt lat="43.75959" lon="3.51989">
        <ele>476.47</ele>
        <time>2016-03-06T13:36:37Z</time>
      </trkpt>
      <trkpt lat="43.75964" lon="3.52004">
        <ele>476.95</ele>
        <time>2016-03-06T13:36:38Z</time>
      </trkpt>
      <trkpt lat="43.75969" lon="3.52017">
        <ele>477.43</ele>
        <time>2016-03-06T13:36:39Z</time>
      </trkpt>
      <trkpt lat="43.75975" lon="3.52028">
        <ele>477.91</ele>
        <time>2016-03-06T13:36:40Z</time>
      </trkpt>
      <trkpt lat="43.75982" lon="3.52037">
        <ele>478.39</ele>
        <time>2016-03-06T13:36:41Z</time>
      </trkpt>
      <trkpt lat="43.75989" lon="3.52042">
        <ele>478.87</ele>
        <time>2016-03-06T13:36:42Z</time>
      </trkpt>
      <trkpt lat="43.75998" lon="3.52045">
        <ele>478.87</ele>
        <time>2016-03-06T13:36:43Z</time>
      </trkpt>
      <trkpt lat="43.76008" lon="3.52049">
        <ele>479.84</ele>
        <time>2016-03-06T13:36:44Z</time>
      </trkpt>
      <trkpt lat="43.76019" lon="3.52055">
        <ele>480.32</ele>
        <time>2016-03-06T13:36:45Z</time>
      </trkpt>
      <trkpt lat="43.76029" lon="3.52063">
        <ele>481.76</ele>
        <time>2016-03-06T13:36:46Z</time>
      </trkpt>
      <trkpt lat="43.76134" lon="3.52121">
        <ele>485.6</ele>
        <time>2016-03-06T13:36:55Z</time>
      </trkpt>
      <trkpt lat="43.76144" lon="3.52128">
        <ele>485.6</ele>
        <time>2016-03-06T13:36:56Z</time>
      </trkpt>
      <trkpt lat="43.76152" lon="3.52137">
        <ele>486.56</ele>
        <time>2016-03-06T13:36:57Z</time>
      </trkpt>
      <trkpt lat="43.76159" lon="3.52149">
        <ele>487.05</ele>
        <time>2016-03-06T13:36:58Z</time>
      </trkpt>
      <trkpt lat="43.76164" lon="3.52162">
        <ele>487.53</ele>
        <time>2016-03-06T13:36:59Z</time>
      </trkpt>
      <trkpt lat="43.76168" lon="3.52176">
        <ele>488.01</ele>
        <time>2016-03-06T13:37:00Z</time>
      </trkpt>
      <trkpt lat="43.76169" lon="3.5219">
        <ele>488.49</ele>
        <time>2016-03-06T13:37:01Z</time>
      </trkpt>
      <trkpt lat="43.76169" lon="3.52205">
        <ele>488.49</ele>
        <time>2016-03-06T13:37:02Z</time>
      </trkpt>
      <trkpt lat="43.76168" lon="3.52221">
        <ele>488.49</ele>
        <time>2016-03-06T13:37:03Z</time>
      </trkpt>
      <trkpt lat="43.76167" lon="3.52237">
        <ele>488.01</ele>
        <time>2016-03-06T13:37:04Z</time>
      </trkpt>
      <trkpt lat="43.7617" lon="3.52282">
        <ele>487.53</ele>
        <time>2016-03-06T13:37:07Z</time>
      </trkpt>
      <trkpt lat="43.76174" lon="3.52294">
        <ele>487.53</ele>
        <time>2016-03-06T13:37:08Z</time>
      </trkpt>
      <trkpt lat="43.7618" lon="3.52304">
        <ele>487.05</ele>
        <time>2016-03-06T13:37:09Z</time>
      </trkpt>
      <trkpt lat="43.76189" lon="3.52313">
        <ele>487.05</ele>
        <time>2016-03-06T13:37:10Z</time>
      </trkpt>
      <trkpt lat="43.76199" lon="3.5232">
        <ele>486.56</ele>
        <time>2016-03-06T13:37:11Z</time>
      </trkpt>
      <trkpt lat="43.76209" lon="3.52326">
        <ele>486.56</ele>
        <time>2016-03-06T13:37:12Z</time>
      </trkpt>
      <trkpt lat="43.76218" lon="3.5233">
        <ele>487.05</ele>
        <time>2016-03-06T13:37:13Z</time>
      </trkpt>
      <trkpt lat="43.76235" lon="3.52339">
        <ele>487.05</ele>
        <time>2016-03-06T13:37:15Z</time>
      </trkpt>
      <trkpt lat="43.76242" lon="3.52347">
        <ele>487.53</ele>
        <time>2016-03-06T13:37:16Z</time>
      </trkpt>
      <trkpt lat="43.76248" lon="3.52356">
        <ele>488.01</ele>
        <time>2016-03-06T13:37:17Z</time>
      </trkpt>
      <trkpt lat="43.76254" lon="3.52365">
        <ele>488.01</ele>
        <time>2016-03-06T13:37:18Z</time>
      </trkpt>
      <trkpt lat="43.76262" lon="3.52371">
        <ele>488.49</ele>
        <time>2016-03-06T13:37:19Z</time>
      </trkpt>
      <trkpt lat="43.76272" lon="3.52375">
        <ele>488.97</ele>
        <time>2016-03-06T13:37:20Z</time>
      </trkpt>
      <trkpt lat="43.76283" lon="3.52379">
        <ele>489.45</ele>
        <time>2016-03-06T13:37:21Z</time>
      </trkpt>
      <trkpt lat="43.76294" lon="3.52381">
        <ele>489.93</ele>
        <time>2016-03-06T13:37:22Z</time>
      </trkpt>
      <trkpt lat="43.76303" lon="3.52379">
        <ele>490.41</ele>
        <time>2016-03-06T13:37:23Z</time>
      </trkpt>
      <trkpt lat="43.76309" lon="3.52373">
        <ele>490.89</ele>
        <time>2016-03-06T13:37:24Z</time>
      </trkpt>
      <trkpt lat="43.76315" lon="3.52365">
        <ele>491.37</ele>
        <time>2016-03-06T13:37:25Z</time>
      </trkpt>
      <trkpt lat="43.76321" lon="3.52357">
        <ele>491.85</ele>
        <time>2016-03-06T13:37:26Z</time>
      </trkpt>
      <trkpt lat="43.76329" lon="3.5235">
        <ele>492.33</ele>
        <time>2016-03-06T13:37:27Z</time>
      </trkpt>
      <trkpt lat="43.76337" lon="3.52346">
        <ele>492.81</ele>
        <time>2016-03-06T13:37:28Z</time>
      </trkpt>
      <trkpt lat="43.76347" lon="3.52343">
        <ele>493.29</ele>
        <time>2016-03-06T13:37:29Z</time>
      </trkpt>
      <trkpt lat="43.76358" lon="3.5234">
        <ele>493.77</ele>
        <time>2016-03-06T13:37:30Z</time>
      </trkpt>
      <trkpt lat="43.7637" lon="3.52338">
        <ele>494.26</ele>
        <time>2016-03-06T13:37:31Z</time>
      </trkpt>
      <trkpt lat="43.76383" lon="3.52335">
        <ele>495.22</ele>
        <time>2016-03-06T13:37:32Z</time>
      </trkpt>
      <trkpt lat="43.76467" lon="3.52332">
        <ele>500.02</ele>
        <time>2016-03-06T13:37:39Z</time>
      </trkpt>
      <trkpt lat="43.76478" lon="3.52337">
        <ele>500.5</ele>
        <time>2016-03-06T13:37:40Z</time>
      </trkpt>
      <trkpt lat="43.76488" lon="3.52344">
        <ele>500.98</ele>
        <time>2016-03-06T13:37:41Z</time>
      </trkpt>
      <trkpt lat="43.76518" lon="3.52369">
        <ele>501.95</ele>
        <time>2016-03-06T13:37:44Z</time>
      </trkpt>
      <trkpt lat="43.76526" lon="3.52378">
        <ele>501.95</ele>
        <time>2016-03-06T13:37:45Z</time>
      </trkpt>
      <trkpt lat="43.7653" lon="3.52389">
        <ele>502.43</ele>
        <time>2016-03-06T13:37:46Z</time>
      </trkpt>
      <trkpt lat="43.76535" lon="3.524">
        <ele>502.43</ele>
        <time>2016-03-06T13:37:47Z</time>
      </trkpt>
      <trkpt lat="43.7654" lon="3.52409">
        <ele>502.91</ele>
        <time>2016-03-06T13:37:48Z</time>
      </trkpt>
      <trkpt lat="43.76547" lon="3.52415">
        <ele>503.39</ele>
        <time>2016-03-06T13:37:49Z</time>
      </trkpt>
      <trkpt lat="43.76556" lon="3.52419">
        <ele>503.39</ele>
        <time>2016-03-06T13:37:50Z</time>
      </trkpt>
      <trkpt lat="43.76566" lon="3.52423">
        <ele>503.87</ele>
        <time>2016-03-06T13:37:51Z</time>
      </trkpt>
      <trkpt lat="43.76577" lon="3.52427">
        <ele>504.83</ele>
        <time>2016-03-06T13:37:52Z</time>
      </trkpt>
      <trkpt lat="43.76612" lon="3.52433">
        <ele>506.27</ele>
        <time>2016-03-06T13:37:55Z</time>
      </trkpt>
      <trkpt lat="43.76623" lon="3.52437">
        <ele>507.23</ele>
        <time>2016-03-06T13:37:56Z</time>
      </trkpt>
      <trkpt lat="43.76686" lon="3.52476">
        <ele>509.16</ele>
        <time>2016-03-06T13:38:03Z</time>
      </trkpt>
      <trkpt lat="43.7669" lon="3.5248">
        <ele>509.16</ele>
        <time>2016-03-06T13:38:04Z</time>
      </trkpt>
      <trkpt lat="43.76694" lon="3.52485">
        <ele>509.64</ele>
        <time>2016-03-06T13:38:05Z</time>
      </trkpt>
      <trkpt lat="43.76698" lon="3.52492">
        <ele>509.64</ele>
        <time>2016-03-06T13:38:06Z</time>
      </trkpt>
      <trkpt lat="43.76701" lon="3.52501">
        <ele>509.16</ele>
        <time>2016-03-06T13:38:07Z</time>
      </trkpt>
      <trkpt lat="43.76703" lon="3.52511">
        <ele>509.16</ele>
        <time>2016-03-06T13:38:08Z</time>
      </trkpt>
      <trkpt lat="43.76703" lon="3.52521">
        <ele>509.16</ele>
        <time>2016-03-06T13:38:09Z</time>
      </trkpt>
      <trkpt lat="43.76703" lon="3.52531">
        <ele>509.16</ele>
        <time>2016-03-06T13:38:10Z</time>
      </trkpt>
      <trkpt lat="43.76705" lon="3.5254">
        <ele>509.16</ele>
        <time>2016-03-06T13:38:11Z</time>
      </trkpt>
      <trkpt lat="43.76708" lon="3.52549">
        <ele>509.16</ele>
        <time>2016-03-06T13:38:12Z</time>
      </trkpt>
      <trkpt lat="43.76714" lon="3.52558">
        <ele>509.16</ele>
        <time>2016-03-06T13:38:13Z</time>
      </trkpt>
      <trkpt lat="43.76775" lon="3.52622">
        <ele>507.23</ele>
        <time>2016-03-06T13:38:20Z</time>
      </trkpt>
      <trkpt lat="43.76828" lon="3.52668">
        <ele>505.79</ele>
        <time>2016-03-06T13:38:25Z</time>
      </trkpt>
      <trkpt lat="43.76839" lon="3.52674">
        <ele>505.31</ele>
        <time>2016-03-06T13:38:26Z</time>
      </trkpt>
      <trkpt lat="43.76861" lon="3.52687">
        <ele>504.83</ele>
        <time>2016-03-06T13:38:28Z</time>
      </trkpt>
      <trkpt lat="43.76887" lon="3.52708">
        <ele>504.83</ele>
        <time>2016-03-06T13:38:31Z</time>
      </trkpt>
      <trkpt lat="43.76892" lon="3.52716">
        <ele>504.83</ele>
        <time>2016-03-06T13:38:32Z</time>
      </trkpt>
      <trkpt lat="43.76893" lon="3.52726">
        <ele>504.83</ele>
        <time>2016-03-06T13:38:33Z</time>
      </trkpt>
      <trkpt lat="43.76891" lon="3.52738">
        <ele>504.35</ele>
        <time>2016-03-06T13:38:34Z</time>
      </trkpt>
      <trkpt lat="43.76889" lon="3.52752">
        <ele>504.35</ele>
        <time>2016-03-06T13:38:35Z</time>
      </trkpt>
      <trkpt lat="43.76885" lon="3.52783">
        <ele>504.35</ele>
        <time>2016-03-06T13:38:37Z</time>
      </trkpt>
      <trkpt lat="43.76886" lon="3.52798">
        <ele>504.35</ele>
        <time>2016-03-06T13:38:38Z</time>
      </trkpt>
      <trkpt lat="43.76888" lon="3.52812">
        <ele>504.35</ele>
        <time>2016-03-06T13:38:39Z</time>
      </trkpt>
      <trkpt lat="43.76891" lon="3.52825">
        <ele>504.35</ele>
        <time>2016-03-06T13:38:40Z</time>
      </trkpt>
      <trkpt lat="43.76897" lon="3.52837">
        <ele>504.35</ele>
        <time>2016-03-06T13:38:41Z</time>
      </trkpt>
      <trkpt lat="43.76905" lon="3.52849">
        <ele>504.35</ele>
        <time>2016-03-06T13:38:42Z</time>
      </trkpt>
      <trkpt lat="43.76914" lon="3.52861">
        <ele>504.35</ele>
        <time>2016-03-06T13:38:43Z</time>
      </trkpt>
      <trkpt lat="43.76973" lon="3.52931">
        <ele>505.31</ele>
        <time>2016-03-06T13:38:49Z</time>
      </trkpt>
      <trkpt lat="43.76984" lon="3.5294">
        <ele>505.31</ele>
        <time>2016-03-06T13:38:50Z</time>
      </trkpt>
      <trkpt lat="43.76995" lon="3.52947">
        <ele>505.31</ele>
        <time>2016-03-06T13:38:51Z</time>
      </trkpt>
      <trkpt lat="43.77007" lon="3.52953">
        <ele>505.79</ele>
        <time>2016-03-06T13:38:52Z</time>
      </trkpt>
      <trkpt lat="43.77019" lon="3.52956">
        <ele>505.79</ele>
        <time>2016-03-06T13:38:53Z</time>
      </trkpt>
      <trkpt lat="43.77031" lon="3.52958">
        <ele>505.79</ele>
        <time>2016-03-06T13:38:54Z</time>
      </trkpt>
      <trkpt lat="43.77044" lon="3.52958">
        <ele>505.79</ele>
        <time>2016-03-06T13:38:55Z</time>
      </trkpt>
      <trkpt lat="43.77057" lon="3.5296">
        <ele>505.79</ele>
        <time>2016-03-06T13:38:56Z</time>
      </trkpt>
      <trkpt lat="43.77069" lon="3.52964">
        <ele>505.79</ele>
        <time>2016-03-06T13:38:57Z</time>
      </trkpt>
      <trkpt lat="43.77081" lon="3.52969">
        <ele>505.31</ele>
        <time>2016-03-06T13:38:58Z</time>
      </trkpt>
      <trkpt lat="43.77092" lon="3.52976">
        <ele>505.31</ele>
        <time>2016-03-06T13:38:59Z</time>
      </trkpt>
      <trkpt lat="43.77103" lon="3.52985">
        <ele>505.31</ele>
        <time>2016-03-06T13:39:00Z</time>
      </trkpt>
      <trkpt lat="43.77122" lon="3.53003">
        <ele>504.83</ele>
        <time>2016-03-06T13:39:02Z</time>
      </trkpt>
      <trkpt lat="43.7713" lon="3.53013">
        <ele>504.83</ele>
        <time>2016-03-06T13:39:03Z</time>
      </trkpt>
      <trkpt lat="43.77136" lon="3.53025">
        <ele>505.31</ele>
        <time>2016-03-06T13:39:04Z</time>
      </trkpt>
      <trkpt lat="43.77141" lon="3.53038">
        <ele>505.79</ele>
        <time>2016-03-06T13:39:05Z</time>
      </trkpt>
      <trkpt lat="43.77144" lon="3.53052">
        <ele>505.79</ele>
        <time>2016-03-06T13:39:06Z</time>
      </trkpt>
      <trkpt lat="43.77147" lon="3.53066">
        <ele>505.79</ele>
        <time>2016-03-06T13:39:07Z</time>
      </trkpt>
      <trkpt lat="43.77148" lon="3.53079">
        <ele>505.79</ele>
        <time>2016-03-06T13:39:08Z</time>
      </trkpt>
      <trkpt lat="43.77147" lon="3.53092">
        <ele>505.79</ele>
        <time>2016-03-06T13:39:09Z</time>
      </trkpt>
      <trkpt lat="43.77146" lon="3.53105">
        <ele>505.79</ele>
        <time>2016-03-06T13:39:10Z</time>
      </trkpt>
      <trkpt lat="43.77147" lon="3.53117">
        <ele>505.79</ele>
        <time>2016-03-06T13:39:11Z</time>
      </trkpt>
      <trkpt lat="43.7715" lon="3.53128">
        <ele>506.27</ele>
        <time>2016-03-06T13:39:12Z</time>
      </trkpt>
      <trkpt lat="43.77155" lon="3.53138">
        <ele>506.27</ele>
        <time>2016-03-06T13:39:13Z</time>
      </trkpt>
      <trkpt lat="43.77163" lon="3.53145">
        <ele>506.27</ele>
        <time>2016-03-06T13:39:14Z</time>
      </trkpt>
      <trkpt lat="43.77173" lon="3.53151">
        <ele>506.75</ele>
        <time>2016-03-06T13:39:15Z</time>
      </trkpt>
      <trkpt lat="43.77184" lon="3.53157">
        <ele>507.71</ele>
        <time>2016-03-06T13:39:16Z</time>
      </trkpt>
      <trkpt lat="43.77217" lon="3.53175">
        <ele>510.6</ele>
        <time>2016-03-06T13:39:19Z</time>
      </trkpt>
      <trkpt lat="43.7724" lon="3.53196">
        <ele>513</ele>
        <time>2016-03-06T13:39:22Z</time>
      </trkpt>
      <trkpt lat="43.77244" lon="3.53204">
        <ele>513.48</ele>
        <time>2016-03-06T13:39:23Z</time>
      </trkpt>
      <trkpt lat="43.77248" lon="3.53213">
        <ele>513.48</ele>
        <time>2016-03-06T13:39:24Z</time>
      </trkpt>
      <trkpt lat="43.77254" lon="3.53251">
        <ele>515.4</ele>
        <time>2016-03-06T13:39:27Z</time>
      </trkpt>
      <trkpt lat="43.77255" lon="3.53265">
        <ele>515.4</ele>
        <time>2016-03-06T13:39:28Z</time>
      </trkpt>
      <trkpt lat="43.77253" lon="3.53279">
        <ele>515.88</ele>
        <time>2016-03-06T13:39:29Z</time>
      </trkpt>
      <trkpt lat="43.7725" lon="3.53307">
        <ele>516.37</ele>
        <time>2016-03-06T13:39:31Z</time>
      </trkpt>
      <trkpt lat="43.77251" lon="3.53321">
        <ele>516.37</ele>
        <time>2016-03-06T13:39:32Z</time>
      </trkpt>
      <trkpt lat="43.77255" lon="3.53334">
        <ele>516.37</ele>
        <time>2016-03-06T13:39:33Z</time>
      </trkpt>
      <trkpt lat="43.7726" lon="3.53348">
        <ele>515.88</ele>
        <time>2016-03-06T13:39:34Z</time>
      </trkpt>
      <trkpt lat="43.77265" lon="3.53362">
        <ele>515.4</ele>
        <time>2016-03-06T13:39:35Z</time>
      </trkpt>
      <trkpt lat="43.77269" lon="3.53379">
        <ele>514.92</ele>
        <time>2016-03-06T13:39:36Z</time>
      </trkpt>
      <trkpt lat="43.77273" lon="3.53397">
        <ele>514.44</ele>
        <time>2016-03-06T13:39:37Z</time>
      </trkpt>
      <trkpt lat="43.77275" lon="3.53416">
        <ele>513.96</ele>
        <time>2016-03-06T13:39:38Z</time>
      </trkpt>
      <trkpt lat="43.77305" lon="3.5356">
        <ele>511.56</ele>
        <time>2016-03-06T13:39:47Z</time>
      </trkpt>
      <trkpt lat="43.77313" lon="3.53585">
        <ele>511.08</ele>
        <time>2016-03-06T13:39:49Z</time>
      </trkpt>
      <trkpt lat="43.77315" lon="3.53597">
        <ele>510.6</ele>
        <time>2016-03-06T13:39:50Z</time>
      </trkpt>
      <trkpt lat="43.77315" lon="3.5361">
        <ele>510.6</ele>
        <time>2016-03-06T13:39:51Z</time>
      </trkpt>
      <trkpt lat="43.77314" lon="3.53695">
        <ele>507.71</ele>
        <time>2016-03-06T13:39:57Z</time>
      </trkpt>
      <trkpt lat="43.77313" lon="3.53707">
        <ele>507.71</ele>
        <time>2016-03-06T13:39:58Z</time>
      </trkpt>
      <trkpt lat="43.77314" lon="3.53713">
        <ele>507.23</ele>
        <time>2016-03-06T13:39:59Z</time>
      </trkpt>
      <trkpt lat="43.77317" lon="3.53719">
        <ele>507.71</ele>
        <time>2016-03-06T13:40:00Z</time>
      </trkpt>
      <trkpt lat="43.77323" lon="3.53726">
        <ele>507.71</ele>
        <time>2016-03-06T13:40:01Z</time>
      </trkpt>
      <trkpt lat="43.77329" lon="3.53735">
        <ele>508.67</ele>
        <time>2016-03-06T13:40:02Z</time>
      </trkpt>
      <trkpt lat="43.77335" lon="3.53745">
        <ele>509.16</ele>
        <time>2016-03-06T13:40:03Z</time>
      </trkpt>
      <trkpt lat="43.77341" lon="3.53754">
        <ele>509.16</ele>
        <time>2016-03-06T13:40:04Z</time>
      </trkpt>
      <trkpt lat="43.77351" lon="3.53771">
        <ele>509.16</ele>
        <time>2016-03-06T13:40:06Z</time>
      </trkpt>
      <trkpt lat="43.77357" lon="3.53778">
        <ele>509.16</ele>
        <time>2016-03-06T13:40:07Z</time>
      </trkpt>
      <trkpt lat="43.77363" lon="3.53781">
        <ele>508.67</ele>
        <time>2016-03-06T13:40:08Z</time>
      </trkpt>
      <trkpt lat="43.77371" lon="3.53779">
        <ele>508.67</ele>
        <time>2016-03-06T13:40:09Z</time>
      </trkpt>
      <trkpt lat="43.77381" lon="3.53775">
        <ele>509.16</ele>
        <time>2016-03-06T13:40:10Z</time>
      </trkpt>
      <trkpt lat="43.7739" lon="3.53771">
        <ele>509.16</ele>
        <time>2016-03-06T13:40:11Z</time>
      </trkpt>
      <trkpt lat="43.77426" lon="3.53752">
        <ele>511.08</ele>
        <time>2016-03-06T13:40:15Z</time>
      </trkpt>
      <trkpt lat="43.77433" lon="3.53745">
        <ele>512.52</ele>
        <time>2016-03-06T13:40:16Z</time>
      </trkpt>
      <trkpt lat="43.77439" lon="3.53738">
        <ele>513</ele>
        <time>2016-03-06T13:40:17Z</time>
      </trkpt>
      <trkpt lat="43.77445" lon="3.53731">
        <ele>513.48</ele>
        <time>2016-03-06T13:40:18Z</time>
      </trkpt>
      <trkpt lat="43.77451" lon="3.53725">
        <ele>513.96</ele>
        <time>2016-03-06T13:40:19Z</time>
      </trkpt>
      <trkpt lat="43.77458" lon="3.53722">
        <ele>514.44</ele>
        <time>2016-03-06T13:40:20Z</time>
      </trkpt>
      <trkpt lat="43.77466" lon="3.53722">
        <ele>515.4</ele>
        <time>2016-03-06T13:40:21Z</time>
      </trkpt>
      <trkpt lat="43.77474" lon="3.53723">
        <ele>515.88</ele>
        <time>2016-03-06T13:40:22Z</time>
      </trkpt>
      <trkpt lat="43.77483" lon="3.53727">
        <ele>515.88</ele>
        <time>2016-03-06T13:40:23Z</time>
      </trkpt>
      <trkpt lat="43.77493" lon="3.5373">
        <ele>516.37</ele>
        <time>2016-03-06T13:40:24Z</time>
      </trkpt>
      <trkpt lat="43.77532" lon="3.53739">
        <ele>519.25</ele>
        <time>2016-03-06T13:40:28Z</time>
      </trkpt>
      <trkpt lat="43.77541" lon="3.53741">
        <ele>519.73</ele>
        <time>2016-03-06T13:40:29Z</time>
      </trkpt>
      <trkpt lat="43.7755" lon="3.53744">
        <ele>520.21</ele>
        <time>2016-03-06T13:40:30Z</time>
      </trkpt>
      <trkpt lat="43.7756" lon="3.5375">
        <ele>521.17</ele>
        <time>2016-03-06T13:40:31Z</time>
      </trkpt>
      <trkpt lat="43.7757" lon="3.53758">
        <ele>522.13</ele>
        <time>2016-03-06T13:40:32Z</time>
      </trkpt>
      <trkpt lat="43.77579" lon="3.53765">
        <ele>523.09</ele>
        <time>2016-03-06T13:40:33Z</time>
      </trkpt>
      <trkpt lat="43.77588" lon="3.53772">
        <ele>524.06</ele>
        <time>2016-03-06T13:40:34Z</time>
      </trkpt>
      <trkpt lat="43.77597" lon="3.53776">
        <ele>525.02</ele>
        <time>2016-03-06T13:40:35Z</time>
      </trkpt>
      <trkpt lat="43.77606" lon="3.53779">
        <ele>525.98</ele>
        <time>2016-03-06T13:40:36Z</time>
      </trkpt>
      <trkpt lat="43.77647" lon="3.53788">
        <ele>530.3</ele>
        <time>2016-03-06T13:40:40Z</time>
      </trkpt>
      <trkpt lat="43.77662" lon="3.53791">
        <ele>532.23</ele>
        <time>2016-03-06T13:40:42Z</time>
      </trkpt>
      <trkpt lat="43.77669" lon="3.53796">
        <ele>533.19</ele>
        <time>2016-03-06T13:40:43Z</time>
      </trkpt>
      <trkpt lat="43.77676" lon="3.53804">
        <ele>534.15</ele>
        <time>2016-03-06T13:40:44Z</time>
      </trkpt>
      <trkpt lat="43.77682" lon="3.53815">
        <ele>534.63</ele>
        <time>2016-03-06T13:40:45Z</time>
      </trkpt>
      <trkpt lat="43.77689" lon="3.53827">
        <ele>535.59</ele>
        <time>2016-03-06T13:40:46Z</time>
      </trkpt>
      <trkpt lat="43.77696" lon="3.53839">
        <ele>536.55</ele>
        <time>2016-03-06T13:40:47Z</time>
      </trkpt>
      <trkpt lat="43.77709" lon="3.5386">
        <ele>538.48</ele>
        <time>2016-03-06T13:40:49Z</time>
      </trkpt>
      <trkpt lat="43.77719" lon="3.53885">
        <ele>539.92</ele>
        <time>2016-03-06T13:40:51Z</time>
      </trkpt>
      <trkpt lat="43.77726" lon="3.53896">
        <ele>540.88</ele>
        <time>2016-03-06T13:40:52Z</time>
      </trkpt>
      <trkpt lat="43.77738" lon="3.53919">
        <ele>543.28</ele>
        <time>2016-03-06T13:40:54Z</time>
      </trkpt>
      <trkpt lat="43.77742" lon="3.53931">
        <ele>544.72</ele>
        <time>2016-03-06T13:40:55Z</time>
      </trkpt>
      <trkpt lat="43.77746" lon="3.53941">
        <ele>545.2</ele>
        <time>2016-03-06T13:40:56Z</time>
      </trkpt>
      <trkpt lat="43.77749" lon="3.53949">
        <ele>546.17</ele>
        <time>2016-03-06T13:40:57Z</time>
      </trkpt>
      <trkpt lat="43.77754" lon="3.53952">
        <ele>547.13</ele>
        <time>2016-03-06T13:40:58Z</time>
      </trkpt>
      <trkpt lat="43.7776" lon="3.53952">
        <ele>548.57</ele>
        <time>2016-03-06T13:40:59Z</time>
      </trkpt>
      <trkpt lat="43.77769" lon="3.5395">
        <ele>549.53</ele>
        <time>2016-03-06T13:41:00Z</time>
      </trkpt>
      <trkpt lat="43.77778" lon="3.53949">
        <ele>550.49</ele>
        <time>2016-03-06T13:41:01Z</time>
      </trkpt>
      <trkpt lat="43.77788" lon="3.53949">
        <ele>551.45</ele>
        <time>2016-03-06T13:41:02Z</time>
      </trkpt>
      <trkpt lat="43.77798" lon="3.53951">
        <ele>552.41</ele>
        <time>2016-03-06T13:41:03Z</time>
      </trkpt>
      <trkpt lat="43.77807" lon="3.53955">
        <ele>553.86</ele>
        <time>2016-03-06T13:41:04Z</time>
      </trkpt>
      <trkpt lat="43.77814" lon="3.53961">
        <ele>554.82</ele>
        <time>2016-03-06T13:41:05Z</time>
      </trkpt>
      <trkpt lat="43.77821" lon="3.53969">
        <ele>555.78</ele>
        <time>2016-03-06T13:41:06Z</time>
      </trkpt>
      <trkpt lat="43.77828" lon="3.53979">
        <ele>556.26</ele>
        <time>2016-03-06T13:41:07Z</time>
      </trkpt>
      <trkpt lat="43.77911" lon="3.54075">
        <ele>562.51</ele>
        <time>2016-03-06T13:41:17Z</time>
      </trkpt>
      <trkpt lat="43.77917" lon="3.54088">
        <ele>562.51</ele>
        <time>2016-03-06T13:41:18Z</time>
      </trkpt>
      <trkpt lat="43.7796" lon="3.54166">
        <ele>557.7</ele>
        <time>2016-03-06T13:41:26Z</time>
      </trkpt>
      <trkpt lat="43.77964" lon="3.54176">
        <ele>556.74</ele>
        <time>2016-03-06T13:41:27Z</time>
      </trkpt>
      <trkpt lat="43.77967" lon="3.54187">
        <ele>555.78</ele>
        <time>2016-03-06T13:41:28Z</time>
      </trkpt>
      <trkpt lat="43.77969" lon="3.54198">
        <ele>554.82</ele>
        <time>2016-03-06T13:41:29Z</time>
      </trkpt>
      <trkpt lat="43.77971" lon="3.5421">
        <ele>553.86</ele>
        <time>2016-03-06T13:41:30Z</time>
      </trkpt>
      <trkpt lat="43.77972" lon="3.54222">
        <ele>552.41</ele>
        <time>2016-03-06T13:41:31Z</time>
      </trkpt>
      <trkpt lat="43.77972" lon="3.54234">
        <ele>551.45</ele>
        <time>2016-03-06T13:41:32Z</time>
      </trkpt>
      <trkpt lat="43.77972" lon="3.54247">
        <ele>550.01</ele>
        <time>2016-03-06T13:41:33Z</time>
      </trkpt>
      <trkpt lat="43.77969" lon="3.5426">
        <ele>548.57</ele>
        <time>2016-03-06T13:41:34Z</time>
      </trkpt>
      <trkpt lat="43.77967" lon="3.54273">
        <ele>547.61</ele>
        <time>2016-03-06T13:41:35Z</time>
      </trkpt>
      <trkpt lat="43.77966" lon="3.54286">
        <ele>546.17</ele>
        <time>2016-03-06T13:41:36Z</time>
      </trkpt>
      <trkpt lat="43.77967" lon="3.54299">
        <ele>545.2</ele>
        <time>2016-03-06T13:41:37Z</time>
      </trkpt>
      <trkpt lat="43.7797" lon="3.54312">
        <ele>543.76</ele>
        <time>2016-03-06T13:41:38Z</time>
      </trkpt>
      <trkpt lat="43.77974" lon="3.54325">
        <ele>543.28</ele>
        <time>2016-03-06T13:41:39Z</time>
      </trkpt>
      <trkpt lat="43.77999" lon="3.54423">
        <ele>534.15</ele>
        <time>2016-03-06T13:41:46Z</time>
      </trkpt>
      <trkpt lat="43.78004" lon="3.54434">
        <ele>532.71</ele>
        <time>2016-03-06T13:41:47Z</time>
      </trkpt>
      <trkpt lat="43.7801" lon="3.54444">
        <ele>531.27</ele>
        <time>2016-03-06T13:41:48Z</time>
      </trkpt>
      <trkpt lat="43.78019" lon="3.54457">
        <ele>528.38</ele>
        <time>2016-03-06T13:41:50Z</time>
      </trkpt>
      <trkpt lat="43.78023" lon="3.54461">
        <ele>526.94</ele>
        <time>2016-03-06T13:41:51Z</time>
      </trkpt>
      <trkpt lat="43.78027" lon="3.54456">
        <ele>525.98</ele>
        <time>2016-03-06T13:41:52Z</time>
      </trkpt>
      <trkpt lat="43.78029" lon="3.54451">
        <ele>525.02</ele>
        <time>2016-03-06T13:41:53Z</time>
      </trkpt>
      <trkpt lat="43.78028" lon="3.54444">
        <ele>523.58</ele>
        <time>2016-03-06T13:41:54Z</time>
      </trkpt>
      <trkpt lat="43.78026" lon="3.54436">
        <ele>522.61</ele>
        <time>2016-03-06T13:41:55Z</time>
      </trkpt>
      <trkpt lat="43.78022" lon="3.54427">
        <ele>522.13</ele>
        <time>2016-03-06T13:41:56Z</time>
      </trkpt>
      <trkpt lat="43.78019" lon="3.54416">
        <ele>521.65</ele>
        <time>2016-03-06T13:41:57Z</time>
      </trkpt>
      <trkpt lat="43.78017" lon="3.54404">
        <ele>521.65</ele>
        <time>2016-03-06T13:41:58Z</time>
      </trkpt>
      <trkpt lat="43.78016" lon="3.54392">
        <ele>520.69</ele>
        <time>2016-03-06T13:41:59Z</time>
      </trkpt>
      <trkpt lat="43.78016" lon="3.54378">
        <ele>520.21</ele>
        <time>2016-03-06T13:42:00Z</time>
      </trkpt>
      <trkpt lat="43.78017" lon="3.54365">
        <ele>519.73</ele>
        <time>2016-03-06T13:42:01Z</time>
      </trkpt>
      <trkpt lat="43.78022" lon="3.54302">
        <ele>515.88</ele>
        <time>2016-03-06T13:42:06Z</time>
      </trkpt>
      <trkpt lat="43.78025" lon="3.54294">
        <ele>514.92</ele>
        <time>2016-03-06T13:42:07Z</time>
      </trkpt>
      <trkpt lat="43.7803" lon="3.54287">
        <ele>513.96</ele>
        <time>2016-03-06T13:42:08Z</time>
      </trkpt>
      <trkpt lat="43.78035" lon="3.54284">
        <ele>513</ele>
        <time>2016-03-06T13:42:09Z</time>
      </trkpt>
      <trkpt lat="43.78044" lon="3.54283">
        <ele>512.52</ele>
        <time>2016-03-06T13:42:10Z</time>
      </trkpt>
      <trkpt lat="43.78052" lon="3.54284">
        <ele>512.04</ele>
        <time>2016-03-06T13:42:11Z</time>
      </trkpt>
      <trkpt lat="43.7806" lon="3.54285">
        <ele>511.56</ele>
        <time>2016-03-06T13:42:12Z</time>
      </trkpt>
      <trkpt lat="43.78068" lon="3.54284">
        <ele>511.08</ele>
        <time>2016-03-06T13:42:13Z</time>
      </trkpt>
      <trkpt lat="43.78076" lon="3.5428">
        <ele>510.6</ele>
        <time>2016-03-06T13:42:14Z</time>
      </trkpt>
      <trkpt lat="43.78081" lon="3.54275">
        <ele>510.12</ele>
        <time>2016-03-06T13:42:15Z</time>
      </trkpt>
      <trkpt lat="43.78087" lon="3.54271">
        <ele>509.64</ele>
        <time>2016-03-06T13:42:16Z</time>
      </trkpt>
      <trkpt lat="43.78094" lon="3.54273">
        <ele>508.67</ele>
        <time>2016-03-06T13:42:17Z</time>
      </trkpt>
      <trkpt lat="43.781" lon="3.54279">
        <ele>508.19</ele>
        <time>2016-03-06T13:42:18Z</time>
      </trkpt>
      <trkpt lat="43.78106" lon="3.54289">
        <ele>508.19</ele>
        <time>2016-03-06T13:42:19Z</time>
      </trkpt>
      <trkpt lat="43.7811" lon="3.54301">
        <ele>507.23</ele>
        <time>2016-03-06T13:42:20Z</time>
      </trkpt>
      <trkpt lat="43.78115" lon="3.54314">
        <ele>506.75</ele>
        <time>2016-03-06T13:42:21Z</time>
      </trkpt>
      <trkpt lat="43.78176" lon="3.5443">
        <ele>500.02</ele>
        <time>2016-03-06T13:42:30Z</time>
      </trkpt>
      <trkpt lat="43.78275" lon="3.54561">
        <ele>490.89</ele>
        <time>2016-03-06T13:42:40Z</time>
      </trkpt>
      <trkpt lat="43.78366" lon="3.54674">
        <ele>482.24</ele>
        <time>2016-03-06T13:42:48Z</time>
      </trkpt>
      <trkpt lat="43.78462" lon="3.54795">
        <ele>475.03</ele>
        <time>2016-03-06T13:42:56Z</time>
      </trkpt>
      <trkpt lat="43.78496" lon="3.54827">
        <ele>472.14</ele>
        <time>2016-03-06T13:43:00Z</time>
      </trkpt>
      <trkpt lat="43.78501" lon="3.54838">
        <ele>471.66</ele>
        <time>2016-03-06T13:43:01Z</time>
      </trkpt>
      <trkpt lat="43.78506" lon="3.54851">
        <ele>470.22</ele>
        <time>2016-03-06T13:43:02Z</time>
      </trkpt>
      <trkpt lat="43.7851" lon="3.54867">
        <ele>468.3</ele>
        <time>2016-03-06T13:43:03Z</time>
      </trkpt>
      <trkpt lat="43.78557" lon="3.54979">
        <ele>463.49</ele>
        <time>2016-03-06T13:43:09Z</time>
      </trkpt>
      <trkpt lat="43.78586" lon="3.55026">
        <ele>459.65</ele>
        <time>2016-03-06T13:43:12Z</time>
      </trkpt>
      <trkpt lat="43.78598" lon="3.55039">
        <ele>459.17</ele>
        <time>2016-03-06T13:43:13Z</time>
      </trkpt>
      <trkpt lat="43.78684" lon="3.55157">
        <ele>457.24</ele>
        <time>2016-03-06T13:43:21Z</time>
      </trkpt>
      <trkpt lat="43.7869" lon="3.55173">
        <ele>457.24</ele>
        <time>2016-03-06T13:43:22Z</time>
      </trkpt>
      <trkpt lat="43.787" lon="3.55201">
        <ele>457.72</ele>
        <time>2016-03-06T13:43:24Z</time>
      </trkpt>
      <trkpt lat="43.78706" lon="3.55213">
        <ele>457.72</ele>
        <time>2016-03-06T13:43:25Z</time>
      </trkpt>
      <trkpt lat="43.78763" lon="3.55333">
        <ele>450.52</ele>
        <time>2016-03-06T13:43:33Z</time>
      </trkpt>
      <trkpt lat="43.7883" lon="3.55456">
        <ele>438.98</ele>
        <time>2016-03-06T13:43:40Z</time>
      </trkpt>
      <trkpt lat="43.78898" lon="3.55621">
        <ele>425.52</ele>
        <time>2016-03-06T13:43:48Z</time>
      </trkpt>
      <trkpt lat="43.78918" lon="3.55686">
        <ele>421.19</ele>
        <time>2016-03-06T13:43:51Z</time>
      </trkpt>
      <trkpt lat="43.78921" lon="3.55707">
        <ele>419.75</ele>
        <time>2016-03-06T13:43:52Z</time>
      </trkpt>
      <trkpt lat="43.78922" lon="3.55728">
        <ele>418.31</ele>
        <time>2016-03-06T13:43:53Z</time>
      </trkpt>
      <trkpt lat="43.78924" lon="3.55768">
        <ele>415.91</ele>
        <time>2016-03-06T13:43:55Z</time>
      </trkpt>
      <trkpt lat="43.78928" lon="3.55787">
        <ele>414.47</ele>
        <time>2016-03-06T13:43:56Z</time>
      </trkpt>
      <trkpt lat="43.78934" lon="3.55805">
        <ele>413.5</ele>
        <time>2016-03-06T13:43:57Z</time>
      </trkpt>
      <trkpt lat="43.78943" lon="3.55822">
        <ele>412.54</ele>
        <time>2016-03-06T13:43:58Z</time>
      </trkpt>
      <trkpt lat="43.78953" lon="3.55838">
        <ele>411.1</ele>
        <time>2016-03-06T13:43:59Z</time>
      </trkpt>
      <trkpt lat="43.78964" lon="3.55854">
        <ele>409.66</ele>
        <time>2016-03-06T13:44:00Z</time>
      </trkpt>
      <trkpt lat="43.79027" lon="3.55945">
        <ele>402.45</ele>
        <time>2016-03-06T13:44:06Z</time>
      </trkpt>
      <trkpt lat="43.79032" lon="3.55958">
        <ele>401.49</ele>
        <time>2016-03-06T13:44:07Z</time>
      </trkpt>
      <trkpt lat="43.79036" lon="3.5597">
        <ele>401.01</ele>
        <time>2016-03-06T13:44:08Z</time>
      </trkpt>
      <trkpt lat="43.79037" lon="3.5598">
        <ele>400.05</ele>
        <time>2016-03-06T13:44:09Z</time>
      </trkpt>
      <trkpt lat="43.79036" lon="3.5599">
        <ele>399.08</ele>
        <time>2016-03-06T13:44:10Z</time>
      </trkpt>
      <trkpt lat="43.79032" lon="3.55998">
        <ele>398.12</ele>
        <time>2016-03-06T13:44:11Z</time>
      </trkpt>
      <trkpt lat="43.79026" lon="3.56006">
        <ele>397.16</ele>
        <time>2016-03-06T13:44:12Z</time>
      </trkpt>
      <trkpt lat="43.79014" lon="3.56025">
        <ele>395.24</ele>
        <time>2016-03-06T13:44:14Z</time>
      </trkpt>
      <trkpt lat="43.79011" lon="3.56036">
        <ele>394.28</ele>
        <time>2016-03-06T13:44:15Z</time>
      </trkpt>
      <trkpt lat="43.7901" lon="3.56047">
        <ele>393.8</ele>
        <time>2016-03-06T13:44:16Z</time>
      </trkpt>
      <trkpt lat="43.7901" lon="3.5606">
        <ele>392.84</ele>
        <time>2016-03-06T13:44:17Z</time>
      </trkpt>
      <trkpt lat="43.79012" lon="3.56074">
        <ele>392.36</ele>
        <time>2016-03-06T13:44:18Z</time>
      </trkpt>
      <trkpt lat="43.79015" lon="3.56089">
        <ele>391.39</ele>
        <time>2016-03-06T13:44:19Z</time>
      </trkpt>
      <trkpt lat="43.79019" lon="3.56104">
        <ele>390.91</ele>
        <time>2016-03-06T13:44:20Z</time>
      </trkpt>
      <trkpt lat="43.79024" lon="3.56118">
        <ele>389.47</ele>
        <time>2016-03-06T13:44:21Z</time>
      </trkpt>
      <trkpt lat="43.7903" lon="3.56132">
        <ele>388.51</ele>
        <time>2016-03-06T13:44:22Z</time>
      </trkpt>
      <trkpt lat="43.79036" lon="3.56145">
        <ele>387.55</ele>
        <time>2016-03-06T13:44:23Z</time>
      </trkpt>
      <trkpt lat="43.79043" lon="3.56158">
        <ele>386.59</ele>
        <time>2016-03-06T13:44:24Z</time>
      </trkpt>
      <trkpt lat="43.7905" lon="3.56171">
        <ele>385.63</ele>
        <time>2016-03-06T13:44:25Z</time>
      </trkpt>
      <trkpt lat="43.7908" lon="3.56254">
        <ele>379.86</ele>
        <time>2016-03-06T13:44:31Z</time>
      </trkpt>
      <trkpt lat="43.79087" lon="3.56266">
        <ele>378.9</ele>
        <time>2016-03-06T13:44:32Z</time>
      </trkpt>
      <trkpt lat="43.79094" lon="3.56276">
        <ele>377.94</ele>
        <time>2016-03-06T13:44:33Z</time>
      </trkpt>
      <trkpt lat="43.79102" lon="3.56285">
        <ele>376.97</ele>
        <time>2016-03-06T13:44:34Z</time>
      </trkpt>
      <trkpt lat="43.7911" lon="3.56294">
        <ele>376.49</ele>
        <time>2016-03-06T13:44:35Z</time>
      </trkpt>
      <trkpt lat="43.79144" lon="3.56335">
        <ele>374.57</ele>
        <time>2016-03-06T13:44:42Z</time>
      </trkpt>
      <trkpt lat="43.79148" lon="3.56339">
        <ele>374.09</ele>
        <time>2016-03-06T13:44:55Z</time>
      </trkpt>
      <trkpt lat="43.7915" lon="3.56336">
        <ele>377.45</ele>
        <time>2016-03-06T13:45:29Z</time>
      </trkpt>
      <trkpt lat="43.79154" lon="3.56335">
        <ele>367.36</ele>
        <time>2016-03-06T13:46:38Z</time>
      </trkpt>
      <trkpt lat="43.7917" lon="3.56346">
        <ele>366.88</ele>
        <time>2016-03-06T13:46:41Z</time>
      </trkpt>
      <trkpt lat="43.79188" lon="3.56357">
        <ele>365.92</ele>
        <time>2016-03-06T13:46:44Z</time>
      </trkpt>
      <trkpt lat="43.79192" lon="3.56363">
        <ele>365.92</ele>
        <time>2016-03-06T13:46:45Z</time>
      </trkpt>
      <trkpt lat="43.79195" lon="3.56371">
        <ele>365.92</ele>
        <time>2016-03-06T13:46:46Z</time>
      </trkpt>
      <trkpt lat="43.79196" lon="3.56381">
        <ele>365.44</ele>
        <time>2016-03-06T13:46:47Z</time>
      </trkpt>
      <trkpt lat="43.79199" lon="3.56391">
        <ele>365.44</ele>
        <time>2016-03-06T13:46:48Z</time>
      </trkpt>
      <trkpt lat="43.79203" lon="3.56404">
        <ele>364.96</ele>
        <time>2016-03-06T13:46:49Z</time>
      </trkpt>
      <trkpt lat="43.79208" lon="3.56417">
        <ele>364.96</ele>
        <time>2016-03-06T13:46:50Z</time>
      </trkpt>
      <trkpt lat="43.79215" lon="3.56431">
        <ele>364.48</ele>
        <time>2016-03-06T13:46:51Z</time>
      </trkpt>
      <trkpt lat="43.79222" lon="3.56444">
        <ele>364.48</ele>
        <time>2016-03-06T13:46:52Z</time>
      </trkpt>
      <trkpt lat="43.79254" lon="3.56511">
        <ele>364.48</ele>
        <time>2016-03-06T13:46:57Z</time>
      </trkpt>
      <trkpt lat="43.79262" lon="3.56521">
        <ele>364</ele>
        <time>2016-03-06T13:46:58Z</time>
      </trkpt>
      <trkpt lat="43.7927" lon="3.56531">
        <ele>363.52</ele>
        <time>2016-03-06T13:46:59Z</time>
      </trkpt>
      <trkpt lat="43.79276" lon="3.56542">
        <ele>363.04</ele>
        <time>2016-03-06T13:47:00Z</time>
      </trkpt>
      <trkpt lat="43.79281" lon="3.56554">
        <ele>362.07</ele>
        <time>2016-03-06T13:47:01Z</time>
      </trkpt>
      <trkpt lat="43.79286" lon="3.56567">
        <ele>361.59</ele>
        <time>2016-03-06T13:47:02Z</time>
      </trkpt>
      <trkpt lat="43.79293" lon="3.56578">
        <ele>361.11</ele>
        <time>2016-03-06T13:47:03Z</time>
      </trkpt>
      <trkpt lat="43.79299" lon="3.5659">
        <ele>360.15</ele>
        <time>2016-03-06T13:47:04Z</time>
      </trkpt>
      <trkpt lat="43.79313" lon="3.56609">
        <ele>359.19</ele>
        <time>2016-03-06T13:47:06Z</time>
      </trkpt>
      <trkpt lat="43.7932" lon="3.56614">
        <ele>358.23</ele>
        <time>2016-03-06T13:47:07Z</time>
      </trkpt>
      <trkpt lat="43.79329" lon="3.56618">
        <ele>357.75</ele>
        <time>2016-03-06T13:47:08Z</time>
      </trkpt>
      <trkpt lat="43.79338" lon="3.56619">
        <ele>357.27</ele>
        <time>2016-03-06T13:47:09Z</time>
      </trkpt>
      <trkpt lat="43.79348" lon="3.5662">
        <ele>356.79</ele>
        <time>2016-03-06T13:47:10Z</time>
      </trkpt>
      <trkpt lat="43.79357" lon="3.56622">
        <ele>355.83</ele>
        <time>2016-03-06T13:47:11Z</time>
      </trkpt>
      <trkpt lat="43.79366" lon="3.56626">
        <ele>355.34</ele>
        <time>2016-03-06T13:47:12Z</time>
      </trkpt>
      <trkpt lat="43.79374" lon="3.56634">
        <ele>354.86</ele>
        <time>2016-03-06T13:47:13Z</time>
      </trkpt>
      <trkpt lat="43.79399" lon="3.56667">
        <ele>353.9</ele>
        <time>2016-03-06T13:47:17Z</time>
      </trkpt>
      <trkpt lat="43.79402" lon="3.56677">
        <ele>353.9</ele>
        <time>2016-03-06T13:47:18Z</time>
      </trkpt>
      <trkpt lat="43.79403" lon="3.56687">
        <ele>354.38</ele>
        <time>2016-03-06T13:47:19Z</time>
      </trkpt>
      <trkpt lat="43.79406" lon="3.56697">
        <ele>354.86</ele>
        <time>2016-03-06T13:47:20Z</time>
      </trkpt>
      <trkpt lat="43.79411" lon="3.56705">
        <ele>355.34</ele>
        <time>2016-03-06T13:47:21Z</time>
      </trkpt>
      <trkpt lat="43.79418" lon="3.56713">
        <ele>355.83</ele>
        <time>2016-03-06T13:47:22Z</time>
      </trkpt>
      <trkpt lat="43.79424" lon="3.56719">
        <ele>356.31</ele>
        <time>2016-03-06T13:47:23Z</time>
      </trkpt>
      <trkpt lat="43.7943" lon="3.56726">
        <ele>356.31</ele>
        <time>2016-03-06T13:47:24Z</time>
      </trkpt>
      <trkpt lat="43.79435" lon="3.56736">
        <ele>356.79</ele>
        <time>2016-03-06T13:47:25Z</time>
      </trkpt>
      <trkpt lat="43.7944" lon="3.56749">
        <ele>357.27</ele>
        <time>2016-03-06T13:47:26Z</time>
      </trkpt>
      <trkpt lat="43.79456" lon="3.568">
        <ele>360.15</ele>
        <time>2016-03-06T13:47:30Z</time>
      </trkpt>
      <trkpt lat="43.79457" lon="3.56811">
        <ele>360.63</ele>
        <time>2016-03-06T13:47:31Z</time>
      </trkpt>
      <trkpt lat="43.79456" lon="3.56821">
        <ele>361.59</ele>
        <time>2016-03-06T13:47:32Z</time>
      </trkpt>
      <trkpt lat="43.79452" lon="3.56829">
        <ele>362.07</ele>
        <time>2016-03-06T13:47:33Z</time>
      </trkpt>
      <trkpt lat="43.79446" lon="3.56836">
        <ele>363.04</ele>
        <time>2016-03-06T13:47:34Z</time>
      </trkpt>
      <trkpt lat="43.79441" lon="3.56844">
        <ele>363.04</ele>
        <time>2016-03-06T13:47:35Z</time>
      </trkpt>
      <trkpt lat="43.79438" lon="3.56854">
        <ele>363.52</ele>
        <time>2016-03-06T13:47:36Z</time>
      </trkpt>
      <trkpt lat="43.79435" lon="3.56865">
        <ele>364</ele>
        <time>2016-03-06T13:47:37Z</time>
      </trkpt>
      <trkpt lat="43.79434" lon="3.56877">
        <ele>364.96</ele>
        <time>2016-03-06T13:47:38Z</time>
      </trkpt>
      <trkpt lat="43.79434" lon="3.56889">
        <ele>364.96</ele>
        <time>2016-03-06T13:47:39Z</time>
      </trkpt>
      <trkpt lat="43.79436" lon="3.56902">
        <ele>365.44</ele>
        <time>2016-03-06T13:47:40Z</time>
      </trkpt>
      <trkpt lat="43.79439" lon="3.56915">
        <ele>365.92</ele>
        <time>2016-03-06T13:47:41Z</time>
      </trkpt>
      <trkpt lat="43.79443" lon="3.56928">
        <ele>366.4</ele>
        <time>2016-03-06T13:47:42Z</time>
      </trkpt>
      <trkpt lat="43.79448" lon="3.5694">
        <ele>366.4</ele>
        <time>2016-03-06T13:47:43Z</time>
      </trkpt>
      <trkpt lat="43.79469" lon="3.57043">
        <ele>366.88</ele>
        <time>2016-03-06T13:47:51Z</time>
      </trkpt>
      <trkpt lat="43.79471" lon="3.57051">
        <ele>366.88</ele>
        <time>2016-03-06T13:47:52Z</time>
      </trkpt>
      <trkpt lat="43.79475" lon="3.57057">
        <ele>366.88</ele>
        <time>2016-03-06T13:47:53Z</time>
      </trkpt>
      <trkpt lat="43.7948" lon="3.57061">
        <ele>366.4</ele>
        <time>2016-03-06T13:47:54Z</time>
      </trkpt>
      <trkpt lat="43.79485" lon="3.57057">
        <ele>366.4</ele>
        <time>2016-03-06T13:47:55Z</time>
      </trkpt>
      <trkpt lat="43.7949" lon="3.57052">
        <ele>365.92</ele>
        <time>2016-03-06T13:47:56Z</time>
      </trkpt>
      <trkpt lat="43.79492" lon="3.57044">
        <ele>365.92</ele>
        <time>2016-03-06T13:47:57Z</time>
      </trkpt>
      <trkpt lat="43.79493" lon="3.57037">
        <ele>365.92</ele>
        <time>2016-03-06T13:47:58Z</time>
      </trkpt>
      <trkpt lat="43.79492" lon="3.57028">
        <ele>365.44</ele>
        <time>2016-03-06T13:47:59Z</time>
      </trkpt>
      <trkpt lat="43.79492" lon="3.57018">
        <ele>365.44</ele>
        <time>2016-03-06T13:48:00Z</time>
      </trkpt>
      <trkpt lat="43.79492" lon="3.57007">
        <ele>364.96</ele>
        <time>2016-03-06T13:48:01Z</time>
      </trkpt>
      <trkpt lat="43.79494" lon="3.56996">
        <ele>364.48</ele>
        <time>2016-03-06T13:48:02Z</time>
      </trkpt>
      <trkpt lat="43.79497" lon="3.56987">
        <ele>364.48</ele>
        <time>2016-03-06T13:48:03Z</time>
      </trkpt>
      <trkpt lat="43.79502" lon="3.56981">
        <ele>364</ele>
        <time>2016-03-06T13:48:04Z</time>
      </trkpt>
      <trkpt lat="43.79508" lon="3.56979">
        <ele>363.52</ele>
        <time>2016-03-06T13:48:05Z</time>
      </trkpt>
      <trkpt lat="43.79515" lon="3.56981">
        <ele>363.52</ele>
        <time>2016-03-06T13:48:06Z</time>
      </trkpt>
      <trkpt lat="43.79522" lon="3.56985">
        <ele>363.52</ele>
        <time>2016-03-06T13:48:07Z</time>
      </trkpt>
      <trkpt lat="43.79528" lon="3.56991">
        <ele>363.04</ele>
        <time>2016-03-06T13:48:08Z</time>
      </trkpt>
      <trkpt lat="43.79535" lon="3.56998">
        <ele>363.04</ele>
        <time>2016-03-06T13:48:09Z</time>
      </trkpt>
      <trkpt lat="43.79557" lon="3.57018">
        <ele>361.59</ele>
        <time>2016-03-06T13:48:12Z</time>
      </trkpt>
      <trkpt lat="43.79565" lon="3.57021">
        <ele>361.11</ele>
        <time>2016-03-06T13:48:13Z</time>
      </trkpt>
      <trkpt lat="43.79574" lon="3.57019">
        <ele>360.63</ele>
        <time>2016-03-06T13:48:14Z</time>
      </trkpt>
      <trkpt lat="43.79584" lon="3.57016">
        <ele>360.15</ele>
        <time>2016-03-06T13:48:15Z</time>
      </trkpt>
      <trkpt lat="43.79593" lon="3.57012">
        <ele>359.67</ele>
        <time>2016-03-06T13:48:16Z</time>
      </trkpt>
      <trkpt lat="43.79603" lon="3.5701">
        <ele>359.19</ele>
        <time>2016-03-06T13:48:17Z</time>
      </trkpt>
      <trkpt lat="43.79613" lon="3.57011">
        <ele>358.23</ele>
        <time>2016-03-06T13:48:18Z</time>
      </trkpt>
      <trkpt lat="43.79622" lon="3.57014">
        <ele>357.75</ele>
        <time>2016-03-06T13:48:19Z</time>
      </trkpt>
      <trkpt lat="43.79631" lon="3.57021">
        <ele>357.27</ele>
        <time>2016-03-06T13:48:20Z</time>
      </trkpt>
      <trkpt lat="43.79641" lon="3.57029">
        <ele>356.31</ele>
        <time>2016-03-06T13:48:21Z</time>
      </trkpt>
      <trkpt lat="43.7965" lon="3.57038">
        <ele>355.83</ele>
        <time>2016-03-06T13:48:22Z</time>
      </trkpt>
      <trkpt lat="43.79746" lon="3.57157">
        <ele>346.21</ele>
        <time>2016-03-06T13:48:32Z</time>
      </trkpt>
      <trkpt lat="43.79794" lon="3.57221">
        <ele>339.96</ele>
        <time>2016-03-06T13:48:37Z</time>
      </trkpt>
      <trkpt lat="43.79801" lon="3.57235">
        <ele>339</ele>
        <time>2016-03-06T13:48:38Z</time>
      </trkpt>
      <trkpt lat="43.79823" lon="3.57278">
        <ele>336.6</ele>
        <time>2016-03-06T13:48:41Z</time>
      </trkpt>
      <trkpt lat="43.79832" lon="3.5729">
        <ele>335.64</ele>
        <time>2016-03-06T13:48:42Z</time>
      </trkpt>
      <trkpt lat="43.79843" lon="3.57301">
        <ele>335.16</ele>
        <time>2016-03-06T13:48:43Z</time>
      </trkpt>
      <trkpt lat="43.79936" lon="3.57392">
        <ele>326.5</ele>
        <time>2016-03-06T13:48:51Z</time>
      </trkpt>
      <trkpt lat="43.79945" lon="3.57406">
        <ele>325.54</ele>
        <time>2016-03-06T13:48:52Z</time>
      </trkpt>
      <trkpt lat="43.79951" lon="3.57422">
        <ele>324.58</ele>
        <time>2016-03-06T13:48:53Z</time>
      </trkpt>
      <trkpt lat="43.7997" lon="3.57466">
        <ele>322.66</ele>
        <time>2016-03-06T13:48:56Z</time>
      </trkpt>
      <trkpt lat="43.79978" lon="3.57478">
        <ele>321.7</ele>
        <time>2016-03-06T13:48:57Z</time>
      </trkpt>
      <trkpt lat="43.80029" lon="3.57542">
        <ele>316.41</ele>
        <time>2016-03-06T13:49:02Z</time>
      </trkpt>
      <trkpt lat="43.80037" lon="3.57557">
        <ele>315.45</ele>
        <time>2016-03-06T13:49:03Z</time>
      </trkpt>
      <trkpt lat="43.80043" lon="3.5757">
        <ele>314.49</ele>
        <time>2016-03-06T13:49:04Z</time>
      </trkpt>
      <trkpt lat="43.80048" lon="3.57582">
        <ele>313.53</ele>
        <time>2016-03-06T13:49:05Z</time>
      </trkpt>
      <trkpt lat="43.8005" lon="3.57594">
        <ele>312.57</ele>
        <time>2016-03-06T13:49:06Z</time>
      </trkpt>
      <trkpt lat="43.80049" lon="3.57606">
        <ele>311.6</ele>
        <time>2016-03-06T13:49:07Z</time>
      </trkpt>
      <trkpt lat="43.80046" lon="3.57618">
        <ele>310.64</ele>
        <time>2016-03-06T13:49:08Z</time>
      </trkpt>
      <trkpt lat="43.80043" lon="3.57629">
        <ele>310.16</ele>
        <time>2016-03-06T13:49:09Z</time>
      </trkpt>
      <trkpt lat="43.80043" lon="3.57641">
        <ele>309.68</ele>
        <time>2016-03-06T13:49:10Z</time>
      </trkpt>
      <trkpt lat="43.80045" lon="3.57652">
        <ele>308.72</ele>
        <time>2016-03-06T13:49:11Z</time>
      </trkpt>
      <trkpt lat="43.8005" lon="3.57662">
        <ele>307.76</ele>
        <time>2016-03-06T13:49:12Z</time>
      </trkpt>
      <trkpt lat="43.80056" lon="3.57673">
        <ele>307.28</ele>
        <time>2016-03-06T13:49:13Z</time>
      </trkpt>
      <trkpt lat="43.80069" lon="3.57705">
        <ele>304.88</ele>
        <time>2016-03-06T13:49:16Z</time>
      </trkpt>
      <trkpt lat="43.80072" lon="3.57717">
        <ele>304.39</ele>
        <time>2016-03-06T13:49:17Z</time>
      </trkpt>
      <trkpt lat="43.80071" lon="3.57729">
        <ele>303.43</ele>
        <time>2016-03-06T13:49:18Z</time>
      </trkpt>
      <trkpt lat="43.80069" lon="3.57741">
        <ele>302.95</ele>
        <time>2016-03-06T13:49:19Z</time>
      </trkpt>
      <trkpt lat="43.80066" lon="3.57753">
        <ele>301.99</ele>
        <time>2016-03-06T13:49:20Z</time>
      </trkpt>
      <trkpt lat="43.80064" lon="3.57763">
        <ele>301.51</ele>
        <time>2016-03-06T13:49:21Z</time>
      </trkpt>
      <trkpt lat="43.80064" lon="3.57773">
        <ele>301.03</ele>
        <time>2016-03-06T13:49:22Z</time>
      </trkpt>
      <trkpt lat="43.80066" lon="3.57781">
        <ele>300.55</ele>
        <time>2016-03-06T13:49:23Z</time>
      </trkpt>
      <trkpt lat="43.8007" lon="3.57788">
        <ele>300.07</ele>
        <time>2016-03-06T13:49:24Z</time>
      </trkpt>
      <trkpt lat="43.80076" lon="3.57793">
        <ele>299.11</ele>
        <time>2016-03-06T13:49:25Z</time>
      </trkpt>
      <trkpt lat="43.80083" lon="3.57799">
        <ele>298.63</ele>
        <time>2016-03-06T13:49:26Z</time>
      </trkpt>
      <trkpt lat="43.80089" lon="3.57805">
        <ele>298.15</ele>
        <time>2016-03-06T13:49:27Z</time>
      </trkpt>
      <trkpt lat="43.80095" lon="3.57812">
        <ele>297.18</ele>
        <time>2016-03-06T13:49:28Z</time>
      </trkpt>
      <trkpt lat="43.801" lon="3.57822">
        <ele>296.7</ele>
        <time>2016-03-06T13:49:29Z</time>
      </trkpt>
      <trkpt lat="43.80105" lon="3.57833">
        <ele>295.74</ele>
        <time>2016-03-06T13:49:30Z</time>
      </trkpt>
      <trkpt lat="43.80108" lon="3.57845">
        <ele>294.78</ele>
        <time>2016-03-06T13:49:31Z</time>
      </trkpt>
      <trkpt lat="43.80112" lon="3.57856">
        <ele>293.82</ele>
        <time>2016-03-06T13:49:32Z</time>
      </trkpt>
      <trkpt lat="43.80117" lon="3.57868">
        <ele>292.86</ele>
        <time>2016-03-06T13:49:33Z</time>
      </trkpt>
      <trkpt lat="43.80123" lon="3.5788">
        <ele>291.9</ele>
        <time>2016-03-06T13:49:34Z</time>
      </trkpt>
      <trkpt lat="43.8013" lon="3.57891">
        <ele>290.94</ele>
        <time>2016-03-06T13:49:35Z</time>
      </trkpt>
      <trkpt lat="43.80139" lon="3.57901">
        <ele>290.46</ele>
        <time>2016-03-06T13:49:36Z</time>
      </trkpt>
      <trkpt lat="43.80148" lon="3.5791">
        <ele>289.49</ele>
        <time>2016-03-06T13:49:37Z</time>
      </trkpt>
      <trkpt lat="43.80158" lon="3.57919">
        <ele>288.53</ele>
        <time>2016-03-06T13:49:38Z</time>
      </trkpt>
      <trkpt lat="43.80251" lon="3.58035">
        <ele>277.96</ele>
        <time>2016-03-06T13:49:48Z</time>
      </trkpt>
      <trkpt lat="43.80324" lon="3.58136">
        <ele>269.79</ele>
        <time>2016-03-06T13:49:56Z</time>
      </trkpt>
      <trkpt lat="43.80333" lon="3.58143">
        <ele>268.83</ele>
        <time>2016-03-06T13:49:57Z</time>
      </trkpt>
      <trkpt lat="43.80343" lon="3.58147">
        <ele>267.86</ele>
        <time>2016-03-06T13:49:58Z</time>
      </trkpt>
      <trkpt lat="43.80354" lon="3.58149">
        <ele>266.9</ele>
        <time>2016-03-06T13:49:59Z</time>
      </trkpt>
      <trkpt lat="43.80364" lon="3.5815">
        <ele>265.94</ele>
        <time>2016-03-06T13:50:00Z</time>
      </trkpt>
      <trkpt lat="43.804" lon="3.58153">
        <ele>263.06</ele>
        <time>2016-03-06T13:50:05Z</time>
      </trkpt>
      <trkpt lat="43.80404" lon="3.5815">
        <ele>262.58</ele>
        <time>2016-03-06T13:50:06Z</time>
      </trkpt>
      <trkpt lat="43.80409" lon="3.58145">
        <ele>262.1</ele>
        <time>2016-03-06T13:50:07Z</time>
      </trkpt>
      <trkpt lat="43.80412" lon="3.58138">
        <ele>262.1</ele>
        <time>2016-03-06T13:50:08Z</time>
      </trkpt>
      <trkpt lat="43.80414" lon="3.58129">
        <ele>261.14</ele>
        <time>2016-03-06T13:50:09Z</time>
      </trkpt>
      <trkpt lat="43.80413" lon="3.58119">
        <ele>261.14</ele>
        <time>2016-03-06T13:50:10Z</time>
      </trkpt>
      <trkpt lat="43.80409" lon="3.58109">
        <ele>260.17</ele>
        <time>2016-03-06T13:50:11Z</time>
      </trkpt>
      <trkpt lat="43.80403" lon="3.58102">
        <ele>259.69</ele>
        <time>2016-03-06T13:50:12Z</time>
      </trkpt>
      <trkpt lat="43.80395" lon="3.58097">
        <ele>258.73</ele>
        <time>2016-03-06T13:50:13Z</time>
      </trkpt>
      <trkpt lat="43.80387" lon="3.58093">
        <ele>258.25</ele>
        <time>2016-03-06T13:50:14Z</time>
      </trkpt>
      <trkpt lat="43.8038" lon="3.58087">
        <ele>257.29</ele>
        <time>2016-03-06T13:50:15Z</time>
      </trkpt>
      <trkpt lat="43.80373" lon="3.58076">
        <ele>256.33</ele>
        <time>2016-03-06T13:50:16Z</time>
      </trkpt>
      <trkpt lat="43.80371" lon="3.58064">
        <ele>255.85</ele>
        <time>2016-03-06T13:50:17Z</time>
      </trkpt>
      <trkpt lat="43.80373" lon="3.58052">
        <ele>255.37</ele>
        <time>2016-03-06T13:50:18Z</time>
      </trkpt>
      <trkpt lat="43.80378" lon="3.58046">
        <ele>254.41</ele>
        <time>2016-03-06T13:50:19Z</time>
      </trkpt>
      <trkpt lat="43.80386" lon="3.58045">
        <ele>253.93</ele>
        <time>2016-03-06T13:50:20Z</time>
      </trkpt>
      <trkpt lat="43.80398" lon="3.58051">
        <ele>252.96</ele>
        <time>2016-03-06T13:50:21Z</time>
      </trkpt>
      <trkpt lat="43.80407" lon="3.58063">
        <ele>252</ele>
        <time>2016-03-06T13:50:22Z</time>
      </trkpt>
      <trkpt lat="43.80416" lon="3.58077">
        <ele>251.52</ele>
        <time>2016-03-06T13:50:23Z</time>
      </trkpt>
      <trkpt lat="43.80425" lon="3.58094">
        <ele>250.08</ele>
        <time>2016-03-06T13:50:24Z</time>
      </trkpt>
      <trkpt lat="43.80516" lon="3.58224">
        <ele>239.99</ele>
        <time>2016-03-06T13:50:32Z</time>
      </trkpt>
      <trkpt lat="43.80552" lon="3.58277">
        <ele>235.18</ele>
        <time>2016-03-06T13:50:36Z</time>
      </trkpt>
      <trkpt lat="43.80556" lon="3.58293">
        <ele>233.26</ele>
        <time>2016-03-06T13:50:37Z</time>
      </trkpt>
      <trkpt lat="43.80558" lon="3.5831">
        <ele>231.33</ele>
        <time>2016-03-06T13:50:38Z</time>
      </trkpt>
      <trkpt lat="43.80558" lon="3.5833">
        <ele>229.41</ele>
        <time>2016-03-06T13:50:39Z</time>
      </trkpt>
      <trkpt lat="43.80556" lon="3.5835">
        <ele>227.01</ele>
        <time>2016-03-06T13:50:40Z</time>
      </trkpt>
      <trkpt lat="43.80553" lon="3.58369">
        <ele>225.57</ele>
        <time>2016-03-06T13:50:41Z</time>
      </trkpt>
      <trkpt lat="43.8055" lon="3.58389">
        <ele>223.64</ele>
        <time>2016-03-06T13:50:42Z</time>
      </trkpt>
      <trkpt lat="43.80548" lon="3.58408">
        <ele>221.72</ele>
        <time>2016-03-06T13:50:43Z</time>
      </trkpt>
      <trkpt lat="43.80548" lon="3.58427">
        <ele>220.28</ele>
        <time>2016-03-06T13:50:44Z</time>
      </trkpt>
      <trkpt lat="43.80552" lon="3.58445">
        <ele>218.84</ele>
        <time>2016-03-06T13:50:45Z</time>
      </trkpt>
      <trkpt lat="43.80559" lon="3.58462">
        <ele>217.4</ele>
        <time>2016-03-06T13:50:46Z</time>
      </trkpt>
      <trkpt lat="43.80571" lon="3.58478">
        <ele>216.43</ele>
        <time>2016-03-06T13:50:47Z</time>
      </trkpt>
      <trkpt lat="43.80584" lon="3.58492">
        <ele>215.95</ele>
        <time>2016-03-06T13:50:48Z</time>
      </trkpt>
      <trkpt lat="43.80595" lon="3.58504">
        <ele>215.47</ele>
        <time>2016-03-06T13:50:49Z</time>
      </trkpt>
      <trkpt lat="43.80646" lon="3.58553">
        <ele>215.95</ele>
        <time>2016-03-06T13:50:55Z</time>
      </trkpt>
      <trkpt lat="43.80664" lon="3.58569">
        <ele>215.95</ele>
        <time>2016-03-06T13:50:59Z</time>
      </trkpt>
      <trkpt lat="43.8071" lon="3.586">
        <ele>213.07</ele>
        <time>2016-03-06T13:51:04Z</time>
      </trkpt>
      <trkpt lat="43.80723" lon="3.58607">
        <ele>212.59</ele>
        <time>2016-03-06T13:51:05Z</time>
      </trkpt>
      <trkpt lat="43.80851" lon="3.58696">
        <ele>202.01</ele>
        <time>2016-03-06T13:51:16Z</time>
      </trkpt>
      <trkpt lat="43.80881" lon="3.58727">
        <ele>199.13</ele>
        <time>2016-03-06T13:51:19Z</time>
      </trkpt>
      <trkpt lat="43.80888" lon="3.5874">
        <ele>198.65</ele>
        <time>2016-03-06T13:51:20Z</time>
      </trkpt>
      <trkpt lat="43.80894" lon="3.58755">
        <ele>197.69</ele>
        <time>2016-03-06T13:51:21Z</time>
      </trkpt>
      <trkpt lat="43.80924" lon="3.58934">
        <ele>187.59</ele>
        <time>2016-03-06T13:51:31Z</time>
      </trkpt>
      <trkpt lat="43.80926" lon="3.5895">
        <ele>186.63</ele>
        <time>2016-03-06T13:51:32Z</time>
      </trkpt>
      <trkpt lat="43.80929" lon="3.58965">
        <ele>185.67</ele>
        <time>2016-03-06T13:51:33Z</time>
      </trkpt>
      <trkpt lat="43.80935" lon="3.58979">
        <ele>184.71</ele>
        <time>2016-03-06T13:51:34Z</time>
      </trkpt>
      <trkpt lat="43.80943" lon="3.58992">
        <ele>183.75</ele>
        <time>2016-03-06T13:51:35Z</time>
      </trkpt>
      <trkpt lat="43.80953" lon="3.59004">
        <ele>182.79</ele>
        <time>2016-03-06T13:51:36Z</time>
      </trkpt>
      <trkpt lat="43.80964" lon="3.59016">
        <ele>182.31</ele>
        <time>2016-03-06T13:51:37Z</time>
      </trkpt>
      <trkpt lat="43.80975" lon="3.59027">
        <ele>181.35</ele>
        <time>2016-03-06T13:51:38Z</time>
      </trkpt>
      <trkpt lat="43.80988" lon="3.59037">
        <ele>180.38</ele>
        <time>2016-03-06T13:51:39Z</time>
      </trkpt>
      <trkpt lat="43.8106" lon="3.59096">
        <ele>176.06</ele>
        <time>2016-03-06T13:51:45Z</time>
      </trkpt>
      <trkpt lat="43.8107" lon="3.5911">
        <ele>175.58</ele>
        <time>2016-03-06T13:51:46Z</time>
      </trkpt>
      <trkpt lat="43.81078" lon="3.59124">
        <ele>175.1</ele>
        <time>2016-03-06T13:51:47Z</time>
      </trkpt>
      <trkpt lat="43.81145" lon="3.5925">
        <ele>174.62</ele>
        <time>2016-03-06T13:51:56Z</time>
      </trkpt>
      <trkpt lat="43.81156" lon="3.59262">
        <ele>175.1</ele>
        <time>2016-03-06T13:51:57Z</time>
      </trkpt>
      <trkpt lat="43.8118" lon="3.59291">
        <ele>175.1</ele>
        <time>2016-03-06T13:51:59Z</time>
      </trkpt>
      <trkpt lat="43.81191" lon="3.59311">
        <ele>174.62</ele>
        <time>2016-03-06T13:52:00Z</time>
      </trkpt>
      <trkpt lat="43.812" lon="3.59334">
        <ele>174.14</ele>
        <time>2016-03-06T13:52:01Z</time>
      </trkpt>
      <trkpt lat="43.81207" lon="3.5936">
        <ele>173.66</ele>
        <time>2016-03-06T13:52:02Z</time>
      </trkpt>
      <trkpt lat="43.81212" lon="3.59388">
        <ele>173.66</ele>
        <time>2016-03-06T13:52:03Z</time>
      </trkpt>
      <trkpt lat="43.81217" lon="3.59417">
        <ele>173.66</ele>
        <time>2016-03-06T13:52:04Z</time>
      </trkpt>
      <trkpt lat="43.8124" lon="3.59583">
        <ele>173.17</ele>
        <time>2016-03-06T13:52:10Z</time>
      </trkpt>
      <trkpt lat="43.81239" lon="3.5961">
        <ele>172.69</ele>
        <time>2016-03-06T13:52:11Z</time>
      </trkpt>
      <trkpt lat="43.81239" lon="3.59719">
        <ele>170.29</ele>
        <time>2016-03-06T13:52:15Z</time>
      </trkpt>
      <trkpt lat="43.81243" lon="3.59746">
        <ele>169.81</ele>
        <time>2016-03-06T13:52:16Z</time>
      </trkpt>
      <trkpt lat="43.81283" lon="3.59983">
        <ele>166.93</ele>
        <time>2016-03-06T13:52:24Z</time>
      </trkpt>
      <trkpt lat="43.81296" lon="3.60071">
        <ele>165.96</ele>
        <time>2016-03-06T13:52:27Z</time>
      </trkpt>
      <trkpt lat="43.81351" lon="3.60298">
        <ele>166.45</ele>
        <time>2016-03-06T13:52:35Z</time>
      </trkpt>
      <trkpt lat="43.81395" lon="3.60425">
        <ele>167.41</ele>
        <time>2016-03-06T13:52:40Z</time>
      </trkpt>
      <trkpt lat="43.81399" lon="3.60449">
        <ele>167.89</ele>
        <time>2016-03-06T13:52:41Z</time>
      </trkpt>
      <trkpt lat="43.81405" lon="3.60501">
        <ele>167.89</ele>
        <time>2016-03-06T13:52:43Z</time>
      </trkpt>
      <trkpt lat="43.81411" lon="3.60528">
        <ele>168.37</ele>
        <time>2016-03-06T13:52:44Z</time>
      </trkpt>
      <trkpt lat="43.8145" lon="3.60643">
        <ele>167.89</ele>
        <time>2016-03-06T13:52:49Z</time>
      </trkpt>
      <trkpt lat="43.81463" lon="3.60658">
        <ele>167.89</ele>
        <time>2016-03-06T13:52:50Z</time>
      </trkpt>
      <trkpt lat="43.81479" lon="3.60671">
        <ele>168.37</ele>
        <time>2016-03-06T13:52:51Z</time>
      </trkpt>
      <trkpt lat="43.8151" lon="3.60696">
        <ele>168.85</ele>
        <time>2016-03-06T13:52:53Z</time>
      </trkpt>
      <trkpt lat="43.81524" lon="3.60712">
        <ele>169.33</ele>
        <time>2016-03-06T13:52:54Z</time>
      </trkpt>
      <trkpt lat="43.81549" lon="3.60747">
        <ele>170.29</ele>
        <time>2016-03-06T13:52:56Z</time>
      </trkpt>
      <trkpt lat="43.81618" lon="3.60827">
        <ele>167.89</ele>
        <time>2016-03-06T13:53:01Z</time>
      </trkpt>
      <trkpt lat="43.8163" lon="3.60848">
        <ele>166.93</ele>
        <time>2016-03-06T13:53:02Z</time>
      </trkpt>
      <trkpt lat="43.81702" lon="3.61001">
        <ele>165.48</ele>
        <time>2016-03-06T13:53:10Z</time>
      </trkpt>
      <trkpt lat="43.81755" lon="3.61097">
        <ele>165</ele>
        <time>2016-03-06T13:53:15Z</time>
      </trkpt>
      <trkpt lat="43.8177" lon="3.61114">
        <ele>165</ele>
        <time>2016-03-06T13:53:16Z</time>
      </trkpt>
      <trkpt lat="43.81786" lon="3.61129">
        <ele>164.52</ele>
        <time>2016-03-06T13:53:17Z</time>
      </trkpt>
      <trkpt lat="43.81802" lon="3.61141">
        <ele>164.04</ele>
        <time>2016-03-06T13:53:18Z</time>
      </trkpt>
      <trkpt lat="43.81819" lon="3.61151">
        <ele>164.04</ele>
        <time>2016-03-06T13:53:19Z</time>
      </trkpt>
      <trkpt lat="43.81849" lon="3.61174">
        <ele>163.56</ele>
        <time>2016-03-06T13:53:21Z</time>
      </trkpt>
      <trkpt lat="43.81862" lon="3.61191">
        <ele>164.52</ele>
        <time>2016-03-06T13:53:22Z</time>
      </trkpt>
      <trkpt lat="43.81873" lon="3.61212">
        <ele>164.04</ele>
        <time>2016-03-06T13:53:23Z</time>
      </trkpt>
      <trkpt lat="43.81882" lon="3.61237">
        <ele>163.56</ele>
        <time>2016-03-06T13:53:24Z</time>
      </trkpt>
      <trkpt lat="43.81891" lon="3.61264">
        <ele>163.08</ele>
        <time>2016-03-06T13:53:25Z</time>
      </trkpt>
      <trkpt lat="43.8192" lon="3.61356">
        <ele>163.08</ele>
        <time>2016-03-06T13:53:29Z</time>
      </trkpt>
      <trkpt lat="43.81922" lon="3.61376">
        <ele>163.56</ele>
        <time>2016-03-06T13:53:30Z</time>
      </trkpt>
      <trkpt lat="43.81922" lon="3.61398">
        <ele>163.56</ele>
        <time>2016-03-06T13:53:31Z</time>
      </trkpt>
      <trkpt lat="43.81927" lon="3.61539">
        <ele>165</ele>
        <time>2016-03-06T13:53:37Z</time>
      </trkpt>
      <trkpt lat="43.81934" lon="3.61551">
        <ele>164.52</ele>
        <time>2016-03-06T13:53:38Z</time>
      </trkpt>
      <trkpt lat="43.81948" lon="3.61564">
        <ele>164.04</ele>
        <time>2016-03-06T13:53:39Z</time>
      </trkpt>
      <trkpt lat="43.81963" lon="3.61573">
        <ele>164.04</ele>
        <time>2016-03-06T13:53:40Z</time>
      </trkpt>
      <trkpt lat="43.81983" lon="3.61582">
        <ele>164.04</ele>
        <time>2016-03-06T13:53:41Z</time>
      </trkpt>
      <trkpt lat="43.82002" lon="3.61589">
        <ele>164.52</ele>
        <time>2016-03-06T13:53:42Z</time>
      </trkpt>
      <trkpt lat="43.82021" lon="3.61594">
        <ele>164.04</ele>
        <time>2016-03-06T13:53:43Z</time>
      </trkpt>
      <trkpt lat="43.82039" lon="3.61597">
        <ele>163.56</ele>
        <time>2016-03-06T13:53:44Z</time>
      </trkpt>
      <trkpt lat="43.82056" lon="3.61596">
        <ele>164.04</ele>
        <time>2016-03-06T13:53:45Z</time>
      </trkpt>
      <trkpt lat="43.82072" lon="3.61592">
        <ele>164.04</ele>
        <time>2016-03-06T13:53:46Z</time>
      </trkpt>
      <trkpt lat="43.82088" lon="3.61587">
        <ele>164.04</ele>
        <time>2016-03-06T13:53:47Z</time>
      </trkpt>
      <trkpt lat="43.82101" lon="3.61582">
        <ele>163.56</ele>
        <time>2016-03-06T13:53:48Z</time>
      </trkpt>
      <trkpt lat="43.82113" lon="3.61581">
        <ele>163.56</ele>
        <time>2016-03-06T13:53:49Z</time>
      </trkpt>
      <trkpt lat="43.82125" lon="3.61586">
        <ele>163.08</ele>
        <time>2016-03-06T13:53:50Z</time>
      </trkpt>
      <trkpt lat="43.82137" lon="3.61598">
        <ele>162.6</ele>
        <time>2016-03-06T13:53:51Z</time>
      </trkpt>
      <trkpt lat="43.82148" lon="3.61616">
        <ele>162.6</ele>
        <time>2016-03-06T13:53:52Z</time>
      </trkpt>
      <trkpt lat="43.82159" lon="3.61637">
        <ele>162.6</ele>
        <time>2016-03-06T13:53:53Z</time>
      </trkpt>
      <trkpt lat="43.8217" lon="3.61659">
        <ele>162.6</ele>
        <time>2016-03-06T13:53:54Z</time>
      </trkpt>
      <trkpt lat="43.82225" lon="3.61787">
        <ele>163.08</ele>
        <time>2016-03-06T13:54:00Z</time>
      </trkpt>
      <trkpt lat="43.8224" lon="3.61821">
        <ele>162.6</ele>
        <time>2016-03-06T13:54:02Z</time>
      </trkpt>
      <trkpt lat="43.82244" lon="3.61838">
        <ele>162.6</ele>
        <time>2016-03-06T13:54:03Z</time>
      </trkpt>
      <trkpt lat="43.82252" lon="3.61868">
        <ele>163.08</ele>
        <time>2016-03-06T13:54:05Z</time>
      </trkpt>
      <trkpt lat="43.82257" lon="3.61879">
        <ele>163.08</ele>
        <time>2016-03-06T13:54:06Z</time>
      </trkpt>
      <trkpt lat="43.82265" lon="3.61887">
        <ele>162.6</ele>
        <time>2016-03-06T13:54:07Z</time>
      </trkpt>
      <trkpt lat="43.82274" lon="3.61893">
        <ele>162.6</ele>
        <time>2016-03-06T13:54:08Z</time>
      </trkpt>
      <trkpt lat="43.82285" lon="3.61897">
        <ele>162.12</ele>
        <time>2016-03-06T13:54:09Z</time>
      </trkpt>
      <trkpt lat="43.82295" lon="3.619">
        <ele>161.64</ele>
        <time>2016-03-06T13:54:10Z</time>
      </trkpt>
      <trkpt lat="43.8233" lon="3.61908">
        <ele>160.68</ele>
        <time>2016-03-06T13:54:13Z</time>
      </trkpt>
      <trkpt lat="43.82344" lon="3.61906">
        <ele>160.68</ele>
        <time>2016-03-06T13:54:14Z</time>
      </trkpt>
      <trkpt lat="43.82356" lon="3.61903">
        <ele>160.2</ele>
        <time>2016-03-06T13:54:15Z</time>
      </trkpt>
      <trkpt lat="43.8242" lon="3.61882">
        <ele>159.24</ele>
        <time>2016-03-06T13:54:20Z</time>
      </trkpt>
      <trkpt lat="43.8243" lon="3.61875">
        <ele>159.24</ele>
        <time>2016-03-06T13:54:21Z</time>
      </trkpt>
      <trkpt lat="43.82461" lon="3.61854">
        <ele>158.75</ele>
        <time>2016-03-06T13:54:25Z</time>
      </trkpt>
      <trkpt lat="43.82466" lon="3.61855">
        <ele>158.27</ele>
        <time>2016-03-06T13:54:26Z</time>
      </trkpt>
      <trkpt lat="43.82468" lon="3.6186">
        <ele>158.27</ele>
        <time>2016-03-06T13:54:27Z</time>
      </trkpt>
      <trkpt lat="43.82467" lon="3.61865">
        <ele>159.72</ele>
        <time>2016-03-06T13:54:28Z</time>
      </trkpt>
      <trkpt lat="43.82464" lon="3.61872">
        <ele>159.72</ele>
        <time>2016-03-06T13:54:29Z</time>
      </trkpt>
      <trkpt lat="43.82456" lon="3.61878">
        <ele>160.2</ele>
        <time>2016-03-06T13:54:30Z</time>
      </trkpt>
      <trkpt lat="43.82448" lon="3.61883">
        <ele>160.2</ele>
        <time>2016-03-06T13:54:31Z</time>
      </trkpt>
      <trkpt lat="43.82439" lon="3.6189">
        <ele>159.72</ele>
        <time>2016-03-06T13:54:32Z</time>
      </trkpt>
      <trkpt lat="43.82427" lon="3.61898">
        <ele>159.24</ele>
        <time>2016-03-06T13:54:33Z</time>
      </trkpt>
      <trkpt lat="43.82413" lon="3.61905">
        <ele>160.2</ele>
        <time>2016-03-06T13:54:34Z</time>
      </trkpt>
      <trkpt lat="43.82395" lon="3.61913">
        <ele>160.68</ele>
        <time>2016-03-06T13:54:35Z</time>
      </trkpt>
      <trkpt lat="43.82376" lon="3.6192">
        <ele>160.68</ele>
        <time>2016-03-06T13:54:36Z</time>
      </trkpt>
      <trkpt lat="43.82355" lon="3.61925">
        <ele>161.64</ele>
        <time>2016-03-06T13:54:37Z</time>
      </trkpt>
      <trkpt lat="43.82332" lon="3.61931">
        <ele>162.6</ele>
        <time>2016-03-06T13:54:38Z</time>
      </trkpt>
      <trkpt lat="43.82208" lon="3.61976">
        <ele>177.02</ele>
        <time>2016-03-06T13:54:45Z</time>
      </trkpt>
      <trkpt lat="43.82196" lon="3.61978">
        <ele>178.46</ele>
        <time>2016-03-06T13:54:46Z</time>
      </trkpt>
      <trkpt lat="43.82186" lon="3.61974">
        <ele>179.42</ele>
        <time>2016-03-06T13:54:47Z</time>
      </trkpt>
      <trkpt lat="43.82178" lon="3.61963">
        <ele>180.38</ele>
        <time>2016-03-06T13:54:48Z</time>
      </trkpt>
      <trkpt lat="43.8217" lon="3.61948">
        <ele>181.35</ele>
        <time>2016-03-06T13:54:49Z</time>
      </trkpt>
      <trkpt lat="43.82164" lon="3.61933">
        <ele>182.79</ele>
        <time>2016-03-06T13:54:50Z</time>
      </trkpt>
      <trkpt lat="43.82157" lon="3.61919">
        <ele>183.75</ele>
        <time>2016-03-06T13:54:51Z</time>
      </trkpt>
      <trkpt lat="43.82147" lon="3.61909">
        <ele>184.71</ele>
        <time>2016-03-06T13:54:52Z</time>
      </trkpt>
      <trkpt lat="43.82136" lon="3.61901">
        <ele>185.67</ele>
        <time>2016-03-06T13:54:53Z</time>
      </trkpt>
      <trkpt lat="43.82123" lon="3.61896">
        <ele>186.63</ele>
        <time>2016-03-06T13:54:54Z</time>
      </trkpt>
      <trkpt lat="43.82109" lon="3.61898">
        <ele>188.08</ele>
        <time>2016-03-06T13:54:55Z</time>
      </trkpt>
      <trkpt lat="43.82094" lon="3.61905">
        <ele>189.52</ele>
        <time>2016-03-06T13:54:56Z</time>
      </trkpt>
      <trkpt lat="43.82079" lon="3.61913">
        <ele>190.48</ele>
        <time>2016-03-06T13:54:57Z</time>
      </trkpt>
      <trkpt lat="43.82063" lon="3.61923">
        <ele>192.4</ele>
        <time>2016-03-06T13:54:58Z</time>
      </trkpt>
      <trkpt lat="43.82046" lon="3.61931">
        <ele>193.84</ele>
        <time>2016-03-06T13:54:59Z</time>
      </trkpt>
      <trkpt lat="43.82028" lon="3.61936">
        <ele>195.28</ele>
        <time>2016-03-06T13:55:00Z</time>
      </trkpt>
      <trkpt lat="43.82011" lon="3.61936">
        <ele>197.21</ele>
        <time>2016-03-06T13:55:01Z</time>
      </trkpt>
      <trkpt lat="43.81995" lon="3.61935">
        <ele>198.65</ele>
        <time>2016-03-06T13:55:02Z</time>
      </trkpt>
      <trkpt lat="43.81982" lon="3.61934">
        <ele>200.09</ele>
        <time>2016-03-06T13:55:03Z</time>
      </trkpt>
      <trkpt lat="43.8197" lon="3.61935">
        <ele>201.05</ele>
        <time>2016-03-06T13:55:04Z</time>
      </trkpt>
      <trkpt lat="43.81959" lon="3.61942">
        <ele>202.01</ele>
        <time>2016-03-06T13:55:05Z</time>
      </trkpt>
      <trkpt lat="43.81948" lon="3.61952">
        <ele>202.98</ele>
        <time>2016-03-06T13:55:06Z</time>
      </trkpt>
      <trkpt lat="43.81936" lon="3.61964">
        <ele>203.94</ele>
        <time>2016-03-06T13:55:07Z</time>
      </trkpt>
      <trkpt lat="43.81922" lon="3.61972">
        <ele>204.9</ele>
        <time>2016-03-06T13:55:08Z</time>
      </trkpt>
      <trkpt lat="43.81908" lon="3.61977">
        <ele>206.34</ele>
        <time>2016-03-06T13:55:09Z</time>
      </trkpt>
      <trkpt lat="43.81895" lon="3.61982">
        <ele>207.78</ele>
        <time>2016-03-06T13:55:10Z</time>
      </trkpt>
      <trkpt lat="43.81871" lon="3.61988">
        <ele>209.7</ele>
        <time>2016-03-06T13:55:12Z</time>
      </trkpt>
      <trkpt lat="43.81859" lon="3.61987">
        <ele>210.67</ele>
        <time>2016-03-06T13:55:13Z</time>
      </trkpt>
      <trkpt lat="43.81848" lon="3.61983">
        <ele>211.63</ele>
        <time>2016-03-06T13:55:14Z</time>
      </trkpt>
      <trkpt lat="43.81839" lon="3.61976">
        <ele>212.11</ele>
        <time>2016-03-06T13:55:15Z</time>
      </trkpt>
      <trkpt lat="43.81834" lon="3.61965">
        <ele>213.55</ele>
        <time>2016-03-06T13:55:16Z</time>
      </trkpt>
      <trkpt lat="43.81832" lon="3.61953">
        <ele>214.51</ele>
        <time>2016-03-06T13:55:17Z</time>
      </trkpt>
      <trkpt lat="43.81833" lon="3.61938">
        <ele>215.95</ele>
        <time>2016-03-06T13:55:18Z</time>
      </trkpt>
      <trkpt lat="43.81841" lon="3.61926">
        <ele>216.43</ele>
        <time>2016-03-06T13:55:19Z</time>
      </trkpt>
      <trkpt lat="43.81849" lon="3.61913">
        <ele>217.4</ele>
        <time>2016-03-06T13:55:20Z</time>
      </trkpt>
      <trkpt lat="43.81857" lon="3.61899">
        <ele>218.36</ele>
        <time>2016-03-06T13:55:21Z</time>
      </trkpt>
      <trkpt lat="43.81863" lon="3.61886">
        <ele>219.8</ele>
        <time>2016-03-06T13:55:22Z</time>
      </trkpt>
      <trkpt lat="43.81866" lon="3.61873">
        <ele>220.28</ele>
        <time>2016-03-06T13:55:23Z</time>
      </trkpt>
      <trkpt lat="43.81865" lon="3.61862">
        <ele>220.76</ele>
        <time>2016-03-06T13:55:24Z</time>
      </trkpt>
      <trkpt lat="43.8186" lon="3.61853">
        <ele>221.24</ele>
        <time>2016-03-06T13:55:25Z</time>
      </trkpt>
      <trkpt lat="43.81853" lon="3.61851">
        <ele>222.68</ele>
        <time>2016-03-06T13:55:26Z</time>
      </trkpt>
      <trkpt lat="43.81843" lon="3.61853">
        <ele>224.12</ele>
        <time>2016-03-06T13:55:27Z</time>
      </trkpt>
      <trkpt lat="43.81832" lon="3.61853">
        <ele>224.12</ele>
        <time>2016-03-06T13:55:28Z</time>
      </trkpt>
      <trkpt lat="43.81818" lon="3.61851">
        <ele>225.57</ele>
        <time>2016-03-06T13:55:29Z</time>
      </trkpt>
      <trkpt lat="43.81805" lon="3.61843">
        <ele>226.53</ele>
        <time>2016-03-06T13:55:30Z</time>
      </trkpt>
      <trkpt lat="43.81799" lon="3.61828">
        <ele>228.45</ele>
        <time>2016-03-06T13:55:31Z</time>
      </trkpt>
      <trkpt lat="43.81796" lon="3.61812">
        <ele>228.93</ele>
        <time>2016-03-06T13:55:32Z</time>
      </trkpt>
      <trkpt lat="43.81793" lon="3.61794">
        <ele>230.37</ele>
        <time>2016-03-06T13:55:33Z</time>
      </trkpt>
      <trkpt lat="43.81788" lon="3.6178">
        <ele>232.3</ele>
        <time>2016-03-06T13:55:34Z</time>
      </trkpt>
      <trkpt lat="43.8178" lon="3.61771">
        <ele>233.74</ele>
        <time>2016-03-06T13:55:35Z</time>
      </trkpt>
      <trkpt lat="43.8177" lon="3.61765">
        <ele>234.7</ele>
        <time>2016-03-06T13:55:36Z</time>
      </trkpt>
      <trkpt lat="43.81757" lon="3.61759">
        <ele>236.14</ele>
        <time>2016-03-06T13:55:37Z</time>
      </trkpt>
      <trkpt lat="43.81743" lon="3.61752">
        <ele>237.1</ele>
        <time>2016-03-06T13:55:38Z</time>
      </trkpt>
      <trkpt lat="43.81722" lon="3.61738">
        <ele>239.02</ele>
        <time>2016-03-06T13:55:40Z</time>
      </trkpt>
      <trkpt lat="43.81715" lon="3.61726">
        <ele>239.99</ele>
        <time>2016-03-06T13:55:41Z</time>
      </trkpt>
      <trkpt lat="43.81712" lon="3.61712">
        <ele>240.95</ele>
        <time>2016-03-06T13:55:42Z</time>
      </trkpt>
      <trkpt lat="43.81712" lon="3.61695">
        <ele>241.91</ele>
        <time>2016-03-06T13:55:43Z</time>
      </trkpt>
      <trkpt lat="43.81715" lon="3.61676">
        <ele>242.87</ele>
        <time>2016-03-06T13:55:44Z</time>
      </trkpt>
      <trkpt lat="43.81719" lon="3.61657">
        <ele>244.31</ele>
        <time>2016-03-06T13:55:45Z</time>
      </trkpt>
      <trkpt lat="43.8172" lon="3.61638">
        <ele>245.27</ele>
        <time>2016-03-06T13:55:46Z</time>
      </trkpt>
      <trkpt lat="43.81717" lon="3.61619">
        <ele>246.23</ele>
        <time>2016-03-06T13:55:47Z</time>
      </trkpt>
      <trkpt lat="43.8171" lon="3.61601">
        <ele>247.2</ele>
        <time>2016-03-06T13:55:48Z</time>
      </trkpt>
      <trkpt lat="43.81701" lon="3.61584">
        <ele>248.64</ele>
        <time>2016-03-06T13:55:49Z</time>
      </trkpt>
      <trkpt lat="43.8169" lon="3.61571">
        <ele>250.08</ele>
        <time>2016-03-06T13:55:50Z</time>
      </trkpt>
      <trkpt lat="43.81675" lon="3.6156">
        <ele>251.52</ele>
        <time>2016-03-06T13:55:51Z</time>
      </trkpt>
      <trkpt lat="43.81661" lon="3.6155">
        <ele>252.48</ele>
        <time>2016-03-06T13:55:52Z</time>
      </trkpt>
      <trkpt lat="43.81649" lon="3.61535">
        <ele>253.93</ele>
        <time>2016-03-06T13:55:53Z</time>
      </trkpt>
      <trkpt lat="43.81637" lon="3.61518">
        <ele>254.89</ele>
        <time>2016-03-06T13:55:54Z</time>
      </trkpt>
      <trkpt lat="43.81612" lon="3.61484">
        <ele>256.81</ele>
        <time>2016-03-06T13:55:56Z</time>
      </trkpt>
      <trkpt lat="43.8159" lon="3.61459">
        <ele>259.21</ele>
        <time>2016-03-06T13:55:58Z</time>
      </trkpt>
      <trkpt lat="43.81584" lon="3.61447">
        <ele>260.65</ele>
        <time>2016-03-06T13:55:59Z</time>
      </trkpt>
      <trkpt lat="43.81582" lon="3.61432">
        <ele>261.62</ele>
        <time>2016-03-06T13:56:00Z</time>
      </trkpt>
      <trkpt lat="43.81581" lon="3.61414">
        <ele>262.58</ele>
        <time>2016-03-06T13:56:01Z</time>
      </trkpt>
      <trkpt lat="43.81581" lon="3.61396">
        <ele>263.54</ele>
        <time>2016-03-06T13:56:02Z</time>
      </trkpt>
      <trkpt lat="43.81578" lon="3.6138">
        <ele>265.46</ele>
        <time>2016-03-06T13:56:03Z</time>
      </trkpt>
      <trkpt lat="43.81573" lon="3.61369">
        <ele>266.42</ele>
        <time>2016-03-06T13:56:04Z</time>
      </trkpt>
      <trkpt lat="43.81567" lon="3.6136">
        <ele>267.38</ele>
        <time>2016-03-06T13:56:05Z</time>
      </trkpt>
      <trkpt lat="43.81561" lon="3.61354">
        <ele>267.38</ele>
        <time>2016-03-06T13:56:06Z</time>
      </trkpt>
      <trkpt lat="43.81551" lon="3.61361">
        <ele>270.75</ele>
        <time>2016-03-06T13:56:08Z</time>
      </trkpt>
      <trkpt lat="43.81551" lon="3.61371">
        <ele>271.71</ele>
        <time>2016-03-06T13:56:09Z</time>
      </trkpt>
      <trkpt lat="43.81553" lon="3.61379">
        <ele>272.19</ele>
        <time>2016-03-06T13:56:10Z</time>
      </trkpt>
      <trkpt lat="43.81559" lon="3.61386">
        <ele>273.63</ele>
        <time>2016-03-06T13:56:11Z</time>
      </trkpt>
      <trkpt lat="43.81566" lon="3.61397">
        <ele>274.59</ele>
        <time>2016-03-06T13:56:12Z</time>
      </trkpt>
      <trkpt lat="43.8157" lon="3.6141">
        <ele>275.56</ele>
        <time>2016-03-06T13:56:13Z</time>
      </trkpt>
      <trkpt lat="43.8157" lon="3.61426">
        <ele>277</ele>
        <time>2016-03-06T13:56:14Z</time>
      </trkpt>
      <trkpt lat="43.8157" lon="3.61444">
        <ele>277.96</ele>
        <time>2016-03-06T13:56:15Z</time>
      </trkpt>
      <trkpt lat="43.8157" lon="3.61462">
        <ele>279.4</ele>
        <time>2016-03-06T13:56:16Z</time>
      </trkpt>
      <trkpt lat="43.81571" lon="3.61479">
        <ele>280.36</ele>
        <time>2016-03-06T13:56:17Z</time>
      </trkpt>
      <trkpt lat="43.81573" lon="3.61494">
        <ele>281.32</ele>
        <time>2016-03-06T13:56:18Z</time>
      </trkpt>
      <trkpt lat="43.81579" lon="3.61507">
        <ele>282.77</ele>
        <time>2016-03-06T13:56:19Z</time>
      </trkpt>
      <trkpt lat="43.81588" lon="3.61516">
        <ele>283.73</ele>
        <time>2016-03-06T13:56:20Z</time>
      </trkpt>
      <trkpt lat="43.81596" lon="3.61527">
        <ele>284.21</ele>
        <time>2016-03-06T13:56:21Z</time>
      </trkpt>
      <trkpt lat="43.81601" lon="3.61539">
        <ele>284.69</ele>
        <time>2016-03-06T13:56:22Z</time>
      </trkpt>
      <trkpt lat="43.81602" lon="3.61554">
        <ele>285.65</ele>
        <time>2016-03-06T13:56:23Z</time>
      </trkpt>
      <trkpt lat="43.81603" lon="3.6157">
        <ele>287.09</ele>
        <time>2016-03-06T13:56:24Z</time>
      </trkpt>
      <trkpt lat="43.81605" lon="3.61588">
        <ele>288.53</ele>
        <time>2016-03-06T13:56:25Z</time>
      </trkpt>
      <trkpt lat="43.81608" lon="3.61603">
        <ele>289.01</ele>
        <time>2016-03-06T13:56:26Z</time>
      </trkpt>
      <trkpt lat="43.81614" lon="3.61614">
        <ele>289.49</ele>
        <time>2016-03-06T13:56:27Z</time>
      </trkpt>
      <trkpt lat="43.81621" lon="3.61625">
        <ele>290.94</ele>
        <time>2016-03-06T13:56:28Z</time>
      </trkpt>
      <trkpt lat="43.8163" lon="3.61637">
        <ele>291.42</ele>
        <time>2016-03-06T13:56:29Z</time>
      </trkpt>
      <trkpt lat="43.81636" lon="3.61652">
        <ele>292.86</ele>
        <time>2016-03-06T13:56:30Z</time>
      </trkpt>
      <trkpt lat="43.8164" lon="3.61668">
        <ele>293.34</ele>
        <time>2016-03-06T13:56:31Z</time>
      </trkpt>
      <trkpt lat="43.8164" lon="3.61684">
        <ele>294.3</ele>
        <time>2016-03-06T13:56:32Z</time>
      </trkpt>
      <trkpt lat="43.81639" lon="3.617">
        <ele>295.26</ele>
        <time>2016-03-06T13:56:33Z</time>
      </trkpt>
      <trkpt lat="43.81635" lon="3.61713">
        <ele>296.22</ele>
        <time>2016-03-06T13:56:34Z</time>
      </trkpt>
      <trkpt lat="43.81628" lon="3.61724">
        <ele>297.18</ele>
        <time>2016-03-06T13:56:35Z</time>
      </trkpt>
      <trkpt lat="43.81623" lon="3.61735">
        <ele>297.67</ele>
        <time>2016-03-06T13:56:36Z</time>
      </trkpt>
      <trkpt lat="43.81622" lon="3.6175">
        <ele>298.63</ele>
        <time>2016-03-06T13:56:37Z</time>
      </trkpt>
      <trkpt lat="43.81623" lon="3.61767">
        <ele>299.59</ele>
        <time>2016-03-06T13:56:38Z</time>
      </trkpt>
      <trkpt lat="43.81626" lon="3.61784">
        <ele>300.07</ele>
        <time>2016-03-06T13:56:39Z</time>
      </trkpt>
      <trkpt lat="43.81627" lon="3.61803">
        <ele>301.03</ele>
        <time>2016-03-06T13:56:40Z</time>
      </trkpt>
      <trkpt lat="43.81625" lon="3.61823">
        <ele>301.99</ele>
        <time>2016-03-06T13:56:41Z</time>
      </trkpt>
      <trkpt lat="43.81621" lon="3.61843">
        <ele>302.95</ele>
        <time>2016-03-06T13:56:42Z</time>
      </trkpt>
      <trkpt lat="43.81612" lon="3.61896">
        <ele>306.8</ele>
        <time>2016-03-06T13:56:45Z</time>
      </trkpt>
      <trkpt lat="43.81613" lon="3.61911">
        <ele>307.76</ele>
        <time>2016-03-06T13:56:46Z</time>
      </trkpt>
      <trkpt lat="43.81618" lon="3.61925">
        <ele>309.2</ele>
        <time>2016-03-06T13:56:47Z</time>
      </trkpt>
      <trkpt lat="43.81627" lon="3.61939">
        <ele>310.16</ele>
        <time>2016-03-06T13:56:48Z</time>
      </trkpt>
      <trkpt lat="43.81633" lon="3.61954">
        <ele>311.12</ele>
        <time>2016-03-06T13:56:49Z</time>
      </trkpt>
      <trkpt lat="43.81637" lon="3.6197">
        <ele>312.57</ele>
        <time>2016-03-06T13:56:50Z</time>
      </trkpt>
      <trkpt lat="43.81637" lon="3.61987">
        <ele>314.01</ele>
        <time>2016-03-06T13:56:51Z</time>
      </trkpt>
      <trkpt lat="43.81635" lon="3.62007">
        <ele>314.97</ele>
        <time>2016-03-06T13:56:52Z</time>
      </trkpt>
      <trkpt lat="43.8163" lon="3.62029">
        <ele>315.93</ele>
        <time>2016-03-06T13:56:53Z</time>
      </trkpt>
      <trkpt lat="43.81624" lon="3.62053">
        <ele>317.37</ele>
        <time>2016-03-06T13:56:54Z</time>
      </trkpt>
      <trkpt lat="43.81604" lon="3.62122">
        <ele>321.22</ele>
        <time>2016-03-06T13:56:57Z</time>
      </trkpt>
      <trkpt lat="43.81595" lon="3.62144">
        <ele>321.7</ele>
        <time>2016-03-06T13:56:58Z</time>
      </trkpt>
      <trkpt lat="43.81568" lon="3.62203">
        <ele>323.14</ele>
        <time>2016-03-06T13:57:01Z</time>
      </trkpt>
      <trkpt lat="43.81563" lon="3.62225">
        <ele>323.62</ele>
        <time>2016-03-06T13:57:02Z</time>
      </trkpt>
      <trkpt lat="43.8156" lon="3.62251">
        <ele>323.14</ele>
        <time>2016-03-06T13:57:03Z</time>
      </trkpt>
      <trkpt lat="43.81547" lon="3.62493">
        <ele>316.89</ele>
        <time>2016-03-06T13:57:12Z</time>
      </trkpt>
      <trkpt lat="43.8155" lon="3.6252">
        <ele>316.41</ele>
        <time>2016-03-06T13:57:13Z</time>
      </trkpt>
      <trkpt lat="43.81555" lon="3.62547">
        <ele>315.93</ele>
        <time>2016-03-06T13:57:14Z</time>
      </trkpt>
      <trkpt lat="43.81598" lon="3.62746">
        <ele>310.64</ele>
        <time>2016-03-06T13:57:20Z</time>
      </trkpt>
      <trkpt lat="43.81652" lon="3.62998">
        <ele>304.39</ele>
        <time>2016-03-06T13:57:25Z</time>
      </trkpt>
      <trkpt lat="43.81727" lon="3.63358">
        <ele>297.67</ele>
        <time>2016-03-06T13:57:32Z</time>
      </trkpt>
      <trkpt lat="43.81759" lon="3.63539">
        <ele>295.74</ele>
        <time>2016-03-06T13:57:37Z</time>
      </trkpt>
      <trkpt lat="43.81763" lon="3.63606">
        <ele>295.26</ele>
        <time>2016-03-06T13:57:40Z</time>
      </trkpt>
      <trkpt lat="43.8176" lon="3.63631">
        <ele>294.78</ele>
        <time>2016-03-06T13:57:41Z</time>
      </trkpt>
      <trkpt lat="43.81721" lon="3.63835">
        <ele>292.38</ele>
        <time>2016-03-06T13:57:48Z</time>
      </trkpt>
      <trkpt lat="43.81672" lon="3.64018">
        <ele>289.49</ele>
        <time>2016-03-06T13:57:56Z</time>
      </trkpt>
      <trkpt lat="43.81646" lon="3.64096">
        <ele>287.57</ele>
        <time>2016-03-06T13:58:00Z</time>
      </trkpt>
      <trkpt lat="43.81636" lon="3.64113">
        <ele>287.09</ele>
        <time>2016-03-06T13:58:01Z</time>
      </trkpt>
      <trkpt lat="43.81622" lon="3.64128">
        <ele>286.61</ele>
        <time>2016-03-06T13:58:02Z</time>
      </trkpt>
      <trkpt lat="43.81606" lon="3.6414">
        <ele>286.13</ele>
        <time>2016-03-06T13:58:03Z</time>
      </trkpt>
      <trkpt lat="43.81588" lon="3.64151">
        <ele>285.65</ele>
        <time>2016-03-06T13:58:04Z</time>
      </trkpt>
      <trkpt lat="43.81415" lon="3.64252">
        <ele>279.88</ele>
        <time>2016-03-06T13:58:14Z</time>
      </trkpt>
      <trkpt lat="43.81397" lon="3.64251">
        <ele>278.92</ele>
        <time>2016-03-06T13:58:15Z</time>
      </trkpt>
      <trkpt lat="43.81379" lon="3.64249">
        <ele>277.96</ele>
        <time>2016-03-06T13:58:16Z</time>
      </trkpt>
      <trkpt lat="43.81292" lon="3.64241">
        <ele>275.07</ele>
        <time>2016-03-06T13:58:21Z</time>
      </trkpt>
      <trkpt lat="43.81273" lon="3.64245">
        <ele>274.11</ele>
        <time>2016-03-06T13:58:22Z</time>
      </trkpt>
      <trkpt lat="43.81167" lon="3.64274">
        <ele>269.79</ele>
        <time>2016-03-06T13:58:29Z</time>
      </trkpt>
      <trkpt lat="43.8115" lon="3.64281">
        <ele>269.79</ele>
        <time>2016-03-06T13:58:31Z</time>
      </trkpt>
      <trkpt lat="43.81141" lon="3.64287">
        <ele>269.79</ele>
        <time>2016-03-06T13:58:32Z</time>
      </trkpt>
      <trkpt lat="43.81133" lon="3.64295">
        <ele>269.31</ele>
        <time>2016-03-06T13:58:33Z</time>
      </trkpt>
      <trkpt lat="43.81124" lon="3.64304">
        <ele>269.31</ele>
        <time>2016-03-06T13:58:34Z</time>
      </trkpt>
      <trkpt lat="43.81116" lon="3.64314">
        <ele>268.83</ele>
        <time>2016-03-06T13:58:35Z</time>
      </trkpt>
      <trkpt lat="43.81109" lon="3.64326">
        <ele>268.35</ele>
        <time>2016-03-06T13:58:36Z</time>
      </trkpt>
      <trkpt lat="43.81103" lon="3.64338">
        <ele>267.86</ele>
        <time>2016-03-06T13:58:37Z</time>
      </trkpt>
      <trkpt lat="43.81098" lon="3.6435">
        <ele>267.38</ele>
        <time>2016-03-06T13:58:38Z</time>
      </trkpt>
      <trkpt lat="43.8108" lon="3.64381">
        <ele>265.94</ele>
        <time>2016-03-06T13:58:41Z</time>
      </trkpt>
      <trkpt lat="43.81074" lon="3.64389">
        <ele>265.94</ele>
        <time>2016-03-06T13:58:42Z</time>
      </trkpt>
      <trkpt lat="43.81066" lon="3.64394">
        <ele>265.46</ele>
        <time>2016-03-06T13:58:43Z</time>
      </trkpt>
      <trkpt lat="43.81055" lon="3.64399">
        <ele>265.46</ele>
        <time>2016-03-06T13:58:44Z</time>
      </trkpt>
      <trkpt lat="43.81045" lon="3.64405">
        <ele>264.98</ele>
        <time>2016-03-06T13:58:45Z</time>
      </trkpt>
      <trkpt lat="43.81035" lon="3.64412">
        <ele>264.5</ele>
        <time>2016-03-06T13:58:46Z</time>
      </trkpt>
      <trkpt lat="43.81026" lon="3.64422">
        <ele>264.02</ele>
        <time>2016-03-06T13:58:47Z</time>
      </trkpt>
      <trkpt lat="43.81017" lon="3.64434">
        <ele>263.06</ele>
        <time>2016-03-06T13:58:48Z</time>
      </trkpt>
      <trkpt lat="43.80957" lon="3.64521">
        <ele>258.25</ele>
        <time>2016-03-06T13:58:54Z</time>
      </trkpt>
      <trkpt lat="43.80946" lon="3.64533">
        <ele>257.77</ele>
        <time>2016-03-06T13:58:55Z</time>
      </trkpt>
      <trkpt lat="43.80933" lon="3.64543">
        <ele>256.81</ele>
        <time>2016-03-06T13:58:56Z</time>
      </trkpt>
      <trkpt lat="43.80864" lon="3.6458">
        <ele>252.96</ele>
        <time>2016-03-06T13:59:02Z</time>
      </trkpt>
      <trkpt lat="43.80771" lon="3.64627">
        <ele>249.12</ele>
        <time>2016-03-06T13:59:08Z</time>
      </trkpt>
      <trkpt lat="43.80756" lon="3.64639">
        <ele>248.64</ele>
        <time>2016-03-06T13:59:09Z</time>
      </trkpt>
      <trkpt lat="43.80742" lon="3.64655">
        <ele>248.16</ele>
        <time>2016-03-06T13:59:10Z</time>
      </trkpt>
      <trkpt lat="43.80729" lon="3.64672">
        <ele>247.68</ele>
        <time>2016-03-06T13:59:11Z</time>
      </trkpt>
      <trkpt lat="43.80716" lon="3.6469">
        <ele>247.2</ele>
        <time>2016-03-06T13:59:12Z</time>
      </trkpt>
      <trkpt lat="43.806" lon="3.64854">
        <ele>245.27</ele>
        <time>2016-03-06T13:59:22Z</time>
      </trkpt>
      <trkpt lat="43.80592" lon="3.64862">
        <ele>245.27</ele>
        <time>2016-03-06T13:59:23Z</time>
      </trkpt>
      <trkpt lat="43.80586" lon="3.64868">
        <ele>245.27</ele>
        <time>2016-03-06T13:59:24Z</time>
      </trkpt>
      <trkpt lat="43.8058" lon="3.64873">
        <ele>245.27</ele>
        <time>2016-03-06T13:59:25Z</time>
      </trkpt>
      <trkpt lat="43.80575" lon="3.6488">
        <ele>245.27</ele>
        <time>2016-03-06T13:59:26Z</time>
      </trkpt>
      <trkpt lat="43.80572" lon="3.64889">
        <ele>245.27</ele>
        <time>2016-03-06T13:59:27Z</time>
      </trkpt>
      <trkpt lat="43.80569" lon="3.64896">
        <ele>245.27</ele>
        <time>2016-03-06T13:59:28Z</time>
      </trkpt>
      <trkpt lat="43.80566" lon="3.64903">
        <ele>245.27</ele>
        <time>2016-03-06T13:59:29Z</time>
      </trkpt>
      <trkpt lat="43.80562" lon="3.64908">
        <ele>245.27</ele>
        <time>2016-03-06T13:59:30Z</time>
      </trkpt>
      <trkpt lat="43.80559" lon="3.64913">
        <ele>245.27</ele>
        <time>2016-03-06T13:59:31Z</time>
      </trkpt>
      <trkpt lat="43.80524" lon="3.64963">
        <ele>245.27</ele>
        <time>2016-03-06T13:59:37Z</time>
      </trkpt>
      <trkpt lat="43.80502" lon="3.6499">
        <ele>245.27</ele>
        <time>2016-03-06T13:59:40Z</time>
      </trkpt>
      <trkpt lat="43.80493" lon="3.64998">
        <ele>245.27</ele>
        <time>2016-03-06T13:59:41Z</time>
      </trkpt>
      <trkpt lat="43.80445" lon="3.65036">
        <ele>244.79</ele>
        <time>2016-03-06T13:59:46Z</time>
      </trkpt>
      <trkpt lat="43.80437" lon="3.65047">
        <ele>244.31</ele>
        <time>2016-03-06T13:59:47Z</time>
      </trkpt>
      <trkpt lat="43.8043" lon="3.65059">
        <ele>244.31</ele>
        <time>2016-03-06T13:59:48Z</time>
      </trkpt>
      <trkpt lat="43.80424" lon="3.65072">
        <ele>243.83</ele>
        <time>2016-03-06T13:59:49Z</time>
      </trkpt>
      <trkpt lat="43.80419" lon="3.65086">
        <ele>243.35</ele>
        <time>2016-03-06T13:59:50Z</time>
      </trkpt>
      <trkpt lat="43.80415" lon="3.651">
        <ele>242.87</ele>
        <time>2016-03-06T13:59:51Z</time>
      </trkpt>
      <trkpt lat="43.80411" lon="3.65115">
        <ele>242.39</ele>
        <time>2016-03-06T13:59:52Z</time>
      </trkpt>
      <trkpt lat="43.8038" lon="3.65246">
        <ele>239.02</ele>
        <time>2016-03-06T14:00:01Z</time>
      </trkpt>
      <trkpt lat="43.80371" lon="3.65279">
        <ele>238.54</ele>
        <time>2016-03-06T14:00:03Z</time>
      </trkpt>
      <trkpt lat="43.80365" lon="3.65295">
        <ele>238.06</ele>
        <time>2016-03-06T14:00:04Z</time>
      </trkpt>
      <trkpt lat="43.80357" lon="3.6531">
        <ele>238.06</ele>
        <time>2016-03-06T14:00:05Z</time>
      </trkpt>
      <trkpt lat="43.80348" lon="3.65324">
        <ele>238.06</ele>
        <time>2016-03-06T14:00:06Z</time>
      </trkpt>
      <trkpt lat="43.80338" lon="3.65335">
        <ele>238.06</ele>
        <time>2016-03-06T14:00:07Z</time>
      </trkpt>
      <trkpt lat="43.80328" lon="3.65344">
        <ele>238.06</ele>
        <time>2016-03-06T14:00:08Z</time>
      </trkpt>
      <trkpt lat="43.80319" lon="3.65352">
        <ele>237.58</ele>
        <time>2016-03-06T14:00:09Z</time>
      </trkpt>
      <trkpt lat="43.8023" lon="3.65424">
        <ele>236.14</ele>
        <time>2016-03-06T14:00:17Z</time>
      </trkpt>
      <trkpt lat="43.80218" lon="3.65437">
        <ele>235.18</ele>
        <time>2016-03-06T14:00:18Z</time>
      </trkpt>
      <trkpt lat="43.80207" lon="3.65452">
        <ele>234.22</ele>
        <time>2016-03-06T14:00:19Z</time>
      </trkpt>
      <trkpt lat="43.80197" lon="3.65473">
        <ele>233.26</ele>
        <time>2016-03-06T14:00:20Z</time>
      </trkpt>
      <trkpt lat="43.80188" lon="3.65496">
        <ele>232.3</ele>
        <time>2016-03-06T14:00:21Z</time>
      </trkpt>
      <trkpt lat="43.8018" lon="3.65521">
        <ele>231.33</ele>
        <time>2016-03-06T14:00:22Z</time>
      </trkpt>
      <trkpt lat="43.80151" lon="3.65611">
        <ele>228.93</ele>
        <time>2016-03-06T14:00:26Z</time>
      </trkpt>
      <trkpt lat="43.80142" lon="3.65629">
        <ele>228.45</ele>
        <time>2016-03-06T14:00:27Z</time>
      </trkpt>
      <trkpt lat="43.8013" lon="3.65646">
        <ele>227.49</ele>
        <time>2016-03-06T14:00:28Z</time>
      </trkpt>
      <trkpt lat="43.80116" lon="3.65662">
        <ele>227.01</ele>
        <time>2016-03-06T14:00:29Z</time>
      </trkpt>
      <trkpt lat="43.80101" lon="3.65679">
        <ele>226.53</ele>
        <time>2016-03-06T14:00:30Z</time>
      </trkpt>
      <trkpt lat="43.79949" lon="3.65819">
        <ele>224.61</ele>
        <time>2016-03-06T14:00:39Z</time>
      </trkpt>
      <trkpt lat="43.79942" lon="3.65838">
        <ele>224.61</ele>
        <time>2016-03-06T14:00:40Z</time>
      </trkpt>
      <trkpt lat="43.79939" lon="3.65859">
        <ele>225.09</ele>
        <time>2016-03-06T14:00:41Z</time>
      </trkpt>
      <trkpt lat="43.79939" lon="3.65881">
        <ele>225.57</ele>
        <time>2016-03-06T14:00:42Z</time>
      </trkpt>
      <trkpt lat="43.79943" lon="3.65907">
        <ele>225.57</ele>
        <time>2016-03-06T14:00:43Z</time>
      </trkpt>
      <trkpt lat="43.79948" lon="3.65934">
        <ele>225.57</ele>
        <time>2016-03-06T14:00:44Z</time>
      </trkpt>
      <trkpt lat="43.79992" lon="3.66116">
        <ele>220.76</ele>
        <time>2016-03-06T14:00:51Z</time>
      </trkpt>
      <trkpt lat="43.79999" lon="3.66135">
        <ele>219.32</ele>
        <time>2016-03-06T14:00:52Z</time>
      </trkpt>
      <trkpt lat="43.80003" lon="3.66153">
        <ele>218.36</ele>
        <time>2016-03-06T14:00:53Z</time>
      </trkpt>
      <trkpt lat="43.80003" lon="3.66174">
        <ele>216.91</ele>
        <time>2016-03-06T14:00:54Z</time>
      </trkpt>
      <trkpt lat="43.8" lon="3.66194">
        <ele>215.47</ele>
        <time>2016-03-06T14:00:55Z</time>
      </trkpt>
      <trkpt lat="43.79993" lon="3.66214">
        <ele>214.03</ele>
        <time>2016-03-06T14:00:56Z</time>
      </trkpt>
      <trkpt lat="43.79981" lon="3.66231">
        <ele>212.59</ele>
        <time>2016-03-06T14:00:57Z</time>
      </trkpt>
      <trkpt lat="43.79968" lon="3.6625">
        <ele>210.67</ele>
        <time>2016-03-06T14:00:58Z</time>
      </trkpt>
      <trkpt lat="43.79955" lon="3.6627">
        <ele>208.74</ele>
        <time>2016-03-06T14:00:59Z</time>
      </trkpt>
      <trkpt lat="43.79916" lon="3.66325">
        <ele>203.46</ele>
        <time>2016-03-06T14:01:02Z</time>
      </trkpt>
      <trkpt lat="43.79903" lon="3.6634">
        <ele>202.01</ele>
        <time>2016-03-06T14:01:03Z</time>
      </trkpt>
      <trkpt lat="43.79888" lon="3.66353">
        <ele>200.57</ele>
        <time>2016-03-06T14:01:04Z</time>
      </trkpt>
      <trkpt lat="43.79873" lon="3.66364">
        <ele>199.13</ele>
        <time>2016-03-06T14:01:05Z</time>
      </trkpt>
      <trkpt lat="43.79857" lon="3.6637">
        <ele>197.69</ele>
        <time>2016-03-06T14:01:06Z</time>
      </trkpt>
      <trkpt lat="43.79839" lon="3.66377">
        <ele>195.77</ele>
        <time>2016-03-06T14:01:07Z</time>
      </trkpt>
      <trkpt lat="43.7982" lon="3.66383">
        <ele>194.32</ele>
        <time>2016-03-06T14:01:08Z</time>
      </trkpt>
      <trkpt lat="43.79642" lon="3.66434">
        <ele>177.98</ele>
        <time>2016-03-06T14:01:18Z</time>
      </trkpt>
      <trkpt lat="43.79624" lon="3.66442">
        <ele>176.06</ele>
        <time>2016-03-06T14:01:20Z</time>
      </trkpt>
      <trkpt lat="43.7962" lon="3.66456">
        <ele>173.66</ele>
        <time>2016-03-06T14:01:22Z</time>
      </trkpt>
      <trkpt lat="43.79624" lon="3.66463">
        <ele>173.17</ele>
        <time>2016-03-06T14:01:23Z</time>
      </trkpt>
      <trkpt lat="43.79632" lon="3.66465">
        <ele>172.21</ele>
        <time>2016-03-06T14:01:24Z</time>
      </trkpt>
      <trkpt lat="43.79642" lon="3.66463">
        <ele>171.73</ele>
        <time>2016-03-06T14:01:25Z</time>
      </trkpt>
      <trkpt lat="43.79654" lon="3.66458">
        <ele>170.29</ele>
        <time>2016-03-06T14:01:26Z</time>
      </trkpt>
      <trkpt lat="43.79667" lon="3.66454">
        <ele>169.33</ele>
        <time>2016-03-06T14:01:27Z</time>
      </trkpt>
      <trkpt lat="43.79682" lon="3.66455">
        <ele>167.89</ele>
        <time>2016-03-06T14:01:28Z</time>
      </trkpt>
      <trkpt lat="43.79698" lon="3.66462">
        <ele>166.93</ele>
        <time>2016-03-06T14:01:29Z</time>
      </trkpt>
      <trkpt lat="43.79713" lon="3.66472">
        <ele>165.48</ele>
        <time>2016-03-06T14:01:30Z</time>
      </trkpt>
      <trkpt lat="43.79728" lon="3.66485">
        <ele>163.56</ele>
        <time>2016-03-06T14:01:31Z</time>
      </trkpt>
      <trkpt lat="43.79743" lon="3.66496">
        <ele>162.12</ele>
        <time>2016-03-06T14:01:32Z</time>
      </trkpt>
      <trkpt lat="43.7976" lon="3.66504">
        <ele>160.2</ele>
        <time>2016-03-06T14:01:33Z</time>
      </trkpt>
      <trkpt lat="43.79844" lon="3.66532">
        <ele>152.99</ele>
        <time>2016-03-06T14:01:38Z</time>
      </trkpt>
      <trkpt lat="43.79859" lon="3.66531">
        <ele>151.54</ele>
        <time>2016-03-06T14:01:39Z</time>
      </trkpt>
      <trkpt lat="43.79885" lon="3.66526">
        <ele>148.66</ele>
        <time>2016-03-06T14:01:41Z</time>
      </trkpt>
      <trkpt lat="43.79896" lon="3.6653">
        <ele>147.7</ele>
        <time>2016-03-06T14:01:42Z</time>
      </trkpt>
      <trkpt lat="43.79903" lon="3.66539">
        <ele>147.22</ele>
        <time>2016-03-06T14:01:43Z</time>
      </trkpt>
      <trkpt lat="43.7991" lon="3.66554">
        <ele>146.26</ele>
        <time>2016-03-06T14:01:44Z</time>
      </trkpt>
      <trkpt lat="43.79917" lon="3.66567">
        <ele>145.3</ele>
        <time>2016-03-06T14:01:45Z</time>
      </trkpt>
      <trkpt lat="43.79926" lon="3.66578">
        <ele>143.85</ele>
        <time>2016-03-06T14:01:46Z</time>
      </trkpt>
      <trkpt lat="43.79936" lon="3.66584">
        <ele>142.89</ele>
        <time>2016-03-06T14:01:47Z</time>
      </trkpt>
      <trkpt lat="43.79949" lon="3.66584">
        <ele>141.93</ele>
        <time>2016-03-06T14:01:48Z</time>
      </trkpt>
      <trkpt lat="43.79963" lon="3.66582">
        <ele>140.49</ele>
        <time>2016-03-06T14:01:49Z</time>
      </trkpt>
      <trkpt lat="43.79979" lon="3.66578">
        <ele>139.53</ele>
        <time>2016-03-06T14:01:50Z</time>
      </trkpt>
      <trkpt lat="43.79998" lon="3.66573">
        <ele>138.09</ele>
        <time>2016-03-06T14:01:51Z</time>
      </trkpt>
      <trkpt lat="43.80016" lon="3.66567">
        <ele>136.64</ele>
        <time>2016-03-06T14:01:52Z</time>
      </trkpt>
      <trkpt lat="43.80033" lon="3.66558">
        <ele>135.68</ele>
        <time>2016-03-06T14:01:53Z</time>
      </trkpt>
      <trkpt lat="43.8005" lon="3.66549">
        <ele>134.24</ele>
        <time>2016-03-06T14:01:54Z</time>
      </trkpt>
      <trkpt lat="43.80068" lon="3.66541">
        <ele>132.32</ele>
        <time>2016-03-06T14:01:55Z</time>
      </trkpt>
      <trkpt lat="43.80088" lon="3.66542">
        <ele>131.36</ele>
        <time>2016-03-06T14:01:56Z</time>
      </trkpt>
      <trkpt lat="43.80199" lon="3.66512">
        <ele>123.67</ele>
        <time>2016-03-06T14:02:01Z</time>
      </trkpt>
      <trkpt lat="43.80338" lon="3.66458">
        <ele>112.13</ele>
        <time>2016-03-06T14:02:08Z</time>
      </trkpt>
      <trkpt lat="43.80455" lon="3.66406">
        <ele>103.48</ele>
        <time>2016-03-06T14:02:16Z</time>
      </trkpt>
      <trkpt lat="43.8046" lon="3.66406">
        <ele>102.52</ele>
        <time>2016-03-06T14:02:17Z</time>
      </trkpt>
      <trkpt lat="43.80465" lon="3.6641">
        <ele>103</ele>
        <time>2016-03-06T14:02:18Z</time>
      </trkpt>
      <trkpt lat="43.80468" lon="3.66418">
        <ele>103.48</ele>
        <time>2016-03-06T14:02:19Z</time>
      </trkpt>
      <trkpt lat="43.8047" lon="3.66427">
        <ele>104.44</ele>
        <time>2016-03-06T14:02:20Z</time>
      </trkpt>
      <trkpt lat="43.80473" lon="3.66438">
        <ele>105.4</ele>
        <time>2016-03-06T14:02:21Z</time>
      </trkpt>
      <trkpt lat="43.80474" lon="3.66448">
        <ele>105.88</ele>
        <time>2016-03-06T14:02:22Z</time>
      </trkpt>
      <trkpt lat="43.80492" lon="3.66528">
        <ele>107.32</ele>
        <time>2016-03-06T14:02:30Z</time>
      </trkpt>
      <trkpt lat="43.80496" lon="3.66537">
        <ele>107.32</ele>
        <time>2016-03-06T14:02:31Z</time>
      </trkpt>
      <trkpt lat="43.80503" lon="3.66543">
        <ele>107.32</ele>
        <time>2016-03-06T14:02:32Z</time>
      </trkpt>
      <trkpt lat="43.80511" lon="3.66545">
        <ele>106.84</ele>
        <time>2016-03-06T14:02:33Z</time>
      </trkpt>
      <trkpt lat="43.8052" lon="3.66544">
        <ele>107.32</ele>
        <time>2016-03-06T14:02:34Z</time>
      </trkpt>
      <trkpt lat="43.80533" lon="3.66541">
        <ele>107.32</ele>
        <time>2016-03-06T14:02:35Z</time>
      </trkpt>
      <trkpt lat="43.8064" lon="3.66546">
        <ele>111.17</ele>
        <time>2016-03-06T14:02:42Z</time>
      </trkpt>
      <trkpt lat="43.80655" lon="3.66553">
        <ele>111.65</ele>
        <time>2016-03-06T14:02:43Z</time>
      </trkpt>
      <trkpt lat="43.8067" lon="3.66563">
        <ele>112.13</ele>
        <time>2016-03-06T14:02:44Z</time>
      </trkpt>
      <trkpt lat="43.80684" lon="3.66577">
        <ele>112.61</ele>
        <time>2016-03-06T14:02:45Z</time>
      </trkpt>
      <trkpt lat="43.80753" lon="3.66675">
        <ele>117.9</ele>
        <time>2016-03-06T14:02:51Z</time>
      </trkpt>
      <trkpt lat="43.80758" lon="3.66694">
        <ele>118.86</ele>
        <time>2016-03-06T14:02:52Z</time>
      </trkpt>
      <trkpt lat="43.80758" lon="3.66719">
        <ele>119.82</ele>
        <time>2016-03-06T14:02:53Z</time>
      </trkpt>
      <trkpt lat="43.80758" lon="3.66744">
        <ele>121.26</ele>
        <time>2016-03-06T14:02:54Z</time>
      </trkpt>
      <trkpt lat="43.8076" lon="3.66768">
        <ele>122.22</ele>
        <time>2016-03-06T14:02:55Z</time>
      </trkpt>
      <trkpt lat="43.80761" lon="3.66789">
        <ele>123.67</ele>
        <time>2016-03-06T14:02:56Z</time>
      </trkpt>
      <trkpt lat="43.80765" lon="3.66807">
        <ele>124.63</ele>
        <time>2016-03-06T14:02:57Z</time>
      </trkpt>
      <trkpt lat="43.80769" lon="3.66825">
        <ele>125.59</ele>
        <time>2016-03-06T14:02:58Z</time>
      </trkpt>
      <trkpt lat="43.8077" lon="3.66843">
        <ele>126.55</ele>
        <time>2016-03-06T14:02:59Z</time>
      </trkpt>
      <trkpt lat="43.80769" lon="3.66858">
        <ele>127.51</ele>
        <time>2016-03-06T14:03:00Z</time>
      </trkpt>
      <trkpt lat="43.80765" lon="3.66872">
        <ele>128.95</ele>
        <time>2016-03-06T14:03:01Z</time>
      </trkpt>
      <trkpt lat="43.80756" lon="3.66884">
        <ele>129.43</ele>
        <time>2016-03-06T14:03:02Z</time>
      </trkpt>
      <trkpt lat="43.80751" lon="3.66898">
        <ele>129.92</ele>
        <time>2016-03-06T14:03:03Z</time>
      </trkpt>
      <trkpt lat="43.80745" lon="3.66914">
        <ele>130.88</ele>
        <time>2016-03-06T14:03:04Z</time>
      </trkpt>
      <trkpt lat="43.80739" lon="3.66932">
        <ele>131.84</ele>
        <time>2016-03-06T14:03:05Z</time>
      </trkpt>
      <trkpt lat="43.80736" lon="3.66954">
        <ele>132.8</ele>
        <time>2016-03-06T14:03:06Z</time>
      </trkpt>
      <trkpt lat="43.80734" lon="3.66973">
        <ele>133.28</ele>
        <time>2016-03-06T14:03:07Z</time>
      </trkpt>
      <trkpt lat="43.80736" lon="3.66993">
        <ele>134.24</ele>
        <time>2016-03-06T14:03:08Z</time>
      </trkpt>
      <trkpt lat="43.80739" lon="3.67014">
        <ele>134.72</ele>
        <time>2016-03-06T14:03:09Z</time>
      </trkpt>
      <trkpt lat="43.80746" lon="3.67036">
        <ele>135.2</ele>
        <time>2016-03-06T14:03:10Z</time>
      </trkpt>
      <trkpt lat="43.80754" lon="3.67059">
        <ele>137.13</ele>
        <time>2016-03-06T14:03:11Z</time>
      </trkpt>
      <trkpt lat="43.80775" lon="3.67142">
        <ele>140.97</ele>
        <time>2016-03-06T14:03:15Z</time>
      </trkpt>
      <trkpt lat="43.80784" lon="3.6716">
        <ele>142.89</ele>
        <time>2016-03-06T14:03:16Z</time>
      </trkpt>
      <trkpt lat="43.8079" lon="3.67178">
        <ele>143.37</ele>
        <time>2016-03-06T14:03:17Z</time>
      </trkpt>
      <trkpt lat="43.80794" lon="3.67197">
        <ele>143.37</ele>
        <time>2016-03-06T14:03:18Z</time>
      </trkpt>
      <trkpt lat="43.80797" lon="3.67216">
        <ele>144.34</ele>
        <time>2016-03-06T14:03:19Z</time>
      </trkpt>
      <trkpt lat="43.808" lon="3.6723">
        <ele>144.82</ele>
        <time>2016-03-06T14:03:20Z</time>
      </trkpt>
      <trkpt lat="43.80806" lon="3.67242">
        <ele>145.3</ele>
        <time>2016-03-06T14:03:21Z</time>
      </trkpt>
      <trkpt lat="43.80813" lon="3.67255">
        <ele>145.78</ele>
        <time>2016-03-06T14:03:22Z</time>
      </trkpt>
      <trkpt lat="43.80818" lon="3.67269">
        <ele>146.26</ele>
        <time>2016-03-06T14:03:23Z</time>
      </trkpt>
      <trkpt lat="43.8082" lon="3.67285">
        <ele>146.74</ele>
        <time>2016-03-06T14:03:24Z</time>
      </trkpt>
      <trkpt lat="43.8082" lon="3.673">
        <ele>147.22</ele>
        <time>2016-03-06T14:03:25Z</time>
      </trkpt>
      <trkpt lat="43.8082" lon="3.67315">
        <ele>147.22</ele>
        <time>2016-03-06T14:03:26Z</time>
      </trkpt>
      <trkpt lat="43.80822" lon="3.67329">
        <ele>147.7</ele>
        <time>2016-03-06T14:03:27Z</time>
      </trkpt>
      <trkpt lat="43.80828" lon="3.67343">
        <ele>148.18</ele>
        <time>2016-03-06T14:03:28Z</time>
      </trkpt>
      <trkpt lat="43.80837" lon="3.67356">
        <ele>148.66</ele>
        <time>2016-03-06T14:03:29Z</time>
      </trkpt>
      <trkpt lat="43.80845" lon="3.67368">
        <ele>149.14</ele>
        <time>2016-03-06T14:03:30Z</time>
      </trkpt>
      <trkpt lat="43.80853" lon="3.67377">
        <ele>148.66</ele>
        <time>2016-03-06T14:03:31Z</time>
      </trkpt>
      <trkpt lat="43.80862" lon="3.67377">
        <ele>148.66</ele>
        <time>2016-03-06T14:03:32Z</time>
      </trkpt>
      <trkpt lat="43.80873" lon="3.67372">
        <ele>149.14</ele>
        <time>2016-03-06T14:03:33Z</time>
      </trkpt>
      <trkpt lat="43.80884" lon="3.67361">
        <ele>149.14</ele>
        <time>2016-03-06T14:03:34Z</time>
      </trkpt>
      <trkpt lat="43.80894" lon="3.67352">
        <ele>150.1</ele>
        <time>2016-03-06T14:03:35Z</time>
      </trkpt>
      <trkpt lat="43.80905" lon="3.67347">
        <ele>150.58</ele>
        <time>2016-03-06T14:03:36Z</time>
      </trkpt>
      <trkpt lat="43.80919" lon="3.67346">
        <ele>150.58</ele>
        <time>2016-03-06T14:03:37Z</time>
      </trkpt>
      <trkpt lat="43.80936" lon="3.67349">
        <ele>152.03</ele>
        <time>2016-03-06T14:03:38Z</time>
      </trkpt>
      <trkpt lat="43.80955" lon="3.67355">
        <ele>152.99</ele>
        <time>2016-03-06T14:03:39Z</time>
      </trkpt>
      <trkpt lat="43.80974" lon="3.67359">
        <ele>154.43</ele>
        <time>2016-03-06T14:03:40Z</time>
      </trkpt>
      <trkpt lat="43.80992" lon="3.67362">
        <ele>155.39</ele>
        <time>2016-03-06T14:03:41Z</time>
      </trkpt>
      <trkpt lat="43.8101" lon="3.67363">
        <ele>156.35</ele>
        <time>2016-03-06T14:03:42Z</time>
      </trkpt>
      <trkpt lat="43.81027" lon="3.67362">
        <ele>157.31</ele>
        <time>2016-03-06T14:03:43Z</time>
      </trkpt>
      <trkpt lat="43.81041" lon="3.67357">
        <ele>157.79</ele>
        <time>2016-03-06T14:03:44Z</time>
      </trkpt>
      <trkpt lat="43.81055" lon="3.67348">
        <ele>158.75</ele>
        <time>2016-03-06T14:03:45Z</time>
      </trkpt>
      <trkpt lat="43.81067" lon="3.67335">
        <ele>159.72</ele>
        <time>2016-03-06T14:03:46Z</time>
      </trkpt>
      <trkpt lat="43.8108" lon="3.67325">
        <ele>160.68</ele>
        <time>2016-03-06T14:03:47Z</time>
      </trkpt>
      <trkpt lat="43.81094" lon="3.67317">
        <ele>161.16</ele>
        <time>2016-03-06T14:03:48Z</time>
      </trkpt>
      <trkpt lat="43.81109" lon="3.67315">
        <ele>162.12</ele>
        <time>2016-03-06T14:03:49Z</time>
      </trkpt>
      <trkpt lat="43.81126" lon="3.67317">
        <ele>162.6</ele>
        <time>2016-03-06T14:03:50Z</time>
      </trkpt>
      <trkpt lat="43.81142" lon="3.6732">
        <ele>164.04</ele>
        <time>2016-03-06T14:03:51Z</time>
      </trkpt>
      <trkpt lat="43.81159" lon="3.67322">
        <ele>165</ele>
        <time>2016-03-06T14:03:52Z</time>
      </trkpt>
      <trkpt lat="43.8119" lon="3.67329">
        <ele>166.93</ele>
        <time>2016-03-06T14:03:54Z</time>
      </trkpt>
      <trkpt lat="43.81207" lon="3.67339">
        <ele>167.89</ele>
        <time>2016-03-06T14:03:55Z</time>
      </trkpt>
      <trkpt lat="43.81224" lon="3.67351">
        <ele>169.33</ele>
        <time>2016-03-06T14:03:56Z</time>
      </trkpt>
      <trkpt lat="43.81241" lon="3.67364">
        <ele>170.29</ele>
        <time>2016-03-06T14:03:57Z</time>
      </trkpt>
      <trkpt lat="43.81258" lon="3.67379">
        <ele>171.25</ele>
        <time>2016-03-06T14:03:58Z</time>
      </trkpt>
      <trkpt lat="43.81283" lon="3.67407">
        <ele>173.17</ele>
        <time>2016-03-06T14:04:00Z</time>
      </trkpt>
      <trkpt lat="43.81291" lon="3.67421">
        <ele>173.66</ele>
        <time>2016-03-06T14:04:01Z</time>
      </trkpt>
      <trkpt lat="43.81296" lon="3.67439">
        <ele>174.62</ele>
        <time>2016-03-06T14:04:02Z</time>
      </trkpt>
      <trkpt lat="43.81297" lon="3.67463">
        <ele>175.1</ele>
        <time>2016-03-06T14:04:03Z</time>
      </trkpt>
      <trkpt lat="43.81297" lon="3.67487">
        <ele>176.06</ele>
        <time>2016-03-06T14:04:04Z</time>
      </trkpt>
      <trkpt lat="43.81295" lon="3.6751">
        <ele>177.02</ele>
        <time>2016-03-06T14:04:05Z</time>
      </trkpt>
      <trkpt lat="43.81291" lon="3.67531">
        <ele>177.98</ele>
        <time>2016-03-06T14:04:06Z</time>
      </trkpt>
      <trkpt lat="43.81284" lon="3.67549">
        <ele>177.98</ele>
        <time>2016-03-06T14:04:07Z</time>
      </trkpt>
      <trkpt lat="43.81275" lon="3.67568">
        <ele>178.94</ele>
        <time>2016-03-06T14:04:08Z</time>
      </trkpt>
      <trkpt lat="43.81267" lon="3.67585">
        <ele>179.42</ele>
        <time>2016-03-06T14:04:09Z</time>
      </trkpt>
      <trkpt lat="43.81257" lon="3.67616">
        <ele>180.87</ele>
        <time>2016-03-06T14:04:11Z</time>
      </trkpt>
      <trkpt lat="43.81256" lon="3.67629">
        <ele>181.35</ele>
        <time>2016-03-06T14:04:12Z</time>
      </trkpt>
      <trkpt lat="43.81261" lon="3.67638">
        <ele>181.83</ele>
        <time>2016-03-06T14:04:13Z</time>
      </trkpt>
      <trkpt lat="43.81275" lon="3.67646">
        <ele>181.83</ele>
        <time>2016-03-06T14:04:14Z</time>
      </trkpt>
      <trkpt lat="43.81289" lon="3.67654">
        <ele>182.79</ele>
        <time>2016-03-06T14:04:15Z</time>
      </trkpt>
      <trkpt lat="43.8132" lon="3.67676">
        <ele>184.71</ele>
        <time>2016-03-06T14:04:17Z</time>
      </trkpt>
      <trkpt lat="43.81335" lon="3.67689">
        <ele>185.19</ele>
        <time>2016-03-06T14:04:18Z</time>
      </trkpt>
      <trkpt lat="43.81352" lon="3.67696">
        <ele>186.15</ele>
        <time>2016-03-06T14:04:19Z</time>
      </trkpt>
      <trkpt lat="43.8137" lon="3.677">
        <ele>187.11</ele>
        <time>2016-03-06T14:04:20Z</time>
      </trkpt>
      <trkpt lat="43.81387" lon="3.67703">
        <ele>188.56</ele>
        <time>2016-03-06T14:04:21Z</time>
      </trkpt>
      <trkpt lat="43.81414" lon="3.67712">
        <ele>190.48</ele>
        <time>2016-03-06T14:04:23Z</time>
      </trkpt>
      <trkpt lat="43.81423" lon="3.67722">
        <ele>191.44</ele>
        <time>2016-03-06T14:04:24Z</time>
      </trkpt>
      <trkpt lat="43.81428" lon="3.67738">
        <ele>191.44</ele>
        <time>2016-03-06T14:04:25Z</time>
      </trkpt>
      <trkpt lat="43.81429" lon="3.6776">
        <ele>192.4</ele>
        <time>2016-03-06T14:04:26Z</time>
      </trkpt>
      <trkpt lat="43.81429" lon="3.67781">
        <ele>193.36</ele>
        <time>2016-03-06T14:04:27Z</time>
      </trkpt>
      <trkpt lat="43.8143" lon="3.67804">
        <ele>194.32</ele>
        <time>2016-03-06T14:04:28Z</time>
      </trkpt>
      <trkpt lat="43.81433" lon="3.67825">
        <ele>194.8</ele>
        <time>2016-03-06T14:04:29Z</time>
      </trkpt>
      <trkpt lat="43.81435" lon="3.67845">
        <ele>195.77</ele>
        <time>2016-03-06T14:04:30Z</time>
      </trkpt>
      <trkpt lat="43.81434" lon="3.67864">
        <ele>196.73</ele>
        <time>2016-03-06T14:04:31Z</time>
      </trkpt>
      <trkpt lat="43.81429" lon="3.67884">
        <ele>197.69</ele>
        <time>2016-03-06T14:04:32Z</time>
      </trkpt>
      <trkpt lat="43.81422" lon="3.67903">
        <ele>198.17</ele>
        <time>2016-03-06T14:04:33Z</time>
      </trkpt>
      <trkpt lat="43.81413" lon="3.67928">
        <ele>199.61</ele>
        <time>2016-03-06T14:04:34Z</time>
      </trkpt>
      <trkpt lat="43.814" lon="3.67952">
        <ele>201.05</ele>
        <time>2016-03-06T14:04:35Z</time>
      </trkpt>
      <trkpt lat="43.81387" lon="3.67974">
        <ele>202.49</ele>
        <time>2016-03-06T14:04:36Z</time>
      </trkpt>
      <trkpt lat="43.81376" lon="3.67995">
        <ele>203.46</ele>
        <time>2016-03-06T14:04:37Z</time>
      </trkpt>
      <trkpt lat="43.81368" lon="3.68018">
        <ele>204.42</ele>
        <time>2016-03-06T14:04:38Z</time>
      </trkpt>
      <trkpt lat="43.81362" lon="3.68043">
        <ele>205.38</ele>
        <time>2016-03-06T14:04:39Z</time>
      </trkpt>
      <trkpt lat="43.81354" lon="3.68068">
        <ele>206.34</ele>
        <time>2016-03-06T14:04:40Z</time>
      </trkpt>
      <trkpt lat="43.81343" lon="3.68093">
        <ele>207.3</ele>
        <time>2016-03-06T14:04:41Z</time>
      </trkpt>
      <trkpt lat="43.8133" lon="3.68116">
        <ele>208.26</ele>
        <time>2016-03-06T14:04:42Z</time>
      </trkpt>
      <trkpt lat="43.81313" lon="3.68138">
        <ele>208.74</ele>
        <time>2016-03-06T14:04:43Z</time>
      </trkpt>
      <trkpt lat="43.81298" lon="3.68161">
        <ele>209.7</ele>
        <time>2016-03-06T14:04:44Z</time>
      </trkpt>
      <trkpt lat="43.81246" lon="3.6823">
        <ele>213.07</ele>
        <time>2016-03-06T14:04:48Z</time>
      </trkpt>
      <trkpt lat="43.81231" lon="3.68238">
        <ele>214.51</ele>
        <time>2016-03-06T14:04:49Z</time>
      </trkpt>
      <trkpt lat="43.81213" lon="3.68247">
        <ele>215.47</ele>
        <time>2016-03-06T14:04:50Z</time>
      </trkpt>
      <trkpt lat="43.81192" lon="3.68253">
        <ele>215.95</ele>
        <time>2016-03-06T14:04:51Z</time>
      </trkpt>
      <trkpt lat="43.81171" lon="3.68258">
        <ele>216.91</ele>
        <time>2016-03-06T14:04:52Z</time>
      </trkpt>
      <trkpt lat="43.81152" lon="3.68262">
        <ele>217.88</ele>
        <time>2016-03-06T14:04:53Z</time>
      </trkpt>
      <trkpt lat="43.81117" lon="3.68274">
        <ele>218.84</ele>
        <time>2016-03-06T14:04:55Z</time>
      </trkpt>
      <trkpt lat="43.81102" lon="3.68285">
        <ele>219.8</ele>
        <time>2016-03-06T14:04:56Z</time>
      </trkpt>
      <trkpt lat="43.81089" lon="3.683">
        <ele>220.28</ele>
        <time>2016-03-06T14:04:57Z</time>
      </trkpt>
      <trkpt lat="43.81078" lon="3.68318">
        <ele>220.76</ele>
        <time>2016-03-06T14:04:58Z</time>
      </trkpt>
      <trkpt lat="43.81069" lon="3.6834">
        <ele>221.72</ele>
        <time>2016-03-06T14:04:59Z</time>
      </trkpt>
      <trkpt lat="43.81063" lon="3.68365">
        <ele>222.2</ele>
        <time>2016-03-06T14:05:00Z</time>
      </trkpt>
      <trkpt lat="43.8106" lon="3.6839">
        <ele>222.68</ele>
        <time>2016-03-06T14:05:01Z</time>
      </trkpt>
      <trkpt lat="43.81059" lon="3.68415">
        <ele>223.64</ele>
        <time>2016-03-06T14:05:02Z</time>
      </trkpt>
      <trkpt lat="43.81063" lon="3.68441">
        <ele>224.12</ele>
        <time>2016-03-06T14:05:03Z</time>
      </trkpt>
      <trkpt lat="43.8107" lon="3.68465">
        <ele>224.61</ele>
        <time>2016-03-06T14:05:04Z</time>
      </trkpt>
      <trkpt lat="43.81081" lon="3.68487">
        <ele>225.09</ele>
        <time>2016-03-06T14:05:05Z</time>
      </trkpt>
      <trkpt lat="43.81096" lon="3.68506">
        <ele>225.57</ele>
        <time>2016-03-06T14:05:06Z</time>
      </trkpt>
      <trkpt lat="43.81114" lon="3.6852">
        <ele>226.05</ele>
        <time>2016-03-06T14:05:07Z</time>
      </trkpt>
      <trkpt lat="43.81134" lon="3.68529">
        <ele>226.53</ele>
        <time>2016-03-06T14:05:08Z</time>
      </trkpt>
      <trkpt lat="43.81154" lon="3.68533">
        <ele>227.01</ele>
        <time>2016-03-06T14:05:09Z</time>
      </trkpt>
      <trkpt lat="43.81178" lon="3.68531">
        <ele>227.97</ele>
        <time>2016-03-06T14:05:10Z</time>
      </trkpt>
      <trkpt lat="43.81202" lon="3.68526">
        <ele>228.93</ele>
        <time>2016-03-06T14:05:11Z</time>
      </trkpt>
      <trkpt lat="43.81224" lon="3.68522">
        <ele>229.41</ele>
        <time>2016-03-06T14:05:12Z</time>
      </trkpt>
      <trkpt lat="43.81266" lon="3.68522">
        <ele>230.37</ele>
        <time>2016-03-06T14:05:14Z</time>
      </trkpt>
      <trkpt lat="43.81286" lon="3.68527">
        <ele>230.85</ele>
        <time>2016-03-06T14:05:15Z</time>
      </trkpt>
      <trkpt lat="43.81305" lon="3.68534">
        <ele>231.81</ele>
        <time>2016-03-06T14:05:16Z</time>
      </trkpt>
      <trkpt lat="43.81363" lon="3.68553">
        <ele>232.78</ele>
        <time>2016-03-06T14:05:19Z</time>
      </trkpt>
      <trkpt lat="43.81401" lon="3.68564">
        <ele>233.26</ele>
        <time>2016-03-06T14:05:21Z</time>
      </trkpt>
      <trkpt lat="43.81419" lon="3.68576">
        <ele>233.26</ele>
        <time>2016-03-06T14:05:22Z</time>
      </trkpt>
      <trkpt lat="43.81436" lon="3.68591">
        <ele>233.74</ele>
        <time>2016-03-06T14:05:23Z</time>
      </trkpt>
      <trkpt lat="43.81453" lon="3.6861">
        <ele>234.22</ele>
        <time>2016-03-06T14:05:24Z</time>
      </trkpt>
      <trkpt lat="43.81468" lon="3.68629">
        <ele>234.22</ele>
        <time>2016-03-06T14:05:25Z</time>
      </trkpt>
      <trkpt lat="43.81508" lon="3.68683">
        <ele>234.7</ele>
        <time>2016-03-06T14:05:28Z</time>
      </trkpt>
      <trkpt lat="43.81518" lon="3.68703">
        <ele>234.22</ele>
        <time>2016-03-06T14:05:29Z</time>
      </trkpt>
      <trkpt lat="43.81537" lon="3.68742">
        <ele>233.26</ele>
        <time>2016-03-06T14:05:31Z</time>
      </trkpt>
      <trkpt lat="43.8155" lon="3.68757">
        <ele>233.26</ele>
        <time>2016-03-06T14:05:32Z</time>
      </trkpt>
      <trkpt lat="43.81577" lon="3.68791">
        <ele>232.78</ele>
        <time>2016-03-06T14:05:34Z</time>
      </trkpt>
      <trkpt lat="43.81586" lon="3.68814">
        <ele>231.81</ele>
        <time>2016-03-06T14:05:35Z</time>
      </trkpt>
      <trkpt lat="43.81592" lon="3.6884">
        <ele>231.33</ele>
        <time>2016-03-06T14:05:36Z</time>
      </trkpt>
      <trkpt lat="43.81595" lon="3.68869">
        <ele>230.85</ele>
        <time>2016-03-06T14:05:37Z</time>
      </trkpt>
      <trkpt lat="43.81597" lon="3.68898">
        <ele>230.37</ele>
        <time>2016-03-06T14:05:38Z</time>
      </trkpt>
      <trkpt lat="43.8161" lon="3.69073">
        <ele>227.01</ele>
        <time>2016-03-06T14:05:45Z</time>
      </trkpt>
      <trkpt lat="43.81619" lon="3.69166">
        <ele>226.05</ele>
        <time>2016-03-06T14:05:51Z</time>
      </trkpt>
      <trkpt lat="43.8162" lon="3.69181">
        <ele>226.05</ele>
        <time>2016-03-06T14:05:52Z</time>
      </trkpt>
      <trkpt lat="43.81618" lon="3.69196">
        <ele>226.05</ele>
        <time>2016-03-06T14:05:53Z</time>
      </trkpt>
      <trkpt lat="43.81615" lon="3.6921">
        <ele>225.57</ele>
        <time>2016-03-06T14:05:54Z</time>
      </trkpt>
      <trkpt lat="43.8161" lon="3.69239">
        <ele>224.12</ele>
        <time>2016-03-06T14:05:56Z</time>
      </trkpt>
      <trkpt lat="43.8161" lon="3.69255">
        <ele>223.64</ele>
        <time>2016-03-06T14:05:57Z</time>
      </trkpt>
      <trkpt lat="43.81612" lon="3.69272">
        <ele>222.68</ele>
        <time>2016-03-06T14:05:58Z</time>
      </trkpt>
      <trkpt lat="43.81617" lon="3.69306">
        <ele>221.24</ele>
        <time>2016-03-06T14:06:00Z</time>
      </trkpt>
      <trkpt lat="43.81619" lon="3.69325">
        <ele>219.8</ele>
        <time>2016-03-06T14:06:01Z</time>
      </trkpt>
      <trkpt lat="43.81618" lon="3.69344">
        <ele>218.84</ele>
        <time>2016-03-06T14:06:02Z</time>
      </trkpt>
      <trkpt lat="43.81617" lon="3.69363">
        <ele>218.36</ele>
        <time>2016-03-06T14:06:03Z</time>
      </trkpt>
      <trkpt lat="43.81615" lon="3.6938">
        <ele>218.36</ele>
        <time>2016-03-06T14:06:04Z</time>
      </trkpt>
      <trkpt lat="43.81594" lon="3.69524">
        <ele>221.24</ele>
        <time>2016-03-06T14:06:10Z</time>
      </trkpt>
      <trkpt lat="43.81562" lon="3.6966">
        <ele>225.09</ele>
        <time>2016-03-06T14:06:16Z</time>
      </trkpt>
      <trkpt lat="43.81549" lon="3.69733">
        <ele>227.49</ele>
        <time>2016-03-06T14:06:22Z</time>
      </trkpt>
      <trkpt lat="43.81534" lon="3.69854">
        <ele>230.85</ele>
        <time>2016-03-06T14:06:27Z</time>
      </trkpt>
      <trkpt lat="43.81527" lon="3.69877">
        <ele>231.33</ele>
        <time>2016-03-06T14:06:28Z</time>
      </trkpt>
      <trkpt lat="43.81519" lon="3.69899">
        <ele>232.3</ele>
        <time>2016-03-06T14:06:29Z</time>
      </trkpt>
      <trkpt lat="43.8151" lon="3.6992">
        <ele>232.78</ele>
        <time>2016-03-06T14:06:30Z</time>
      </trkpt>
      <trkpt lat="43.81448" lon="3.70098">
        <ele>239.02</ele>
        <time>2016-03-06T14:06:37Z</time>
      </trkpt>
      <trkpt lat="43.81386" lon="3.70333">
        <ele>247.68</ele>
        <time>2016-03-06T14:06:45Z</time>
      </trkpt>
      <trkpt lat="43.81356" lon="3.70558">
        <ele>258.25</ele>
        <time>2016-03-06T14:06:52Z</time>
      </trkpt>
      <trkpt lat="43.81343" lon="3.70618">
        <ele>261.14</ele>
        <time>2016-03-06T14:06:54Z</time>
      </trkpt>
      <trkpt lat="43.81333" lon="3.70645">
        <ele>262.1</ele>
        <time>2016-03-06T14:06:55Z</time>
      </trkpt>
      <trkpt lat="43.81321" lon="3.70669">
        <ele>263.54</ele>
        <time>2016-03-06T14:06:56Z</time>
      </trkpt>
      <trkpt lat="43.81295" lon="3.70714">
        <ele>265.94</ele>
        <time>2016-03-06T14:06:58Z</time>
      </trkpt>
      <trkpt lat="43.81285" lon="3.70738">
        <ele>266.9</ele>
        <time>2016-03-06T14:06:59Z</time>
      </trkpt>
      <trkpt lat="43.81278" lon="3.70763">
        <ele>268.35</ele>
        <time>2016-03-06T14:07:00Z</time>
      </trkpt>
      <trkpt lat="43.81269" lon="3.70805">
        <ele>270.27</ele>
        <time>2016-03-06T14:07:02Z</time>
      </trkpt>
      <trkpt lat="43.81261" lon="3.70819">
        <ele>271.23</ele>
        <time>2016-03-06T14:07:03Z</time>
      </trkpt>
      <trkpt lat="43.8125" lon="3.70826">
        <ele>271.71</ele>
        <time>2016-03-06T14:07:04Z</time>
      </trkpt>
      <trkpt lat="43.81238" lon="3.70825">
        <ele>272.67</ele>
        <time>2016-03-06T14:07:05Z</time>
      </trkpt>
      <trkpt lat="43.81224" lon="3.70819">
        <ele>273.15</ele>
        <time>2016-03-06T14:07:06Z</time>
      </trkpt>
      <trkpt lat="43.81208" lon="3.70811">
        <ele>274.11</ele>
        <time>2016-03-06T14:07:07Z</time>
      </trkpt>
      <trkpt lat="43.81191" lon="3.70803">
        <ele>275.07</ele>
        <time>2016-03-06T14:07:08Z</time>
      </trkpt>
      <trkpt lat="43.81156" lon="3.70791">
        <ele>277.48</ele>
        <time>2016-03-06T14:07:10Z</time>
      </trkpt>
      <trkpt lat="43.81137" lon="3.70792">
        <ele>278.44</ele>
        <time>2016-03-06T14:07:11Z</time>
      </trkpt>
      <trkpt lat="43.81118" lon="3.70797">
        <ele>279.4</ele>
        <time>2016-03-06T14:07:12Z</time>
      </trkpt>
      <trkpt lat="43.811" lon="3.70807">
        <ele>280.36</ele>
        <time>2016-03-06T14:07:13Z</time>
      </trkpt>
      <trkpt lat="43.81083" lon="3.70823">
        <ele>281.8</ele>
        <time>2016-03-06T14:07:14Z</time>
      </trkpt>
      <trkpt lat="43.81068" lon="3.70842">
        <ele>282.77</ele>
        <time>2016-03-06T14:07:15Z</time>
      </trkpt>
      <trkpt lat="43.81052" lon="3.70863">
        <ele>283.73</ele>
        <time>2016-03-06T14:07:16Z</time>
      </trkpt>
      <trkpt lat="43.81038" lon="3.70884">
        <ele>285.17</ele>
        <time>2016-03-06T14:07:17Z</time>
      </trkpt>
      <trkpt lat="43.81014" lon="3.70925">
        <ele>287.57</ele>
        <time>2016-03-06T14:07:19Z</time>
      </trkpt>
      <trkpt lat="43.81005" lon="3.70947">
        <ele>288.53</ele>
        <time>2016-03-06T14:07:20Z</time>
      </trkpt>
      <trkpt lat="43.80992" lon="3.7099">
        <ele>290.46</ele>
        <time>2016-03-06T14:07:22Z</time>
      </trkpt>
      <trkpt lat="43.8099" lon="3.71015">
        <ele>291.42</ele>
        <time>2016-03-06T14:07:23Z</time>
      </trkpt>
      <trkpt lat="43.80989" lon="3.71043">
        <ele>292.38</ele>
        <time>2016-03-06T14:07:24Z</time>
      </trkpt>
      <trkpt lat="43.8099" lon="3.71072">
        <ele>293.34</ele>
        <time>2016-03-06T14:07:25Z</time>
      </trkpt>
      <trkpt lat="43.80992" lon="3.71101">
        <ele>294.78</ele>
        <time>2016-03-06T14:07:26Z</time>
      </trkpt>
      <trkpt lat="43.80999" lon="3.7116">
        <ele>297.18</ele>
        <time>2016-03-06T14:07:28Z</time>
      </trkpt>
      <trkpt lat="43.81005" lon="3.71187">
        <ele>298.15</ele>
        <time>2016-03-06T14:07:29Z</time>
      </trkpt>
      <trkpt lat="43.81012" lon="3.71213">
        <ele>299.11</ele>
        <time>2016-03-06T14:07:30Z</time>
      </trkpt>
      <trkpt lat="43.81019" lon="3.71236">
        <ele>300.55</ele>
        <time>2016-03-06T14:07:31Z</time>
      </trkpt>
      <trkpt lat="43.81029" lon="3.71258">
        <ele>301.99</ele>
        <time>2016-03-06T14:07:32Z</time>
      </trkpt>
      <trkpt lat="43.8104" lon="3.71279">
        <ele>302.95</ele>
        <time>2016-03-06T14:07:33Z</time>
      </trkpt>
      <trkpt lat="43.81056" lon="3.71294">
        <ele>303.91</ele>
        <time>2016-03-06T14:07:34Z</time>
      </trkpt>
      <trkpt lat="43.81073" lon="3.71311">
        <ele>304.88</ele>
        <time>2016-03-06T14:07:35Z</time>
      </trkpt>
      <trkpt lat="43.81088" lon="3.71329">
        <ele>305.84</ele>
        <time>2016-03-06T14:07:36Z</time>
      </trkpt>
      <trkpt lat="43.811" lon="3.71351">
        <ele>306.8</ele>
        <time>2016-03-06T14:07:37Z</time>
      </trkpt>
      <trkpt lat="43.81108" lon="3.71375">
        <ele>307.76</ele>
        <time>2016-03-06T14:07:38Z</time>
      </trkpt>
      <trkpt lat="43.81112" lon="3.71402">
        <ele>309.2</ele>
        <time>2016-03-06T14:07:39Z</time>
      </trkpt>
      <trkpt lat="43.81117" lon="3.71429">
        <ele>310.16</ele>
        <time>2016-03-06T14:07:40Z</time>
      </trkpt>
      <trkpt lat="43.8112" lon="3.71457">
        <ele>311.12</ele>
        <time>2016-03-06T14:07:41Z</time>
      </trkpt>
      <trkpt lat="43.81121" lon="3.71483">
        <ele>312.09</ele>
        <time>2016-03-06T14:07:42Z</time>
      </trkpt>
      <trkpt lat="43.8113" lon="3.71569">
        <ele>317.37</ele>
        <time>2016-03-06T14:07:46Z</time>
      </trkpt>
      <trkpt lat="43.81137" lon="3.71587">
        <ele>317.85</ele>
        <time>2016-03-06T14:07:47Z</time>
      </trkpt>
      <trkpt lat="43.81142" lon="3.71605">
        <ele>318.33</ele>
        <time>2016-03-06T14:07:48Z</time>
      </trkpt>
      <trkpt lat="43.8114" lon="3.71622">
        <ele>319.3</ele>
        <time>2016-03-06T14:07:49Z</time>
      </trkpt>
      <trkpt lat="43.81132" lon="3.71639">
        <ele>320.26</ele>
        <time>2016-03-06T14:07:50Z</time>
      </trkpt>
      <trkpt lat="43.81119" lon="3.71649">
        <ele>320.74</ele>
        <time>2016-03-06T14:07:51Z</time>
      </trkpt>
      <trkpt lat="43.81102" lon="3.71657">
        <ele>321.7</ele>
        <time>2016-03-06T14:07:52Z</time>
      </trkpt>
      <trkpt lat="43.81083" lon="3.71664">
        <ele>322.18</ele>
        <time>2016-03-06T14:07:53Z</time>
      </trkpt>
      <trkpt lat="43.81058" lon="3.71669">
        <ele>323.62</ele>
        <time>2016-03-06T14:07:54Z</time>
      </trkpt>
      <trkpt lat="43.81035" lon="3.71675">
        <ele>325.06</ele>
        <time>2016-03-06T14:07:55Z</time>
      </trkpt>
      <trkpt lat="43.80958" lon="3.7171">
        <ele>329.39</ele>
        <time>2016-03-06T14:07:59Z</time>
      </trkpt>
      <trkpt lat="43.8094" lon="3.71724">
        <ele>330.35</ele>
        <time>2016-03-06T14:08:00Z</time>
      </trkpt>
      <trkpt lat="43.80923" lon="3.71742">
        <ele>331.79</ele>
        <time>2016-03-06T14:08:01Z</time>
      </trkpt>
      <trkpt lat="43.80907" lon="3.71763">
        <ele>332.75</ele>
        <time>2016-03-06T14:08:02Z</time>
      </trkpt>
      <trkpt lat="43.80892" lon="3.71785">
        <ele>334.2</ele>
        <time>2016-03-06T14:08:03Z</time>
      </trkpt>
      <trkpt lat="43.80855" lon="3.71844">
        <ele>337.56</ele>
        <time>2016-03-06T14:08:06Z</time>
      </trkpt>
      <trkpt lat="43.80847" lon="3.71862">
        <ele>338.52</ele>
        <time>2016-03-06T14:08:07Z</time>
      </trkpt>
      <trkpt lat="43.80827" lon="3.71908">
        <ele>340.92</ele>
        <time>2016-03-06T14:08:10Z</time>
      </trkpt>
      <trkpt lat="43.80764" lon="3.71994">
        <ele>340.44</ele>
        <time>2016-03-06T14:08:15Z</time>
      </trkpt>
      <trkpt lat="43.80722" lon="3.72044">
        <ele>335.64</ele>
        <time>2016-03-06T14:08:18Z</time>
      </trkpt>
      <trkpt lat="43.80707" lon="3.72055">
        <ele>334.68</ele>
        <time>2016-03-06T14:08:19Z</time>
      </trkpt>
      <trkpt lat="43.80692" lon="3.7206">
        <ele>333.71</ele>
        <time>2016-03-06T14:08:20Z</time>
      </trkpt>
      <trkpt lat="43.80674" lon="3.72055">
        <ele>331.79</ele>
        <time>2016-03-06T14:08:21Z</time>
      </trkpt>
      <trkpt lat="43.80656" lon="3.72045">
        <ele>329.87</ele>
        <time>2016-03-06T14:08:22Z</time>
      </trkpt>
      <trkpt lat="43.80639" lon="3.72033">
        <ele>327.95</ele>
        <time>2016-03-06T14:08:23Z</time>
      </trkpt>
      <trkpt lat="43.80622" lon="3.72019">
        <ele>326.02</ele>
        <time>2016-03-06T14:08:24Z</time>
      </trkpt>
      <trkpt lat="43.80607" lon="3.72003">
        <ele>324.58</ele>
        <time>2016-03-06T14:08:25Z</time>
      </trkpt>
      <trkpt lat="43.80592" lon="3.71987">
        <ele>322.66</ele>
        <time>2016-03-06T14:08:26Z</time>
      </trkpt>
      <trkpt lat="43.8056" lon="3.7196">
        <ele>319.78</ele>
        <time>2016-03-06T14:08:28Z</time>
      </trkpt>
      <trkpt lat="43.80543" lon="3.7195">
        <ele>318.33</ele>
        <time>2016-03-06T14:08:29Z</time>
      </trkpt>
      <trkpt lat="43.80525" lon="3.71941">
        <ele>316.89</ele>
        <time>2016-03-06T14:08:30Z</time>
      </trkpt>
      <trkpt lat="43.80507" lon="3.71935">
        <ele>314.97</ele>
        <time>2016-03-06T14:08:31Z</time>
      </trkpt>
      <trkpt lat="43.80492" lon="3.71935">
        <ele>313.53</ele>
        <time>2016-03-06T14:08:32Z</time>
      </trkpt>
      <trkpt lat="43.80479" lon="3.71941">
        <ele>312.09</ele>
        <time>2016-03-06T14:08:33Z</time>
      </trkpt>
      <trkpt lat="43.80469" lon="3.71954">
        <ele>310.64</ele>
        <time>2016-03-06T14:08:34Z</time>
      </trkpt>
      <trkpt lat="43.80459" lon="3.71972">
        <ele>309.2</ele>
        <time>2016-03-06T14:08:35Z</time>
      </trkpt>
      <trkpt lat="43.80451" lon="3.71991">
        <ele>307.76</ele>
        <time>2016-03-06T14:08:36Z</time>
      </trkpt>
      <trkpt lat="43.80446" lon="3.72014">
        <ele>306.32</ele>
        <time>2016-03-06T14:08:37Z</time>
      </trkpt>
      <trkpt lat="43.80445" lon="3.72036">
        <ele>304.88</ele>
        <time>2016-03-06T14:08:38Z</time>
      </trkpt>
      <trkpt lat="43.80446" lon="3.72057">
        <ele>303.43</ele>
        <time>2016-03-06T14:08:39Z</time>
      </trkpt>
      <trkpt lat="43.8045" lon="3.72077">
        <ele>302.47</ele>
        <time>2016-03-06T14:08:40Z</time>
      </trkpt>
      <trkpt lat="43.80457" lon="3.72096">
        <ele>300.07</ele>
        <time>2016-03-06T14:08:41Z</time>
      </trkpt>
      <trkpt lat="43.80466" lon="3.72117">
        <ele>298.63</ele>
        <time>2016-03-06T14:08:42Z</time>
      </trkpt>
      <trkpt lat="43.80473" lon="3.7214">
        <ele>297.18</ele>
        <time>2016-03-06T14:08:43Z</time>
      </trkpt>
      <trkpt lat="43.80478" lon="3.72169">
        <ele>295.74</ele>
        <time>2016-03-06T14:08:44Z</time>
      </trkpt>
      <trkpt lat="43.80481" lon="3.72197">
        <ele>294.3</ele>
        <time>2016-03-06T14:08:45Z</time>
      </trkpt>
      <trkpt lat="43.80487" lon="3.72276">
        <ele>290.94</ele>
        <time>2016-03-06T14:08:48Z</time>
      </trkpt>
      <trkpt lat="43.80486" lon="3.72298">
        <ele>289.97</ele>
        <time>2016-03-06T14:08:49Z</time>
      </trkpt>
      <trkpt lat="43.80481" lon="3.72317">
        <ele>289.01</ele>
        <time>2016-03-06T14:08:50Z</time>
      </trkpt>
      <trkpt lat="43.80473" lon="3.72333">
        <ele>287.57</ele>
        <time>2016-03-06T14:08:51Z</time>
      </trkpt>
      <trkpt lat="43.8046" lon="3.72342">
        <ele>286.13</ele>
        <time>2016-03-06T14:08:52Z</time>
      </trkpt>
      <trkpt lat="43.80446" lon="3.7235">
        <ele>285.65</ele>
        <time>2016-03-06T14:08:53Z</time>
      </trkpt>
      <trkpt lat="43.80429" lon="3.72358">
        <ele>284.69</ele>
        <time>2016-03-06T14:08:54Z</time>
      </trkpt>
      <trkpt lat="43.80412" lon="3.72367">
        <ele>282.77</ele>
        <time>2016-03-06T14:08:55Z</time>
      </trkpt>
      <trkpt lat="43.80396" lon="3.72382">
        <ele>281.8</ele>
        <time>2016-03-06T14:08:56Z</time>
      </trkpt>
      <trkpt lat="43.80383" lon="3.72401">
        <ele>280.36</ele>
        <time>2016-03-06T14:08:57Z</time>
      </trkpt>
      <trkpt lat="43.8036" lon="3.72437">
        <ele>277.96</ele>
        <time>2016-03-06T14:08:59Z</time>
      </trkpt>
      <trkpt lat="43.80345" lon="3.72449">
        <ele>276.52</ele>
        <time>2016-03-06T14:09:00Z</time>
      </trkpt>
      <trkpt lat="43.80329" lon="3.72456">
        <ele>275.07</ele>
        <time>2016-03-06T14:09:01Z</time>
      </trkpt>
      <trkpt lat="43.8031" lon="3.72457">
        <ele>274.11</ele>
        <time>2016-03-06T14:09:02Z</time>
      </trkpt>
      <trkpt lat="43.80292" lon="3.7245">
        <ele>273.15</ele>
        <time>2016-03-06T14:09:03Z</time>
      </trkpt>
      <trkpt lat="43.80273" lon="3.72442">
        <ele>271.71</ele>
        <time>2016-03-06T14:09:04Z</time>
      </trkpt>
      <trkpt lat="43.80256" lon="3.72432">
        <ele>270.75</ele>
        <time>2016-03-06T14:09:05Z</time>
      </trkpt>
      <trkpt lat="43.80239" lon="3.72419">
        <ele>269.31</ele>
        <time>2016-03-06T14:09:06Z</time>
      </trkpt>
      <trkpt lat="43.80225" lon="3.72404">
        <ele>268.35</ele>
        <time>2016-03-06T14:09:07Z</time>
      </trkpt>
      <trkpt lat="43.80211" lon="3.72389">
        <ele>267.38</ele>
        <time>2016-03-06T14:09:08Z</time>
      </trkpt>
      <trkpt lat="43.80198" lon="3.72377">
        <ele>265.94</ele>
        <time>2016-03-06T14:09:09Z</time>
      </trkpt>
      <trkpt lat="43.80183" lon="3.72371">
        <ele>264.5</ele>
        <time>2016-03-06T14:09:10Z</time>
      </trkpt>
      <trkpt lat="43.80163" lon="3.72374">
        <ele>264.02</ele>
        <time>2016-03-06T14:09:11Z</time>
      </trkpt>
      <trkpt lat="43.8009" lon="3.72379">
        <ele>258.73</ele>
        <time>2016-03-06T14:09:15Z</time>
      </trkpt>
      <trkpt lat="43.80073" lon="3.72385">
        <ele>257.77</ele>
        <time>2016-03-06T14:09:16Z</time>
      </trkpt>
      <trkpt lat="43.80056" lon="3.72396">
        <ele>256.33</ele>
        <time>2016-03-06T14:09:17Z</time>
      </trkpt>
      <trkpt lat="43.80039" lon="3.72412">
        <ele>255.37</ele>
        <time>2016-03-06T14:09:18Z</time>
      </trkpt>
      <trkpt lat="43.80024" lon="3.72429">
        <ele>254.41</ele>
        <time>2016-03-06T14:09:19Z</time>
      </trkpt>
      <trkpt lat="43.80008" lon="3.72447">
        <ele>253.44</ele>
        <time>2016-03-06T14:09:20Z</time>
      </trkpt>
      <trkpt lat="43.79872" lon="3.72612">
        <ele>250.08</ele>
        <time>2016-03-06T14:09:29Z</time>
      </trkpt>
      <trkpt lat="43.79753" lon="3.72775">
        <ele>245.27</ele>
        <time>2016-03-06T14:09:37Z</time>
      </trkpt>
      <trkpt lat="43.79728" lon="3.72807">
        <ele>242.87</ele>
        <time>2016-03-06T14:09:39Z</time>
      </trkpt>
      <trkpt lat="43.79714" lon="3.72818">
        <ele>241.91</ele>
        <time>2016-03-06T14:09:40Z</time>
      </trkpt>
      <trkpt lat="43.79699" lon="3.72827">
        <ele>240.47</ele>
        <time>2016-03-06T14:09:41Z</time>
      </trkpt>
      <trkpt lat="43.79681" lon="3.72835">
        <ele>239.51</ele>
        <time>2016-03-06T14:09:42Z</time>
      </trkpt>
      <trkpt lat="43.79663" lon="3.72842">
        <ele>238.06</ele>
        <time>2016-03-06T14:09:43Z</time>
      </trkpt>
      <trkpt lat="43.79548" lon="3.72899">
        <ele>230.85</ele>
        <time>2016-03-06T14:09:50Z</time>
      </trkpt>
      <trkpt lat="43.79414" lon="3.72983">
        <ele>221.24</ele>
        <time>2016-03-06T14:09:59Z</time>
      </trkpt>
      <trkpt lat="43.79307" lon="3.73034">
        <ele>213.55</ele>
        <time>2016-03-06T14:10:06Z</time>
      </trkpt>
      <trkpt lat="43.79293" lon="3.73035">
        <ele>212.59</ele>
        <time>2016-03-06T14:10:07Z</time>
      </trkpt>
      <trkpt lat="43.79267" lon="3.73033">
        <ele>210.67</ele>
        <time>2016-03-06T14:10:09Z</time>
      </trkpt>
      <trkpt lat="43.79254" lon="3.73039">
        <ele>209.7</ele>
        <time>2016-03-06T14:10:10Z</time>
      </trkpt>
      <trkpt lat="43.79245" lon="3.73051">
        <ele>208.26</ele>
        <time>2016-03-06T14:10:11Z</time>
      </trkpt>
      <trkpt lat="43.79243" lon="3.73069">
        <ele>207.78</ele>
        <time>2016-03-06T14:10:12Z</time>
      </trkpt>
      <trkpt lat="43.79244" lon="3.73088">
        <ele>206.82</ele>
        <time>2016-03-06T14:10:13Z</time>
      </trkpt>
      <trkpt lat="43.79243" lon="3.73104">
        <ele>204.9</ele>
        <time>2016-03-06T14:10:14Z</time>
      </trkpt>
      <trkpt lat="43.79246" lon="3.73122">
        <ele>203.94</ele>
        <time>2016-03-06T14:10:15Z</time>
      </trkpt>
      <trkpt lat="43.7925" lon="3.73141">
        <ele>203.46</ele>
        <time>2016-03-06T14:10:16Z</time>
      </trkpt>
      <trkpt lat="43.79254" lon="3.73158">
        <ele>202.98</ele>
        <time>2016-03-06T14:10:17Z</time>
      </trkpt>
      <trkpt lat="43.79264" lon="3.73205">
        <ele>200.57</ele>
        <time>2016-03-06T14:10:20Z</time>
      </trkpt>
      <trkpt lat="43.79272" lon="3.73213">
        <ele>200.09</ele>
        <time>2016-03-06T14:10:21Z</time>
      </trkpt>
      <trkpt lat="43.7928" lon="3.73223">
        <ele>199.61</ele>
        <time>2016-03-06T14:10:22Z</time>
      </trkpt>
      <trkpt lat="43.79291" lon="3.73234">
        <ele>199.61</ele>
        <time>2016-03-06T14:10:23Z</time>
      </trkpt>
      <trkpt lat="43.79302" lon="3.73244">
        <ele>199.13</ele>
        <time>2016-03-06T14:10:24Z</time>
      </trkpt>
      <trkpt lat="43.79424" lon="3.73328">
        <ele>195.77</ele>
        <time>2016-03-06T14:10:35Z</time>
      </trkpt>
      <trkpt lat="43.7943" lon="3.73332">
        <ele>195.77</ele>
        <time>2016-03-06T14:10:36Z</time>
      </trkpt>
      <trkpt lat="43.79434" lon="3.73338">
        <ele>195.28</ele>
        <time>2016-03-06T14:10:37Z</time>
      </trkpt>
      <trkpt lat="43.79436" lon="3.73342">
        <ele>195.28</ele>
        <time>2016-03-06T14:10:38Z</time>
      </trkpt>
      <trkpt lat="43.79436" lon="3.73346">
        <ele>195.28</ele>
        <time>2016-03-06T14:10:39Z</time>
      </trkpt>
      <trkpt lat="43.79435" lon="3.73349">
        <ele>194.8</ele>
        <time>2016-03-06T14:10:40Z</time>
      </trkpt>
      <trkpt lat="43.79434" lon="3.73351">
        <ele>194.8</ele>
        <time>2016-03-06T14:10:41Z</time>
      </trkpt>
      <trkpt lat="43.79433" lon="3.73353">
        <ele>194.32</ele>
        <time>2016-03-06T14:10:42Z</time>
      </trkpt>
      <trkpt lat="43.79431" lon="3.73354">
        <ele>194.32</ele>
        <time>2016-03-06T14:10:43Z</time>
      </trkpt>
      <trkpt lat="43.79428" lon="3.73355">
        <ele>193.84</ele>
        <time>2016-03-06T14:10:44Z</time>
      </trkpt>
      <trkpt lat="43.79423" lon="3.73356">
        <ele>193.84</ele>
        <time>2016-03-06T14:10:45Z</time>
      </trkpt>
      <trkpt lat="43.79416" lon="3.73355">
        <ele>193.36</ele>
        <time>2016-03-06T14:10:46Z</time>
      </trkpt>
      <trkpt lat="43.79407" lon="3.73354">
        <ele>193.36</ele>
        <time>2016-03-06T14:10:47Z</time>
      </trkpt>
      <trkpt lat="43.79311" lon="3.73339">
        <ele>190.96</ele>
        <time>2016-03-06T14:10:58Z</time>
      </trkpt>
      <trkpt lat="43.79213" lon="3.73307">
        <ele>190</ele>
        <time>2016-03-06T14:11:10Z</time>
      </trkpt>
      <trkpt lat="43.79127" lon="3.73263">
        <ele>191.92</ele>
        <time>2016-03-06T14:11:20Z</time>
      </trkpt>
      <trkpt lat="43.79113" lon="3.73259">
        <ele>191.92</ele>
        <time>2016-03-06T14:11:22Z</time>
      </trkpt>
      <trkpt lat="43.79106" lon="3.73259">
        <ele>191.92</ele>
        <time>2016-03-06T14:11:23Z</time>
      </trkpt>
      <trkpt lat="43.79014" lon="3.73258">
        <ele>192.88</ele>
        <time>2016-03-06T14:11:33Z</time>
      </trkpt>
      <trkpt lat="43.78867" lon="3.73223">
        <ele>197.21</ele>
        <time>2016-03-06T14:11:48Z</time>
      </trkpt>
      <trkpt lat="43.78851" lon="3.73222">
        <ele>197.21</ele>
        <time>2016-03-06T14:11:50Z</time>
      </trkpt>
      <trkpt lat="43.78845" lon="3.73223">
        <ele>197.21</ele>
        <time>2016-03-06T14:11:51Z</time>
      </trkpt>
      <trkpt lat="43.78838" lon="3.73226">
        <ele>197.21</ele>
        <time>2016-03-06T14:11:52Z</time>
      </trkpt>
      <trkpt lat="43.78831" lon="3.73231">
        <ele>197.21</ele>
        <time>2016-03-06T14:11:53Z</time>
      </trkpt>
      <trkpt lat="43.78823" lon="3.73238">
        <ele>197.21</ele>
        <time>2016-03-06T14:11:54Z</time>
      </trkpt>
      <trkpt lat="43.78816" lon="3.73245">
        <ele>196.73</ele>
        <time>2016-03-06T14:11:55Z</time>
      </trkpt>
      <trkpt lat="43.78808" lon="3.73254">
        <ele>196.73</ele>
        <time>2016-03-06T14:11:56Z</time>
      </trkpt>
      <trkpt lat="43.78717" lon="3.73362">
        <ele>193.84</ele>
        <time>2016-03-06T14:12:08Z</time>
      </trkpt>
      <trkpt lat="43.78625" lon="3.73474">
        <ele>194.8</ele>
        <time>2016-03-06T14:12:20Z</time>
      </trkpt>
      <trkpt lat="43.78576" lon="3.73521">
        <ele>194.8</ele>
        <time>2016-03-06T14:12:27Z</time>
      </trkpt>
      <trkpt lat="43.78569" lon="3.73524">
        <ele>195.28</ele>
        <time>2016-03-06T14:12:28Z</time>
      </trkpt>
      <trkpt lat="43.7854" lon="3.73534">
        <ele>196.73</ele>
        <time>2016-03-06T14:12:32Z</time>
      </trkpt>
      <trkpt lat="43.78532" lon="3.73535">
        <ele>196.73</ele>
        <time>2016-03-06T14:12:33Z</time>
      </trkpt>
      <trkpt lat="43.78477" lon="3.73546">
        <ele>198.65</ele>
        <time>2016-03-06T14:12:41Z</time>
      </trkpt>
      <trkpt lat="43.78387" lon="3.73566">
        <ele>202.01</ele>
        <time>2016-03-06T14:12:52Z</time>
      </trkpt>
      <trkpt lat="43.78349" lon="3.73587">
        <ele>203.46</ele>
        <time>2016-03-06T14:12:58Z</time>
      </trkpt>
      <trkpt lat="43.78342" lon="3.73587">
        <ele>203.46</ele>
        <time>2016-03-06T14:12:59Z</time>
      </trkpt>
      <trkpt lat="43.78334" lon="3.73585">
        <ele>203.94</ele>
        <time>2016-03-06T14:13:00Z</time>
      </trkpt>
      <trkpt lat="43.78326" lon="3.73583">
        <ele>203.94</ele>
        <time>2016-03-06T14:13:01Z</time>
      </trkpt>
      <trkpt lat="43.78317" lon="3.73583">
        <ele>204.42</ele>
        <time>2016-03-06T14:13:02Z</time>
      </trkpt>
      <trkpt lat="43.78309" lon="3.73586">
        <ele>204.42</ele>
        <time>2016-03-06T14:13:03Z</time>
      </trkpt>
      <trkpt lat="43.78303" lon="3.73592">
        <ele>204.42</ele>
        <time>2016-03-06T14:13:04Z</time>
      </trkpt>
      <trkpt lat="43.78297" lon="3.73599">
        <ele>204.9</ele>
        <time>2016-03-06T14:13:05Z</time>
      </trkpt>
      <trkpt lat="43.78291" lon="3.73606">
        <ele>204.42</ele>
        <time>2016-03-06T14:13:06Z</time>
      </trkpt>
      <trkpt lat="43.78284" lon="3.73612">
        <ele>204.42</ele>
        <time>2016-03-06T14:13:07Z</time>
      </trkpt>
      <trkpt lat="43.78275" lon="3.73616">
        <ele>204.42</ele>
        <time>2016-03-06T14:13:08Z</time>
      </trkpt>
      <trkpt lat="43.78266" lon="3.73619">
        <ele>204.9</ele>
        <time>2016-03-06T14:13:09Z</time>
      </trkpt>
      <trkpt lat="43.78256" lon="3.73622">
        <ele>204.9</ele>
        <time>2016-03-06T14:13:10Z</time>
      </trkpt>
      <trkpt lat="43.78128" lon="3.73682">
        <ele>208.74</ele>
        <time>2016-03-06T14:13:22Z</time>
      </trkpt>
      <trkpt lat="43.78037" lon="3.7374">
        <ele>210.67</ele>
        <time>2016-03-06T14:13:27Z</time>
      </trkpt>
      <trkpt lat="43.77935" lon="3.73811">
        <ele>214.51</ele>
        <time>2016-03-06T14:13:31Z</time>
      </trkpt>
      <trkpt lat="43.77912" lon="3.73839">
        <ele>215.95</ele>
        <time>2016-03-06T14:13:32Z</time>
      </trkpt>
      <trkpt lat="43.77893" lon="3.73871">
        <ele>217.88</ele>
        <time>2016-03-06T14:13:33Z</time>
      </trkpt>
      <trkpt lat="43.77826" lon="3.73965">
        <ele>223.16</ele>
        <time>2016-03-06T14:13:36Z</time>
      </trkpt>
      <trkpt lat="43.77709" lon="3.74115">
        <ele>231.33</ele>
        <time>2016-03-06T14:13:41Z</time>
      </trkpt>
      <trkpt lat="43.77655" lon="3.74158">
        <ele>235.18</ele>
        <time>2016-03-06T14:13:43Z</time>
      </trkpt>
      <trkpt lat="43.77625" lon="3.74175">
        <ele>237.1</ele>
        <time>2016-03-06T14:13:44Z</time>
      </trkpt>
      <trkpt lat="43.77489" lon="3.74294">
        <ele>244.79</ele>
        <time>2016-03-06T14:13:49Z</time>
      </trkpt>
      <trkpt lat="43.77467" lon="3.74328">
        <ele>247.2</ele>
        <time>2016-03-06T14:13:50Z</time>
      </trkpt>
      <trkpt lat="43.77343" lon="3.74483">
        <ele>257.77</ele>
        <time>2016-03-06T14:13:55Z</time>
      </trkpt>
      <trkpt lat="43.77162" lon="3.74603">
        <ele>271.71</ele>
        <time>2016-03-06T14:14:01Z</time>
      </trkpt>
      <trkpt lat="43.771" lon="3.74619">
        <ele>272.67</ele>
        <time>2016-03-06T14:14:03Z</time>
      </trkpt>
      <trkpt lat="43.77068" lon="3.74623">
        <ele>272.67</ele>
        <time>2016-03-06T14:14:04Z</time>
      </trkpt>
      <trkpt lat="43.77037" lon="3.74623">
        <ele>273.15</ele>
        <time>2016-03-06T14:14:05Z</time>
      </trkpt>
      <trkpt lat="43.77005" lon="3.74621">
        <ele>273.15</ele>
        <time>2016-03-06T14:14:06Z</time>
      </trkpt>
      <trkpt lat="43.76973" lon="3.74615">
        <ele>272.67</ele>
        <time>2016-03-06T14:14:07Z</time>
      </trkpt>
      <trkpt lat="43.76942" lon="3.74607">
        <ele>272.19</ele>
        <time>2016-03-06T14:14:08Z</time>
      </trkpt>
      <trkpt lat="43.76753" lon="3.74557">
        <ele>267.38</ele>
        <time>2016-03-06T14:14:15Z</time>
      </trkpt>
      <trkpt lat="43.76612" lon="3.74561">
        <ele>264.02</ele>
        <time>2016-03-06T14:14:20Z</time>
      </trkpt>
      <trkpt lat="43.76445" lon="3.74625">
        <ele>260.17</ele>
        <time>2016-03-06T14:14:26Z</time>
      </trkpt>
      <trkpt lat="43.76217" lon="3.74745">
        <ele>254.41</ele>
        <time>2016-03-06T14:14:35Z</time>
      </trkpt>
      <trkpt lat="43.76049" lon="3.74859">
        <ele>249.6</ele>
        <time>2016-03-06T14:14:43Z</time>
      </trkpt>
      <trkpt lat="43.75891" lon="3.75018">
        <ele>245.27</ele>
        <time>2016-03-06T14:14:53Z</time>
      </trkpt>
      <trkpt lat="43.75814" lon="3.75087">
        <ele>243.35</ele>
        <time>2016-03-06T14:15:00Z</time>
      </trkpt>
      <trkpt lat="43.75807" lon="3.75089">
        <ele>243.35</ele>
        <time>2016-03-06T14:15:01Z</time>
      </trkpt>
      <trkpt lat="43.758" lon="3.75091">
        <ele>242.87</ele>
        <time>2016-03-06T14:15:02Z</time>
      </trkpt>
      <trkpt lat="43.75783" lon="3.75092">
        <ele>242.39</ele>
        <time>2016-03-06T14:15:04Z</time>
      </trkpt>
      <trkpt lat="43.75776" lon="3.75096">
        <ele>241.91</ele>
        <time>2016-03-06T14:15:05Z</time>
      </trkpt>
      <trkpt lat="43.75772" lon="3.75106">
        <ele>241.91</ele>
        <time>2016-03-06T14:15:06Z</time>
      </trkpt>
      <trkpt lat="43.75767" lon="3.75119">
        <ele>241.43</ele>
        <time>2016-03-06T14:15:07Z</time>
      </trkpt>
      <trkpt lat="43.75761" lon="3.75134">
        <ele>241.43</ele>
        <time>2016-03-06T14:15:08Z</time>
      </trkpt>
      <trkpt lat="43.75751" lon="3.75151">
        <ele>240.95</ele>
        <time>2016-03-06T14:15:09Z</time>
      </trkpt>
      <trkpt lat="43.75736" lon="3.75169">
        <ele>240.47</ele>
        <time>2016-03-06T14:15:10Z</time>
      </trkpt>
      <trkpt lat="43.75718" lon="3.75187">
        <ele>239.99</ele>
        <time>2016-03-06T14:15:11Z</time>
      </trkpt>
      <trkpt lat="43.75553" lon="3.75347">
        <ele>236.14</ele>
        <time>2016-03-06T14:15:19Z</time>
      </trkpt>
      <trkpt lat="43.75201" lon="3.75692">
        <ele>232.78</ele>
        <time>2016-03-06T14:15:35Z</time>
      </trkpt>
      <trkpt lat="43.74823" lon="3.76072">
        <ele>227.97</ele>
        <time>2016-03-06T14:15:51Z</time>
      </trkpt>
      <trkpt lat="43.74564" lon="3.76361">
        <ele>226.53</ele>
        <time>2016-03-06T14:16:02Z</time>
      </trkpt>
      <trkpt lat="43.74375" lon="3.76689">
        <ele>228.45</ele>
        <time>2016-03-06T14:16:12Z</time>
      </trkpt>
      <trkpt lat="43.74204" lon="3.77041">
        <ele>231.33</ele>
        <time>2016-03-06T14:16:22Z</time>
      </trkpt>
      <trkpt lat="43.7412" lon="3.77275">
        <ele>232.78</ele>
        <time>2016-03-06T14:16:29Z</time>
      </trkpt>
      <trkpt lat="43.74017" lon="3.77562">
        <ele>234.22</ele>
        <time>2016-03-06T14:16:39Z</time>
      </trkpt>
      <trkpt lat="43.73982" lon="3.77685">
        <ele>233.74</ele>
        <time>2016-03-06T14:16:43Z</time>
      </trkpt>
      <trkpt lat="43.73978" lon="3.77717">
        <ele>233.26</ele>
        <time>2016-03-06T14:16:44Z</time>
      </trkpt>
      <trkpt lat="43.73978" lon="3.7775">
        <ele>232.3</ele>
        <time>2016-03-06T14:16:45Z</time>
      </trkpt>
      <trkpt lat="43.73984" lon="3.77979">
        <ele>225.09</ele>
        <time>2016-03-06T14:16:51Z</time>
      </trkpt>
      <trkpt lat="43.73994" lon="3.78335">
        <ele>214.99</ele>
        <time>2016-03-06T14:17:00Z</time>
      </trkpt>
      <trkpt lat="43.73988" lon="3.78405">
        <ele>213.07</ele>
        <time>2016-03-06T14:17:02Z</time>
      </trkpt>
      <trkpt lat="43.7398" lon="3.7844">
        <ele>212.11</ele>
        <time>2016-03-06T14:17:03Z</time>
      </trkpt>
      <trkpt lat="43.73967" lon="3.78472">
        <ele>210.67</ele>
        <time>2016-03-06T14:17:04Z</time>
      </trkpt>
      <trkpt lat="43.73949" lon="3.78504">
        <ele>209.7</ele>
        <time>2016-03-06T14:17:05Z</time>
      </trkpt>
      <trkpt lat="43.73928" lon="3.78536">
        <ele>208.74</ele>
        <time>2016-03-06T14:17:06Z</time>
      </trkpt>
      <trkpt lat="43.73906" lon="3.78567">
        <ele>207.78</ele>
        <time>2016-03-06T14:17:07Z</time>
      </trkpt>
      <trkpt lat="43.73736" lon="3.78767">
        <ele>202.49</ele>
        <time>2016-03-06T14:17:14Z</time>
      </trkpt>
      <trkpt lat="43.73445" lon="3.79108">
        <ele>199.13</ele>
        <time>2016-03-06T14:17:26Z</time>
      </trkpt>
      <trkpt lat="43.732" lon="3.79411">
        <ele>192.4</ele>
        <time>2016-03-06T14:17:37Z</time>
      </trkpt>
      <trkpt lat="43.73055" lon="3.79521">
        <ele>195.77</ele>
        <time>2016-03-06T14:17:44Z</time>
      </trkpt>
      <trkpt lat="43.72971" lon="3.79572">
        <ele>196.73</ele>
        <time>2016-03-06T14:17:48Z</time>
      </trkpt>
      <trkpt lat="43.7295" lon="3.79575">
        <ele>196.73</ele>
        <time>2016-03-06T14:17:49Z</time>
      </trkpt>
      <trkpt lat="43.72928" lon="3.79576">
        <ele>196.25</ele>
        <time>2016-03-06T14:17:50Z</time>
      </trkpt>
      <trkpt lat="43.72904" lon="3.79575">
        <ele>195.77</ele>
        <time>2016-03-06T14:17:51Z</time>
      </trkpt>
      <trkpt lat="43.7288" lon="3.7957">
        <ele>194.8</ele>
        <time>2016-03-06T14:17:52Z</time>
      </trkpt>
      <trkpt lat="43.72855" lon="3.79564">
        <ele>194.32</ele>
        <time>2016-03-06T14:17:53Z</time>
      </trkpt>
      <trkpt lat="43.72696" lon="3.795">
        <ele>187.11</ele>
        <time>2016-03-06T14:18:00Z</time>
      </trkpt>
      <trkpt lat="43.72615" lon="3.79456">
        <ele>183.27</ele>
        <time>2016-03-06T14:18:04Z</time>
      </trkpt>
      <trkpt lat="43.72593" lon="3.79452">
        <ele>181.83</ele>
        <time>2016-03-06T14:18:05Z</time>
      </trkpt>
      <trkpt lat="43.72571" lon="3.79453">
        <ele>180.87</ele>
        <time>2016-03-06T14:18:06Z</time>
      </trkpt>
      <trkpt lat="43.72549" lon="3.79457">
        <ele>179.42</ele>
        <time>2016-03-06T14:18:07Z</time>
      </trkpt>
      <trkpt lat="43.72527" lon="3.79462">
        <ele>178.46</ele>
        <time>2016-03-06T14:18:08Z</time>
      </trkpt>
      <trkpt lat="43.72279" lon="3.79507">
        <ele>165.96</ele>
        <time>2016-03-06T14:18:20Z</time>
      </trkpt>
      <trkpt lat="43.72063" lon="3.79477">
        <ele>158.27</ele>
        <time>2016-03-06T14:18:30Z</time>
      </trkpt>
      <trkpt lat="43.71857" lon="3.79448">
        <ele>155.87</ele>
        <time>2016-03-06T14:18:40Z</time>
      </trkpt>
      <trkpt lat="43.71691" lon="3.79424">
        <ele>152.99</ele>
        <time>2016-03-06T14:18:49Z</time>
      </trkpt>
      <trkpt lat="43.71552" lon="3.79431">
        <ele>149.14</ele>
        <time>2016-03-06T14:18:57Z</time>
      </trkpt>
      <trkpt lat="43.71399" lon="3.79499">
        <ele>146.26</ele>
        <time>2016-03-06T14:19:06Z</time>
      </trkpt>
      <trkpt lat="43.71291" lon="3.79602">
        <ele>151.54</ele>
        <time>2016-03-06T14:19:12Z</time>
      </trkpt>
      <trkpt lat="43.71078" lon="3.79828">
        <ele>164.04</ele>
        <time>2016-03-06T14:19:22Z</time>
      </trkpt>
      <trkpt lat="43.70982" lon="3.7998">
        <ele>165.48</ele>
        <time>2016-03-06T14:19:28Z</time>
      </trkpt>
      <trkpt lat="43.70904" lon="3.80197">
        <ele>158.75</ele>
        <time>2016-03-06T14:19:36Z</time>
      </trkpt>
      <trkpt lat="43.70876" lon="3.80402">
        <ele>150.1</ele>
        <time>2016-03-06T14:19:42Z</time>
      </trkpt>
      <trkpt lat="43.70859" lon="3.80671">
        <ele>143.37</ele>
        <time>2016-03-06T14:19:48Z</time>
      </trkpt>
      <trkpt lat="43.70797" lon="3.80949">
        <ele>140.97</ele>
        <time>2016-03-06T14:19:54Z</time>
      </trkpt>
      <trkpt lat="43.7074" lon="3.81176">
        <ele>140.49</ele>
        <time>2016-03-06T14:20:00Z</time>
      </trkpt>
      <trkpt lat="43.70714" lon="3.8134">
        <ele>139.53</ele>
        <time>2016-03-06T14:20:06Z</time>
      </trkpt>
      <trkpt lat="43.70725" lon="3.8144">
        <ele>138.57</ele>
        <time>2016-03-06T14:20:10Z</time>
      </trkpt>
      <trkpt lat="43.70733" lon="3.81466">
        <ele>138.09</ele>
        <time>2016-03-06T14:20:11Z</time>
      </trkpt>
      <trkpt lat="43.70793" lon="3.81616">
        <ele>131.84</ele>
        <time>2016-03-06T14:20:16Z</time>
      </trkpt>
      <trkpt lat="43.70843" lon="3.8175">
        <ele>125.11</ele>
        <time>2016-03-06T14:20:21Z</time>
      </trkpt>
      <trkpt lat="43.70846" lon="3.81765">
        <ele>124.15</ele>
        <time>2016-03-06T14:20:22Z</time>
      </trkpt>
      <trkpt lat="43.70846" lon="3.81775">
        <ele>123.19</ele>
        <time>2016-03-06T14:20:23Z</time>
      </trkpt>
      <trkpt lat="43.70845" lon="3.81779">
        <ele>123.19</ele>
        <time>2016-03-06T14:20:24Z</time>
      </trkpt>
      <trkpt lat="43.70845" lon="3.81781">
        <ele>123.19</ele>
        <time>2016-03-06T14:20:25Z</time>
      </trkpt>
      <trkpt lat="43.70843" lon="3.81783">
        <ele>123.19</ele>
        <time>2016-03-06T14:20:26Z</time>
      </trkpt>
      <trkpt lat="43.7084" lon="3.81789">
        <ele>123.19</ele>
        <time>2016-03-06T14:20:27Z</time>
      </trkpt>
      <trkpt lat="43.70834" lon="3.81797">
        <ele>122.71</ele>
        <time>2016-03-06T14:20:28Z</time>
      </trkpt>
      <trkpt lat="43.70828" lon="3.81808">
        <ele>122.71</ele>
        <time>2016-03-06T14:20:29Z</time>
      </trkpt>
      <trkpt lat="43.70824" lon="3.81819">
        <ele>122.71</ele>
        <time>2016-03-06T14:20:30Z</time>
      </trkpt>
      <trkpt lat="43.7082" lon="3.8183">
        <ele>122.22</ele>
        <time>2016-03-06T14:20:31Z</time>
      </trkpt>
      <trkpt lat="43.70814" lon="3.81841">
        <ele>122.22</ele>
        <time>2016-03-06T14:20:32Z</time>
      </trkpt>
      <trkpt lat="43.70807" lon="3.8185">
        <ele>122.22</ele>
        <time>2016-03-06T14:20:33Z</time>
      </trkpt>
      <trkpt lat="43.70798" lon="3.81859">
        <ele>122.22</ele>
        <time>2016-03-06T14:20:34Z</time>
      </trkpt>
      <trkpt lat="43.70786" lon="3.81865">
        <ele>121.74</ele>
        <time>2016-03-06T14:20:35Z</time>
      </trkpt>
      <trkpt lat="43.70773" lon="3.81871">
        <ele>121.26</ele>
        <time>2016-03-06T14:20:36Z</time>
      </trkpt>
      <trkpt lat="43.70756" lon="3.81875">
        <ele>120.78</ele>
        <time>2016-03-06T14:20:37Z</time>
      </trkpt>
      <trkpt lat="43.70737" lon="3.81879">
        <ele>120.3</ele>
        <time>2016-03-06T14:20:38Z</time>
      </trkpt>
      <trkpt lat="43.70715" lon="3.8188">
        <ele>119.82</ele>
        <time>2016-03-06T14:20:39Z</time>
      </trkpt>
      <trkpt lat="43.70691" lon="3.8188">
        <ele>119.82</ele>
        <time>2016-03-06T14:20:40Z</time>
      </trkpt>
      <trkpt lat="43.70666" lon="3.81879">
        <ele>119.82</ele>
        <time>2016-03-06T14:20:41Z</time>
      </trkpt>
      <trkpt lat="43.70473" lon="3.81897">
        <ele>121.26</ele>
        <time>2016-03-06T14:20:48Z</time>
      </trkpt>
      <trkpt lat="43.70257" lon="3.81974">
        <ele>115.01</ele>
        <time>2016-03-06T14:20:55Z</time>
      </trkpt>
      <trkpt lat="43.701" lon="3.82113">
        <ele>109.25</ele>
        <time>2016-03-06T14:21:01Z</time>
      </trkpt>
      <trkpt lat="43.70008" lon="3.82282">
        <ele>110.21</ele>
        <time>2016-03-06T14:21:06Z</time>
      </trkpt>
      <trkpt lat="43.69874" lon="3.82517">
        <ele>110.69</ele>
        <time>2016-03-06T14:21:13Z</time>
      </trkpt>
      <trkpt lat="43.69822" lon="3.82565">
        <ele>111.65</ele>
        <time>2016-03-06T14:21:15Z</time>
      </trkpt>
      <trkpt lat="43.69794" lon="3.82584">
        <ele>111.65</ele>
        <time>2016-03-06T14:21:16Z</time>
      </trkpt>
      <trkpt lat="43.69765" lon="3.826">
        <ele>112.13</ele>
        <time>2016-03-06T14:21:17Z</time>
      </trkpt>
      <trkpt lat="43.69735" lon="3.82613">
        <ele>112.13</ele>
        <time>2016-03-06T14:21:18Z</time>
      </trkpt>
      <trkpt lat="43.69704" lon="3.82624">
        <ele>112.61</ele>
        <time>2016-03-06T14:21:19Z</time>
      </trkpt>
      <trkpt lat="43.69674" lon="3.82633">
        <ele>112.61</ele>
        <time>2016-03-06T14:21:20Z</time>
      </trkpt>
      <trkpt lat="43.69513" lon="3.8266">
        <ele>110.69</ele>
        <time>2016-03-06T14:21:26Z</time>
      </trkpt>
      <trkpt lat="43.69365" lon="3.82642">
        <ele>109.73</ele>
        <time>2016-03-06T14:21:31Z</time>
      </trkpt>
      <trkpt lat="43.69184" lon="3.82562">
        <ele>108.29</ele>
        <time>2016-03-06T14:21:37Z</time>
      </trkpt>
      <trkpt lat="43.68898" lon="3.8238">
        <ele>106.84</ele>
        <time>2016-03-06T14:21:47Z</time>
      </trkpt>
      <trkpt lat="43.68748" lon="3.82296">
        <ele>104.92</ele>
        <time>2016-03-06T14:21:53Z</time>
      </trkpt>
      <trkpt lat="43.68517" lon="3.82207">
        <ele>100.6</ele>
        <time>2016-03-06T14:22:01Z</time>
      </trkpt>
      <trkpt lat="43.68268" lon="3.8216">
        <ele>99.15</ele>
        <time>2016-03-06T14:22:10Z</time>
      </trkpt>
      <trkpt lat="43.68113" lon="3.8214">
        <ele>101.56</ele>
        <time>2016-03-06T14:22:16Z</time>
      </trkpt>
      <trkpt lat="43.67972" lon="3.82122">
        <ele>106.36</ele>
        <time>2016-03-06T14:22:23Z</time>
      </trkpt>
      <trkpt lat="43.67802" lon="3.82099">
        <ele>113.57</ele>
        <time>2016-03-06T14:22:29Z</time>
      </trkpt>
      <trkpt lat="43.67603" lon="3.8205">
        <ele>122.22</ele>
        <time>2016-03-06T14:22:35Z</time>
      </trkpt>
      <trkpt lat="43.6747" lon="3.81984">
        <ele>127.51</ele>
        <time>2016-03-06T14:22:40Z</time>
      </trkpt>
      <trkpt lat="43.67364" lon="3.81901">
        <ele>128.95</ele>
        <time>2016-03-06T14:22:46Z</time>
      </trkpt>
      <trkpt lat="43.67351" lon="3.81887">
        <ele>128.95</ele>
        <time>2016-03-06T14:22:47Z</time>
      </trkpt>
      <trkpt lat="43.67342" lon="3.81872">
        <ele>128.95</ele>
        <time>2016-03-06T14:22:48Z</time>
      </trkpt>
      <trkpt lat="43.67337" lon="3.81849">
        <ele>128.47</ele>
        <time>2016-03-06T14:22:49Z</time>
      </trkpt>
      <trkpt lat="43.67339" lon="3.81827">
        <ele>127.99</ele>
        <time>2016-03-06T14:22:50Z</time>
      </trkpt>
      <trkpt lat="43.67344" lon="3.81805">
        <ele>127.03</ele>
        <time>2016-03-06T14:22:51Z</time>
      </trkpt>
      <trkpt lat="43.67353" lon="3.81786">
        <ele>126.55</ele>
        <time>2016-03-06T14:22:52Z</time>
      </trkpt>
      <trkpt lat="43.67368" lon="3.81777">
        <ele>125.11</ele>
        <time>2016-03-06T14:22:53Z</time>
      </trkpt>
      <trkpt lat="43.67381" lon="3.81769">
        <ele>124.15</ele>
        <time>2016-03-06T14:22:54Z</time>
      </trkpt>
      <trkpt lat="43.67399" lon="3.81771">
        <ele>123.19</ele>
        <time>2016-03-06T14:22:55Z</time>
      </trkpt>
      <trkpt lat="43.67416" lon="3.8178">
        <ele>122.22</ele>
        <time>2016-03-06T14:22:56Z</time>
      </trkpt>
      <trkpt lat="43.67429" lon="3.81794">
        <ele>121.26</ele>
        <time>2016-03-06T14:22:57Z</time>
      </trkpt>
      <trkpt lat="43.67438" lon="3.81814">
        <ele>120.78</ele>
        <time>2016-03-06T14:22:58Z</time>
      </trkpt>
      <trkpt lat="43.67442" lon="3.81837">
        <ele>119.82</ele>
        <time>2016-03-06T14:22:59Z</time>
      </trkpt>
      <trkpt lat="43.67437" lon="3.81858">
        <ele>119.34</ele>
        <time>2016-03-06T14:23:00Z</time>
      </trkpt>
      <trkpt lat="43.67427" lon="3.81878">
        <ele>118.86</ele>
        <time>2016-03-06T14:23:01Z</time>
      </trkpt>
      <trkpt lat="43.67413" lon="3.81897">
        <ele>118.86</ele>
        <time>2016-03-06T14:23:02Z</time>
      </trkpt>
      <trkpt lat="43.67396" lon="3.81917">
        <ele>119.82</ele>
        <time>2016-03-06T14:23:03Z</time>
      </trkpt>
      <trkpt lat="43.67374" lon="3.81935">
        <ele>120.3</ele>
        <time>2016-03-06T14:23:04Z</time>
      </trkpt>
      <trkpt lat="43.67348" lon="3.81956">
        <ele>120.78</ele>
        <time>2016-03-06T14:23:05Z</time>
      </trkpt>
      <trkpt lat="43.6732" lon="3.8198">
        <ele>121.74</ele>
        <time>2016-03-06T14:23:06Z</time>
      </trkpt>
      <trkpt lat="43.67292" lon="3.82006">
        <ele>123.19</ele>
        <time>2016-03-06T14:23:07Z</time>
      </trkpt>
      <trkpt lat="43.67143" lon="3.82198">
        <ele>125.59</ele>
        <time>2016-03-06T14:23:13Z</time>
      </trkpt>
      <trkpt lat="43.67024" lon="3.82428">
        <ele>117.42</ele>
        <time>2016-03-06T14:23:19Z</time>
      </trkpt>
      <trkpt lat="43.6689" lon="3.82581">
        <ele>112.13</ele>
        <time>2016-03-06T14:23:24Z</time>
      </trkpt>
      <trkpt lat="43.66595" lon="3.82809">
        <ele>116.94</ele>
        <time>2016-03-06T14:23:33Z</time>
      </trkpt>
      <trkpt lat="43.66347" lon="3.82996">
        <ele>119.82</ele>
        <time>2016-03-06T14:23:41Z</time>
      </trkpt>
      <trkpt lat="43.6622" lon="3.83056">
        <ele>115.01</ele>
        <time>2016-03-06T14:23:45Z</time>
      </trkpt>
      <trkpt lat="43.66184" lon="3.83064">
        <ele>112.61</ele>
        <time>2016-03-06T14:23:46Z</time>
      </trkpt>
      <trkpt lat="43.65794" lon="3.83147">
        <ele>88.58</ele>
        <time>2016-03-06T14:23:57Z</time>
      </trkpt>
      <trkpt lat="43.65695" lon="3.83205">
        <ele>88.58</ele>
        <time>2016-03-06T14:24:00Z</time>
      </trkpt>
      <trkpt lat="43.65665" lon="3.83234">
        <ele>88.58</ele>
        <time>2016-03-06T14:24:01Z</time>
      </trkpt>
      <trkpt lat="43.65636" lon="3.83267">
        <ele>88.58</ele>
        <time>2016-03-06T14:24:02Z</time>
      </trkpt>
      <trkpt lat="43.65608" lon="3.83304">
        <ele>88.58</ele>
        <time>2016-03-06T14:24:03Z</time>
      </trkpt>
      <trkpt lat="43.6558" lon="3.83343">
        <ele>88.1</ele>
        <time>2016-03-06T14:24:04Z</time>
      </trkpt>
      <trkpt lat="43.654" lon="3.83541">
        <ele>87.14</ele>
        <time>2016-03-06T14:24:10Z</time>
      </trkpt>
      <trkpt lat="43.65209" lon="3.83676">
        <ele>90.98</ele>
        <time>2016-03-06T14:24:16Z</time>
      </trkpt>
      <trkpt lat="43.65048" lon="3.83866">
        <ele>90.98</ele>
        <time>2016-03-06T14:24:22Z</time>
      </trkpt>
      <trkpt lat="43.64835" lon="3.84071">
        <ele>88.1</ele>
        <time>2016-03-06T14:24:30Z</time>
      </trkpt>
      <trkpt lat="43.64451" lon="3.84344">
        <ele>71.76</ele>
        <time>2016-03-06T14:24:44Z</time>
      </trkpt>
      <trkpt lat="43.64317" lon="3.84487">
        <ele>67.43</ele>
        <time>2016-03-06T14:24:50Z</time>
      </trkpt>
      <trkpt lat="43.64236" lon="3.84574">
        <ele>64.55</ele>
        <time>2016-03-06T14:24:55Z</time>
      </trkpt>
      <trkpt lat="43.64096" lon="3.84692">
        <ele>59.74</ele>
        <time>2016-03-06T14:25:04Z</time>
      </trkpt>
      <trkpt lat="43.63924" lon="3.84665">
        <ele>56.37</ele>
        <time>2016-03-06T14:25:12Z</time>
      </trkpt>
      <trkpt lat="43.6385" lon="3.84637">
        <ele>55.41</ele>
        <time>2016-03-06T14:25:15Z</time>
      </trkpt>
      <trkpt lat="43.63828" lon="3.84624">
        <ele>54.93</ele>
        <time>2016-03-06T14:25:16Z</time>
      </trkpt>
      <trkpt lat="43.63808" lon="3.84609">
        <ele>54.93</ele>
        <time>2016-03-06T14:25:17Z</time>
      </trkpt>
      <trkpt lat="43.6373" lon="3.84542">
        <ele>55.41</ele>
        <time>2016-03-06T14:25:22Z</time>
      </trkpt>
      <trkpt lat="43.63708" lon="3.84522">
        <ele>54.93</ele>
        <time>2016-03-06T14:25:27Z</time>
      </trkpt>
      <trkpt lat="43.63686" lon="3.84498">
        <ele>54.93</ele>
        <time>2016-03-06T14:25:35Z</time>
      </trkpt>
      <trkpt lat="43.63621" lon="3.84447">
        <ele>52.05</ele>
        <time>2016-03-06T14:25:42Z</time>
      </trkpt>
      <trkpt lat="43.6351" lon="3.8438">
        <ele>53.49</ele>
        <time>2016-03-06T14:25:51Z</time>
      </trkpt>
      <trkpt lat="43.63411" lon="3.84332">
        <ele>54.93</ele>
        <time>2016-03-06T14:25:58Z</time>
      </trkpt>
      <trkpt lat="43.634" lon="3.84327">
        <ele>54.93</ele>
        <time>2016-03-06T14:26:02Z</time>
      </trkpt>
      <trkpt lat="43.63396" lon="3.84324">
        <ele>54.45</ele>
        <time>2016-03-06T14:26:14Z</time>
      </trkpt>
      <trkpt lat="43.63368" lon="3.84313">
        <ele>53.97</ele>
        <time>2016-03-06T14:26:33Z</time>
      </trkpt>
      <trkpt lat="43.63271" lon="3.84291">
        <ele>53.01</ele>
        <time>2016-03-06T14:26:38Z</time>
      </trkpt>
      <trkpt lat="43.63184" lon="3.84239">
        <ele>52.53</ele>
        <time>2016-03-06T14:26:43Z</time>
      </trkpt>
      <trkpt lat="43.63174" lon="3.84229">
        <ele>53.01</ele>
        <time>2016-03-06T14:26:44Z</time>
      </trkpt>
      <trkpt lat="43.63167" lon="3.84217">
        <ele>53.49</ele>
        <time>2016-03-06T14:26:45Z</time>
      </trkpt>
      <trkpt lat="43.63163" lon="3.842">
        <ele>53.97</ele>
        <time>2016-03-06T14:26:46Z</time>
      </trkpt>
      <trkpt lat="43.63158" lon="3.84183">
        <ele>54.45</ele>
        <time>2016-03-06T14:26:47Z</time>
      </trkpt>
      <trkpt lat="43.63149" lon="3.84169">
        <ele>54.93</ele>
        <time>2016-03-06T14:26:48Z</time>
      </trkpt>
      <trkpt lat="43.63138" lon="3.84158">
        <ele>55.41</ele>
        <time>2016-03-06T14:26:49Z</time>
      </trkpt>
      <trkpt lat="43.63126" lon="3.84153">
        <ele>55.41</ele>
        <time>2016-03-06T14:26:50Z</time>
      </trkpt>
      <trkpt lat="43.63112" lon="3.84155">
        <ele>55.89</ele>
        <time>2016-03-06T14:26:51Z</time>
      </trkpt>
      <trkpt lat="43.63097" lon="3.84162">
        <ele>55.89</ele>
        <time>2016-03-06T14:26:52Z</time>
      </trkpt>
      <trkpt lat="43.63083" lon="3.84171">
        <ele>55.89</ele>
        <time>2016-03-06T14:26:53Z</time>
      </trkpt>
      <trkpt lat="43.63067" lon="3.84178">
        <ele>55.89</ele>
        <time>2016-03-06T14:26:54Z</time>
      </trkpt>
      <trkpt lat="43.63049" lon="3.84179">
        <ele>55.89</ele>
        <time>2016-03-06T14:26:55Z</time>
      </trkpt>
      <trkpt lat="43.63028" lon="3.84177">
        <ele>55.89</ele>
        <time>2016-03-06T14:26:56Z</time>
      </trkpt>
      <trkpt lat="43.63006" lon="3.84173">
        <ele>55.89</ele>
        <time>2016-03-06T14:26:57Z</time>
      </trkpt>
      <trkpt lat="43.62984" lon="3.84168">
        <ele>55.89</ele>
        <time>2016-03-06T14:26:58Z</time>
      </trkpt>
      <trkpt lat="43.62935" lon="3.84152">
        <ele>56.37</ele>
        <time>2016-03-06T14:27:00Z</time>
      </trkpt>
      <trkpt lat="43.62909" lon="3.84137">
        <ele>56.86</ele>
        <time>2016-03-06T14:27:01Z</time>
      </trkpt>
      <trkpt lat="43.62883" lon="3.84119">
        <ele>57.34</ele>
        <time>2016-03-06T14:27:02Z</time>
      </trkpt>
      <trkpt lat="43.62738" lon="3.83963">
        <ele>61.66</ele>
        <time>2016-03-06T14:27:08Z</time>
      </trkpt>
      <trkpt lat="43.62625" lon="3.83784">
        <ele>67.91</ele>
        <time>2016-03-06T14:27:14Z</time>
      </trkpt>
      <trkpt lat="43.62564" lon="3.8369">
        <ele>71.27</ele>
        <time>2016-03-06T14:27:19Z</time>
      </trkpt>
      <trkpt lat="43.62556" lon="3.83676">
        <ele>72.24</ele>
        <time>2016-03-06T14:27:20Z</time>
      </trkpt>
      <trkpt lat="43.6255" lon="3.83662">
        <ele>72.72</ele>
        <time>2016-03-06T14:27:21Z</time>
      </trkpt>
      <trkpt lat="43.62551" lon="3.83649">
        <ele>73.2</ele>
        <time>2016-03-06T14:27:22Z</time>
      </trkpt>
      <trkpt lat="43.62552" lon="3.83631">
        <ele>73.2</ele>
        <time>2016-03-06T14:27:23Z</time>
      </trkpt>
      <trkpt lat="43.62552" lon="3.83614">
        <ele>73.68</ele>
        <time>2016-03-06T14:27:24Z</time>
      </trkpt>
      <trkpt lat="43.62548" lon="3.836">
        <ele>74.64</ele>
        <time>2016-03-06T14:27:25Z</time>
      </trkpt>
      <trkpt lat="43.62542" lon="3.8359">
        <ele>74.16</ele>
        <time>2016-03-06T14:27:26Z</time>
      </trkpt>
      <trkpt lat="43.62534" lon="3.83579">
        <ele>74.64</ele>
        <time>2016-03-06T14:27:27Z</time>
      </trkpt>
      <trkpt lat="43.62522" lon="3.83572">
        <ele>74.16</ele>
        <time>2016-03-06T14:27:28Z</time>
      </trkpt>
      <trkpt lat="43.62512" lon="3.83562">
        <ele>73.68</ele>
        <time>2016-03-06T14:27:29Z</time>
      </trkpt>
      <trkpt lat="43.62503" lon="3.83546">
        <ele>73.68</ele>
        <time>2016-03-06T14:27:30Z</time>
      </trkpt>
      <trkpt lat="43.62495" lon="3.83526">
        <ele>74.64</ele>
        <time>2016-03-06T14:27:31Z</time>
      </trkpt>
      <trkpt lat="43.62486" lon="3.83503">
        <ele>74.16</ele>
        <time>2016-03-06T14:27:32Z</time>
      </trkpt>
      <trkpt lat="43.62474" lon="3.83481">
        <ele>74.16</ele>
        <time>2016-03-06T14:27:33Z</time>
      </trkpt>
      <trkpt lat="43.6246" lon="3.83459">
        <ele>74.16</ele>
        <time>2016-03-06T14:27:34Z</time>
      </trkpt>
      <trkpt lat="43.62444" lon="3.83439">
        <ele>73.68</ele>
        <time>2016-03-06T14:27:35Z</time>
      </trkpt>
      <trkpt lat="43.62426" lon="3.83422">
        <ele>73.68</ele>
        <time>2016-03-06T14:27:36Z</time>
      </trkpt>
      <trkpt lat="43.62409" lon="3.83408">
        <ele>73.2</ele>
        <time>2016-03-06T14:27:37Z</time>
      </trkpt>
      <trkpt lat="43.62391" lon="3.83398">
        <ele>73.2</ele>
        <time>2016-03-06T14:27:38Z</time>
      </trkpt>
      <trkpt lat="43.62374" lon="3.8339">
        <ele>73.2</ele>
        <time>2016-03-06T14:27:39Z</time>
      </trkpt>
      <trkpt lat="43.6236" lon="3.83381">
        <ele>73.2</ele>
        <time>2016-03-06T14:27:40Z</time>
      </trkpt>
      <trkpt lat="43.62349" lon="3.83373">
        <ele>73.2</ele>
        <time>2016-03-06T14:27:41Z</time>
      </trkpt>
      <trkpt lat="43.62343" lon="3.83359">
        <ele>73.2</ele>
        <time>2016-03-06T14:27:42Z</time>
      </trkpt>
      <trkpt lat="43.62338" lon="3.83345">
        <ele>73.2</ele>
        <time>2016-03-06T14:27:43Z</time>
      </trkpt>
      <trkpt lat="43.62332" lon="3.83334">
        <ele>73.2</ele>
        <time>2016-03-06T14:27:44Z</time>
      </trkpt>
      <trkpt lat="43.62323" lon="3.83327">
        <ele>72.72</ele>
        <time>2016-03-06T14:27:45Z</time>
      </trkpt>
      <trkpt lat="43.62312" lon="3.83327">
        <ele>72.72</ele>
        <time>2016-03-06T14:27:46Z</time>
      </trkpt>
      <trkpt lat="43.62301" lon="3.83333">
        <ele>72.72</ele>
        <time>2016-03-06T14:27:47Z</time>
      </trkpt>
      <trkpt lat="43.62292" lon="3.83345">
        <ele>72.72</ele>
        <time>2016-03-06T14:27:48Z</time>
      </trkpt>
      <trkpt lat="43.62287" lon="3.83361">
        <ele>72.72</ele>
        <time>2016-03-06T14:27:49Z</time>
      </trkpt>
      <trkpt lat="43.62285" lon="3.83379">
        <ele>73.2</ele>
        <time>2016-03-06T14:27:50Z</time>
      </trkpt>
      <trkpt lat="43.62287" lon="3.83397">
        <ele>72.72</ele>
        <time>2016-03-06T14:27:51Z</time>
      </trkpt>
      <trkpt lat="43.62287" lon="3.83416">
        <ele>72.72</ele>
        <time>2016-03-06T14:27:52Z</time>
      </trkpt>
      <trkpt lat="43.62284" lon="3.83437">
        <ele>73.68</ele>
        <time>2016-03-06T14:27:53Z</time>
      </trkpt>
      <trkpt lat="43.62278" lon="3.83455">
        <ele>74.16</ele>
        <time>2016-03-06T14:27:54Z</time>
      </trkpt>
      <trkpt lat="43.62271" lon="3.83471">
        <ele>75.12</ele>
        <time>2016-03-06T14:27:55Z</time>
      </trkpt>
      <trkpt lat="43.62196" lon="3.83604">
        <ele>77.52</ele>
        <time>2016-03-06T14:28:05Z</time>
      </trkpt>
      <trkpt lat="43.62094" lon="3.8368">
        <ele>78.97</ele>
        <time>2016-03-06T14:28:16Z</time>
      </trkpt>
      <trkpt lat="43.62013" lon="3.8375">
        <ele>79.45</ele>
        <time>2016-03-06T14:28:26Z</time>
      </trkpt>
      <trkpt lat="43.62001" lon="3.83758">
        <ele>78.97</ele>
        <time>2016-03-06T14:28:33Z</time>
      </trkpt>
      <trkpt lat="43.61988" lon="3.83768">
        <ele>78.97</ele>
        <time>2016-03-06T14:28:54Z</time>
      </trkpt>
      <trkpt lat="43.6198" lon="3.83779">
        <ele>80.41</ele>
        <time>2016-03-06T14:29:19Z</time>
      </trkpt>
      <trkpt lat="43.61977" lon="3.83785">
        <ele>79.93</ele>
        <time>2016-03-06T14:29:20Z</time>
      </trkpt>
      <trkpt lat="43.61976" lon="3.83792">
        <ele>79.93</ele>
        <time>2016-03-06T14:29:21Z</time>
      </trkpt>
      <trkpt lat="43.61978" lon="3.838">
        <ele>79.93</ele>
        <time>2016-03-06T14:29:22Z</time>
      </trkpt>
      <trkpt lat="43.61982" lon="3.83808">
        <ele>79.45</ele>
        <time>2016-03-06T14:29:23Z</time>
      </trkpt>
      <trkpt lat="43.61988" lon="3.83816">
        <ele>79.45</ele>
        <time>2016-03-06T14:29:24Z</time>
      </trkpt>
      <trkpt lat="43.61996" lon="3.83824">
        <ele>79.45</ele>
        <time>2016-03-06T14:29:25Z</time>
      </trkpt>
      <trkpt lat="43.6208" lon="3.83923">
        <ele>76.08</ele>
        <time>2016-03-06T14:29:34Z</time>
      </trkpt>
      <trkpt lat="43.62095" lon="3.8395">
        <ele>73.68</ele>
        <time>2016-03-06T14:29:36Z</time>
      </trkpt>
      <trkpt lat="43.621" lon="3.83963">
        <ele>72.72</ele>
        <time>2016-03-06T14:29:37Z</time>
      </trkpt>
      <trkpt lat="43.62102" lon="3.83977">
        <ele>72.24</ele>
        <time>2016-03-06T14:29:38Z</time>
      </trkpt>
      <trkpt lat="43.62111" lon="3.84036">
        <ele>67.43</ele>
        <time>2016-03-06T14:29:43Z</time>
      </trkpt>
      <trkpt lat="43.62107" lon="3.84042">
        <ele>66.47</ele>
        <time>2016-03-06T14:29:44Z</time>
      </trkpt>
      <trkpt lat="43.62103" lon="3.84047">
        <ele>66.47</ele>
        <time>2016-03-06T14:29:45Z</time>
      </trkpt>
      <trkpt lat="43.62098" lon="3.84049">
        <ele>66.47</ele>
        <time>2016-03-06T14:29:46Z</time>
      </trkpt>
      <trkpt lat="43.62094" lon="3.84051">
        <ele>66.47</ele>
        <time>2016-03-06T14:29:47Z</time>
      </trkpt>
      <trkpt lat="43.62086" lon="3.84051">
        <ele>66.95</ele>
        <time>2016-03-06T14:29:49Z</time>
      </trkpt>
      <trkpt lat="43.62084" lon="3.84039">
        <ele>67.91</ele>
        <time>2016-03-06T14:29:56Z</time>
      </trkpt>
      <trkpt lat="43.6208" lon="3.84034">
        <ele>69.35</ele>
        <time>2016-03-06T14:31:42Z</time>
      </trkpt>
      <trkpt lat="43.62085" lon="3.84026">
        <ele>69.83</ele>
        <time>2016-03-06T14:32:07Z</time>
      </trkpt>
      <trkpt lat="43.62087" lon="3.84018">
        <ele>70.31</ele>
        <time>2016-03-06T14:32:09Z</time>
      </trkpt>
      <trkpt lat="43.62085" lon="3.84015">
        <ele>69.35</ele>
        <time>2016-03-06T14:32:24Z</time>
      </trkpt>
      <trkpt lat="43.62085" lon="3.84015">
        <ele>68.39</ele>
        <time>2016-03-06T14:32:29Z</time>
      </trkpt>
    </trkseg>
  </trk>
</gpx>